# Wetter Temperatur Luftdruck Luftfeuchtigkeit Sichtweite Windgeschwindigkeit Windrichtung Zeit
1 Clouds -6 990 92 16093 1.05 3.559 19:41 17.10.2019
2 Clouds -6 990 92 16093 1.05 3.559 19:20 17.10.2019
3 Clouds -6 990 92 16093 1.05 3.559 19:20 17.10.2019
4 Clouds -6 990 92 16093 1.05 3.559 19:20 17.10.2019
5 Clouds -6 990 85 16093 1.5 360 18:58 17.10.2019
6 Clouds -6 990 85 16093 1.5 360 18:38 17.10.2019
7 Clouds -6 990 85 16093 1.5 360 18:20 17.10.2019
8 Clouds -6 990 85 16093 1.5 360 18:20 17.10.2019
9 Clouds -5 990 85 16093 2.1 350 17:43 17.10.2019
10 Clouds -5 990 85 16093 2.1 350 17:24 17.10.2019
11 Clouds -6 990 85 16093 2.1 10 16:58 17.10.2019
12 Clouds -6 990 85 16093 2.1 10 16:40 17.10.2019
13 Clouds -6 990 85 16093 2.1 10 16:40 17.10.2019
14 Clouds -5 990 85 16093 2.1 10 16:18 17.10.2019
15 Clear -6 990 85 16093 2.6 20 15:56 17.10.2019
16 Clear -6 990 85 16093 2.6 20 15:38 17.10.2019
17 Clear -5 990 85 16093 2.6 20 15:20 17.10.2019
18 Clear -6 989 79 16093 1.45 28 14:56 17.10.2019
19 Clear -5 989 79 16093 1.533 30 14:37 17.10.2019
20 Clear -5 989 79 16093 1.533 30 14:19 17.10.2019
21 Clouds -5 989 79 16093 2.1 10 13:39 17.10.2019
22 Clouds -5 989 79 16093 2.1 10 13:20 17.10.2019
23 Clouds -4 989 79 16093 1.5 20 12:57 17.10.2019
24 Clouds -4 989 79 16093 1.5 20 12:37 17.10.2019
25 Clouds -4 989 79 16093 1.5 20 12:18 17.10.2019
26 Clouds -4 989 79 16093 1.5 20 12:18 17.10.2019
27 Clouds -4 988 79 16093 2.1 340 11:41 17.10.2019
28 Clouds -4 988 79 16093 2.1 340 11:41 17.10.2019
29 Clouds -4 988 79 16093 2.1 340 11:22 17.10.2019
30 Clear -4 988 73 16093 3.1 340 10:59 17.10.2019
31 Clear -4 988 73 16093 3.1 340 10:41 17.10.2019
32 Clear -4 988 73 16093 3.1 340 10:19 17.10.2019
33 Clear -4 988 73 16093 1.5 20 09:56 17.10.2019
34 Clear -4 988 73 16093 1.5 20 09:37 17.10.2019
35 Clear -4 988 73 16093 1.5 20 09:19 17.10.2019
36 Clouds -2 988 68 16093 1.5 30 08:48 17.10.2019
37 Clouds -3 988 68 16093 1.5 30 08:27 17.10.2019
38 Clear -3 988 68 16093 2.6 50 07:59 17.10.2019
39 Clear -2 988 68 16093 2.6 50 07:41 17.10.2019
40 Clear -2 988 68 16093 2.6 50 07:21 17.10.2019
41 Clear -2 988 68 16093 2.6 50 07:21 17.10.2019
42 Clouds -2 988 68 16093 2.1 60 06:51 17.10.2019
43 Clouds -2 988 68 16093 2.1 60 06:31 17.10.2019
44 Clouds -1 987 58 16093 2.6 80 05:59 17.10.2019
45 Clouds -1 987 58 16093 2.6 80 05:37 17.10.2019
46 Clouds 0 987 58 16093 2.6 80 05:19 17.10.2019
47 Clouds -1 987 63 16093 3.6 90 04:45 17.10.2019
48 Clear 0 987 68 16093 5.1 90 03:45 17.10.2019
49 Clear -1 987 63 16093 5.1 80 01:56 17.10.2019
50 Clouds -1 988 68 16093 5.1 80 00:42 17.10.2019
51 Clouds -1 988 68 16093 5.1 80 00:21 17.10.2019
52 Clouds -1 988 63 16093 4.6 80 23:59 16.10.2019
53 Clouds -1 988 63 16093 4.6 80 23:40 16.10.2019
54 Clouds -2 988 63 16093 4.6 80 23:18 16.10.2019
55 Clouds -2 988 63 16093 4.6 70 22:54 16.10.2019
56 Clouds -2 988 63 16093 4.6 70 22:36 16.10.2019
57 Clouds -2 988 63 16093 4.6 70 22:18 16.10.2019
58 Clouds -2 988 63 16093 4.6 70 21:54 16.10.2019
59 Clouds -2 988 63 16093 4.6 70 21:54 16.10.2019
60 Clouds -2 988 63 16093 4.6 70 21:54 16.10.2019
61 Clouds -2 988 63 16093 4.6 70 21:36 16.10.2019
62 Clouds -2 988 63 16093 4.6 70 21:18 16.10.2019
63 Clouds -2 988 58 16093 4.6 60 20:55 16.10.2019
64 Clouds -2 988 58 16093 4.6 60 20:55 16.10.2019
65 Clouds -2 988 58 16093 4.6 60 20:37 16.10.2019
66 Clouds -2 988 58 16093 4.6 60 20:37 16.10.2019
67 Clouds -2 988 58 16093 4.6 60 20:19 16.10.2019
68 Clouds -2 988 58 16093 5.7 70 19:40 16.10.2019
69 Clouds -2 988 58 16093 5.7 70 19:40 16.10.2019
70 Clouds -2 988 58 16093 5.7 70 19:21 16.10.2019
71 -273 0 0 0 0 0 18:58 16.10.2019
72 Clouds -2 988 63 16093 6.2 80 18:58 16.10.2019
73 Clouds -2 988 63 16093 6.2 80 18:38 16.10.2019
74 Clouds -2 988 63 16093 6.2 80 18:18 16.10.2019
75 Clouds -2 988 63 16093 6.2 80 18:18 16.10.2019
76 Clouds -2 988 63 16093 6.2 80 18:18 16.10.2019
77 Clouds -2 988 63 16093 6.2 70 17:56 16.10.2019
78 Clouds -2 988 63 16093 6.2 70 17:37 16.10.2019
79 Clouds -2 988 63 16093 6.2 70 17:37 16.10.2019
80 Clouds -2 988 63 16093 6.2 70 17:19 16.10.2019
81 Clouds -2 989 63 16093 6.7 70 16:56 16.10.2019
82 Clouds -2 989 63 16093 6.7 70 16:38 16.10.2019
83 Clouds -2 989 63 16093 6.7 70 16:19 16.10.2019
84 Clouds -2 989 68 16093 6.2 70 15:41 16.10.2019
85 Clouds -1 990 63 16093 7.2 70 15:19 16.10.2019
86 Clouds -1 990 63 16093 7.2 70 14:59 16.10.2019
87 Clouds -1 990 63 16093 7.2 70 14:40 16.10.2019
88 Clouds -1 990 63 16093 7.2 70 14:21 16.10.2019
89 Clouds -1 990 63 16093 7.2 70 13:58 16.10.2019
90 Clouds -1 990 68 16093 7.2 80 13:40 16.10.2019
91 Clouds -1 990 68 16093 7.2 80 13:22 16.10.2019
92 Clouds -1 990 63 16093 7.7 70 12:44 16.10.2019
93 Clouds -1 990 63 16093 7.7 70 12:44 16.10.2019
94 Clouds -1 990 63 16093 7.7 70 12:20 16.10.2019
95 Clouds 0 990 63 16093 7.7 70 11:58 16.10.2019
96 Clouds -1 990 63 16093 6.7 70 11:40 16.10.2019
97 Clouds -1 990 63 16093 6.7 70 11:18 16.10.2019
98 Clouds 0 990 63 16093 6.7 80 10:37 16.10.2019
99 Clouds 0 990 63 16093 6.7 80 10:19 16.10.2019
100 Clouds -1 991 63 16093 8.2 80 09:41 16.10.2019
101 Clouds 0 991 63 16093 8.2 80 09:22 16.10.2019
102 Clouds 0 991 63 16093 8.2 80 08:58 16.10.2019
103 Clouds -1 991 58 16093 6.7 80 08:40 16.10.2019
104 Clouds 0 991 58 16093 6.7 80 08:21 16.10.2019
105 Clouds -1 991 58 16093 6.2 70 07:45 16.10.2019
106 Clouds 0 991 58 16093 6.2 70 07:24 16.10.2019
107 Clouds 0 991 58 16093 6.2 70 06:56 16.10.2019
108 Clouds 0 991 58 16093 6.2 70 06:56 16.10.2019
109 Clear 0 991 58 16093 6.2 80 06:35 16.10.2019
110 Clear 1 991 64 16093 6.2 80 05:39 16.10.2019
111 Clear 1 991 59 16093 10.8 110 02:57 16.10.2019
112 Clear 1 991 64 16093 9.8 90 02:37 16.10.2019
113 Clouds 1 992 64 16093 10.3 110 01:18 16.10.2019
114 Clouds 1 992 53 16093 8.7 80 00:46 16.10.2019
115 Clouds 1 992 53 16093 8.7 80 00:27 16.10.2019
116 Clouds 0 992 54 16093 9.8 90 23:40 15.10.2019
117 Clouds 0 992 54 16093 9.8 90 23:22 15.10.2019
118 Clouds 0 992 54 16093 9.8 90 22:56 15.10.2019
119 Clouds 0 992 54 16093 9.3 70 22:38 15.10.2019
120 Clouds 0 992 54 16093 9.3 70 22:19 15.10.2019
121 Clouds -1 992 54 16093 9.3 70 21:56 15.10.2019
122 Clouds -1 992 58 16093 7.7 70 21:38 15.10.2019
123 Clouds -1 992 58 16093 7.7 70 21:19 15.10.2019
124 Clouds -1 992 58 16093 7.7 70 20:57 15.10.2019
125 Clouds -2 992 58 16093 7.2 70 20:39 15.10.2019
126 Clouds -2 992 58 16093 7.2 70 20:20 15.10.2019
127 Clouds -2 992 58 16093 7.2 70 20:20 15.10.2019
128 Clouds -1 992 58 16093 7.2 70 19:57 15.10.2019
129 Clear -2 992 58 16093 9.3 80 19:39 15.10.2019
130 Clear -2 992 58 16093 9.3 80 19:19 15.10.2019
131 Clear -1 992 54 16093 8.7 80 18:47 15.10.2019
132 Clear -1 992 54 16093 8.7 80 18:28 15.10.2019
133 Clear 0 992 54 16093 8.7 80 17:59 15.10.2019
134 Clear -1 992 54 16093 7.7 80 17:39 15.10.2019
135 Clear 0 992 54 16093 7.7 80 17:20 15.10.2019
136 Clear 0 992 54 16093 7.7 80 16:55 15.10.2019
137 Clear 0 993 58 16093 8.2 90 16:37 15.10.2019
138 Clear 0 993 58 16093 8.2 90 16:19 15.10.2019
139 Clear -1 993 63 16093 7.2 80 15:41 15.10.2019
140 Clear -1 993 63 16093 7.2 80 15:41 15.10.2019
141 Clear 0 993 63 16093 7.2 80 15:20 15.10.2019
142 Clear 0 993 63 16093 7.2 80 14:58 15.10.2019
143 Clear -1 993 63 16093 9.3 80 14:38 15.10.2019
144 Clear 0 993 63 16093 9.3 80 14:20 15.10.2019
145 Clear 0 993 63 16093 9.3 80 13:55 15.10.2019
146 Clear 0 994 68 16093 8.2 70 13:37 15.10.2019
147 Clear 0 994 68 16093 8.2 70 13:18 15.10.2019
148 Clear -1 994 68 16093 7.7 80 12:41 15.10.2019
149 Clear 0 994 68 16093 7.7 80 12:21 15.10.2019
150 Clear 0 994 69 16093 9.8 80 11:56 15.10.2019
151 Clear 0 994 69 16093 9.8 80 11:37 15.10.2019
152 Clear 0 994 69 16093 9.8 80 11:18 15.10.2019
153 Clouds 0 995 80 16093 10.8 70 10:43 15.10.2019
154 Clouds 0 995 80 16093 10.8 70 10:19 15.10.2019
155 Clouds 0 995 80 16093 10.8 70 09:57 15.10.2019
156 Clear 0 995 69 16093 8.2 70 09:37 15.10.2019
157 Clear 0 995 69 16093 8.2 70 09:37 15.10.2019
158 Clear 0 995 71 16093 8.2 70 09:19 15.10.2019
159 Clear 1 995 71 16093 8.7 70 08:43 15.10.2019
160 Clear 0 995 71 16093 8.7 70 08:22 15.10.2019
161 Clear 0 995 71 16093 8.7 70 07:58 15.10.2019
162 Clear 1 996 74 16093 9.3 90 07:39 15.10.2019
163 Clear 1 996 74 16093 9.3 90 07:19 15.10.2019
164 Clear 2 996 69 16093 8.2 90 06:45 15.10.2019
165 Clear 2 996 69 16093 8.2 90 06:26 15.10.2019
166 Clear 2 997 74 16093 8.2 90 05:41 15.10.2019
167 Clear 2 997 74 16093 8.2 90 05:23 15.10.2019
168 Clear 3 998 74 16093 11.3 90 04:32 15.10.2019
169 Clouds 3 998 69 16093 10.8 90 03:37 15.10.2019
170 Clouds 3 998 69 16093 10.8 90 03:37 15.10.2019
171 Clear 3 999 74 16093 11.3 90 02:29 15.10.2019
172 Clear 3 1000 74 16093 11.3 100 01:48 15.10.2019
173 Clear 3 1000 74 16093 11.3 100 01:19 15.10.2019
174 Clouds 3 1001 74 16093 12.9 90 00:49 15.10.2019
175 Clouds 3 1001 74 16093 12.9 90 00:21 15.10.2019
176 Clouds 2 1002 69 16093 8.7 90 23:45 14.10.2019
177 Clouds 2 1002 69 16093 8.7 90 23:20 14.10.2019
178 Clouds 2 1002 69 16093 8.7 90 23:20 14.10.2019
179 Clouds 2 1002 69 16093 8.7 90 22:57 14.10.2019
180 Clouds 1 1003 67 16093 7.7 80 22:38 14.10.2019
181 Clouds 1 1003 67 16093 7.7 80 22:18 14.10.2019
182 Clouds 1 1003 67 16093 7.7 80 22:18 14.10.2019
183 Clouds 1 1003 67 16093 7.7 80 21:55 14.10.2019
184 Clouds 0 1004 80 16093 8.2 80 21:36 14.10.2019
185 Clouds 0 1004 80 16093 8.2 80 21:18 14.10.2019
186 Clouds 0 1004 80 16093 8.2 80 20:55 14.10.2019
187 -273 0 0 0 0 0 20:54 14.10.2019
188 Clouds 0 1004 80 16093 8.2 80 20:54 14.10.2019
189 Clouds 0 1005 80 16093 8.2 70 20:36 14.10.2019
190 Clouds 0 1005 80 16093 8.2 70 20:18 14.10.2019
191 Clouds -1 1006 80 16093 8.2 70 19:41 14.10.2019
192 Clouds -1 1006 80 16093 8.2 70 19:41 14.10.2019
193 Clouds 0 1006 80 16093 8.2 70 19:23 14.10.2019
194 Clouds 0 1006 80 16093 8.2 70 19:23 14.10.2019
195 Clouds 0 1006 80 16093 8.2 70 18:58 14.10.2019
196 Clear -1 1006 80 16093 8.2 70 18:39 14.10.2019
197 Clear -1 1006 80 16093 8.2 70 18:39 14.10.2019
198 Clear 0 1006 80 16093 8.2 70 18:19 14.10.2019
199 Clouds -1 1007 80 16093 6.7 70 17:57 14.10.2019
200 Clouds -1 1007 80 16093 6.7 70 17:38 14.10.2019
201 Clouds -1 1007 80 16093 6.7 70 17:20 14.10.2019
202 Clouds -1 1008 80 16093 8.2 80 16:44 14.10.2019
203 Clouds -1 1008 80 16093 8.2 80 16:21 14.10.2019
204 Clouds -1 1009 86 16093 5.7 70 15:44 14.10.2019
205 Clouds -1 1009 86 16093 5.7 70 15:25 14.10.2019
206 Clouds -1 1010 86 16093 6.2 70 14:58 14.10.2019
207 Clouds -1 1010 86 16093 6.2 70 14:39 14.10.2019
208 Clouds -1 1010 86 16093 6.2 70 14:20 14.10.2019
209 Clouds 0 1011 82 16093 5.7 70 13:44 14.10.2019
210 Clouds 0 1011 83 16093 5.7 70 13:22 14.10.2019
211 Clouds 1 1011 80 16093 5.1 70 12:56 14.10.2019
212 Clouds 1 1011 80 16093 5.1 70 12:56 14.10.2019
213 Clouds 1 1011 80 16093 5.1 70 12:37 14.10.2019
214 Clouds 1 1011 80 16093 5.1 70 12:18 14.10.2019
215 Clouds 0 1012 86 16093 5.7 70 11:45 14.10.2019
216 Clouds 0 1012 86 16093 5.7 70 11:26 14.10.2019
217 Clouds 0 1013 86 16093 5.7 50 10:57 14.10.2019
218 Clouds 0 1013 86 16093 5.7 50 10:38 14.10.2019
219 Clouds 0 1013 86 16093 5.7 50 10:20 14.10.2019
220 Clouds -1 1013 80 16093 4.6 60 09:54 14.10.2019
221 Clouds -1 1013 80 16093 4.6 60 09:36 14.10.2019
222 Clouds -1 1013 80 16093 4.6 60 09:18 14.10.2019
223 Clouds 0 1014 85 16093 4.6 80 08:42 14.10.2019
224 Clouds 0 1014 85 16093 4.6 80 08:20 14.10.2019
225 Clouds 1 1014 80 16093 5.7 90 07:41 14.10.2019
226 Clouds 1 1014 80 16093 5.7 90 07:41 14.10.2019
227 Clouds 1 1014 80 16093 5.7 90 07:18 14.10.2019
228 Clouds 1 1014 86 16093 4.6 80 06:38 14.10.2019
229 Clouds 1 1014 86 16093 4.6 80 06:20 14.10.2019
230 Clouds 1 1015 86 16093 4.1 70 05:46 14.10.2019
231 Rain 2 1015 74 16093 5.1 90 04:42 14.10.2019
232 Clouds 2 1016 74 16093 4.1 90 03:27 14.10.2019
233 Clouds 2 1017 74 16093 4.6 90 02:42 14.10.2019
234 Clouds 2 1018 69 16093 3.6 80 01:23 14.10.2019
235 Clouds 2 1018 74 16093 2.6 80 00:53 14.10.2019
236 Clouds 2 1018 74 16093 2.6 80 00:19 14.10.2019
237 Clouds 1 1019 80 16093 3.43 73.198 23:45 13.10.2019
238 Clouds 1 1019 80 16093 3.43 73.198 23:20 13.10.2019
239 Clouds 0 1019 71 16093 3.43 73.198 22:58 13.10.2019
240 Clouds 0 1019 71 16093 3.43 73.198 22:40 13.10.2019
241 Clouds 0 1019 71 16093 3.43 73.198 22:21 13.10.2019
242 Clouds 0 1019 71 16093 2.1 340 21:58 13.10.2019
243 Clouds 0 1019 71 16093 2.1 340 21:37 13.10.2019
244 Clouds 0 1019 77 16093 2.1 340 21:19 13.10.2019
245 Clouds 0 1019 77 16093 2.1 340 21:19 13.10.2019
246 Clouds 0 1019 77 16093 3.1 70 20:57 13.10.2019
247 Clouds 0 1019 75 16093 3.1 70 20:38 13.10.2019
248 Clouds 0 1019 75 16093 3.1 70 20:20 13.10.2019
249 Clouds -1 1020 100 16093 2.1 80 19:58 13.10.2019
250 Clouds -1 1020 100 16093 2.1 80 19:39 13.10.2019
251 Clouds -1 1020 100 16093 2.1 80 19:39 13.10.2019
252 Clouds -1 1020 100 16093 2.1 80 19:21 13.10.2019
253 Clouds -1 1020 100 16093 2.6 100 18:56 13.10.2019
254 -273 0 0 0 0 0 18:56 13.10.2019
255 Clouds -1 1020 100 16093 2.6 100 18:37 13.10.2019
256 Clouds 0 1020 75 16093 2.1 60 18:19 13.10.2019
257 Clouds 0 1021 75 16093 1.5 280 17:57 13.10.2019
258 Clouds 0 1021 75 16093 1.5 280 17:38 13.10.2019
259 Clouds 0 1021 75 16093 1.5 280 17:20 13.10.2019
260 Snow -1 1021 100 12874 1.5 350 16:41 13.10.2019
261 Clouds -1 1021 100 16093 1.01 283.981 16:18 13.10.2019
262 Clouds 0 1021 75 16093 1.5 340 15:57 13.10.2019
263 Clouds 0 1021 75 16093 1.5 340 15:38 13.10.2019
264 Clouds 0 1021 77 16093 1.5 40 15:18 13.10.2019
265 Clouds 0 1022 77 16093 1.62 271.272 14:57 13.10.2019
266 Clouds 0 1022 77 16093 1.62 271.272 14:38 13.10.2019
267 Clouds 0 1022 77 16093 1.62 271.272 14:19 13.10.2019
268 Clouds 0 1022 77 16093 1.5 330 13:41 13.10.2019
269 Clouds 0 1022 78 16093 1.5 330 13:23 13.10.2019
270 Clouds 0 1022 78 16093 2.6 320 12:59 13.10.2019
271 Clouds 0 1022 78 16093 2.6 320 12:39 13.10.2019
272 Clouds 0 1022 79 16093 2.6 320 12:20 13.10.2019
273 Clouds 0 1022 79 16093 2.1 340 11:58 13.10.2019
274 Clouds 0 1022 79 16093 2.1 340 11:39 13.10.2019
275 Clouds 0 1022 79 16093 2.1 340 11:20 13.10.2019
276 Clouds 1 1022 86 16093 3.1 310 10:57 13.10.2019
277 Clouds 1 1022 86 16093 3.1 310 10:38 13.10.2019
278 Clouds 1 1022 86 16093 3.1 310 10:20 13.10.2019
279 Clouds 1 1022 86 16093 2.6 300 09:39 13.10.2019
280 Clouds 1 1022 86 16093 2.1 310 09:21 13.10.2019
281 Clouds 1 1023 86 16093 2.6 320 08:44 13.10.2019
282 Clouds 1 1023 86 16093 2.6 330 08:26 13.10.2019
283 Clouds 1 1023 86 16093 2.6 290 07:52 13.10.2019
284 Clouds 1 1023 86 16093 5.1 290 07:33 13.10.2019
285 Clouds 1 1023 86 16093 5.1 290 07:33 13.10.2019
286 -273 0 0 0 0 0 06:54 13.10.2019
287 Clouds 1 1023 80 16093 3.1 300 06:54 13.10.2019
288 Clouds 2 1023 74 16093 5.1 270 06:24 13.10.2019
289 Clouds 2 1023 74 16093 5.1 270 06:24 13.10.2019
290 Clouds 2 1023 74 16093 5.1 270 06:24 13.10.2019
291 Clouds 2 1023 74 16093 4.6 260 05:22 13.10.2019
292 Clouds 2 1023 74 16093 4.1 260 04:35 13.10.2019
293 Clouds 2 1024 74 16093 4.6 260 03:34 13.10.2019
294 Clouds 2 1024 69 16093 5.1 260 02:31 13.10.2019
295 Clouds 2 1024 69 16093 5.1 260 02:31 13.10.2019
296 Clouds 2 1024 80 16093 4.6 240 01:37 13.10.2019
297 Clouds 2 1024 69 16093 4.6 270 00:56 13.10.2019
298 Clouds 2 1024 69 16093 4.6 270 00:38 13.10.2019
299 Clouds 2 1024 69 16093 4.6 270 00:19 13.10.2019
300 Clouds 2 1024 69 16093 4.6 250 23:42 12.10.2019
301 Clouds 2 1024 69 16093 4.6 250 23:42 12.10.2019
302 Clouds 2 1024 69 16093 4.6 250 23:23 12.10.2019
303 Clouds 1 1024 80 16093 4.1 270 22:59 12.10.2019
304 Clouds 1 1024 80 16093 4.1 270 22:40 12.10.2019
305 Clouds 1 1024 80 16093 4.1 270 22:22 12.10.2019
306 Clouds 1 1024 74 16093 2.6 280 21:58 12.10.2019
307 Clouds 1 1024 74 16093 2.6 280 21:40 12.10.2019
308 Clouds 1 1024 74 16093 2.6 280 21:21 12.10.2019
309 Clouds 1 1024 74 16093 3.63 268.943 20:54 12.10.2019
310 Clouds 1 1024 74 16093 3.63 268.943 20:54 12.10.2019
311 Clouds 1 1024 74 16093 3.63 268.943 20:54 12.10.2019
312 Clouds 1 1024 74 16093 3.63 268.943 20:36 12.10.2019
313 Clouds 1 1024 74 16093 3.63 268.943 20:18 12.10.2019
314 Clouds 0 1024 75 16093 1.5 0 19:36 12.10.2019
315 Clouds 0 1024 75 16093 1.5 0 19:18 12.10.2019
316 Clouds -1 1024 86 16093 1.5 350 18:43 12.10.2019
317 Clouds -1 1024 86 16093 1.5 350 18:24 12.10.2019
318 Clouds -2 1024 92 16093 1.5 340 17:46 12.10.2019
319 Clouds -2 1024 92 16093 1.5 340 17:22 12.10.2019
320 Clouds -2 1024 92 16093 1.5 330 16:59 12.10.2019
321 Clouds -2 1024 92 16093 1.5 330 16:40 12.10.2019
322 Clouds -2 1024 92 16093 1.5 330 16:21 12.10.2019
323 Clouds -3 1024 100 16093 3.14 279.993 15:56 12.10.2019
324 Clouds -3 1024 100 16093 3.14 279.993 15:37 12.10.2019
325 Clouds -3 1024 100 16093 2.54 281.536 15:18 12.10.2019
326 Clouds -2 1024 92 16093 2.54 281.536 14:40 12.10.2019
327 Clouds -2 1024 92 16093 2.54 281.536 14:20 12.10.2019
328 Clouds -2 1024 86 16093 4.1 300 13:51 12.10.2019
329 -273 0 0 0 0 0 13:32 12.10.2019
330 Clouds -3 1024 92 16093 2.64 284.089 12:56 12.10.2019
331 Clouds -3 1024 92 16093 2.64 284.089 12:38 12.10.2019
332 Clouds -3 1024 92 16093 2.64 284.089 12:38 12.10.2019
333 Clouds -3 1024 92 16093 1.77 317.742 12:20 12.10.2019
334 Clouds -3 1023 92 16093 1.77 317.742 11:45 12.10.2019
335 -273 0 0 0 0 0 11:24 12.10.2019
336 Clear -4 1023 85 16093 1.5 10 10:58 12.10.2019
337 Clear -4 1023 85 16093 1.5 10 10:39 12.10.2019
338 Clear -4 1023 85 16093 1.5 10 10:20 12.10.2019
339 Clouds -4 1022 85 16093 1.5 360 09:57 12.10.2019
340 Clouds -4 1022 85 16093 1.5 360 09:57 12.10.2019
341 Clouds -4 1022 85 16093 1.5 360 09:38 12.10.2019
342 Clouds -4 1022 85 16093 1.5 360 09:19 12.10.2019
343 Clouds -4 1022 85 16093 1.5 360 09:19 12.10.2019
344 Clouds -2 1022 79 16093 3.1 320 08:44 12.10.2019
345 Clouds -2 1022 79 16093 3.1 320 08:24 12.10.2019
346 Clouds -2 1022 79 16093 2.1 340 07:50 12.10.2019
347 Clouds -2 1022 79 16093 2.1 340 07:30 12.10.2019
348 Clouds -1 1022 80 16093 2.6 10 06:28 12.10.2019
349 Clouds 3 1021 59 16093 3.1 350 05:43 12.10.2019
350 Clouds 3 1021 59 16093 4.1 10 04:34 12.10.2019
351 Clouds 3 1021 59 16093 3.6 350 03:53 12.10.2019
352 Clear 3 1021 59 16093 2.6 360 02:50 12.10.2019
353 Clouds 3 1021 64 16093 3.1 340 01:33 12.10.2019
354 Clear 3 1020 74 16093 2.6 330 00:55 12.10.2019
355 Clear 3 1020 74 16093 2.6 330 00:37 12.10.2019
356 Clear 2 1020 80 16093 2.1 320 23:55 11.10.2019
357 Clear 2 1020 80 16093 2.1 320 23:36 11.10.2019
358 Clear 2 1020 80 16093 2.1 320 23:18 11.10.2019
359 Clear 1 1020 72 16093 2.26 341.709 22:38 11.10.2019
360 Clear 0 1020 72 16093 2.26 341.709 22:19 11.10.2019
361 Clear -1 1020 86 16093 2.26 341.709 21:43 11.10.2019
362 Clear -2 1020 86 16093 2.72 321.071 21:21 11.10.2019
363 Clear -3 1019 92 16093 2.1 280 20:57 11.10.2019
364 Clear -3 1019 92 16093 2.1 280 20:39 11.10.2019
365 Clear -2 1019 92 16093 2.1 280 20:20 11.10.2019
366 Clear -2 1019 92 16093 2.1 280 20:20 11.10.2019
367 Clear -3 1019 92 16093 2.1 300 19:55 11.10.2019
368 Clear -3 1019 92 16093 2.1 300 19:37 11.10.2019
369 Clear -3 1019 92 16093 2.1 300 19:18 11.10.2019
370 Clear -3 1019 92 16093 2.1 300 19:18 11.10.2019
371 Clear -3 1019 92 16093 2.1 300 19:18 11.10.2019
372 Clear -3 1019 92 16093 2.1 300 19:18 11.10.2019
373 Clear -3 1019 86 16093 3.1 320 18:56 11.10.2019
374 Clear -3 1019 86 16093 3.1 320 18:37 11.10.2019
375 Clear -3 1019 86 16093 3.1 320 18:18 11.10.2019
376 Clear -2 1019 86 16093 2.61 324.065 17:55 11.10.2019
377 Clear -3 1019 86 16093 2.61 324.065 17:36 11.10.2019
378 Clear -3 1019 86 16093 2.61 324.065 17:18 11.10.2019
379 Clear -3 1018 85 16093 2.61 324.065 16:40 11.10.2019
380 Clear -3 1018 85 16093 2.61 324.065 16:20 11.10.2019
381 Clear -3 1018 85 16093 2.61 324.065 16:20 11.10.2019
382 Clear -3 1019 85 16093 3.1 310 15:58 11.10.2019
383 Clear -4 1019 85 16093 3.1 310 15:38 11.10.2019
384 Clear -4 1019 85 16093 3.1 310 15:19 11.10.2019
385 Clear -4 1018 92 16093 2.75 333.332 14:47 11.10.2019
386 Clear -4 1018 92 16093 2.75 333.332 14:29 11.10.2019
387 Clear -3 1018 92 16093 2.1 40 13:56 11.10.2019
388 Clear -3 1018 92 16093 2.1 40 13:37 11.10.2019
389 Clear -3 1018 92 16093 2.1 40 13:19 11.10.2019
390 Clear -3 1018 92 16093 3.1 310 12:54 11.10.2019
391 Clear -2 1018 92 16093 3.1 310 12:36 11.10.2019
392 Clear -3 1018 92 16093 3.1 310 12:18 11.10.2019
393 Clear -2 1018 92 16093 2.1 290 11:41 11.10.2019
394 Clear -2 1018 92 16093 2.1 290 11:22 11.10.2019
395 Clear -2 1018 86 16093 2.83 331.713 10:56 11.10.2019
396 Clear -2 1018 86 16093 2.83 331.713 10:38 11.10.2019
397 Clear -2 1018 86 16093 2.83 331.713 10:20 11.10.2019
398 Clear -2 1018 86 16093 2.83 331.713 10:20 11.10.2019
399 Clouds -1 1018 80 16093 2.6 360 09:55 11.10.2019
400 Clouds 0 1018 80 16093 2.6 360 09:37 11.10.2019
401 Clouds 0 1018 80 16093 2.6 360 09:18 11.10.2019
402 Clouds 0 1018 80 16093 2.6 360 09:18 11.10.2019
403 Clouds 0 1017 80 16093 2.71 331.741 08:54 11.10.2019
404 Clouds 0 1017 80 16093 2.71 331.741 08:36 11.10.2019
405 Clouds 0 1017 80 16093 2.71 331.741 08:18 11.10.2019
406 Clouds 0 1017 78 16093 4.1 340 07:41 11.10.2019
407 Clouds 0 1017 78 16093 4.1 340 07:22 11.10.2019
408 Clear 1 1016 69 16093 4.1 340 06:47 11.10.2019
409 Clear 1 1016 69 16093 4.1 340 06:22 11.10.2019
410 Clouds 3 1016 59 16093 4.6 350 05:37 11.10.2019
411 Clouds 3 1016 64 16093 5.7 360 04:59 11.10.2019
412 Clouds 3 1016 64 16093 5.7 360 04:24 11.10.2019
413 Clouds 3 1016 69 16093 6.7 350 02:18 11.10.2019
414 Clouds 3 1016 69 16093 4.1 340 00:42 11.10.2019
415 Clouds 4 1016 69 16093 4.1 340 00:23 11.10.2019
416 Clouds 3 1015 69 16093 4.6 350 23:42 10.10.2019
417 Clouds 3 1015 69 16093 4.6 350 23:21 10.10.2019
418 Clouds 3 1015 74 16093 1.5 310 22:57 10.10.2019
419 Clouds 3 1015 74 16093 1.5 310 22:38 10.10.2019
420 Clouds 3 1015 74 16093 1.5 310 22:20 10.10.2019
421 Clouds 0 1015 67 16093 3.9 342.6 21:56 10.10.2019
422 Clouds 0 1015 67 16093 3.9 342.6 21:56 10.10.2019
423 Clouds 0 1015 67 16093 3.9 342.6 21:56 10.10.2019
424 Clouds 0 1015 67 16093 3.9 342.6 21:38 10.10.2019
425 Clouds 0 1015 81 16093 2.79 334.179 21:20 10.10.2019
426 Clouds 1 1014 80 16093 3.6 310 20:42 10.10.2019
427 Clouds 1 1014 80 16093 3.6 310 20:21 10.10.2019
428 Clouds 1 1014 80 16093 3.6 340 19:58 10.10.2019
429 Clouds 1 1014 80 16093 3.6 340 19:40 10.10.2019
430 Clouds 1 1014 80 16093 3.6 340 19:20 10.10.2019
431 Clouds 1 1014 80 16093 3.6 340 19:20 10.10.2019
432 Clouds 2 1014 74 16093 4.6 340 18:57 10.10.2019
433 Clouds 2 1014 74 16093 4.6 340 18:38 10.10.2019
434 Clouds 2 1014 74 16093 4.6 340 18:19 10.10.2019
435 Clouds 2 1014 80 16093 5.1 330 17:41 10.10.2019
436 Clouds 2 1014 80 16093 5.1 330 17:20 10.10.2019
437 Clouds 2 1014 80 16093 5.1 350 16:59 10.10.2019
438 Clouds 2 1014 80 16093 5.1 350 16:41 10.10.2019
439 Clouds 2 1014 80 16093 5.1 350 16:22 10.10.2019
440 Clouds 2 1013 82 16093 5.7 30 15:44 10.10.2019
441 Clouds 2 1013 82 16093 5.7 30 15:25 10.10.2019
442 Clouds 2 1013 84 16093 7.2 360 14:59 10.10.2019
443 Clouds 2 1013 84 16093 7.2 360 14:38 10.10.2019
444 Clouds 2 1013 84 16093 7.2 360 14:19 10.10.2019
445 Clouds 2 1013 93 16093 3.43 333.86 13:59 10.10.2019
446 Clouds 2 1013 93 16093 3.43 333.86 13:59 10.10.2019
447 Clouds 2 1013 93 16093 3.43 333.86 13:41 10.10.2019
448 Clouds 2 1013 93 16093 3.03 336.028 13:19 10.10.2019
449 Clouds 2 1013 93 16093 3.6 320 12:56 10.10.2019
450 Clouds 2 1013 93 16093 3.6 320 12:56 10.10.2019
451 Clouds 2 1013 93 16093 3.6 320 12:38 10.10.2019
452 Clouds 2 1013 93 16093 3.6 320 12:19 10.10.2019
453 Clouds 2 1013 93 16093 2.1 340 11:55 10.10.2019
454 Clouds 2 1013 93 16093 2.1 340 11:36 10.10.2019
455 Clouds 2 1013 93 16093 2.1 340 11:18 10.10.2019
456 Clouds 2 1012 85 16093 4.6 340 10:44 10.10.2019
457 Clouds 2 1012 85 16093 4.6 340 10:25 10.10.2019
458 Clouds 1 1012 85 16093 1.5 280 09:56 10.10.2019
459 Clouds 1 1012 85 16093 1.5 280 09:37 10.10.2019
460 Clouds 1 1012 88 16093 1.5 280 09:19 10.10.2019
461 Clear 2 1012 93 16093 2.6 310 08:41 10.10.2019
462 Clear 2 1012 93 16093 2.6 310 08:23 10.10.2019
463 Clouds 3 1012 86 16093 4.1 300 07:58 10.10.2019
464 Clouds 3 1012 86 16093 4.1 300 07:40 10.10.2019
465 Clouds 3 1012 86 16093 4.1 300 07:20 10.10.2019
466 Clouds 4 1011 80 16093 7.7 310 06:45 10.10.2019
467 Clouds 4 1011 80 16093 7.7 310 06:22 10.10.2019
468 Clouds 5 1011 80 16093 4.6 320 05:24 10.10.2019
469 Clouds 6 1011 75 16093 4.1 300 04:37 10.10.2019
470 Clouds 6 1010 75 16093 4.1 320 03:27 10.10.2019
471 Clear 6 1009 75 16093 4.6 330 01:42 10.10.2019
472 Clear 6 1009 75 16093 4.6 330 01:42 10.10.2019
473 Clear 6 1009 75 16093 4.6 330 01:24 10.10.2019
474 Clouds 6 1009 75 16093 4.6 320 00:45 10.10.2019
475 Clouds 6 1009 75 16093 4.6 320 00:20 10.10.2019
476 Clouds 4 1008 93 16093 3.6 310 23:39 09.10.2019
477 Clouds 4 1008 93 16093 3.6 310 23:20 09.10.2019
478 Clouds 3 1008 100 16093 4.6 290 22:43 09.10.2019
479 Clouds 3 1008 100 16093 4.6 290 22:24 09.10.2019
480 Clouds 3 1007 93 16093 4.6 290 21:59 09.10.2019
481 Clouds 3 1007 93 16093 4.6 290 21:39 09.10.2019
482 Clouds 3 1007 93 16093 4.6 290 21:20 09.10.2019
483 Clouds 3 1007 100 16093 4.6 280 20:56 09.10.2019
484 Clouds 3 1007 100 16093 4.6 280 20:56 09.10.2019
485 Clouds 3 1007 100 16093 4.6 280 20:37 09.10.2019
486 Clouds 3 1007 100 16093 4.6 280 20:18 09.10.2019
487 Clouds 3 1007 100 16093 4.6 280 20:18 09.10.2019
488 Clouds 3 1006 100 16093 3.1 280 19:45 09.10.2019
489 Clouds 3 1006 100 16093 3.1 280 19:24 09.10.2019
490 Rain 4 1006 100 16093 5.1 250 18:58 09.10.2019
491 Rain 4 1006 100 16093 5.1 250 18:38 09.10.2019
492 Rain 4 1006 100 16093 5.1 250 18:18 09.10.2019
493 Clouds 4 1006 100 16093 6.7 240 17:55 09.10.2019
494 Clouds 4 1006 100 16093 6.7 240 17:37 09.10.2019
495 Clouds 4 1006 100 16093 6.7 240 17:18 09.10.2019
496 Rain 4 1005 100 9656 6.2 260 16:41 09.10.2019
497 Clouds 4 1005 100 16093 6.7 250 16:23 09.10.2019
498 Clouds 4 1005 100 16093 6.7 250 15:58 09.10.2019
499 Clouds 4 1005 100 16093 6.7 250 15:58 09.10.2019
500 Clouds 4 1005 100 16093 6.7 250 15:39 09.10.2019
501 Clouds 4 1005 93 14484 6.2 250 15:20 09.10.2019
502 Clouds 4 1005 100 16093 6.7 250 14:58 09.10.2019
503 Clouds 4 1005 100 16093 6.7 250 14:58 09.10.2019
504 Clouds 4 1005 100 16093 6.7 250 14:40 09.10.2019
505 Clouds 4 1005 93 12874 5.1 260 14:18 09.10.2019
506 Rain 4 1004 100 16093 7.2 260 13:40 09.10.2019
507 Rain 4 1004 100 16093 7.2 260 13:40 09.10.2019
508 Rain 4 1004 100 16093 7.2 260 13:22 09.10.2019
509 Rain 3 1004 100 8047 2.1 0 12:59 09.10.2019
510 Rain 3 1004 100 8047 2.1 0 12:41 09.10.2019
511 Rain 3 1004 100 16093 8.67 244.815 12:21 09.10.2019
512 Rain 3 1004 100 8047 1.5 350 11:55 09.10.2019
513 Rain 3 1004 100 6437 2.1 340 11:37 09.10.2019
514 Rain 3 1004 100 6437 2.1 340 11:19 09.10.2019
515 Rain 4 1003 100 6437 2.6 330 10:44 09.10.2019
516 Rain 4 1003 100 4023 1.5 320 10:22 09.10.2019
517 Clouds 4 1003 100 11265 8.67 244.815 09:59 09.10.2019
518 Clouds 4 1003 100 11265 8.67 244.815 09:40 09.10.2019
519 Rain 5 1003 100 11265 4.81 202.836 09:19 09.10.2019
520 Rain 5 1003 93 16093 4.1 160 08:41 09.10.2019
521 Rain 5 1003 93 16093 4.1 160 08:23 09.10.2019
522 Rain 5 1003 93 16093 4.6 200 07:58 09.10.2019
523 Rain 5 1003 93 16093 4.6 200 07:39 09.10.2019
524 Rain 5 1003 93 16093 4.6 200 07:20 09.10.2019
525 Rain 5 1003 86 9656 4.1 180 06:51 09.10.2019
526 Rain 5 1003 86 9656 4.1 180 06:51 09.10.2019
527 Clouds 6 1003 81 16093 5.7 200 05:56 09.10.2019
528 Clouds 6 1003 81 16093 5.7 200 05:37 09.10.2019
529 Clouds 6 1004 81 16093 6.7 200 04:25 09.10.2019
530 Clouds 6 1004 81 16093 7.7 210 02:52 09.10.2019
531 Rain 6 1005 81 16093 10.8 220 01:43 09.10.2019
532 Clouds 6 1005 81 16093 8.2 210 01:20 09.10.2019
533 Clouds 6 1005 81 16093 9.3 220 00:57 09.10.2019
534 Clouds 6 1005 81 16093 9.3 220 00:38 09.10.2019
535 Clouds 6 1005 81 16093 9.3 220 00:20 09.10.2019
536 Rain 5 1005 80 8047 4.6 210 23:39 08.10.2019
537 Rain 5 1005 80 8047 4.6 210 23:19 08.10.2019
538 Rain 6 1005 81 14484 9.8 210 22:56 08.10.2019
539 Rain 6 1005 81 14484 9.8 210 22:38 08.10.2019
540 Rain 6 1005 81 14484 9.8 210 22:19 08.10.2019
541 Rain 5 1005 80 12874 4.6 180 21:57 08.10.2019
542 Rain 5 1005 80 12874 4.6 180 21:39 08.10.2019
543 Rain 5 1005 80 12874 4.6 180 21:19 08.10.2019
544 Clouds 6 1005 81 16093 8.7 200 20:56 08.10.2019
545 Clouds 6 1005 81 16093 8.7 200 20:37 08.10.2019
546 Clouds 6 1005 81 16093 8.7 200 20:19 08.10.2019
547 Clouds 6 1005 87 16093 7.2 200 19:56 08.10.2019
548 Clouds 6 1005 87 16093 7.2 200 19:37 08.10.2019
549 Clouds 6 1005 87 16093 7.2 200 19:19 08.10.2019
550 Clouds 6 1005 81 16093 7.7 210 18:46 08.10.2019
551 Clouds 6 1005 81 16093 7.7 210 18:27 08.10.2019
552 Rain 6 1005 81 14484 8.7 210 17:59 08.10.2019
553 Rain 6 1005 81 14484 8.7 210 17:40 08.10.2019
554 Rain 6 1005 81 14484 8.7 210 17:20 08.10.2019
555 Clouds 6 1006 81 16093 6.7 220 16:57 08.10.2019
556 Clouds 6 1006 81 16093 6.7 220 16:38 08.10.2019
557 Clouds 6 1006 81 16093 6.7 220 16:20 08.10.2019
558 Clouds 6 1006 87 16093 7.2 210 15:40 08.10.2019
559 Clouds 6 1006 87 16093 7.2 210 15:21 08.10.2019
560 Rain 6 1006 87 16093 7.2 200 14:57 08.10.2019
561 Rain 6 1006 87 16093 7.2 200 14:39 08.10.2019
562 Rain 6 1006 87 16093 7.2 200 14:20 08.10.2019
563 Clouds 6 1006 87 16093 7.2 220 13:56 08.10.2019
564 Clouds 6 1006 87 16093 7.2 220 13:37 08.10.2019
565 Clouds 6 1006 87 16093 7.2 220 13:18 08.10.2019
566 Clouds 7 1006 81 16093 9.3 210 12:42 08.10.2019
567 Clouds 7 1006 81 16093 9.3 210 12:22 08.10.2019
568 Clouds 7 1006 81 16093 8.7 220 11:59 08.10.2019
569 Clouds 7 1006 81 16093 8.7 220 11:40 08.10.2019
570 Clouds 7 1006 81 16093 8.7 220 11:22 08.10.2019
571 Clouds 7 1006 81 16093 8.7 220 10:55 08.10.2019
572 Clouds 7 1006 81 16093 8.7 220 10:36 08.10.2019
573 Clouds 7 1006 81 14484 9.8 230 10:18 08.10.2019
574 Clouds 7 1006 87 16093 9.3 220 09:41 08.10.2019
575 Clouds 7 1006 87 16093 9.3 220 09:41 08.10.2019
576 Clouds 7 1006 87 16093 9.8 230 09:23 08.10.2019
577 Rain 7 1006 87 16093 7.7 200 08:59 08.10.2019
578 Rain 7 1006 87 16093 7.7 200 08:41 08.10.2019
579 Rain 7 1006 87 16093 7.7 200 08:22 08.10.2019
580 Rain 7 1006 81 16093 6.7 190 07:42 08.10.2019
581 Rain 7 1006 81 16093 6.7 190 07:21 08.10.2019
582 Rain 7 1006 81 16093 6.7 190 07:21 08.10.2019
583 Rain 7 1006 81 16093 6.7 180 06:49 08.10.2019
584 Rain 7 1006 81 16093 6.7 180 06:28 08.10.2019
585 Rain 7 1007 100 6437 7.2 190 05:45 08.10.2019
586 Rain 7 1007 100 6437 7.2 190 05:25 08.10.2019
587 Rain 6 1008 100 6437 10.8 160 03:57 08.10.2019
588 Rain 6 1009 100 4828 11.8 150 03:24 08.10.2019
589 Rain 6 1010 93 4828 12.9 140 02:35 08.10.2019
590 Rain 6 1012 87 6437 13.4 140 01:44 08.10.2019
591 Rain 6 1012 87 6437 13.4 140 01:26 08.10.2019
592 Rain 4 1013 93 6437 13.9 140 00:46 08.10.2019
593 Rain 4 1013 93 6437 13.9 140 00:20 08.10.2019
594 Rain 4 1014 93 8047 12.3 140 23:39 07.10.2019
595 Rain 4 1015 93 8047 12.3 140 23:20 07.10.2019
596 Rain 4 1016 86 9656 11.8 150 22:56 07.10.2019
597 Rain 4 1016 86 9656 11.8 150 22:38 07.10.2019
598 Rain 4 1016 86 9656 11.8 150 22:20 07.10.2019
599 Rain 4 1017 93 9656 11.3 140 21:56 07.10.2019
600 Rain 4 1017 93 9656 11.3 140 21:37 07.10.2019
601 Rain 4 1017 93 9656 11.3 140 21:37 07.10.2019
602 Rain 4 1017 93 9656 11.3 140 21:19 07.10.2019
603 Rain 4 1017 93 9656 11.3 140 21:19 07.10.2019
604 Rain 4 1017 93 9656 11.3 140 21:19 07.10.2019
605 Rain 4 1017 93 16093 9.8 150 20:57 07.10.2019
606 Rain 4 1017 93 16093 9.8 150 20:39 07.10.2019
607 Rain 4 1017 93 16093 9.8 150 20:19 07.10.2019
608 Rain 4 1018 93 16093 10.3 150 19:56 07.10.2019
609 Rain 4 1018 93 16093 10.3 150 19:38 07.10.2019
610 Rain 4 1018 93 16093 10.3 150 19:18 07.10.2019
611 -273 0 0 0 0 0 18:55 07.10.2019
612 Rain 4 1019 86 14484 8.2 150 18:37 07.10.2019
613 Rain 4 1019 86 14484 8.2 150 18:18 07.10.2019
614 Rain 4 1020 93 11265 8.7 150 17:41 07.10.2019
615 Rain 4 1020 93 11265 8.7 150 17:19 07.10.2019
616 Clouds 4 1021 86 16093 5.7 160 16:55 07.10.2019
617 Clouds 4 1021 86 16093 5.7 160 16:37 07.10.2019
618 Clouds 4 1021 86 16093 5.7 160 16:19 07.10.2019
619 Clouds 5 1021 80 16093 6.2 170 15:42 07.10.2019
620 Clouds 4 1021 93 16093 5.1 190 15:24 07.10.2019
621 Rain 2 1022 100 6437 3.6 80 14:42 07.10.2019
622 Rain 2 1022 100 6437 3.6 80 14:23 07.10.2019
623 Rain 3 1022 93 11265 4.6 100 13:59 07.10.2019
624 Rain 3 1022 93 11265 4.6 100 13:40 07.10.2019
625 Rain 2 1022 93 9656 4.1 70 13:18 07.10.2019
626 Clouds 2 1023 84 16093 5.1 70 12:55 07.10.2019
627 Clouds 2 1023 84 16093 5.1 70 12:55 07.10.2019
628 Clouds 2 1023 84 16093 5.1 70 12:36 07.10.2019
629 Clouds 2 1023 83 16093 5.1 70 12:18 07.10.2019
630 Clear 2 1023 83 16093 4.1 80 11:56 07.10.2019
631 Clear 2 1023 83 16093 4.1 80 11:37 07.10.2019
632 Clear 2 1023 83 16093 4.1 80 11:18 07.10.2019
633 Clouds 2 1023 83 16093 2.6 70 10:40 07.10.2019
634 Clouds 2 1023 83 16093 2.6 70 10:20 07.10.2019
635 Clouds 2 1023 83 16093 3.1 90 09:42 07.10.2019
636 Clouds 2 1023 80 16093 3.1 90 09:23 07.10.2019
637 Clear 2 1023 80 16093 1.46 327.397 08:56 07.10.2019
638 Clear 2 1023 80 16093 0.95 327.432 08:38 07.10.2019
639 Clear 2 1023 80 16093 0.95 327.432 08:19 07.10.2019
640 Clear 1 1023 86 16093 0.95 327.432 07:41 07.10.2019
641 Clear 1 1023 86 16093 0.95 327.432 07:21 07.10.2019
642 Clear 1 1023 86 16093 0.95 327.432 07:21 07.10.2019
643 Clear 3 1022 81 16093 1.5 330 06:49 07.10.2019
644 Clear 3 1022 81 16093 1.5 330 06:27 07.10.2019
645 Clear 6 1022 70 16093 1.5 340 05:47 07.10.2019
646 Clear 6 1022 70 16093 1.5 340 05:21 07.10.2019
647 Clear 7 1022 78 16093 2.6 330 04:24 07.10.2019
648 Clear 7 1022 65 16093 4.6 320 03:44 07.10.2019
649 Clear 7 1022 65 16093 4.6 320 03:44 07.10.2019
650 Clear 7 1022 65 16093 4.6 320 03:44 07.10.2019
651 Clear 7 1022 65 16093 4.6 320 03:20 07.10.2019
652 Clear 7 1022 65 16093 4.6 320 03:20 07.10.2019
653 Clear 6 1021 75 16093 4.1 310 02:21 07.10.2019
654 Clear 6 1021 75 16093 4.1 310 02:21 07.10.2019
655 Clear 6 1021 75 16093 5.7 300 01:50 07.10.2019
656 Clear 6 1021 75 16093 5.7 300 01:21 07.10.2019
657 Clear 5 1021 80 16093 5.1 300 00:39 07.10.2019
658 Clear 5 1021 80 16093 5.1 300 00:20 07.10.2019
659 Clear 4 1020 86 16093 6.2 310 23:42 06.10.2019
660 Clear 4 1020 86 16093 6.2 310 23:22 06.10.2019
661 Clear 3 1019 86 16093 7.2 310 22:59 06.10.2019
662 Clear 3 1019 86 16093 7.2 310 22:41 06.10.2019
663 Clear 3 1019 86 16093 7.2 310 22:22 06.10.2019
664 Clouds 2 1019 93 16093 4.1 320 21:58 06.10.2019
665 Clouds 2 1019 93 16093 4.1 320 21:38 06.10.2019
666 Clouds 2 1019 93 16093 4.1 320 21:38 06.10.2019
667 Clouds 2 1019 93 16093 4.1 320 21:38 06.10.2019
668 Clouds 2 1019 93 16093 4.1 320 21:19 06.10.2019
669 Clouds 2 1018 86 16093 2.6 260 20:58 06.10.2019
670 Clouds 2 1018 85 16093 2.6 260 20:40 06.10.2019
671 Clouds 2 1018 85 16093 2.6 260 20:20 06.10.2019
672 Clear 2 1017 85 16093 1.5 0 19:57 06.10.2019
673 Clear 2 1017 85 16093 1.5 0 19:37 06.10.2019
674 Clear 2 1017 85 16093 1.5 0 19:19 06.10.2019
675 Clear 0 1017 85 16093 2.6 340 18:57 06.10.2019
676 Clear 0 1017 85 16093 2.6 340 18:38 06.10.2019
677 Clear 0 1017 79 16093 2.6 340 18:19 06.10.2019
678 Clear 1 1016 86 16093 2.1 310 17:57 06.10.2019
679 Clear 1 1016 86 16093 2.1 310 17:38 06.10.2019
680 Clear 1 1016 86 16093 2.1 310 17:18 06.10.2019
681 Clear 0 1015 79 16093 3.6 350 16:42 06.10.2019
682 Clear 0 1015 79 16093 3.6 350 16:23 06.10.2019
683 Clear 0 1014 79 16093 3.6 350 15:54 06.10.2019
684 Clear 0 1014 79 16093 3.6 350 15:36 06.10.2019
685 Clear 0 1014 80 16093 3.6 350 15:18 06.10.2019
686 Clear -1 1013 92 16093 3.6 290 14:42 06.10.2019
687 Clear -1 1013 92 16093 3.6 290 14:42 06.10.2019
688 Clear -1 1013 92 16093 3.6 290 14:42 06.10.2019
689 Clear -1 1013 92 16093 3.6 290 14:24 06.10.2019
690 Clear -1 1012 92 16093 5.1 290 13:56 06.10.2019
691 Clear -1 1012 92 16093 5.1 290 13:38 06.10.2019
692 Clear -1 1012 92 16093 5.1 290 13:19 06.10.2019
693 Clear 0 1010 82 16093 3.6 330 12:56 06.10.2019
694 Clear 0 1010 82 16093 3.6 330 12:38 06.10.2019
695 Clear 0 1010 80 16093 3.6 330 12:20 06.10.2019
696 Clear 1 1008 80 16093 6.7 340 11:56 06.10.2019
697 Clear 1 1008 80 16093 6.7 340 11:37 06.10.2019
698 Clear 1 1008 80 16093 6.7 340 11:37 06.10.2019
699 Clear 1 1008 80 16093 6.7 340 11:18 06.10.2019
700 Clear 1 1006 86 16093 6.43 311.897 10:42 06.10.2019
701 Clear 1 1006 86 16093 6.43 311.897 10:24 06.10.2019
702 Clear 2 1003 80 16093 6.2 330 09:56 06.10.2019
703 Clear 2 1003 80 16093 6.2 330 09:38 06.10.2019
704 Clear 2 1003 80 16093 6.2 330 09:18 06.10.2019
705 Clear 2 1001 82 16093 9.3 300 08:40 06.10.2019
706 Clear 2 1001 84 16093 9.3 300 08:20 06.10.2019
707 Clouds 2 999 93 16093 11.3 300 07:44 06.10.2019
708 Clouds 2 999 93 16093 11.3 300 07:19 06.10.2019
709 Clouds 3 998 93 16093 10.8 280 06:20 06.10.2019
710 Rain 3 997 93 16093 12.9 270 05:33 06.10.2019
711 Rain 3 997 93 11265 14.9 270 03:41 06.10.2019
712 Rain 3 997 93 8047 13.4 270 02:42 06.10.2019
713 Rain 3 997 93 6437 14.9 270 02:20 06.10.2019
714 Rain 3 996 93 8047 13.9 270 01:40 06.10.2019
715 Rain 3 996 93 8047 11.3 260 01:21 06.10.2019
716 Rain 3 997 93 8047 12.9 250 00:46 06.10.2019
717 Rain 2 997 93 9656 9.3 260 00:25 06.10.2019
718 Rain 2 997 90 16093 12.3 250 23:44 05.10.2019
719 Rain 2 997 90 16093 12.3 250 23:22 05.10.2019
720 Rain 2 997 80 11265 10.3 240 22:58 05.10.2019
721 Rain 2 997 80 11265 10.3 240 22:39 05.10.2019
722 Rain 2 998 80 16093 10.8 250 22:20 05.10.2019
723 Rain 2 998 80 16093 10.8 250 22:20 05.10.2019
724 Rain 2 998 80 16093 10.8 250 22:20 05.10.2019
725 Rain 2 998 74 16093 11.3 240 21:56 05.10.2019
726 Rain 2 998 74 16093 11.3 240 21:37 05.10.2019
727 Rain 2 998 74 16093 11.3 240 21:18 05.10.2019
728 Rain 2 998 80 16093 13.9 230 20:55 05.10.2019
729 Rain 2 998 80 16093 13.9 230 20:36 05.10.2019
730 Rain 2 998 80 16093 13.9 230 20:18 05.10.2019
731 Rain 2 998 69 16093 11.8 260 19:37 05.10.2019
732 Rain 2 998 69 16093 11.8 260 19:19 05.10.2019
733 Clouds 2 998 69 16093 12.9 250 18:55 05.10.2019
734 Clouds 2 998 69 16093 12.9 250 18:37 05.10.2019
735 Clouds 2 998 69 16093 12.9 250 18:37 05.10.2019
736 Clouds 2 998 69 16093 12.9 250 18:19 05.10.2019
737 Rain 3 998 64 16093 13.9 260 17:43 05.10.2019
738 Rain 3 998 64 16093 13.9 260 17:23 05.10.2019
739 Snow 2 998 80 11265 10.8 260 16:57 05.10.2019
740 Snow 2 998 80 11265 10.8 260 16:39 05.10.2019
741 Snow 2 998 80 11265 10.8 260 16:20 05.10.2019
742 Snow 2 998 80 16093 12.9 250 15:56 05.10.2019
743 Snow 2 998 80 16093 12.9 250 15:38 05.10.2019
744 Snow 2 998 80 16093 12.9 250 15:19 05.10.2019
745 Rain 2 999 80 16093 17 250 14:43 05.10.2019
746 Rain 2 999 80 16093 17 250 14:24 05.10.2019
747 Snow 1 998 80 9656 12.9 250 13:58 05.10.2019
748 Snow 1 998 80 9656 12.9 250 13:40 05.10.2019
749 Clouds 3 998 74 16093 11.8 260 13:19 05.10.2019
750 Clouds 2 998 80 16093 12.3 250 12:43 05.10.2019
751 Clouds 2 998 80 16093 12.3 250 12:19 05.10.2019
752 Clouds 2 999 79 16093 14.9 240 11:43 05.10.2019
753 Rain 2 999 93 14484 13.9 240 11:21 05.10.2019
754 Clouds 1 998 79 16093 12.9 230 10:58 05.10.2019
755 Clouds 1 998 79 16093 12.9 230 10:40 05.10.2019
756 Snow 1 999 86 4023 13.4 240 10:21 05.10.2019
757 Snow 0 999 79 2816 12.9 260 09:55 05.10.2019
758 Clouds 2 999 74 16093 14.9 260 09:37 05.10.2019
759 Clouds 2 999 74 16093 14.9 260 09:18 05.10.2019
760 Snow 1 999 74 6437 10.8 250 08:39 05.10.2019
761 Snow 1 999 74 6437 10.8 250 08:19 05.10.2019
762 Snow 2 999 74 8047 12.3 250 07:52 05.10.2019
763 Snow 2 999 74 8047 12.3 250 07:30 05.10.2019
764 Snow 1 1000 80 3219 15.4 260 06:57 05.10.2019
765 Snow 1 1000 80 4828 13.4 260 06:24 05.10.2019
766 Clouds 2 1000 74 12874 15.9 250 05:39 05.10.2019
767 Haze 2 999 80 4828 12.3 250 03:39 05.10.2019
768 Haze 2 999 80 4828 12.3 250 03:20 05.10.2019
769 Clouds 3 999 59 16093 12.3 250 01:29 05.10.2019
770 Clouds 3 998 64 16093 12.9 260 00:51 05.10.2019
771 Clouds 3 998 64 16093 12.9 260 00:28 05.10.2019
772 Snow 2 998 74 3219 17.5 250 23:59 04.10.2019
773 Snow 2 998 74 3219 17.5 250 23:41 04.10.2019
774 Clouds 3 998 59 16093 15.4 260 23:23 04.10.2019
775 Clouds 3 997 64 16093 13.9 270 22:57 04.10.2019
776 Clouds 3 997 64 16093 13.9 270 22:38 04.10.2019
777 Clouds 3 997 64 16093 13.9 270 22:19 04.10.2019
778 Snow 1 996 80 4828 9.3 260 21:55 04.10.2019
779 Snow 1 996 80 4828 9.3 260 21:36 04.10.2019
780 Snow 1 996 80 4828 9.3 260 21:18 04.10.2019
781 Snow 2 995 64 11265 13.9 250 20:42 04.10.2019
782 Snow 2 995 64 11265 13.9 250 20:23 04.10.2019
783 Snow 2 995 69 11265 14.4 260 19:57 04.10.2019
784 Snow 2 995 69 11265 14.4 260 19:57 04.10.2019
785 Snow 2 995 69 11265 14.4 260 19:39 04.10.2019
786 Snow 2 995 69 11265 14.4 260 19:39 04.10.2019
787 Snow 2 995 69 11265 14.4 260 19:20 04.10.2019
788 Rain 3 994 59 16093 11.8 270 18:56 04.10.2019
789 Rain 3 994 59 16093 11.8 270 18:37 04.10.2019
790 Rain 3 994 59 16093 11.8 270 18:18 04.10.2019
791 Rain 2 994 69 16093 11.8 270 17:41 04.10.2019
792 Rain 2 994 69 16093 11.8 270 17:22 04.10.2019
793 Clouds 2 994 74 16093 13.4 270 16:58 04.10.2019
794 Clouds 2 994 74 16093 13.4 270 16:40 04.10.2019
795 Clouds 2 994 74 16093 13.4 270 16:40 04.10.2019
796 Clouds 2 994 74 16093 13.4 270 16:19 04.10.2019
797 Clouds 3 993 69 16093 13.4 270 15:57 04.10.2019
798 Clouds 3 993 69 16093 13.4 270 15:39 04.10.2019
799 Clouds 3 993 69 16093 13.4 270 15:19 04.10.2019
800 Rain 3 992 86 16093 12.9 280 14:56 04.10.2019
801 Rain 3 992 86 16093 12.9 280 14:38 04.10.2019
802 Rain 3 992 86 16093 12.9 280 14:20 04.10.2019
803 Rain 3 992 93 16093 10.3 290 13:44 04.10.2019
804 Rain 3 991 93 16093 11.8 290 13:22 04.10.2019
805 Rain 3 991 100 16093 10.3 290 12:55 04.10.2019
806 Rain 3 991 100 16093 10.3 290 12:55 04.10.2019
807 Rain 5 990 93 14484 8.7 290 12:36 04.10.2019
808 Rain 5 990 93 14484 8.7 290 12:18 04.10.2019
809 Rain 6 990 93 14484 5.7 220 11:42 04.10.2019
810 Rain 6 990 93 14484 5.7 220 11:42 04.10.2019
811 Rain 6 990 93 14484 5.7 220 11:42 04.10.2019
812 Rain 6 990 93 14484 5.7 220 11:42 04.10.2019
813 Rain 6 990 93 14484 5.7 220 11:42 04.10.2019
814 Rain 6 990 93 14484 5.7 220 11:21 04.10.2019
815 Rain 7 991 93 11265 8.2 210 10:42 04.10.2019
816 Rain 7 991 93 11265 8.2 210 10:42 04.10.2019
817 Rain 7 991 93 11265 8.2 210 10:21 04.10.2019
818 Rain 7 992 93 14484 6.2 180 09:58 04.10.2019
819 Rain 7 992 93 14484 6.2 180 09:58 04.10.2019
820 Rain 7 992 93 14484 6.2 180 09:40 04.10.2019
821 Rain 7 992 93 11265 5.7 190 09:22 04.10.2019
822 Rain 7 993 93 16093 6.2 200 08:43 04.10.2019
823 Rain 7 993 93 16093 6.2 200 08:43 04.10.2019
824 Rain 7 994 93 11265 9.8 170 08:25 04.10.2019
825 Rain 7 995 93 9656 9.8 170 07:47 04.10.2019
826 Rain 7 996 93 9656 9.3 150 07:24 04.10.2019
827 Rain 7 996 93 8047 11.8 140 06:56 04.10.2019
828 Rain 7 997 87 9656 11.3 150 06:37 04.10.2019
829 Rain 7 997 87 9656 11.3 150 06:18 04.10.2019
830 Rain 7 997 87 9656 11.3 150 06:18 04.10.2019
831 Rain 7 999 93 11265 11.3 160 05:19 04.10.2019
832 Rain 7 1000 93 8047 9.8 160 04:35 04.10.2019
833 Rain 7 1003 81 16093 7.7 170 02:56 04.10.2019
834 Rain 7 1003 81 16093 7.7 170 02:37 04.10.2019
835 Rain 7 1004 87 12874 7.2 170 01:43 04.10.2019
836 Rain 7 1004 87 12874 7.2 170 01:25 04.10.2019
837 Rain 7 1004 87 8047 4.6 170 00:29 04.10.2019
838 Rain 7 1005 93 6437 4.1 200 23:38 03.10.2019
839 Rain 7 1005 93 6437 4.1 200 23:20 03.10.2019
840 Rain 5 1006 93 16093 3.1 110 22:57 03.10.2019
841 Rain 5 1006 93 16093 3.1 110 22:39 03.10.2019
842 Rain 5 1006 93 16093 3.1 110 22:39 03.10.2019
843 Rain 5 1006 93 16093 3.1 110 22:21 03.10.2019
844 Rain 5 1006 93 16093 3.1 110 22:21 03.10.2019
845 Clouds 3 1006 100 16093 4.1 90 21:57 03.10.2019
846 Clouds 3 1006 100 16093 4.1 90 21:39 03.10.2019
847 Clouds 3 1006 100 16093 4.1 90 21:19 03.10.2019
848 Rain 3 1007 100 16093 4.6 80 20:57 03.10.2019
849 Rain 3 1007 100 16093 4.6 80 20:38 03.10.2019
850 Rain 3 1007 100 16093 4.6 80 20:20 03.10.2019
851 Rain 3 1007 93 11265 3.1 110 19:55 03.10.2019
852 Rain 3 1007 93 11265 3.1 110 19:55 03.10.2019
853 Rain 3 1007 93 11265 3.1 110 19:37 03.10.2019
854 Rain 3 1007 93 11265 3.1 110 19:19 03.10.2019
855 Clouds 4 1007 80 16093 2.85 170.511 18:55 03.10.2019
856 Clouds 4 1007 80 16093 2.85 170.511 18:37 03.10.2019
857 Clouds 4 1007 80 16093 2.51 187.448 18:18 03.10.2019
858 Clouds 6 1008 70 16093 3.6 240 17:42 03.10.2019
859 Clouds 6 1008 70 16093 3.6 240 17:21 03.10.2019
860 Clouds 5 1008 75 16093 4.1 230 16:55 03.10.2019
861 Clouds 5 1008 75 16093 4.1 230 16:37 03.10.2019
862 Clouds 5 1008 75 16093 4.1 230 16:19 03.10.2019
863 Clouds 5 1008 75 16093 6.2 240 15:43 03.10.2019
864 Clouds 5 1008 75 16093 6.2 240 15:23 03.10.2019
865 Clouds 6 1008 70 16093 6.2 240 14:57 03.10.2019
866 Clouds 6 1008 70 16093 6.2 240 14:36 03.10.2019
867 Clouds 6 1008 70 16093 6.2 240 14:36 03.10.2019
868 Clouds 6 1008 70 16093 6.2 240 14:18 03.10.2019
869 Clouds 6 1008 75 16093 7.2 230 13:43 03.10.2019
870 Clouds 6 1008 75 16093 7.2 230 13:22 03.10.2019
871 Clouds 6 1008 75 16093 7.2 230 13:22 03.10.2019
872 Clouds 6 1008 75 16093 4.6 240 12:58 03.10.2019
873 Clouds 6 1008 75 16093 4.6 240 12:39 03.10.2019
874 Clouds 6 1008 75 16093 4.6 240 12:39 03.10.2019
875 Clouds 6 1008 75 16093 4.6 240 12:19 03.10.2019
876 Clouds 6 1008 75 16093 6.7 230 11:57 03.10.2019
877 Clouds 6 1008 75 16093 6.7 230 11:38 03.10.2019
878 Clouds 6 1008 75 16093 6.7 230 11:20 03.10.2019
879 Rain 6 1008 75 16093 5.7 240 10:55 03.10.2019
880 Rain 6 1008 75 16093 5.7 240 10:37 03.10.2019
881 Rain 6 1008 75 16093 5.7 240 10:18 03.10.2019
882 Rain 5 1008 80 16093 5.7 250 09:55 03.10.2019
883 Rain 5 1008 80 16093 5.7 250 09:37 03.10.2019
884 Rain 5 1008 80 16093 5.7 250 09:18 03.10.2019
885 Clouds 6 1007 81 16093 3.1 250 08:41 03.10.2019
886 Clouds 6 1007 81 16093 3.1 250 08:41 03.10.2019
887 Clouds 6 1007 81 16093 3.1 250 08:23 03.10.2019
888 Clouds 6 1007 75 16093 4.6 250 07:41 03.10.2019
889 Clouds 6 1007 75 16093 4.6 250 07:20 03.10.2019
890 Clear 7 1006 75 16093 7.2 240 06:52 03.10.2019
891 Clear 7 1006 75 16093 7.2 240 06:26 03.10.2019
892 Clouds 7 1006 75 16093 7.7 250 05:48 03.10.2019
893 Clouds 7 1006 75 16093 7.7 250 05:25 03.10.2019
894 Clouds 7 1006 81 16093 8.2 240 04:40 03.10.2019
895 Rain 8 1006 75 8047 8.7 230 03:36 03.10.2019
896 Rain 8 1006 75 8047 8.7 230 03:18 03.10.2019
897 Rain 7 1006 87 8047 6.2 200 02:20 03.10.2019
898 Clouds 8 1006 81 16093 6.2 210 01:37 03.10.2019
899 Clouds 8 1007 75 16093 7.2 230 00:52 03.10.2019
900 Clouds 8 1007 75 16093 7.2 230 00:31 03.10.2019
901 Clouds 8 1007 81 16093 6.7 230 23:44 02.10.2019
902 Clouds 8 1006 87 16093 7.2 230 23:24 02.10.2019
903 Clouds 7 1006 93 16093 5.7 240 22:57 02.10.2019
904 Clouds 7 1006 93 16093 5.7 240 22:38 02.10.2019
905 Clouds 7 1006 93 16093 5.7 240 22:18 02.10.2019
906 Rain 8 1006 93 16093 5.1 240 21:55 02.10.2019
907 Rain 8 1006 93 16093 5.1 240 21:54 02.10.2019
908 Rain 8 1006 93 16093 5.1 240 21:54 02.10.2019
909 -273 0 0 0 0 0 21:54 02.10.2019
910 Rain 8 1006 93 16093 5.1 240 21:54 02.10.2019
911 Rain 8 1006 93 16093 5.1 240 21:36 02.10.2019
912 Rain 8 1006 93 16093 5.1 240 21:18 02.10.2019
913 Rain 7 1006 100 16093 4.1 250 20:54 02.10.2019
914 Rain 8 1006 93 9656 3.1 220 20:36 02.10.2019
915 Rain 8 1006 93 9656 3.1 220 20:18 02.10.2019
916 Rain 8 1006 100 3219 3.1 190 19:42 02.10.2019
917 Rain 8 1006 100 3219 3.1 190 19:21 02.10.2019
918 Rain 8 1006 100 9656 3.6 200 18:57 02.10.2019
919 Rain 8 1006 100 9656 3.6 200 18:38 02.10.2019
920 Rain 8 1006 100 9656 3.6 200 18:20 02.10.2019
921 Rain 8 1006 100 16093 5.1 190 17:56 02.10.2019
922 Rain 8 1006 100 16093 5.1 190 17:37 02.10.2019
923 Rain 8 1006 100 16093 5.1 190 17:19 02.10.2019
924 Rain 8 1006 100 16093 4.6 190 16:42 02.10.2019
925 Rain 8 1007 100 6437 6.7 160 16:22 02.10.2019
926 Rain 8 1007 100 6437 6.7 160 15:59 02.10.2019
927 Clouds 8 1007 100 16093 3.6 170 15:40 02.10.2019
928 Clouds 8 1007 100 16093 3.6 170 15:22 02.10.2019
929 Clouds 8 1007 100 16093 5.7 200 14:57 02.10.2019
930 Rain 8 1007 100 9656 7.2 210 14:39 02.10.2019
931 Rain 8 1007 100 9656 7.2 210 14:20 02.10.2019
932 Rain 8 1008 100 9656 7.2 150 13:45 02.10.2019
933 Rain 8 1008 100 9656 7.2 150 13:25 02.10.2019
934 Rain 8 1008 100 14484 7.7 150 12:58 02.10.2019
935 Rain 8 1008 100 9656 7.2 140 12:37 02.10.2019
936 Rain 8 1008 100 9656 7.2 140 12:19 02.10.2019
937 Clouds 7 1008 100 16093 7.2 150 11:44 02.10.2019
938 Clouds 7 1008 100 16093 7.2 150 11:23 02.10.2019
939 Clouds 7 1009 100 16093 7.2 140 10:42 02.10.2019
940 Clouds 7 1009 100 16093 7.2 140 10:20 02.10.2019
941 Clouds 7 1009 100 12874 7.2 150 09:59 02.10.2019
942 Clouds 7 1009 100 12874 7.2 150 09:37 02.10.2019
943 Clouds 7 1009 100 12874 7.2 150 09:18 02.10.2019
944 Rain 7 1009 100 6437 7.2 150 08:44 02.10.2019
945 Rain 7 1010 93 11265 7.7 160 08:24 02.10.2019
946 Clouds 7 1010 93 16093 7.2 150 07:58 02.10.2019
947 Clouds 7 1010 93 16093 7.2 150 07:38 02.10.2019
948 Clouds 7 1010 93 16093 7.2 150 07:20 02.10.2019
949 Clouds 7 1010 87 16093 5.1 150 06:31 02.10.2019
950 Clouds 7 1010 93 16093 5.7 150 05:55 02.10.2019
951 -273 0 0 0 0 0 05:54 02.10.2019
952 Clouds 8 1011 81 16093 6.2 160 05:23 02.10.2019
953 Clouds 8 1011 75 16093 5.7 170 04:50 02.10.2019
954 Clouds 8 1011 75 16093 4.6 170 03:52 02.10.2019
955 Clouds 7 1011 81 16093 4.6 120 02:41 02.10.2019
956 Clouds 7 1011 81 16093 4.6 120 02:23 02.10.2019
957 Clouds 7 1012 81 16093 4.6 140 01:22 02.10.2019
958 Clouds 7 1012 81 16093 2.6 180 00:49 02.10.2019
959 Clouds 7 1012 81 16093 2.6 180 00:25 02.10.2019
960 Clouds 7 1012 81 16093 4.6 180 23:43 01.10.2019
961 Clouds 7 1012 81 16093 4.6 180 23:25 01.10.2019
962 Clouds 5 1013 93 16093 3.1 80 22:59 01.10.2019
963 Clouds 5 1013 93 16093 3.1 80 22:39 01.10.2019
964 Clouds 5 1013 93 16093 3.1 80 22:19 01.10.2019
965 Clouds 4 1013 93 16093 3.6 80 21:56 01.10.2019
966 Clouds 4 1013 93 16093 3.6 80 21:37 01.10.2019
967 Clouds 4 1013 93 16093 3.6 80 21:19 01.10.2019
968 Clouds 3 1013 100 16093 1.5 90 20:55 01.10.2019
969 Clouds 3 1013 100 16093 1.5 90 20:36 01.10.2019
970 Clouds 3 1013 100 16093 1.5 90 20:18 01.10.2019
971 Clouds 3 1013 100 16093 3.6 80 19:45 01.10.2019
972 Clouds 3 1013 100 16093 3.6 80 19:27 01.10.2019
973 Clouds 4 1013 93 16093 2.1 0 18:59 01.10.2019
974 Clouds 4 1013 93 16093 2.1 0 18:39 01.10.2019
975 Clouds 4 1013 93 16093 2.1 0 18:21 01.10.2019
976 Clouds 4 1013 93 16093 1.5 0 17:57 01.10.2019
977 Clouds 4 1013 93 16093 1.5 0 17:38 01.10.2019
978 Clouds 4 1013 93 16093 1.5 0 17:19 01.10.2019
979 Clouds 4 1013 100 16093 2.6 90 16:57 01.10.2019
980 Clouds 4 1013 100 16093 2.6 90 16:39 01.10.2019
981 Clouds 4 1013 100 16093 2.6 90 16:20 01.10.2019
982 Clouds 3 1014 100 16093 1.5 70 15:42 01.10.2019
983 Clouds 3 1014 100 16093 1.5 70 15:22 01.10.2019
984 Rain 3 1014 100 16093 1.5 110 14:41 01.10.2019
985 Rain 3 1014 100 16093 1.5 110 14:20 01.10.2019
986 Rain 3 1014 100 16093 1.5 110 14:20 01.10.2019
987 Rain 3 1014 100 16093 2.6 80 13:58 01.10.2019
988 Rain 3 1014 100 16093 2.6 80 13:58 01.10.2019
989 Rain 3 1014 100 16093 2.6 80 13:58 01.10.2019
990 Rain 4 1014 100 11265 2.4 252.969 13:39 01.10.2019
991 Rain 4 1014 100 11265 2.4 252.969 13:39 01.10.2019
992 Rain 4 1014 100 11265 0.73 212.759 13:20 01.10.2019
993 Clouds 4 1014 93 16093 1.5 60 12:58 01.10.2019
994 Clouds 4 1014 93 16093 1.5 60 12:39 01.10.2019
995 Clouds 4 1014 93 16093 1.5 60 12:19 01.10.2019
996 Clouds 4 1014 86 16093 1.5 70 11:58 01.10.2019
997 Clouds 4 1014 86 16093 1.5 70 11:38 01.10.2019
998 Clouds 4 1014 86 16093 1.5 70 11:18 01.10.2019
999 Clouds 4 1014 93 16093 1.29 274.712 10:49 01.10.2019
1000 Clouds 4 1014 93 16093 1.29 274.712 10:29 01.10.2019
1001 Clouds 4 1014 93 16093 1.29 274.712 09:49 01.10.2019
1002 Clouds 4 1014 93 16093 1.29 274.712 09:31 01.10.2019
1003 Clouds 4 1014 86 16093 2.1 300 08:57 01.10.2019
1004 Clouds 4 1014 86 16093 2.1 300 08:39 01.10.2019
1005 Clouds 4 1014 86 16093 2.1 300 08:21 01.10.2019
1006 Clouds 4 1014 86 16093 2.6 320 07:43 01.10.2019
1007 Clouds 4 1014 86 16093 2.6 320 07:24 01.10.2019
1008 Clouds 5 1014 80 16093 3.1 330 06:47 01.10.2019
1009 Clouds 6 1014 75 16093 4.1 310 06:18 01.10.2019
1010 Clouds 6 1014 75 16093 4.1 310 06:18 01.10.2019
1011 Clouds 6 1014 81 16093 3.6 310 05:46 01.10.2019
1012 Clouds 6 1014 81 16093 3.6 310 05:18 01.10.2019
1013 Clouds 6 1013 81 16093 4.6 300 04:29 01.10.2019
1014 Clouds 7 1013 70 16093 6.7 290 02:28 01.10.2019
1015 Clouds 6 1013 75 16093 6.7 300 01:58 01.10.2019
1016 Clouds 6 1013 81 16093 6.7 300 00:57 01.10.2019
1017 Clouds 6 1013 81 16093 6.7 300 00:28 01.10.2019
1018 Clouds 7 1012 75 16093 4.6 290 23:57 30.09.2019
1019 Clouds 6 1012 81 16093 4.1 320 23:39 30.09.2019
1020 Clouds 6 1012 81 16093 4.1 320 23:19 30.09.2019
1021 Clouds 5 1011 86 16093 5.1 300 22:43 30.09.2019
1022 Clouds 5 1011 86 16093 5.1 300 22:25 30.09.2019
1023 Clear 3 1011 93 16093 4.6 310 21:57 30.09.2019
1024 Clear 3 1011 93 16093 4.6 310 21:38 30.09.2019
1025 Clear 3 1011 93 16093 4.6 310 21:19 30.09.2019
1026 Clouds 3 1010 100 16093 3.1 310 20:57 30.09.2019
1027 Clouds 3 1010 100 16093 3.1 310 20:39 30.09.2019
1028 Clouds 3 1010 100 16093 3.1 310 20:20 30.09.2019
1029 Clouds 4 1009 86 16093 2.6 350 19:56 30.09.2019
1030 Clouds 4 1009 86 16093 2.6 350 19:56 30.09.2019
1031 Clouds 4 1009 86 16093 2.6 350 19:56 30.09.2019
1032 Clouds 4 1009 86 16093 2.6 350 19:38 30.09.2019
1033 Clouds 4 1009 86 16093 2.6 350 19:19 30.09.2019
1034 Clouds 5 1008 93 16093 6.2 300 18:56 30.09.2019
1035 Clouds 5 1008 93 16093 6.2 300 18:37 30.09.2019
1036 Clouds 5 1008 93 16093 6.2 300 18:19 30.09.2019
1037 Clouds 5 1007 93 16093 8.2 300 17:42 30.09.2019
1038 Clouds 5 1007 93 16093 8.2 300 17:22 30.09.2019
1039 Clouds 5 1006 93 16093 2.6 290 16:57 30.09.2019
1040 Clouds 5 1006 93 16093 2.6 290 16:39 30.09.2019
1041 Clouds 5 1006 93 16093 2.6 290 16:19 30.09.2019
1042 Clouds 4 1006 93 16093 3.6 300 15:57 30.09.2019
1043 Clouds 4 1006 93 16093 3.6 300 15:37 30.09.2019
1044 Clouds 4 1006 93 16093 3.6 300 15:19 30.09.2019
1045 Clouds 5 1005 86 16093 5.1 320 14:57 30.09.2019
1046 Clouds 5 1005 86 16093 5.1 320 14:37 30.09.2019
1047 Clouds 5 1005 86 16093 5.1 320 14:18 30.09.2019
1048 Clouds 5 1005 86 16093 5.1 320 14:18 30.09.2019
1049 Clouds 5 1005 86 16093 5.1 320 14:18 30.09.2019
1050 Clouds 4 1004 93 16093 4.6 310 13:56 30.09.2019
1051 Clouds 4 1004 93 16093 4.6 310 13:37 30.09.2019
1052 Clouds 5 1002 93 16093 5.7 290 13:19 30.09.2019
1053 Clouds 5 1002 93 16093 5.7 290 12:42 30.09.2019
1054 Clouds 5 1002 93 16093 5.7 290 12:22 30.09.2019
1055 Clouds 6 1001 87 16093 5.1 290 11:56 30.09.2019
1056 -273 0 0 0 0 0 11:56 30.09.2019
1057 Clouds 6 1001 87 16093 5.1 290 11:38 30.09.2019
1058 Clouds 6 1001 87 16093 5.1 290 11:19 30.09.2019
1059 Clouds 6 1000 87 16093 6.2 310 10:41 30.09.2019
1060 Clouds 6 1000 87 16093 6.2 310 10:19 30.09.2019
1061 Rain 6 999 93 16093 5.7 300 09:59 30.09.2019
1062 Rain 6 999 93 16093 5.7 300 09:39 30.09.2019
1063 Rain 6 999 93 16093 5.7 300 09:20 30.09.2019
1064 Rain 6 998 100 14484 4.1 280 08:47 30.09.2019
1065 Rain 6 998 100 14484 4.1 280 08:47 30.09.2019
1066 Rain 6 998 100 14484 4.1 280 08:29 30.09.2019
1067 Rain 6 998 100 11265 2.1 240 07:46 30.09.2019
1068 Rain 6 998 100 11265 7.46 260.7 07:28 30.09.2019
1069 Rain 6 997 100 12874 7.46 260.7 06:56 30.09.2019
1070 Rain 6 997 100 12874 7.46 260.7 06:56 30.09.2019
1071 Rain 6 997 100 8047 2.1 340 06:34 30.09.2019
1072 Rain 6 997 100 8047 2.1 340 06:34 30.09.2019
1073 Rain 7 996 100 11265 4.1 290 05:48 30.09.2019
1074 Rain 7 996 100 11265 4.1 290 05:48 30.09.2019
1075 Rain 7 996 100 8047 3.1 320 04:53 30.09.2019
1076 Rain 7 995 100 8047 3.1 340 02:48 30.09.2019
1077 Rain 7 996 100 4023 1.5 10 01:39 30.09.2019
1078 Clouds 8 996 93 16093 2.6 60 00:43 30.09.2019
1079 Clouds 8 996 93 16093 2.6 60 00:23 30.09.2019
1080 Rain 7 996 100 16093 2.1 50 23:56 29.09.2019
1081 Rain 7 996 100 16093 2.1 50 23:38 29.09.2019
1082 Rain 7 996 100 16093 2.1 50 23:19 29.09.2019
1083 Rain 7 996 100 16093 2.6 50 22:42 29.09.2019
1084 Rain 7 996 100 16093 2.6 50 22:23 29.09.2019
1085 Rain 7 996 100 16093 2.6 50 22:23 29.09.2019
1086 Rain 7 996 100 11265 2.1 30 21:58 29.09.2019
1087 Clouds 7 996 100 12874 2.6 50 21:38 29.09.2019
1088 Clouds 7 996 100 12874 2.6 50 21:19 29.09.2019
1089 Clouds 7 996 100 12874 2.6 50 21:19 29.09.2019
1090 Clouds 6 997 100 16093 2.6 70 20:57 29.09.2019
1091 Clouds 6 997 100 16093 2.6 70 20:38 29.09.2019
1092 Clouds 6 997 100 16093 2.6 70 20:19 29.09.2019
1093 Clouds 6 997 100 16093 1.5 60 19:39 29.09.2019
1094 Clouds 6 997 100 16093 1.5 60 19:19 29.09.2019
1095 Clouds 6 997 100 16093 2.6 50 18:57 29.09.2019
1096 Clouds 6 997 100 16093 2.6 50 18:57 29.09.2019
1097 Clouds 6 997 100 16093 2.6 50 18:39 29.09.2019
1098 Clouds 7 997 93 16093 4.1 50 18:20 29.09.2019
1099 Clouds 7 997 93 16093 4.1 50 17:59 29.09.2019
1100 Clouds 7 997 93 16093 4.1 50 17:41 29.09.2019
1101 Clouds 7 997 93 16093 4.1 50 17:20 29.09.2019
1102 Clouds 7 997 93 16093 3.6 50 17:00 29.09.2019
1103 Clouds 7 997 93 16093 3.6 50 17:00 29.09.2019
1104 Clouds 7 998 93 16093 3.1 60 16:41 29.09.2019
1105 Clouds 7 998 93 16093 3.1 60 16:20 29.09.2019
1106 Clouds 7 998 93 16093 3.1 70 15:58 29.09.2019
1107 Clouds 6 998 100 16093 4.6 70 15:37 29.09.2019
1108 Clouds 6 998 100 16093 4.6 70 15:18 29.09.2019
1109 Clouds 7 999 93 16093 5.7 70 14:58 29.09.2019
1110 Clouds 7 999 93 16093 5.7 70 14:38 29.09.2019
1111 Clouds 7 999 93 16093 5.7 70 14:19 29.09.2019
1112 Clouds 6 999 100 16093 5.1 70 13:56 29.09.2019
1113 Clouds 6 999 100 16093 5.1 70 13:36 29.09.2019
1114 Clouds 6 999 100 16093 5.1 70 13:18 29.09.2019
1115 Clouds 7 1000 100 12874 5.7 80 12:56 29.09.2019
1116 Rain 7 1000 100 4828 5.7 70 12:38 29.09.2019
1117 Rain 7 1000 100 4828 5.7 70 12:38 29.09.2019
1118 Rain 7 1000 100 6437 4.6 90 12:20 29.09.2019
1119 Rain 7 1000 100 6437 4.6 90 11:41 29.09.2019
1120 Rain 7 1000 100 6437 4.6 90 11:20 29.09.2019
1121 Rain 7 1001 100 4023 4.6 100 10:58 29.09.2019
1122 Rain 7 1001 100 4828 6.2 100 10:39 29.09.2019
1123 Rain 7 1001 100 4828 6.2 100 10:20 29.09.2019
1124 Rain 7 1001 100 4828 6.2 100 10:20 29.09.2019
1125 Rain 8 1002 100 6437 5.7 110 09:57 29.09.2019
1126 Rain 8 1002 100 6437 6.2 110 09:39 29.09.2019
1127 Rain 8 1002 100 6437 6.2 110 09:19 29.09.2019
1128 Rain 8 1003 100 12874 5.1 110 08:43 29.09.2019
1129 Rain 8 1003 100 12874 5.1 110 08:22 29.09.2019
1130 Rain 8 1003 100 9656 6.2 120 07:44 29.09.2019
1131 Rain 8 1003 100 9656 6.2 120 07:44 29.09.2019
1132 Rain 8 1003 100 9656 6.2 120 07:26 29.09.2019
1133 Rain 8 1005 100 4828 6.2 130 06:50 29.09.2019
1134 Rain 8 1005 100 4828 6.2 130 06:22 29.09.2019
1135 Rain 8 1006 100 6437 5.7 140 04:52 29.09.2019
1136 Rain 8 1006 100 6437 5.1 140 04:24 29.09.2019
1137 Rain 8 1007 100 2816 6.2 140 03:42 29.09.2019
1138 Rain 8 1008 100 3219 6.2 140 02:19 29.09.2019
1139 Rain 8 1008 100 3219 6.2 140 02:19 29.09.2019
1140 Rain 8 1008 100 3219 5.1 150 01:45 29.09.2019
1141 Rain 8 1009 100 6437 5.1 150 01:19 29.09.2019
1142 Rain 8 1009 100 6437 6.2 150 00:41 29.09.2019
1143 Rain 8 1010 100 16093 7.2 150 00:19 29.09.2019
1144 Rain 8 1011 100 4828 6.7 150 23:39 28.09.2019
1145 Rain 8 1011 100 4828 6.7 150 23:20 28.09.2019
1146 Rain 8 1011 100 8047 6.2 150 22:41 28.09.2019
1147 Rain 8 1011 100 8047 6.2 150 22:23 28.09.2019
1148 Clouds 8 1011 100 14484 5.7 160 21:59 28.09.2019
1149 Clouds 8 1011 100 14484 5.7 160 21:40 28.09.2019
1150 Clouds 8 1011 100 14484 5.7 160 21:40 28.09.2019
1151 Clouds 8 1011 100 14484 5.7 160 21:21 28.09.2019
1152 Clouds 8 1011 100 16093 7.2 160 20:59 28.09.2019
1153 Clouds 8 1011 100 16093 7.2 160 20:40 28.09.2019
1154 Clouds 8 1011 100 16093 7.2 160 20:20 28.09.2019
1155 Rain 8 1011 100 16093 8.7 170 19:57 28.09.2019
1156 Rain 8 1011 100 16093 8.7 170 19:39 28.09.2019
1157 Rain 8 1011 100 16093 8.7 170 19:21 28.09.2019
1158 Clouds 8 1011 100 16093 8.2 170 18:58 28.09.2019
1159 Clouds 8 1011 100 16093 8.2 170 18:39 28.09.2019
1160 Clouds 8 1011 100 16093 8.2 170 18:21 28.09.2019
1161 Clouds 8 1011 100 16093 8.2 170 17:56 28.09.2019
1162 Clouds 8 1011 100 16093 8.2 170 17:38 28.09.2019
1163 Clouds 8 1011 100 16093 8.2 170 17:20 28.09.2019
1164 Mist 8 1011 100 9656 8.2 170 16:44 28.09.2019
1165 Rain 8 1011 100 14484 8.2 160 16:25 28.09.2019
1166 Rain 8 1012 100 6437 8.7 160 15:42 28.09.2019
1167 Rain 8 1012 100 6437 8.7 160 15:23 28.09.2019
1168 Clouds 8 1012 100 11265 10.8 170 14:58 28.09.2019
1169 Clouds 8 1012 100 11265 10.8 170 14:40 28.09.2019
1170 Clouds 8 1012 100 11265 10.8 170 14:21 28.09.2019
1171 Clouds 8 1012 100 16093 11.3 160 13:58 28.09.2019
1172 Clouds 8 1012 100 16093 11.3 160 13:38 28.09.2019
1173 Clouds 8 1012 100 16093 11.3 160 13:20 28.09.2019
1174 Clouds 8 1012 100 14484 9.3 170 12:45 28.09.2019
1175 Clouds 8 1012 100 14484 9.3 170 12:20 28.09.2019
1176 Clouds 8 1012 100 11265 10.3 160 11:59 28.09.2019
1177 Clouds 8 1012 100 11265 10.3 160 11:39 28.09.2019
1178 Clouds 8 1012 100 11265 10.3 160 11:19 28.09.2019
1179 Rain 8 1012 100 8047 10.8 160 10:43 28.09.2019
1180 Mist 8 1012 100 9656 10.8 150 10:21 28.09.2019
1181 Clouds 8 1012 100 11265 10.3 150 09:58 28.09.2019
1182 Clouds 8 1012 100 11265 10.3 150 09:40 28.09.2019
1183 Clouds 8 1012 100 11265 10.3 150 09:40 28.09.2019
1184 Clouds 8 1012 100 11265 10.3 150 09:18 28.09.2019
1185 Clouds 8 1012 100 14484 10.3 160 08:46 28.09.2019
1186 Clouds 8 1012 100 14484 10.3 160 08:28 28.09.2019
1187 Rain 8 1012 100 16093 10.8 160 07:46 28.09.2019
1188 Rain 8 1012 100 16093 10.8 160 07:24 28.09.2019
1189 Rain 8 1012 100 14484 11.3 160 06:59 28.09.2019
1190 Rain 8 1012 100 14484 11.3 160 06:33 28.09.2019
1191 Rain 8 1012 100 11265 10.3 160 05:59 28.09.2019
1192 Rain 8 1012 100 11265 10.3 160 05:24 28.09.2019
1193 Rain 8 1013 100 8047 11.3 160 04:44 28.09.2019
1194 Rain 8 1013 100 8047 11.3 160 04:21 28.09.2019
1195 Rain 8 1013 100 14484 11.3 160 03:33 28.09.2019
1196 Rain 8 1013 100 9656 10.8 160 02:57 28.09.2019
1197 Rain 8 1013 100 9656 10.8 160 02:36 28.09.2019
1198 Rain 8 1014 100 6437 10.3 160 01:56 28.09.2019
1199 Rain 8 1014 100 6437 10.3 160 01:38 28.09.2019
1200 Rain 8 1014 100 6437 10.3 160 01:18 28.09.2019
1201 Rain 8 1014 100 8047 10.8 160 00:43 28.09.2019
1202 Rain 8 1014 100 8047 10.8 160 00:25 28.09.2019
1203 Rain 8 1013 100 11265 12.9 160 23:38 27.09.2019
1204 Rain 8 1013 100 11265 12.9 160 23:20 27.09.2019
1205 Rain 8 1013 100 4023 14.4 150 22:47 27.09.2019
1206 Rain 8 1013 100 4023 14.4 150 22:20 27.09.2019
1207 Rain 8 1013 93 4828 13.9 150 21:59 27.09.2019
1208 Rain 8 1013 93 4828 13.9 150 21:39 27.09.2019
1209 Rain 8 1013 93 4828 13.9 150 21:20 27.09.2019
1210 Rain 8 1014 93 8047 12.9 150 20:58 27.09.2019
1211 Rain 8 1014 93 8047 12.9 150 20:40 27.09.2019
1212 Rain 8 1014 93 8047 12.9 150 20:40 27.09.2019
1213 Rain 8 1014 93 8047 12.9 150 20:19 27.09.2019
1214 Rain 8 1014 93 8047 12.9 150 20:19 27.09.2019
1215 Rain 8 1014 93 8047 12.9 150 20:19 27.09.2019
1216 Rain 8 1014 93 11265 12.9 150 19:57 27.09.2019
1217 Rain 8 1014 93 11265 12.9 150 19:38 27.09.2019
1218 Rain 8 1014 93 11265 12.9 150 19:19 27.09.2019
1219 Rain 8 1014 93 9656 13.4 150 18:42 27.09.2019
1220 Rain 8 1014 93 9656 13.4 150 18:23 27.09.2019
1221 Rain 8 1015 93 11265 12.3 150 17:56 27.09.2019
1222 Rain 8 1015 93 11265 12.3 150 17:38 27.09.2019
1223 Rain 8 1015 93 11265 12.3 150 17:19 27.09.2019
1224 Rain 8 1015 93 14484 12.9 140 16:57 27.09.2019
1225 Rain 8 1015 93 14484 12.9 140 16:37 27.09.2019
1226 Rain 8 1015 93 14484 12.9 140 16:18 27.09.2019
1227 Rain 8 1015 93 14484 12.9 140 16:18 27.09.2019
1228 Rain 8 1015 93 14484 12.9 140 16:18 27.09.2019
1229 Rain 8 1016 93 9656 12.3 150 15:45 27.09.2019
1230 Rain 8 1016 93 9656 12.3 150 15:21 27.09.2019
1231 Clouds 8 1016 93 14484 10.3 140 14:58 27.09.2019
1232 Clouds 8 1016 93 14484 10.3 140 14:40 27.09.2019
1233 Clouds 8 1016 93 14484 10.3 140 14:21 27.09.2019
1234 Clouds 8 1016 93 16093 11.3 150 13:57 27.09.2019
1235 Clouds 8 1016 93 16093 11.3 150 13:39 27.09.2019
1236 Clouds 8 1016 93 16093 11.3 150 13:21 27.09.2019
1237 Clouds 8 1017 93 16093 9.3 140 12:54 27.09.2019
1238 Clouds 8 1017 93 16093 9.3 140 12:23 27.09.2019
1239 Clouds 8 1017 93 14484 9.8 150 11:58 27.09.2019
1240 Clouds 8 1017 93 14484 9.8 150 11:38 27.09.2019
1241 Clouds 8 1017 93 14484 9.8 150 11:19 27.09.2019
1242 Clouds 8 1017 100 14484 9.3 140 10:43 27.09.2019
1243 Clouds 8 1017 100 14484 9.3 140 10:23 27.09.2019
1244 Clouds 8 1017 100 14484 10.8 150 09:58 27.09.2019
1245 Clouds 8 1017 100 14484 10.8 150 09:40 27.09.2019
1246 Clouds 8 1017 100 14484 10.8 150 09:19 27.09.2019
1247 Clouds 8 1017 100 14484 10.3 140 08:42 27.09.2019
1248 Clouds 8 1017 100 14484 10.3 140 08:21 27.09.2019
1249 Rain 8 1017 100 12874 10.8 140 07:57 27.09.2019
1250 Rain 8 1017 100 12874 10.8 140 07:39 27.09.2019
1251 Rain 8 1017 100 9656 9.8 140 07:19 27.09.2019
1252 Rain 8 1017 100 11265 9.3 150 06:40 27.09.2019
1253 Rain 8 1017 100 11265 9.3 150 06:21 27.09.2019
1254 Rain 8 1018 93 9656 10.8 140 05:47 27.09.2019
1255 Rain 8 1018 93 9656 10.8 140 05:29 27.09.2019
1256 Rain 7 1019 100 11265 8.2 140 03:40 27.09.2019
1257 Rain 6 1020 100 14484 10.8 120 01:57 27.09.2019
1258 Rain 6 1020 100 14484 10.8 120 01:57 27.09.2019
1259 Rain 6 1020 100 14484 10.8 120 01:32 27.09.2019
1260 Rain 6 1020 81 12874 10.3 120 00:44 27.09.2019
1261 Clouds 6 1021 75 16093 9.8 120 23:58 26.09.2019
1262 Clouds 6 1021 75 16093 9.8 120 23:40 26.09.2019
1263 Clouds 6 1021 75 16093 9.8 120 23:22 26.09.2019
1264 Clouds 5 1021 80 16093 7.7 110 22:59 26.09.2019
1265 Clouds 5 1021 80 16093 7.7 110 22:40 26.09.2019
1266 Clouds 5 1021 80 16093 7.7 110 22:19 26.09.2019
1267 Clouds 4 1021 80 16093 6.2 130 21:59 26.09.2019
1268 Clouds 4 1021 80 16093 6.2 130 21:38 26.09.2019
1269 Clouds 4 1021 80 16093 6.2 130 21:38 26.09.2019
1270 Clouds 4 1021 80 16093 6.2 130 21:20 26.09.2019
1271 Clouds 3 1021 86 16093 5.7 80 20:59 26.09.2019
1272 Clouds 3 1021 86 16093 5.7 80 20:59 26.09.2019
1273 Clouds 3 1021 86 16093 5.7 80 20:59 26.09.2019
1274 Clouds 3 1021 86 16093 5.7 80 20:40 26.09.2019
1275 Clouds 3 1021 86 16093 5.7 80 20:21 26.09.2019
1276 Clouds 2 1021 72 16093 4.1 70 19:59 26.09.2019
1277 Clouds 2 1021 72 16093 4.1 70 19:40 26.09.2019
1278 Clouds 1 1022 72 16093 4.1 70 19:18 26.09.2019
1279 Clouds 1 1022 72 16093 4.1 70 18:57 26.09.2019
1280 Clouds 1 1022 72 16093 4.1 70 18:37 26.09.2019
1281 Clouds 1 1022 69 16093 4.1 70 18:19 26.09.2019
1282 Clouds 1 1022 86 16093 2.6 70 17:38 26.09.2019
1283 Clouds 1 1022 86 16093 2.6 70 17:38 26.09.2019
1284 Clouds 1 1022 86 16093 2.6 70 17:38 26.09.2019
1285 Clouds 1 1022 86 16093 2.6 70 17:19 26.09.2019
1286 Rain 1 1022 86 9656 3.1 90 16:57 26.09.2019
1287 Clouds 2 1022 69 16093 3.1 70 16:39 26.09.2019
1288 Clouds 2 1022 69 16093 3.1 70 16:20 26.09.2019
1289 Clouds -1 1022 92 16093 1.5 360 15:56 26.09.2019
1290 Clouds -1 1022 92 16093 1.5 360 15:37 26.09.2019
1291 Clouds -1 1022 92 16093 1.5 360 15:18 26.09.2019
1292 Clear -1 1022 92 16093 1.5 50 14:41 26.09.2019
1293 Clear -1 1022 92 16093 1.5 50 14:23 26.09.2019
1294 Clouds -1 1022 92 16093 1.5 340 13:58 26.09.2019
1295 Clouds -1 1022 92 16093 1.5 340 13:40 26.09.2019
1296 Clouds -1 1022 92 16093 1.5 340 13:19 26.09.2019
1297 Clouds -1 1022 92 16093 1.5 360 12:56 26.09.2019
1298 Clouds -1 1021 92 16093 0.52 37.595 12:38 26.09.2019
1299 Clouds -1 1021 92 16093 1.57 323.254 12:19 26.09.2019
1300 Clouds -1 1021 92 16093 1.57 323.254 12:19 26.09.2019
1301 Clouds -2 1021 92 16093 2.6 30 11:42 26.09.2019
1302 Clouds -2 1021 92 16093 2.6 30 11:21 26.09.2019
1303 Clear -2 1020 92 16093 1.57 323.254 10:55 26.09.2019
1304 Clear -2 1020 92 16093 1.57 323.254 10:37 26.09.2019
1305 Clear -2 1020 92 16093 1.57 323.254 10:19 26.09.2019
1306 Clear -1 1020 92 16093 2.1 320 09:43 26.09.2019
1307 Clear -1 1020 92 16093 2.1 320 09:43 26.09.2019
1308 Clear -1 1020 92 16093 2.1 320 09:25 26.09.2019
1309 Clear 1 1019 80 16093 2.1 310 08:54 26.09.2019
1310 Clear 1 1019 80 16093 2.1 310 08:33 26.09.2019
1311 Clear 2 1018 80 16093 2.1 320 07:59 26.09.2019
1312 Clear 2 1018 80 16093 2.1 320 07:41 26.09.2019
1313 Clear 2 1018 80 16093 2.1 320 07:20 26.09.2019
1314 Clear 4 1018 71 16093 3.1 290 06:43 26.09.2019
1315 Clear 4 1018 62 16093 3.1 290 06:24 26.09.2019
1316 Clear 4 1017 62 16093 4.6 300 05:44 26.09.2019
1317 Clear 4 1017 62 16093 4.6 300 05:21 26.09.2019
1318 Clouds 7 1014 52 16093 7.7 310 02:47 26.09.2019
1319 Clouds 6 1014 56 16093 6.2 330 01:53 26.09.2019
1320 Clouds 6 1014 56 16093 6.2 330 01:28 26.09.2019
1321 Clouds 6 1013 57 16093 7.2 300 00:55 26.09.2019
1322 Clouds 6 1013 57 16093 7.2 300 00:37 26.09.2019
1323 Clouds 4 1012 69 16093 6.2 310 23:47 25.09.2019
1324 Clouds 4 1012 69 16093 6.2 310 23:28 25.09.2019
1325 Clouds 4 1011 69 16093 6.7 310 22:57 25.09.2019
1326 Clouds 4 1011 69 16093 6.7 310 22:39 25.09.2019
1327 Clouds 4 1011 69 16093 6.7 310 22:20 25.09.2019
1328 Clouds 2 1010 74 16093 3.6 290 21:56 25.09.2019
1329 Clouds 2 1010 74 16093 3.6 290 21:38 25.09.2019
1330 Clouds 2 1010 74 16093 3.6 290 21:19 25.09.2019
1331 Clouds 1 1009 80 16093 3.1 290 20:56 25.09.2019
1332 Clouds 1 1009 80 16093 3.1 290 20:38 25.09.2019
1333 Clouds 1 1009 80 16093 3.1 290 20:19 25.09.2019
1334 Clouds 1 1007 80 16093 5.7 330 19:41 25.09.2019
1335 Clouds 1 1007 80 16093 5.7 330 19:22 25.09.2019
1336 Clouds 1 1007 80 16093 5.7 330 18:57 25.09.2019
1337 Clear 1 1007 74 16093 4.1 300 18:39 25.09.2019
1338 Clear 1 1007 74 16093 4.1 300 18:21 25.09.2019
1339 Clear 0 1006 74 16093 2.1 320 17:59 25.09.2019
1340 Clear 0 1006 74 16093 2.1 320 17:38 25.09.2019
1341 Clear 0 1006 74 16093 2.1 320 17:19 25.09.2019
1342 Clear 0 1005 74 16093 2.1 280 16:45 25.09.2019
1343 Clear 0 1005 74 16093 2.1 280 16:27 25.09.2019
1344 Clear 0 1005 74 16093 3.1 330 15:59 25.09.2019
1345 Clear 0 1005 74 16093 3.1 330 15:40 25.09.2019
1346 Clear 0 1005 75 16093 3.1 330 15:22 25.09.2019
1347 Clouds 1 1004 80 16093 4.6 280 14:56 25.09.2019
1348 Clouds 1 1004 80 16093 4.6 280 14:38 25.09.2019
1349 Clouds 1 1004 80 16093 4.6 280 14:20 25.09.2019
1350 Clouds 0 1003 75 16093 3.1 280 13:41 25.09.2019
1351 Clouds 0 1003 74 16093 3.1 280 13:22 25.09.2019
1352 Clouds 0 1003 74 16093 3.1 280 13:22 25.09.2019
1353 Clouds 2 1003 74 16093 4.1 320 12:58 25.09.2019
1354 Clouds 2 1003 74 16093 4.1 320 12:39 25.09.2019
1355 Clouds 2 1003 73 16093 4.1 320 12:21 25.09.2019
1356 Clouds 2 1003 73 16093 4.6 350 11:55 25.09.2019
1357 Clouds 2 1003 73 16093 4.6 350 11:36 25.09.2019
1358 Clouds 2 1003 73 16093 4.6 350 11:18 25.09.2019
1359 Clouds 2 1003 93 16093 3.6 340 10:41 25.09.2019
1360 Clouds 2 1003 93 16093 3.6 340 10:22 25.09.2019
1361 Clouds 2 1003 93 16093 5.1 10 09:56 25.09.2019
1362 Clouds 2 1003 93 16093 5.1 10 09:36 25.09.2019
1363 Clouds 2 1003 93 16093 5.1 10 09:18 25.09.2019
1364 Clouds 2 1003 93 16093 3.6 50 08:42 25.09.2019
1365 Clouds 2 1003 93 16093 3.6 50 08:21 25.09.2019
1366 Rain 2 1004 93 16093 4.6 40 07:56 25.09.2019
1367 Rain 2 1004 93 16093 4.6 40 07:37 25.09.2019
1368 Rain 2 1005 93 14484 4.6 90 07:19 25.09.2019
1369 Rain 2 1005 93 14484 4.6 90 06:43 25.09.2019
1370 Rain 2 1005 93 14484 4.6 90 06:21 25.09.2019
1371 Clouds 2 1005 93 16093 2.6 250 05:27 25.09.2019
1372 Clouds 4 1005 80 16093 5.1 100 04:50 25.09.2019
1373 Clear 4 1007 57 16093 3.1 140 02:19 25.09.2019
1374 Rain 3 1008 93 16093 3.6 90 00:45 25.09.2019
1375 Rain 3 1008 93 16093 3.6 90 00:24 25.09.2019
1376 Clouds 2 1008 93 16093 4.1 110 23:55 24.09.2019
1377 Clouds 2 1008 93 16093 4.1 110 23:37 24.09.2019
1378 Clouds 2 1008 93 16093 4.1 110 23:18 24.09.2019
1379 Rain 2 1008 93 16093 3.1 70 22:39 24.09.2019
1380 Rain 2 1008 93 16093 3.1 70 22:20 24.09.2019
1381 Rain 1 1008 63 16093 4.1 330 21:56 24.09.2019
1382 Rain 1 1008 63 16093 4.1 330 21:37 24.09.2019
1383 Rain 1 1008 64 16093 4.1 330 21:19 24.09.2019
1384 Clouds -1 1008 100 16093 2.6 10 20:57 24.09.2019
1385 Clouds -1 1008 100 16093 2.6 10 20:39 24.09.2019
1386 Clouds -1 1008 100 16093 2.6 10 20:20 24.09.2019
1387 Clouds -1 1008 92 16093 2.1 30 19:55 24.09.2019
1388 Clouds -1 1008 92 16093 2.1 30 19:36 24.09.2019
1389 Clouds 0 1008 64 16093 4.1 90 19:18 24.09.2019
1390 Clouds 0 1008 64 16093 4.1 90 18:42 24.09.2019
1391 Clouds 0 1008 72 16093 4.1 90 18:22 24.09.2019
1392 Clear -1 1008 92 16093 1.5 20 17:59 24.09.2019
1393 Clear -1 1008 92 16093 1.5 20 17:39 24.09.2019
1394 Clear -1 1008 92 16093 1.5 20 17:39 24.09.2019
1395 Clear -1 1008 92 16093 1.5 20 17:21 24.09.2019
1396 Clouds 0 1008 72 16093 2.1 40 16:59 24.09.2019
1397 Clouds 0 1008 72 16093 2.1 40 16:59 24.09.2019
1398 Clouds 0 1008 72 16093 2.1 40 16:40 24.09.2019
1399 Clouds 0 1008 72 16093 2.1 40 16:19 24.09.2019
1400 Clouds 0 1008 72 16093 2.1 40 16:19 24.09.2019
1401 Clear -3 1008 92 16093 2.1 340 15:43 24.09.2019
1402 Clear -3 1008 92 16093 2.1 340 15:23 24.09.2019
1403 Clear -4 1008 100 16093 2.1 20 14:58 24.09.2019
1404 Clear -4 1008 100 16093 2.1 20 14:37 24.09.2019
1405 Clear -4 1008 100 16093 2.1 20 14:18 24.09.2019
1406 Clear -3 1008 100 16093 2.1 20 13:40 24.09.2019
1407 Clear -3 1008 100 16093 2.1 20 13:21 24.09.2019
1408 Clouds -2 1007 86 16093 1.5 350 12:42 24.09.2019
1409 Clouds -2 1007 86 16093 1.5 350 12:21 24.09.2019
1410 Clouds -1 1007 92 16093 2.1 20 11:57 24.09.2019
1411 Clouds -1 1007 92 16093 2.1 20 11:39 24.09.2019
1412 Clouds -1 1007 92 16093 2.1 20 11:19 24.09.2019
1413 Clear -2 1007 92 16093 0.98 301.194 10:40 24.09.2019
1414 Clear -2 1007 92 16093 0.98 301.194 10:21 24.09.2019
1415 Clear -1 1006 92 16093 0.98 301.194 09:57 24.09.2019
1416 Clear -1 1006 92 16093 0.98 301.194 09:39 24.09.2019
1417 Clear -1 1006 92 16093 1.86 281.449 09:19 24.09.2019
1418 Clear 0 1006 71 16093 2.6 330 08:55 24.09.2019
1419 Clear 0 1006 71 16093 2.6 330 08:55 24.09.2019
1420 -273 0 0 0 0 0 08:55 24.09.2019
1421 Clear 0 1006 71 16093 2.6 330 08:55 24.09.2019
1422 Clear 0 1006 71 16093 2.6 330 08:36 24.09.2019
1423 Clear 0 1006 71 16093 2.6 330 08:18 24.09.2019
1424 Clear 2 1006 71 16093 2.6 300 07:41 24.09.2019
1425 Clear 2 1006 71 16093 2.6 300 07:22 24.09.2019
1426 Clouds 3 1005 86 16093 2.6 300 06:46 24.09.2019
1427 Clouds 3 1005 86 16093 2.6 300 06:27 24.09.2019
1428 Rain 4 1005 80 16093 5.1 240 05:25 24.09.2019
1429 Clouds 5 1004 65 16093 4.6 300 04:19 24.09.2019
1430 Clear 6 1004 52 16093 3.1 230 03:34 24.09.2019
1431 Clouds 5 1004 60 16093 5.1 270 02:45 24.09.2019
1432 Clouds 6 1003 52 16093 5.7 290 01:43 24.09.2019
1433 Clouds 6 1003 48 16093 7.2 280 00:42 24.09.2019
1434 Clouds 6 1003 48 16093 7.2 280 00:23 24.09.2019
1435 Clouds 5 1002 75 16093 5.7 290 23:43 23.09.2019
1436 Clouds 5 1002 75 16093 5.7 290 23:23 23.09.2019
1437 Clouds 5 1002 75 16093 5.7 290 23:23 23.09.2019
1438 Clear 4 1002 86 16093 5.1 300 22:57 23.09.2019
1439 Clear 4 1002 86 16093 5.1 300 22:37 23.09.2019
1440 Clear 4 1002 86 16093 5.1 300 22:37 23.09.2019
1441 Clear 4 1002 86 16093 5.1 300 22:19 23.09.2019
1442 Clouds 3 1001 93 16093 4.1 290 21:56 23.09.2019
1443 Clouds 3 1001 93 16093 4.1 290 21:37 23.09.2019
1444 Clouds 3 1001 93 16093 4.1 290 21:18 23.09.2019
1445 Clouds 2 1001 100 16093 2.1 360 20:40 23.09.2019
1446 Clouds 2 1001 100 16093 2.1 360 20:19 23.09.2019
1447 Clouds 2 1000 93 16093 5.1 300 19:55 23.09.2019
1448 Clouds 2 1000 93 16093 5.1 300 19:55 23.09.2019
1449 Clouds 2 1000 93 16093 5.1 300 19:37 23.09.2019
1450 Clouds 2 1000 93 16093 5.1 300 19:19 23.09.2019
1451 Clear 2 1000 93 16093 5.1 310 18:42 23.09.2019
1452 Clear 2 1000 93 16093 5.1 310 18:42 23.09.2019
1453 Clear 2 1000 93 16093 5.1 310 18:21 23.09.2019
1454 Clouds 2 999 93 16093 3.1 350 17:59 23.09.2019
1455 Clouds 2 999 93 16093 3.1 350 17:39 23.09.2019
1456 Clouds 2 999 93 16093 3.1 350 17:20 23.09.2019
1457 Clouds 2 998 93 16093 4.1 310 16:58 23.09.2019
1458 Clouds 2 998 93 16093 4.1 310 16:37 23.09.2019
1459 Clouds 2 998 93 16093 4.1 310 16:18 23.09.2019
1460 Clouds 1 998 100 16093 2.6 330 15:56 23.09.2019
1461 Clouds 1 998 100 16093 2.6 330 15:38 23.09.2019
1462 Clouds 1 998 100 16093 2.6 330 15:19 23.09.2019
1463 Clear 1 997 100 16093 2.6 270 14:40 23.09.2019
1464 Clear 1 997 100 16093 2.6 270 14:40 23.09.2019
1465 Clear 1 997 100 16093 2.6 270 14:21 23.09.2019
1466 Clouds 2 997 100 16093 2.1 320 13:59 23.09.2019
1467 Clouds 2 997 100 16093 2.1 320 13:39 23.09.2019
1468 Clouds 2 997 100 16093 2.1 320 13:18 23.09.2019
1469 Clouds 2 997 100 16093 2.1 320 12:56 23.09.2019
1470 Clouds 3 996 100 16093 2.6 300 12:37 23.09.2019
1471 Clouds 3 996 100 16093 2.6 300 12:19 23.09.2019
1472 Clear 2 996 100 16093 2.1 310 11:44 23.09.2019
1473 Clear 2 996 100 16093 2.1 310 11:26 23.09.2019
1474 Clouds 4 995 93 16093 2.84 301.871 10:55 23.09.2019
1475 Clouds 4 995 93 16093 2.84 301.871 10:36 23.09.2019
1476 Clouds 4 995 93 16093 2.84 301.871 10:18 23.09.2019
1477 Clouds 4 995 100 16093 2.6 300 09:38 23.09.2019
1478 Clouds 4 995 100 16093 2.6 300 09:20 23.09.2019
1479 Clouds 5 995 93 16093 2.6 320 08:50 23.09.2019
1480 Clouds 5 995 93 16093 2.6 320 08:30 23.09.2019
1481 Clouds 5 994 93 16093 2.1 300 07:58 23.09.2019
1482 Clouds 5 994 93 16093 2.1 300 07:31 23.09.2019
1483 Clouds 7 994 81 16093 3.1 300 06:44 23.09.2019
1484 Clouds 7 994 81 16093 3.1 300 06:18 23.09.2019
1485 Clouds 7 994 81 16093 3.1 300 05:22 23.09.2019
1486 Rain 7 994 81 16093 3.6 290 04:55 23.09.2019
1487 Rain 6 994 87 11265 3.6 290 03:54 23.09.2019
1488 Clouds 7 994 81 16093 3.1 40 01:22 23.09.2019
1489 Clouds 7 994 75 16093 2.6 50 00:23 23.09.2019
1490 Clouds 6 994 81 16093 3.6 30 23:57 22.09.2019
1491 Clouds 6 994 81 16093 3.6 30 23:33 22.09.2019
1492 Clouds 5 994 80 16093 4.6 30 22:59 22.09.2019
1493 Clouds 5 994 80 16093 4.6 30 22:41 22.09.2019
1494 Clouds 5 994 80 16093 4.6 30 22:23 22.09.2019
1495 Clouds 6 994 81 16093 3.6 20 21:55 22.09.2019
1496 Clouds 6 994 81 16093 3.6 20 21:37 22.09.2019
1497 Clouds 6 994 81 16093 3.6 20 21:37 22.09.2019
1498 Clouds 6 994 81 16093 3.6 20 21:19 22.09.2019
1499 Clouds 4 994 86 16093 3.1 10 20:42 22.09.2019
1500 Clouds 4 994 86 16093 3.1 10 20:24 22.09.2019
1501 Clouds 3 994 93 16093 3.6 10 19:56 22.09.2019
1502 Clouds 3 993 93 16093 4.1 20 19:37 22.09.2019
1503 Clouds 3 993 93 16093 4.1 20 19:19 22.09.2019
1504 Clouds 3 993 93 16093 4.1 20 18:55 22.09.2019
1505 Rain 3 993 93 16093 5.7 40 18:36 22.09.2019
1506 Rain 3 994 93 16093 5.1 30 18:18 22.09.2019
1507 Rain 3 994 93 16093 5.1 30 17:41 22.09.2019
1508 Rain 3 994 93 16093 5.1 30 17:22 22.09.2019
1509 Rain 3 994 93 14484 5.1 40 16:46 22.09.2019
1510 Clouds 3 994 93 16093 6.7 30 16:27 22.09.2019
1511 Clouds 3 995 93 16093 6.7 30 15:58 22.09.2019
1512 Clouds 3 995 93 16093 6.7 30 15:40 22.09.2019
1513 Clouds 3 995 93 16093 6.7 30 15:22 22.09.2019
1514 Clouds 3 995 93 16093 5.7 30 14:46 22.09.2019
1515 Clouds 3 995 93 16093 5.7 30 14:26 22.09.2019
1516 Rain 4 995 86 16093 5.1 50 13:59 22.09.2019
1517 Rain 4 995 86 16093 5.1 50 13:41 22.09.2019
1518 Rain 4 995 86 16093 5.1 50 13:41 22.09.2019
1519 Rain 4 995 86 16093 5.1 50 13:22 22.09.2019
1520 Clouds 5 996 75 16093 4.6 50 12:56 22.09.2019
1521 Clouds 5 996 75 16093 4.6 50 12:38 22.09.2019
1522 Clouds 5 996 75 16093 5.1 50 12:18 22.09.2019
1523 Clouds 5 996 75 16093 5.1 50 11:43 22.09.2019
1524 Clouds 5 996 75 16093 5.1 50 11:24 22.09.2019
1525 Clouds 4 997 82 16093 5.1 50 10:55 22.09.2019
1526 Clouds 4 997 82 16093 5.1 50 10:55 22.09.2019
1527 Clouds 4 997 82 16093 5.1 50 10:37 22.09.2019
1528 Clouds 4 997 82 16093 5.1 50 10:18 22.09.2019
1529 Clouds 5 997 75 16093 5.1 50 09:42 22.09.2019
1530 Clouds 5 997 75 16093 5.1 50 09:42 22.09.2019
1531 Clouds 5 997 75 16093 5.1 50 09:21 22.09.2019
1532 Clouds 5 997 75 16093 4.1 50 08:48 22.09.2019
1533 Clouds 5 997 75 16093 4.1 50 08:26 22.09.2019
1534 Clouds 5 998 80 16093 3.6 60 07:58 22.09.2019
1535 Clouds 5 998 80 16093 3.6 60 07:39 22.09.2019
1536 Clouds 5 998 80 16093 3.6 60 07:20 22.09.2019
1537 Clouds 6 998 75 16093 4.6 70 06:56 22.09.2019
1538 Clouds 6 998 75 16093 5.1 90 05:37 22.09.2019
1539 Clouds 7 999 65 16093 4.6 80 03:50 22.09.2019
1540 Clouds 6 999 70 16093 2.6 0 02:41 22.09.2019
1541 Clouds 6 999 70 16093 2.6 0 02:23 22.09.2019
1542 Clouds 6 1000 70 16093 2.6 70 01:23 22.09.2019
1543 Clouds 5 1000 75 16093 2.6 90 00:39 22.09.2019
1544 Clouds 5 1000 75 16093 2.6 90 00:20 22.09.2019
1545 Clear 3 1000 86 16093 4.1 90 23:41 21.09.2019
1546 Clear 3 1000 86 16093 4.1 90 23:22 21.09.2019
1547 Clouds 3 1000 86 16093 4.1 100 22:39 21.09.2019
1548 Clouds 3 1000 86 16093 4.1 100 22:21 21.09.2019
1549 Clouds 3 1000 86 16093 4.1 100 22:21 21.09.2019
1550 Clouds 1 1000 68 16093 2.43 85.451 21:55 21.09.2019
1551 Clouds 1 1000 68 16093 2.43 85.451 21:37 21.09.2019
1552 Clear -2 1000 100 16093 1.5 30 21:18 21.09.2019
1553 Clouds 1 1000 84 16093 2.28 46.224 21:18 21.09.2019
1554 Clear -2 1000 100 16093 1.5 30 20:40 21.09.2019
1555 Clear -2 1000 100 16093 1.5 30 20:22 21.09.2019
1556 Clouds -2 1000 100 16093 2.01 58.46 19:55 21.09.2019
1557 Clouds -2 1000 100 16093 2.01 58.46 19:36 21.09.2019
1558 Clear -2 1000 100 16093 2.01 58.46 19:18 21.09.2019
1559 Clear -2 1000 100 16093 2.01 58.46 18:39 21.09.2019
1560 Clear -2 1000 100 16093 0.98 20.351 18:20 21.09.2019
1561 Clear -2 1000 100 16093 0.98 20.351 18:20 21.09.2019
1562 Clear -1 1000 100 16093 2.1 330 17:42 21.09.2019
1563 Clear -1 1000 100 16093 2.1 330 17:42 21.09.2019
1564 Clear -1 1000 100 16093 2.1 330 17:23 21.09.2019
1565 Clear -1 1001 100 16093 2.6 20 16:56 21.09.2019
1566 Clear -1 1001 100 16093 2.6 20 16:36 21.09.2019
1567 Clear -1 1001 100 16093 2.6 20 16:18 21.09.2019
1568 Clouds -1 1000 100 16093 2.1 330 15:42 21.09.2019
1569 Clouds -1 1000 100 16093 2.1 330 15:20 21.09.2019
1570 Clouds 0 1000 81 16093 1.5 270 14:47 21.09.2019
1571 Clouds 0 1000 81 16093 1.5 270 14:28 21.09.2019
1572 Clouds 0 1000 81 16093 1.5 270 14:28 21.09.2019
1573 Clear -1 1000 100 16093 2.6 350 13:45 21.09.2019
1574 Clear -1 1000 100 16093 2.6 350 13:25 21.09.2019
1575 Clear -1 1000 100 16093 2.6 350 13:25 21.09.2019
1576 Clouds 1 1000 79 16093 3.1 300 12:58 21.09.2019
1577 Clouds 1 1000 79 16093 3.1 300 12:39 21.09.2019
1578 Clouds 1 1000 81 16093 3.1 300 12:20 21.09.2019
1579 Clouds 1 1000 81 16093 3.1 300 12:20 21.09.2019
1580 Clouds 1 1000 86 16093 2.6 310 11:57 21.09.2019
1581 Clouds 1 1000 86 16093 2.6 310 11:38 21.09.2019
1582 Clouds 1 1000 86 16093 2.6 310 11:18 21.09.2019
1583 Clouds 3 1000 74 16093 4.1 300 10:40 21.09.2019
1584 Clouds 3 1000 74 16093 4.1 300 10:20 21.09.2019
1585 Clouds 4 1000 81 16093 3.6 290 09:57 21.09.2019
1586 Clouds 4 1000 81 16093 3.6 290 09:37 21.09.2019
1587 Clouds 4 1000 77 16093 3.6 290 09:19 21.09.2019
1588 Clouds 4 1000 77 16093 5.7 290 08:48 21.09.2019
1589 Clouds 4 1000 81 16093 5.7 290 08:20 21.09.2019
1590 Clouds 4 1000 80 16093 3.6 290 07:40 21.09.2019
1591 Clouds 4 1000 80 16093 6.7 290 07:20 21.09.2019
1592 Clouds 4 1000 80 16093 6.7 290 07:20 21.09.2019
1593 Clouds 4 1000 80 16093 6.7 290 06:36 21.09.2019
1594 Clouds 5 1000 75 16093 8.7 280 05:51 21.09.2019
1595 Clouds 5 1000 75 16093 8.7 280 05:51 21.09.2019
1596 Clouds 5 1000 80 16093 9.3 280 04:40 21.09.2019
1597 Clouds 5 1000 75 16093 8.2 280 03:39 21.09.2019
1598 Clouds 6 1000 70 16093 8.2 290 02:25 21.09.2019
1599 Clouds 6 1000 56 16093 7.2 300 01:49 21.09.2019
1600 Clouds 6 1000 56 16093 7.2 300 01:26 21.09.2019
1601 Clouds 6 1000 60 16093 6.2 290 00:26 21.09.2019
1602 Clouds 6 1001 60 16093 3.6 280 23:58 20.09.2019
1603 Clouds 6 1001 60 16093 3.6 280 23:30 20.09.2019
1604 Clear 3 1001 86 16093 2.6 300 22:56 20.09.2019
1605 Clear 3 1001 86 16093 2.6 300 22:56 20.09.2019
1606 Clear 3 1001 86 16093 2.6 300 22:38 20.09.2019
1607 Clear 3 1001 86 16093 2.6 300 22:20 20.09.2019
1608 Clear 0 1001 59 16093 5.36 308.473 21:55 20.09.2019
1609 Clear 0 1001 59 16093 5.36 308.473 21:37 20.09.2019
1610 Clear 0 1001 78 16093 2.75 325.629 21:18 20.09.2019
1611 Clear 0 1001 78 16093 2.75 325.629 21:18 20.09.2019
1612 Clear -3 1001 100 16093 2.91 325.31 20:41 20.09.2019
1613 Clear -3 1001 100 16093 2.91 325.31 20:41 20.09.2019
1614 Clear -3 1001 100 16093 2.91 325.31 20:21 20.09.2019
1615 Clear -3 1001 100 16093 1.5 320 19:58 20.09.2019
1616 Clear -3 1001 100 16093 1.5 320 19:39 20.09.2019
1617 Clear -3 1001 100 16093 1.5 320 19:20 20.09.2019
1618 Clear -3 1001 100 16093 1.5 340 18:40 20.09.2019
1619 Clear -3 1001 100 16093 1.5 340 18:20 20.09.2019
1620 Clear -3 1002 100 16093 2.93 332.727 17:58 20.09.2019
1621 Clear -3 1002 100 16093 2.93 332.727 17:40 20.09.2019
1622 Clear -3 1002 100 16093 2.93 332.727 17:40 20.09.2019
1623 Clear -3 1002 100 16093 2.93 332.727 17:21 20.09.2019
1624 Clear -2 1002 100 16093 3.1 330 16:41 20.09.2019
1625 Clear -2 1002 100 16093 3.1 330 16:19 20.09.2019
1626 Clear -2 1002 92 16093 3.1 310 15:43 20.09.2019
1627 Clear -2 1002 92 16093 3.1 310 15:24 20.09.2019
1628 Clear -2 1002 92 16093 3.1 310 15:24 20.09.2019
1629 Clear -2 1002 92 16093 3.1 310 14:59 20.09.2019
1630 Clear -1 1002 92 16093 4.1 320 14:41 20.09.2019
1631 Clear -1 1002 92 16093 4.1 320 14:19 20.09.2019
1632 Clear 2 1003 80 0 3.2 321.133 13:47 20.09.2019
1633 Clear 2 1002 78 0 2.68 337.686 13:28 20.09.2019
1634 Clear -1 1003 92 16093 3.6 320 12:57 20.09.2019
1635 Clear -1 1003 92 16093 3.6 320 12:36 20.09.2019
1636 Clear -1 1003 100 16093 3.6 330 12:18 20.09.2019
1637 Clear -1 1003 100 16093 3.6 330 11:48 20.09.2019
1638 Clear -1 1003 100 16093 3.6 330 11:21 20.09.2019
1639 Clear -1 1003 92 16093 2.6 360 10:43 20.09.2019
1640 Clear -1 1003 92 16093 2.6 360 10:24 20.09.2019
1641 Clear 2 1003 83 16093 3.6 310 09:59 20.09.2019
1642 Clear 2 1003 83 16093 3.6 310 09:37 20.09.2019
1643 Clear 3 1003 86 16093 1.62 78.019 09:18 20.09.2019
1644 Clear 3 1003 86 16093 1.62 78.019 08:41 20.09.2019
1645 Clear 3 1003 86 16093 1.62 78.019 08:23 20.09.2019
1646 Clouds 6 1003 75 16093 2.1 130 07:47 20.09.2019
1647 Clouds 6 1003 75 16093 2.1 130 07:26 20.09.2019
1648 Clear 6 1004 70 16093 2.6 160 06:44 20.09.2019
1649 Clear 6 1004 70 16093 2.6 160 06:44 20.09.2019
1650 Clear 6 1004 70 16093 2.6 160 06:22 20.09.2019
1651 Clear 7 1004 65 16093 3.1 150 05:47 20.09.2019
1652 Clouds 6 1004 70 16093 2.6 180 03:42 20.09.2019
1653 Clouds 6 1004 70 16093 2.6 180 03:19 20.09.2019
1654 Clouds 6 1004 70 16093 2.6 160 01:44 20.09.2019
1655 Clouds 6 1004 70 16093 2.6 160 00:53 20.09.2019
1656 Clouds 6 1005 70 16093 1.11 45 00:25 20.09.2019
1657 Clouds 5 1005 80 16093 2.27 8.013 23:44 19.09.2019
1658 Clouds 5 1005 80 16093 2.27 8.013 23:20 19.09.2019
1659 Clouds 2 1005 93 16093 2.27 8.013 22:57 19.09.2019
1660 Clouds 2 1005 93 16093 2.27 8.013 22:37 19.09.2019
1661 Clouds 2 1005 93 16093 2.27 8.013 22:19 19.09.2019
1662 Clouds 0 1004 65 16093 1.5 300 21:56 19.09.2019
1663 Clouds 0 1004 65 16093 1.5 300 21:37 19.09.2019
1664 Clouds 0 1004 79 16093 1.5 300 21:18 19.09.2019
1665 Clouds -1 1004 100 16093 2.1 350 20:43 19.09.2019
1666 Clouds -1 1004 100 16093 2.1 350 20:22 19.09.2019
1667 Clouds -1 1004 92 16093 1.5 330 19:55 19.09.2019
1668 Clouds -1 1004 92 16093 1.5 330 19:37 19.09.2019
1669 Clouds -1 1004 92 16093 1.5 330 19:19 19.09.2019
1670 Clear -2 1004 100 16093 2.77 4.944 18:42 19.09.2019
1671 Clear -2 1004 100 16093 2.5 0.321 18:24 19.09.2019
1672 Clear -2 1004 100 16093 2.5 0.321 17:54 19.09.2019
1673 Clear -1 1004 100 16093 2.5 0.321 17:36 19.09.2019
1674 Clear -1 1004 100 16093 2.5 0.321 17:18 19.09.2019
1675 Clear 1 1004 86 16093 2.6 330 16:56 19.09.2019
1676 Clear 1 1004 86 16093 2.6 330 16:37 19.09.2019
1677 Clear 1 1004 86 16093 2.6 330 16:18 19.09.2019
1678 Clear 1 1004 100 16093 2.5 0.321 15:38 19.09.2019
1679 Clear 1 1004 100 16093 2.73 344.642 15:18 19.09.2019
1680 Clouds 1 1003 100 16093 2.73 344.642 14:41 19.09.2019
1681 Clouds 1 1003 100 16093 2.73 344.642 14:23 19.09.2019
1682 Clouds 2 1003 93 16093 1.5 20 13:58 19.09.2019
1683 Clouds 2 1003 93 16093 1.5 20 13:38 19.09.2019
1684 Clouds 2 1003 93 16093 1.5 20 13:38 19.09.2019
1685 Clouds 2 1003 93 16093 2.74 354.466 13:19 19.09.2019
1686 Clouds 2 1003 93 16093 2.74 354.466 12:38 19.09.2019
1687 Clouds 2 1003 93 16093 2.33 342.675 12:19 19.09.2019
1688 Clear 2 1002 84 16093 3.1 300 11:56 19.09.2019
1689 Clear 2 1002 84 16093 3.1 300 11:38 19.09.2019
1690 Clear 2 1002 84 16093 3.1 300 11:19 19.09.2019
1691 Clear 2 1002 93 16093 3.6 330 10:40 19.09.2019
1692 Clear 2 1002 93 16093 3.6 330 10:21 19.09.2019
1693 Clear 3 1001 86 16093 1.5 340 09:58 19.09.2019
1694 Clear 3 1001 86 16093 1.5 340 09:40 19.09.2019
1695 Clear 3 1001 86 16093 1.5 340 09:20 19.09.2019
1696 Clear 3 1001 86 16093 2.1 330 08:52 19.09.2019
1697 Clear 3 1001 86 16093 2.1 330 08:27 19.09.2019
1698 Clear 6 1000 70 16093 3.1 360 07:55 19.09.2019
1699 Clear 6 1000 70 16093 3.1 360 07:36 19.09.2019
1700 Clear 9 999 49 16093 4.1 350 07:18 19.09.2019
1701 Clear 9 999 49 16093 4.1 350 06:42 19.09.2019
1702 Clear 9 999 49 16093 4.1 350 06:24 19.09.2019
1703 Clear 10 999 43 16093 3.81 342.655 05:50 19.09.2019
1704 Clear 9 999 49 16093 4.1 170 04:24 19.09.2019
1705 Clear 9 998 49 16093 5.1 220 03:21 19.09.2019
1706 Clear 8 998 52 16093 4.6 220 01:45 19.09.2019
1707 Clear 8 998 52 16093 4.6 220 01:20 19.09.2019
1708 Clear 8 997 49 16093 3.6 220 00:43 19.09.2019
1709 Clear 8 997 49 16093 3.6 220 00:20 19.09.2019
1710 Clear 7 997 52 16093 2.1 360 23:38 18.09.2019
1711 Clear 7 997 52 16093 2.1 360 23:20 18.09.2019
1712 Clear 6 997 56 16093 3.1 310 22:42 18.09.2019
1713 Clear 6 997 56 16093 3.1 310 22:42 18.09.2019
1714 Clear 6 997 56 16093 3.1 310 22:20 18.09.2019
1715 Clear 4 997 69 16093 4.1 350 21:58 18.09.2019
1716 Clear 4 997 69 16093 4.1 350 21:40 18.09.2019
1717 Clear 4 997 69 16093 4.1 350 21:18 18.09.2019
1718 Clear 2 997 74 16093 3.6 330 20:57 18.09.2019
1719 Clear 2 997 74 16093 3.6 330 20:39 18.09.2019
1720 Clear 2 997 74 16093 3.6 330 20:21 18.09.2019
1721 Clear 2 997 74 16093 3.6 330 19:57 18.09.2019
1722 Clear 1 997 74 16093 3.1 0 19:38 18.09.2019
1723 Clear 1 997 69 16093 2.6 330 19:19 18.09.2019
1724 Clear 1 997 69 16093 2.6 330 18:55 18.09.2019
1725 Clear 1 997 69 16093 2.6 330 18:37 18.09.2019
1726 Clear 1 997 69 16093 2.6 330 18:18 18.09.2019
1727 Clear 4 997 55 16093 3.6 20 17:57 18.09.2019
1728 Clear 4 997 55 16093 3.6 20 17:57 18.09.2019
1729 Clear 4 997 55 16093 3.6 20 17:38 18.09.2019
1730 Clear 4 997 55 16093 3.6 20 17:18 18.09.2019
1731 -273 0 0 0 0 0 16:55 18.09.2019
1732 Clear 0 997 71 16093 4.31 3.805 16:36 18.09.2019
1733 Clear 0 997 71 16093 4.31 3.805 16:18 18.09.2019
1734 Clear 1 997 69 16093 2.1 0 15:54 18.09.2019
1735 Clear 1 997 69 16093 2.1 0 15:36 18.09.2019
1736 Clear 1 997 69 16093 2.1 0 15:36 18.09.2019
1737 Clear 1 997 69 16093 2.1 0 15:18 18.09.2019
1738 Clear 2 998 59 16093 1.5 290 14:55 18.09.2019
1739 Clear 2 998 59 16093 1.5 290 14:36 18.09.2019
1740 Clear 2 998 59 16093 1.5 290 14:18 18.09.2019
1741 Clear 2 998 59 16093 1.5 50 13:40 18.09.2019
1742 Clear 2 998 59 16093 1.5 50 13:19 18.09.2019
1743 Clear 2 999 55 16093 2.1 10 12:53 18.09.2019
1744 Clear 2 999 55 16093 2.1 10 12:31 18.09.2019
1745 Clear 3 999 55 16093 5.7 40 11:59 18.09.2019
1746 Clear 3 999 55 16093 5.7 40 11:39 18.09.2019
1747 Clear 3 999 55 16093 5.7 40 11:19 18.09.2019
1748 Clear 4 1000 60 16093 7.7 40 10:40 18.09.2019
1749 Clear 4 1000 60 16093 7.7 40 10:40 18.09.2019
1750 Clear 4 1000 60 16093 7.7 40 10:21 18.09.2019
1751 Clear 4 1000 60 16093 7.7 40 10:21 18.09.2019
1752 Clear 4 1000 60 16093 7.7 30 09:58 18.09.2019
1753 Clear 4 1000 60 16093 7.7 30 09:39 18.09.2019
1754 Clear 4 1000 60 16093 7.7 30 09:21 18.09.2019
1755 Clear 5 1001 60 16093 5.7 20 08:45 18.09.2019
1756 Clear 5 1001 60 16093 5.7 20 08:26 18.09.2019
1757 Clear 6 1002 60 16093 6.2 20 07:59 18.09.2019
1758 Clear 6 1002 60 16093 6.2 20 07:40 18.09.2019
1759 Clear 6 1002 60 16093 6.2 20 07:22 18.09.2019
1760 Clouds 7 1003 56 16093 7.7 30 06:40 18.09.2019
1761 Clouds 8 1003 52 16093 8.7 30 05:51 18.09.2019
1762 Clouds 8 1003 52 16093 8.7 30 05:21 18.09.2019
1763 Clouds 8 1006 61 16093 8.7 50 03:21 18.09.2019
1764 Clouds 8 1007 61 16093 6.2 40 02:39 18.09.2019
1765 Clouds 8 1008 61 16093 4.1 50 01:25 18.09.2019
1766 Clouds 8 1009 61 16093 6.2 40 00:49 18.09.2019
1767 Clouds 8 1009 61 16093 6.2 40 00:22 18.09.2019
1768 Clear 6 1009 70 16093 6.7 40 23:46 17.09.2019
1769 Clear 6 1009 70 16093 6.7 40 23:23 17.09.2019
1770 Clear 6 1010 55 16093 5.7 50 22:43 17.09.2019
1771 Clear 6 1010 55 16093 5.7 50 22:24 17.09.2019
1772 Clear 5 1011 65 16093 5.7 20 21:56 17.09.2019
1773 Clear 5 1011 65 16093 5.7 20 21:37 17.09.2019
1774 Clear 5 1011 65 16093 5.7 20 21:19 17.09.2019
1775 Clear 5 1011 65 16093 5.7 20 21:19 17.09.2019
1776 Clear 3 1011 74 16093 5.1 350 20:58 17.09.2019
1777 Clear 3 1011 74 16093 5.1 350 20:58 17.09.2019
1778 Clear 3 1011 74 16093 5.1 350 20:40 17.09.2019
1779 Clear 3 1011 74 16093 5.1 350 20:40 17.09.2019
1780 Clear 3 1011 74 16093 5.1 350 20:40 17.09.2019
1781 Clear 3 1011 74 16093 5.1 350 20:22 17.09.2019
1782 Clear 3 1011 74 16093 5.1 350 20:22 17.09.2019
1783 Clear 1 1012 80 16093 4.1 10 19:58 17.09.2019
1784 Clear 1 1012 80 16093 4.1 10 19:58 17.09.2019
1785 Clear 1 1012 80 16093 4.1 10 19:39 17.09.2019
1786 Clear 1 1012 80 16093 4.1 10 19:20 17.09.2019
1787 Clear 1 1012 80 16093 4.1 10 18:57 17.09.2019
1788 Clear -2 1012 92 16093 3.6 340 18:38 17.09.2019
1789 Clear -2 1012 92 16093 3.6 340 18:20 17.09.2019
1790 Clear -2 1012 92 16093 3.6 340 18:20 17.09.2019
1791 Clear 0 1013 79 16093 1.5 30 17:46 17.09.2019
1792 Clear 0 1013 79 16093 1.5 30 17:20 17.09.2019
1793 Clear -1 1013 92 16093 2.1 20 16:58 17.09.2019
1794 Clear -1 1013 92 16093 2.1 20 16:40 17.09.2019
1795 Clear -1 1013 92 16093 2.1 20 16:21 17.09.2019
1796 Clear 1 1013 80 16093 2.1 10 15:40 17.09.2019
1797 Clear 1 1013 80 16093 2.1 10 15:21 17.09.2019
1798 Clear -1 1013 92 16093 2.1 350 14:57 17.09.2019
1799 Clear -1 1013 92 16093 2.1 350 14:39 17.09.2019
1800 Clear -1 1013 92 16093 2.1 350 14:19 17.09.2019
1801 Clear 0 1014 76 16093 2.1 20 13:57 17.09.2019
1802 Clear 0 1014 76 16093 2.1 20 13:38 17.09.2019
1803 Clear 1 1014 80 16093 2.6 350 13:20 17.09.2019
1804 Clear 1 1014 80 16093 2.6 350 12:42 17.09.2019
1805 Clear 1 1014 80 16093 2.6 350 12:20 17.09.2019
1806 Clear 2 1014 74 16093 1.5 30 11:46 17.09.2019
1807 Clear 2 1014 74 16093 1.5 30 11:27 17.09.2019
1808 Clear 3 1014 64 16093 2.1 10 10:59 17.09.2019
1809 Clear 3 1014 64 16093 2.1 10 10:41 17.09.2019
1810 Clear 3 1014 64 16093 2.1 10 10:21 17.09.2019
1811 Clear 3 1013 69 16093 4.1 350 09:55 17.09.2019
1812 Clear 3 1013 69 16093 4.1 350 09:37 17.09.2019
1813 Clear 3 1013 69 16093 4.1 350 09:19 17.09.2019
1814 Clear 4 1013 64 16093 4.6 360 08:43 17.09.2019
1815 Clear 4 1013 64 16093 4.6 360 08:25 17.09.2019
1816 Clear 7 1013 52 16093 3.6 360 07:45 17.09.2019
1817 Clear 7 1013 52 16093 3.6 360 07:27 17.09.2019
1818 Clear 8 1013 49 16093 6.2 360 06:54 17.09.2019
1819 Clear 8 1013 49 16093 6.2 360 06:35 17.09.2019
1820 Clear 10 1013 39 16093 7.2 350 05:54 17.09.2019
1821 Clear 10 1013 43 16093 4.6 340 04:56 17.09.2019
1822 Clear 10 1012 43 16093 4.6 340 03:49 17.09.2019
1823 Clear 10 1012 43 16093 6.2 350 02:40 17.09.2019
1824 Clear 10 1012 53 16093 4.6 40 01:50 17.09.2019
1825 Clear 11 1011 50 16093 5.1 10 00:50 17.09.2019
1826 Clear 10 1011 61 16093 3.6 350 23:42 16.09.2019
1827 Clear 10 1011 61 16093 3.6 350 23:20 16.09.2019
1828 Clear 9 1010 66 16093 5.7 340 22:59 16.09.2019
1829 Clear 9 1010 66 16093 5.7 340 22:40 16.09.2019
1830 Clear 9 1010 66 16093 5.7 340 22:22 16.09.2019
1831 Clear 9 1010 66 16093 5.7 340 22:22 16.09.2019
1832 Clear 8 1010 70 16093 2.6 320 21:57 16.09.2019
1833 Clear 8 1010 70 16093 2.6 320 21:38 16.09.2019
1834 Clear 8 1010 70 16093 2.6 320 21:38 16.09.2019
1835 Clear 8 1010 70 16093 2.6 320 21:20 16.09.2019
1836 Clear 8 1010 70 16093 2.6 320 21:20 16.09.2019
1837 Clear 6 1009 81 16093 2.97 335.618 20:42 16.09.2019
1838 Clear 6 1009 81 16093 2.97 335.618 20:23 16.09.2019
1839 Clear 5 1009 86 16093 4.1 310 19:58 16.09.2019
1840 Clear 5 1009 86 16093 4.1 310 19:40 16.09.2019
1841 Clear 5 1009 86 16093 4.1 310 19:20 16.09.2019
1842 Clear 5 1009 86 16093 4.1 310 18:56 16.09.2019
1843 Clear 6 1009 81 16093 6.2 340 18:37 16.09.2019
1844 Clear 7 1009 87 16093 4.1 290 18:18 16.09.2019
1845 Clear 7 1009 87 16093 4.1 290 17:43 16.09.2019
1846 Clear 7 1009 87 16093 4.1 290 17:24 16.09.2019
1847 Clouds 8 1009 87 16093 3.6 350 16:58 16.09.2019
1848 Clouds 8 1009 87 16093 3.6 350 16:39 16.09.2019
1849 Clouds 8 1009 87 16093 3.6 350 16:20 16.09.2019
1850 Clouds 9 1008 81 16093 4.1 340 15:56 16.09.2019
1851 Clouds 9 1008 81 16093 4.1 340 15:37 16.09.2019
1852 Clouds 9 1008 81 16093 4.1 340 15:19 16.09.2019
1853 Clouds 9 1008 81 16093 4.1 340 14:44 16.09.2019
1854 Clouds 9 1008 81 16093 4.1 340 14:23 16.09.2019
1855 Clouds 10 1007 81 16093 3.1 310.956 13:59 16.09.2019
1856 Clouds 10 1007 81 16093 3.1 310.956 13:39 16.09.2019
1857 Clouds 10 1007 81 16093 3.53 311.255 13:21 16.09.2019
1858 Clouds 10 1007 93 16093 2.6 350 12:45 16.09.2019
1859 Clouds 10 1007 93 16093 2.6 350 12:27 16.09.2019
1860 Clouds 11 1007 87 16093 2.1 340 11:58 16.09.2019
1861 Clouds 11 1007 87 16093 2.1 340 11:39 16.09.2019
1862 Clouds 11 1007 87 16093 2.1 340 11:21 16.09.2019
1863 Rain 11 1006 87 16093 1.5 10 10:39 16.09.2019
1864 Rain 11 1006 87 16093 1.5 10 10:21 16.09.2019
1865 Rain 11 1005 87 16093 2.6 10 09:58 16.09.2019
1866 Rain 11 1005 87 16093 2.6 10 09:39 16.09.2019
1867 Rain 11 1005 87 16093 2.6 10 09:19 16.09.2019
1868 Rain 12 1005 81 16093 5.1 10 08:47 16.09.2019
1869 Rain 12 1005 81 16093 5.1 10 08:28 16.09.2019
1870 Rain 13 1004 76 16093 5.7 10 07:56 16.09.2019
1871 Rain 13 1004 76 16093 5.7 10 07:38 16.09.2019
1872 Rain 13 1004 76 16093 5.7 10 07:38 16.09.2019
1873 Rain 13 1004 76 16093 5.7 10 07:20 16.09.2019
1874 Clouds 14 1003 67 16093 4.1 360 06:46 16.09.2019
1875 Clouds 14 1003 67 16093 4.1 360 06:27 16.09.2019
1876 Clouds 15 1003 62 16093 5.7 350 05:51 16.09.2019
1877 Clouds 15 1003 62 16093 5.7 350 05:29 16.09.2019
1878 Clouds 16 1002 59 16093 3.6 350 04:38 16.09.2019
1879 Clouds 15 1003 67 16093 4.1 330 02:36 16.09.2019
1880 Clouds 13 1003 87 16093 4.6 250 00:44 16.09.2019
1881 Clouds 13 1003 87 16093 4.6 250 00:26 16.09.2019
1882 Clouds 13 1003 82 16093 1.5 300 23:44 15.09.2019
1883 Clouds 13 1003 82 16093 1.5 300 23:21 15.09.2019
1884 Clouds 11 1003 93 16093 2.1 320 22:58 15.09.2019
1885 Clouds 11 1003 93 16093 2.1 320 22:37 15.09.2019
1886 Clouds 11 1003 93 16093 2.1 320 22:18 15.09.2019
1887 Clouds 11 1003 93 16093 2.1 10 21:55 15.09.2019
1888 Clouds 11 1003 93 16093 2.1 10 21:37 15.09.2019
1889 Clouds 11 1003 93 16093 2.1 10 21:18 15.09.2019
1890 Clouds 10 1003 93 16093 2.6 60 20:43 15.09.2019
1891 Clouds 10 1003 93 16093 2.6 60 20:25 15.09.2019
1892 Clouds 10 1003 93 16093 2.1 60 19:47 15.09.2019
1893 Clouds 10 1003 100 16093 2.1 30 19:26 15.09.2019
1894 Clouds 10 1003 100 16093 2.6 30 18:55 15.09.2019
1895 Clouds 10 1003 100 16093 2.6 30 18:36 15.09.2019
1896 Clouds 10 1003 100 16093 2.6 30 18:18 15.09.2019
1897 Mist 10 1004 100 8047 2.6 60 17:41 15.09.2019
1898 Mist 10 1004 100 8047 2.6 60 17:21 15.09.2019
1899 Rain 10 1004 100 12874 2.1 60 16:56 15.09.2019
1900 Rain 10 1004 100 12874 2.1 60 16:38 15.09.2019
1901 Rain 10 1004 100 12874 2.1 60 16:20 15.09.2019
1902 Clouds 10 1005 100 16093 1.5 40 15:41 15.09.2019
1903 Clouds 10 1005 100 16093 1.5 40 15:21 15.09.2019
1904 Rain 10 1005 100 16093 1.27 68.056 14:59 15.09.2019
1905 Rain 10 1005 100 12874 1.27 68.056 14:40 15.09.2019
1906 Rain 10 1005 100 12874 1.27 68.056 14:22 15.09.2019
1907 Rain 10 1005 100 8047 1.5 130 13:48 15.09.2019
1908 Rain 10 1006 100 12874 3.1 60 13:25 15.09.2019
1909 Clouds 10 1006 100 16093 3.6 70 12:59 15.09.2019
1910 Clouds 10 1006 100 16093 3.6 80 12:40 15.09.2019
1911 Clouds 10 1006 100 16093 3.6 80 12:20 15.09.2019
1912 Clouds 10 1006 100 16093 3.6 80 12:20 15.09.2019
1913 Clouds 10 1006 100 16093 4.1 70 11:43 15.09.2019
1914 Clouds 10 1006 100 16093 4.1 70 11:23 15.09.2019
1915 Rain 11 1007 100 4828 2.6 80 10:59 15.09.2019
1916 Rain 11 1007 100 6437 2.6 90 10:40 15.09.2019
1917 Rain 11 1007 100 6437 2.6 90 10:21 15.09.2019
1918 Clouds 11 1008 100 16093 2.1 80 09:44 15.09.2019
1919 Clouds 11 1008 100 16093 2.1 80 09:21 15.09.2019
1920 Clouds 11 1008 100 16093 2.1 80 08:59 15.09.2019
1921 Clouds 11 1008 100 16093 2.1 80 08:59 15.09.2019
1922 Clouds 11 1008 100 16093 1.5 100 08:40 15.09.2019
1923 Clouds 11 1008 100 16093 1.5 100 08:19 15.09.2019
1924 Clouds 12 1009 93 16093 2.1 120 07:46 15.09.2019
1925 Clouds 12 1009 93 16093 3.1 160 06:44 15.09.2019
1926 Clouds 12 1009 93 16093 2.6 160 05:58 15.09.2019
1927 Clouds 13 1010 82 16093 3.6 140 03:19 15.09.2019
1928 Clouds 13 1011 87 16093 3.1 150 02:20 15.09.2019
1929 Clouds 12 1011 93 16093 3.6 140 01:36 15.09.2019
1930 Clouds 12 1011 93 16093 4.1 130 00:57 15.09.2019
1931 Clouds 12 1011 93 16093 4.1 130 00:37 15.09.2019
1932 Clouds 12 1011 93 16093 4.1 130 00:19 15.09.2019
1933 Clouds 12 1011 81 16093 4.1 130 23:56 14.09.2019
1934 Clouds 12 1011 81 16093 4.1 130 23:56 14.09.2019
1935 Clouds 12 1011 81 16093 4.1 130 23:38 14.09.2019
1936 Clouds 12 1011 81 16093 4.1 130 23:38 14.09.2019
1937 Clouds 12 1011 81 16093 4.1 130 23:38 14.09.2019
1938 Clouds 12 1011 81 16093 4.1 130 23:19 14.09.2019
1939 Clouds 12 1010 76 16093 4.1 100 22:55 14.09.2019
1940 Clouds 12 1010 76 16093 4.1 100 22:37 14.09.2019
1941 Clouds 12 1010 76 16093 4.1 100 22:18 14.09.2019
1942 Clouds 11 1010 81 16093 4.1 80 21:40 14.09.2019
1943 Clouds 11 1010 81 16093 4.1 80 21:21 14.09.2019
1944 Clouds 10 1010 81 16093 2.6 90 20:58 14.09.2019
1945 Clouds 10 1010 81 16093 2.6 90 20:39 14.09.2019
1946 Clouds 10 1010 81 16093 2.6 90 20:21 14.09.2019
1947 Clouds 6 1009 100 16093 2.02 65.89 19:47 14.09.2019
1948 Clouds 6 1009 100 16093 2.02 65.89 19:22 14.09.2019
1949 Clouds 6 1009 100 16093 2.02 65.89 18:58 14.09.2019
1950 Clouds 6 1009 100 16093 1.5 20 18:38 14.09.2019
1951 Clouds 6 1009 87 16093 1.69 81.024 18:20 14.09.2019
1952 Clouds 6 1009 87 16093 1.69 81.024 17:44 14.09.2019
1953 Clouds 6 1009 87 16093 1.69 81.024 17:24 14.09.2019
1954 Clear 6 1009 87 16093 1.69 81.024 16:54 14.09.2019
1955 Clear 6 1009 87 16093 1.69 81.024 16:36 14.09.2019
1956 Clear 6 1009 87 16093 1.69 81.024 16:18 14.09.2019
1957 Clear 6 1008 93 16093 1.69 81.024 15:41 14.09.2019
1958 Clear 6 1008 93 16093 2.02 55.413 15:22 14.09.2019
1959 Clear 8 1008 81 16093 2.02 55.413 14:45 14.09.2019
1960 Clear 8 1008 81 16093 2.02 55.413 14:20 14.09.2019
1961 Clear 8 1007 87 16093 1.5 10 13:56 14.09.2019
1962 Clear 8 1007 87 16093 1.5 10 13:38 14.09.2019
1963 Clear 8 1007 87 16093 1.5 10 13:20 14.09.2019
1964 Clear 9 1007 81 16093 3.6 350 12:45 14.09.2019
1965 Clear 9 1007 81 16093 3.6 350 12:22 14.09.2019
1966 Clear 9 1006 87 16093 4.1 350 11:41 14.09.2019
1967 Clear 9 1006 87 16093 4.1 350 11:20 14.09.2019
1968 Clear 8 1006 93 16093 1.5 10 10:40 14.09.2019
1969 Clear 8 1006 93 16093 1.5 10 10:22 14.09.2019
1970 Clear 11 1005 87 16093 2.29 33.148 09:58 14.09.2019
1971 Clear 11 1005 87 16093 2.29 33.148 09:40 14.09.2019
1972 Clear 11 1005 87 16093 1.39 357.397 09:20 14.09.2019
1973 Clouds 12 1004 87 16093 1.46 4.348 08:48 14.09.2019
1974 Clouds 12 1004 87 16093 1.46 4.348 08:27 14.09.2019
1975 Clouds 13 1003 82 16093 1.46 4.348 07:54 14.09.2019
1976 Clouds 13 1003 82 16093 1.46 4.348 07:30 14.09.2019
1977 Clouds 13 1003 82 16093 2.6 250 06:54 14.09.2019
1978 Clouds 13 1003 82 16093 2.6 250 06:32 14.09.2019
1979 Clouds 13 1002 76 16093 3.1 220 05:27 14.09.2019
1980 Clouds 14 1001 76 16093 3.6 220 03:53 14.09.2019
1981 Clouds 16 1000 59 16093 5.7 250 02:57 14.09.2019
1982 Clouds 16 1000 59 16093 5.7 250 02:23 14.09.2019
1983 Clouds 16 999 59 16093 5.7 250 01:42 14.09.2019
1984 Clouds 16 999 59 16093 5.7 250 01:18 14.09.2019
1985 Clear 16 999 55 16093 3.1 260 00:40 14.09.2019
1986 Clear 16 999 55 16093 3.1 260 00:21 14.09.2019
1987 Clear 16 999 55 16093 3.1 260 23:54 13.09.2019
1988 Clouds 14 998 67 16093 1.5 290 23:36 13.09.2019
1989 Clouds 14 998 67 16093 1.5 290 23:36 13.09.2019
1990 Clouds 14 998 67 16093 1.5 290 23:18 13.09.2019
1991 Clouds 13 998 76 16093 2.1 290 22:39 13.09.2019
1992 Clouds 13 998 76 16093 2.1 290 22:21 13.09.2019
1993 Clouds 12 997 76 16093 2.1 30 21:56 13.09.2019
1994 Clouds 12 997 76 16093 2.1 30 21:38 13.09.2019
1995 Clear 12 996 71 16093 4.25 18.205 21:19 13.09.2019
1996 Clear 12 996 71 16093 4.25 18.205 20:55 13.09.2019
1997 Clear 12 996 71 16093 5 17.928 20:36 13.09.2019
1998 Clear 12 996 71 16093 5 17.928 20:18 13.09.2019
1999 Clouds 11 996 76 16093 3.6 30 19:43 13.09.2019
2000 Clouds 11 996 76 16093 3.6 30 19:22 13.09.2019
2001 Clouds 11 996 76 16093 3.6 30 18:58 13.09.2019
2002 Clouds 11 995 76 16093 3.6 40 18:37 13.09.2019
2003 Clear 12 995 71 16093 3.1 60 18:19 13.09.2019
2004 Clear 12 995 71 16093 3.1 60 17:44 13.09.2019
2005 Clear 12 995 71 16093 3.1 60 17:21 13.09.2019
2006 Clouds 12 994 71 16093 5.7 40 16:56 13.09.2019
2007 Clouds 12 994 71 16093 5.7 40 16:37 13.09.2019
2008 Clouds 12 994 71 16093 5.7 40 16:18 13.09.2019
2009 Clouds 12 994 76 16093 5.1 40 15:42 13.09.2019
2010 Clouds 12 994 76 16093 5.1 40 15:23 13.09.2019
2011 Clouds 11 993 81 16093 5.1 30 14:55 13.09.2019
2012 Clouds 11 993 81 16093 5.1 30 14:37 13.09.2019
2013 Clouds 11 993 81 16093 5.1 30 14:18 13.09.2019
2014 Clouds 11 993 81 16093 6.2 40 13:41 13.09.2019
2015 Clouds 11 993 81 16093 6.2 40 13:22 13.09.2019
2016 Clouds 11 993 81 16093 4.6 40 12:45 13.09.2019
2017 Clouds 11 993 81 16093 4.6 40 12:25 13.09.2019
2018 Clouds 11 992 81 16093 6.2 50 11:57 13.09.2019
2019 Clouds 11 992 81 16093 6.2 50 11:20 13.09.2019
2020 Clouds 11 991 81 16093 6.2 40 10:57 13.09.2019
2021 Clouds 11 991 81 16093 6.2 40 10:37 13.09.2019
2022 Clouds 11 991 81 16093 6.2 40 10:18 13.09.2019
2023 Clouds 11 991 81 16093 6.2 50 09:43 13.09.2019
2024 Clouds 11 991 81 16093 6.2 50 09:20 13.09.2019
2025 Rain 11 991 87 16093 6.2 50 08:55 13.09.2019
2026 Rain 11 991 87 16093 6.2 50 08:37 13.09.2019
2027 Rain 11 991 87 16093 6.2 50 08:19 13.09.2019
2028 Clouds 11 990 81 16093 5.1 50 07:41 13.09.2019
2029 Clouds 11 990 81 16093 5.1 50 07:21 13.09.2019
2030 Clouds 11 990 87 16093 4.6 60 06:37 13.09.2019
2031 Clouds 11 990 87 16093 7.7 80 05:34 13.09.2019
2032 Clouds 12 988 81 16093 9.3 80 03:52 13.09.2019
2033 Clouds 12 988 81 16093 9.3 80 03:25 13.09.2019
2034 Rain 11 988 87 11265 9.8 90 02:20 13.09.2019
2035 Rain 11 988 93 12874 11.8 80 01:36 13.09.2019
2036 Rain 10 987 93 9656 9.8 80 00:59 13.09.2019
2037 Rain 10 987 93 9656 9.8 80 00:34 13.09.2019
2038 Rain 10 987 100 4828 7.7 90 23:53 12.09.2019
2039 Rain 10 987 100 4828 7.7 90 23:25 12.09.2019
2040 Rain 10 987 100 6437 8.2 80 22:58 12.09.2019
2041 Rain 10 987 93 12874 11.8 90 22:39 12.09.2019
2042 Rain 10 987 93 12874 11.8 90 22:21 12.09.2019
2043 Rain 10 986 100 4828 9.8 100 21:55 12.09.2019
2044 Rain 10 986 100 4828 9.8 100 21:37 12.09.2019
2045 Rain 10 986 100 4828 9.8 100 21:18 12.09.2019
2046 Rain 10 986 100 6437 8.7 100 20:44 12.09.2019
2047 Rain 10 986 100 6437 8.7 100 20:23 12.09.2019
2048 Rain 10 986 93 6437 9.8 100 19:57 12.09.2019
2049 Rain 10 986 93 6437 9.8 100 19:39 12.09.2019
2050 Rain 10 986 93 6437 9.8 100 19:19 12.09.2019
2051 Rain 10 986 93 6437 9.8 100 18:56 12.09.2019
2052 Rain 11 985 87 16093 12.9 100 18:36 12.09.2019
2053 Rain 10 985 93 12874 10.3 100 18:18 12.09.2019
2054 Rain 10 985 93 12874 10.3 100 17:40 12.09.2019
2055 Rain 10 985 93 12874 10.3 100 17:20 12.09.2019
2056 Rain 10 985 93 9656 9.8 90 16:56 12.09.2019
2057 -273 0 0 0 0 0 16:56 12.09.2019
2058 Rain 10 985 93 9656 9.8 90 16:37 12.09.2019
2059 Rain 10 985 93 9656 9.8 90 16:19 12.09.2019
2060 Rain 10 985 93 16093 13.9 100 15:41 12.09.2019
2061 Rain 10 985 93 16093 13.9 100 15:23 12.09.2019
2062 Rain 10 985 93 16093 13.9 100 15:23 12.09.2019
2063 Rain 10 986 93 9656 12.3 100 14:46 12.09.2019
2064 Rain 10 986 93 9656 12.3 100 14:22 12.09.2019
2065 Rain 10 986 87 16093 11.3 100 13:58 12.09.2019
2066 Rain 10 986 87 16093 11.3 100 13:37 12.09.2019
2067 Rain 10 986 87 16093 11.3 100 13:19 12.09.2019
2068 Rain 10 986 93 16093 12.3 100 12:45 12.09.2019
2069 Rain 10 986 93 16093 12.3 100 12:19 12.09.2019
2070 Rain 11 986 81 16093 11.3 110 11:56 12.09.2019
2071 Clouds 11 987 81 16093 12.9 100 11:38 12.09.2019
2072 Clouds 11 987 81 16093 12.9 100 11:19 12.09.2019
2073 Clouds 11 987 81 16093 10.3 100 10:44 12.09.2019
2074 Clouds 11 987 81 16093 10.3 100 10:26 12.09.2019
2075 Rain 11 988 87 16093 10.8 90 09:45 12.09.2019
2076 Rain 11 988 87 16093 10.8 90 09:25 12.09.2019
2077 Rain 10 990 93 16093 10.8 100 08:59 12.09.2019
2078 Rain 10 990 93 16093 10.8 100 08:40 12.09.2019
2079 Rain 10 990 93 16093 10.8 100 08:22 12.09.2019
2080 Rain 10 990 87 14484 12.9 110 07:44 12.09.2019
2081 Rain 11 991 81 16093 9.8 110 07:20 12.09.2019
2082 Rain 11 991 81 16093 9.8 110 06:51 12.09.2019
2083 Rain 11 991 81 16093 9.8 110 06:23 12.09.2019
2084 Rain 11 992 81 16093 11.8 100 05:51 12.09.2019
2085 Rain 11 992 81 16093 11.8 100 05:32 12.09.2019
2086 Rain 11 993 81 16093 11.8 100 04:40 12.09.2019
2087 Clouds 11 995 81 16093 12.3 100 02:43 12.09.2019
2088 Clouds 11 996 81 16093 11.8 110 01:37 12.09.2019
2089 Rain 11 997 87 16093 10.8 110 01:18 12.09.2019
2090 Rain 11 997 87 16093 10.8 110 00:42 12.09.2019
2091 Rain 11 997 87 16093 10.8 110 00:24 12.09.2019
2092 Rain 10 998 87 14484 8.2 120 23:42 11.09.2019
2093 Rain 10 998 87 14484 8.2 120 23:22 11.09.2019
2094 Clouds 11 999 81 16093 9.8 120 22:57 11.09.2019
2095 Clouds 11 999 81 16093 9.8 120 22:37 11.09.2019
2096 Clouds 11 999 81 16093 9.8 120 22:19 11.09.2019
2097 Clouds 11 999 81 16093 10.3 130 21:43 11.09.2019
2098 Clouds 11 999 81 16093 10.3 130 21:25 11.09.2019
2099 Clouds 10 1000 87 16093 9.3 130 20:58 11.09.2019
2100 Clouds 10 1000 87 16093 9.3 130 20:40 11.09.2019
2101 Clouds 10 1000 87 16093 9.3 130 20:20 11.09.2019
2102 Clouds 10 1000 87 16093 9.3 140 20:20 11.09.2019
2103 Clouds 10 1000 87 16093 9.3 140 19:58 11.09.2019
2104 Clouds 10 1000 87 16093 9.3 140 19:40 11.09.2019
2105 Clouds 10 1000 87 16093 9.3 140 19:21 11.09.2019
2106 Clouds 10 1001 87 16093 8.2 130 18:58 11.09.2019
2107 Clouds 10 1001 87 16093 8.2 130 18:40 11.09.2019
2108 Clouds 10 1001 87 16093 8.2 130 18:22 11.09.2019
2109 Clouds 10 1001 87 16093 8.7 140 17:56 11.09.2019
2110 Clouds 10 1001 93 16093 8.7 130 17:38 11.09.2019
2111 Clouds 10 1001 93 16093 8.7 130 17:20 11.09.2019
2112 Clouds 11 1002 81 16093 9.3 140 16:48 11.09.2019
2113 Clouds 11 1002 81 16093 9.3 140 16:26 11.09.2019
2114 Clouds 10 1002 93 16093 6.7 120 15:59 11.09.2019
2115 Clouds 10 1002 93 16093 6.7 120 15:40 11.09.2019
2116 Clouds 10 1002 93 16093 6.7 120 15:19 11.09.2019
2117 Clouds 11 1003 81 16093 6.7 140 14:55 11.09.2019
2118 Clouds 11 1004 87 16093 6.2 150 14:36 11.09.2019
2119 Clouds 11 1004 87 16093 6.2 150 14:18 11.09.2019
2120 Clouds 9 1004 100 16093 5.7 140 13:38 11.09.2019
2121 Clouds 9 1004 100 16093 5.7 140 13:20 11.09.2019
2122 Clouds 9 1004 100 16093 4.6 80 12:56 11.09.2019
2123 Clouds 9 1004 100 16093 4.6 80 12:38 11.09.2019
2124 Clouds 9 1004 100 16093 4.6 80 12:20 11.09.2019
2125 Clouds 9 1004 100 16093 4.1 80 11:39 11.09.2019
2126 Clouds 9 1004 100 16093 4.1 80 11:21 11.09.2019
2127 Clouds 9 1005 100 16093 4.1 150 10:57 11.09.2019
2128 Clouds 9 1005 100 16093 4.1 150 10:38 11.09.2019
2129 Clouds 10 1005 93 16093 2.6 120 10:19 11.09.2019
2130 Clouds 10 1005 93 16093 2.6 120 09:39 11.09.2019
2131 Clouds 10 1005 93 16093 2.6 120 09:20 11.09.2019
2132 Clouds 10 1005 93 16093 2.1 170 08:55 11.09.2019
2133 Clouds 10 1005 93 16093 2.1 170 08:55 11.09.2019
2134 Clouds 10 1005 93 16093 2.1 170 08:37 11.09.2019
2135 Clouds 10 1005 93 16093 2.1 170 08:19 11.09.2019
2136 Clouds 10 1005 93 16093 1.5 200 07:40 11.09.2019
2137 Clouds 10 1005 93 16093 1.5 200 07:22 11.09.2019
2138 Clouds 10 1005 93 16093 3.1 240 06:48 11.09.2019
2139 Clouds 10 1005 93 16093 3.1 240 06:27 11.09.2019
2140 Clouds 11 1005 87 16093 4.1 230 05:36 11.09.2019
2141 Clouds 11 1005 87 16093 4.1 230 05:18 11.09.2019
2142 Clouds 10 1005 93 16093 4.1 250 04:22 11.09.2019
2143 Clouds 11 1005 93 16093 5.1 240 03:31 11.09.2019
2144 Clouds 11 1005 93 16093 5.1 240 03:31 11.09.2019
2145 Clouds 11 1005 93 16093 4.6 260 02:40 11.09.2019
2146 Clouds 11 1005 93 16093 3.1 210 01:50 11.09.2019
2147 Clouds 11 1005 87 16093 2.1 190 00:49 11.09.2019
2148 Clouds 11 1005 87 16093 2.1 190 00:20 11.09.2019
2149 Clouds 11 1005 87 16093 2.1 190 00:20 11.09.2019
2150 Clouds 11 1005 87 16093 1.5 180 23:41 10.09.2019
2151 Clouds 11 1005 87 16093 1.5 180 23:22 10.09.2019
2152 Clouds 11 1005 87 16093 1.5 180 23:22 10.09.2019
2153 Clouds 11 1005 87 16093 1.5 130 22:59 10.09.2019
2154 Clouds 11 1005 87 16093 1.5 130 22:41 10.09.2019
2155 Clouds 11 1005 87 16093 1.5 130 22:19 10.09.2019
2156 Clouds 11 1005 87 16093 1.5 130 22:19 10.09.2019
2157 Clouds 10 1005 93 16093 1.63 233.215 21:55 10.09.2019
2158 Clouds 10 1005 93 16093 1.63 233.215 21:37 10.09.2019
2159 Clouds 10 1005 93 16093 1.02 166.426 21:18 10.09.2019
2160 Clouds 9 1005 100 16093 1.02 166.426 20:57 10.09.2019
2161 Clouds 9 1005 100 16093 0.97 77.975 20:38 10.09.2019
2162 Clouds 9 1005 100 16093 0.97 77.975 20:19 10.09.2019
2163 -273 0 0 0 0 0 19:56 10.09.2019
2164 Clouds 9 1005 93 16093 0.97 77.975 19:37 10.09.2019
2165 Clouds 8 1005 100 16093 0.97 77.975 19:18 10.09.2019
2166 Clouds 8 1005 100 16093 0.97 77.975 18:46 10.09.2019
2167 Clouds 8 1005 100 16093 0.97 77.975 18:46 10.09.2019
2168 Clouds 8 1005 100 16093 0.97 54.311 18:23 10.09.2019
2169 Clouds 8 1004 100 16093 0.97 54.311 17:59 10.09.2019
2170 Clouds 8 1004 100 16093 0.97 54.311 17:59 10.09.2019
2171 Clouds 8 1004 100 16093 0.97 54.311 17:41 10.09.2019
2172 Clouds 8 1004 100 16093 0.97 54.311 17:21 10.09.2019
2173 Clouds 8 1004 100 16093 0.97 54.311 16:57 10.09.2019
2174 Clouds 8 1004 100 16093 0.97 54.311 16:39 10.09.2019
2175 Clouds 8 1004 100 16093 0.97 54.311 16:20 10.09.2019
2176 Clouds 8 1004 100 16093 0.97 54.311 15:56 10.09.2019
2177 Clouds 8 1004 100 16093 0.97 54.311 15:38 10.09.2019
2178 Clouds 8 1005 100 16093 0.85 316.003 15:19 10.09.2019
2179 Clouds 8 1005 100 16093 0.85 316.003 14:40 10.09.2019
2180 Clouds 8 1005 100 16093 0.85 316.003 14:22 10.09.2019
2181 Clouds 8 1005 100 16093 0.85 316.003 13:50 10.09.2019
2182 Clouds 8 1005 100 16093 1.63 30.421 13:24 10.09.2019
2183 Clouds 8 1005 100 16093 1.63 30.421 12:58 10.09.2019
2184 Clouds 8 1005 100 16093 1.63 30.421 12:40 10.09.2019
2185 Clouds 8 1005 100 16093 1.7 40.246 12:22 10.09.2019
2186 Clouds 8 1005 100 16093 1.7 40.246 11:43 10.09.2019
2187 Clouds 8 1005 100 16093 1.7 40.246 11:23 10.09.2019
2188 Clouds 8 1005 100 16093 1.7 40.246 10:59 10.09.2019
2189 Clouds 8 1005 100 16093 1.7 40.246 10:38 10.09.2019
2190 Clouds 9 1005 100 16093 1.5 340 10:18 10.09.2019
2191 Clouds 9 1005 100 16093 1.5 340 09:47 10.09.2019
2192 Clouds 9 1005 100 16093 1.5 340 09:20 10.09.2019
2193 Clouds 9 1005 100 16093 1.5 340 09:20 10.09.2019
2194 Clouds 11 1005 93 16093 1.95 74.856 08:59 10.09.2019
2195 Clouds 11 1005 93 16093 2.04 54.576 08:41 10.09.2019
2196 Clouds 11 1005 93 16093 2.04 54.576 08:21 10.09.2019
2197 Clouds 11 1005 93 16093 1.5 150 07:44 10.09.2019
2198 Clouds 11 1005 93 16093 1.5 150 07:25 10.09.2019
2199 Clouds 11 1005 93 16093 1.5 150 07:25 10.09.2019
2200 Clouds 11 1005 100 16093 2.1 150 06:48 10.09.2019
2201 Clouds 11 1005 100 16093 2.1 150 06:29 10.09.2019
2202 Clouds 12 1005 87 16093 2.6 160 04:57 10.09.2019
2203 Rain 11 1006 100 16093 2.6 160 02:46 10.09.2019
2204 Rain 11 1006 100 16093 2.6 160 02:22 10.09.2019
2205 Rain 11 1006 100 16093 2.6 160 02:22 10.09.2019
2206 Rain 11 1006 100 16093 2.6 160 02:22 10.09.2019
2207 Rain 11 1006 100 3219 3.6 140 01:54 10.09.2019
2208 Rain 11 1006 100 3219 3.6 140 01:54 10.09.2019
2209 Clouds 11 1006 100 16093 2.6 160 01:28 10.09.2019
2210 Clouds 11 1006 100 16093 3.6 150 00:44 10.09.2019
2211 Clouds 11 1006 100 16093 3.6 150 00:24 10.09.2019
2212 Clouds 11 1006 100 16093 4.1 150 23:46 09.09.2019
2213 Clouds 11 1006 100 16093 3.1 130 23:20 09.09.2019
2214 Clouds 11 1006 100 16093 3.1 130 22:56 09.09.2019
2215 Clouds 11 1006 100 16093 3.1 130 22:38 09.09.2019
2216 Rain 11 1007 100 16093 3.6 130 22:20 09.09.2019
2217 Rain 11 1007 100 16093 3.6 130 21:56 09.09.2019
2218 Rain 11 1007 100 16093 3.6 130 21:37 09.09.2019
2219 Rain 10 1007 100 4828 3.1 130 21:19 09.09.2019
2220 Rain 10 1007 100 4828 3.1 130 20:56 09.09.2019
2221 Rain 10 1007 100 4828 3.1 130 20:37 09.09.2019
2222 Rain 11 1007 100 11265 2.6 130 20:19 09.09.2019
2223 Rain 11 1007 100 11265 2.6 130 19:57 09.09.2019
2224 Rain 10 1007 100 8047 3.6 90 19:39 09.09.2019
2225 Rain 10 1007 100 8047 3.6 90 19:19 09.09.2019
2226 Rain 10 1007 100 16093 2.1 70 18:57 09.09.2019
2227 Rain 10 1007 100 16093 2.1 70 18:39 09.09.2019
2228 Rain 10 1007 100 16093 2.1 70 18:20 09.09.2019
2229 Rain 10 1007 100 16093 2.1 70 17:57 09.09.2019
2230 Clouds 11 1007 100 16093 2.6 120 17:39 09.09.2019
2231 Clouds 11 1007 100 16093 2.6 120 17:20 09.09.2019
2232 Clouds 11 1007 100 16093 2.6 130 16:55 09.09.2019
2233 Clouds 11 1007 100 16093 2.6 130 16:55 09.09.2019
2234 Clouds 11 1007 100 16093 4.1 140 16:37 09.09.2019
2235 Clouds 11 1007 100 16093 3.6 120 16:18 09.09.2019
2236 Clouds 11 1007 100 16093 3.6 120 15:55 09.09.2019
2237 -273 0 0 0 0 0 15:55 09.09.2019
2238 Clouds 11 1007 100 16093 4.1 140 15:36 09.09.2019
2239 Clouds 11 1007 100 16093 4.6 150 15:18 09.09.2019
2240 Clouds 11 1007 100 16093 4.6 150 14:54 09.09.2019
2241 Clouds 11 1007 100 16093 4.6 150 14:36 09.09.2019
2242 Clouds 11 1007 100 16093 4.1 150 14:18 09.09.2019
2243 Clouds 11 1007 100 16093 4.1 150 13:43 09.09.2019
2244 Clouds 11 1007 100 16093 4.6 170 13:19 09.09.2019
2245 Clouds 11 1007 100 16093 4.6 170 12:57 09.09.2019
2246 Clouds 11 1007 100 16093 4.6 160 12:38 09.09.2019
2247 Clouds 11 1007 100 16093 5.1 170 12:19 09.09.2019
2248 Clouds 11 1007 100 16093 4.6 170 11:46 09.09.2019
2249 Clouds 11 1007 100 16093 4.6 170 11:22 09.09.2019
2250 Clouds 11 1007 100 16093 7.7 140 10:58 09.09.2019
2251 Clouds 11 1007 100 16093 7.7 140 10:39 09.09.2019
2252 Clouds 11 1007 100 16093 7.7 160 10:20 09.09.2019
2253 Clouds 11 1007 100 16093 7.7 160 09:50 09.09.2019
2254 Clouds 11 1007 100 16093 7.7 160 09:50 09.09.2019
2255 Clouds 11 1007 100 16093 7.7 160 09:31 09.09.2019
2256 Clouds 11 1007 100 16093 7.2 150 08:57 09.09.2019
2257 Clouds 11 1007 100 16093 7.2 150 08:38 09.09.2019
2258 Clouds 11 1007 100 11265 7.7 150 08:19 09.09.2019
2259 Clouds 11 1007 100 11265 7.7 150 07:45 09.09.2019
2260 Clouds 11 1007 100 11265 7.7 150 07:22 09.09.2019
2261 Clouds 11 1007 100 11265 7.7 150 06:56 09.09.2019
2262 Clouds 11 1007 100 11265 7.7 150 06:56 09.09.2019
2263 Clouds 11 1007 100 16093 7.7 160 06:31 09.09.2019
2264 Rain 11 1007 100 14484 6.2 160 04:45 09.09.2019
2265 Clouds 11 1007 93 16093 7.2 160 02:43 09.09.2019
2266 Clouds 12 1007 87 16093 9.3 190 01:50 09.09.2019
2267 Rain 12 1006 87 16093 9.3 190 00:39 09.09.2019
2268 Rain 12 1006 87 16093 9.3 190 00:20 09.09.2019
2269 Rain 10 1006 100 4828 8.7 200 23:41 08.09.2019
2270 Rain 10 1006 100 4828 8.7 200 23:23 08.09.2019
2271 Rain 10 1005 100 4828 6.7 190 22:55 08.09.2019
2272 Rain 10 1005 100 4828 6.7 190 22:36 08.09.2019
2273 Rain 10 1004 93 16093 5.7 190 22:18 08.09.2019
2274 Rain 10 1004 93 16093 5.7 190 21:41 08.09.2019
2275 Rain 10 1004 93 16093 5.7 190 21:22 08.09.2019
2276 Rain 10 1003 93 16093 5.1 200 20:57 08.09.2019
2277 Rain 10 1003 93 16093 5.1 200 20:38 08.09.2019
2278 Rain 10 1003 93 16093 5.1 200 20:20 08.09.2019
2279 Rain 9 1003 100 16093 5.7 200 19:57 08.09.2019
2280 Rain 9 1003 100 16093 5.7 200 19:37 08.09.2019
2281 Rain 9 1003 100 16093 5.7 200 19:18 08.09.2019
2282 Rain 9 1003 100 16093 5.7 200 18:56 08.09.2019
2283 Clouds 10 1002 93 16093 6.2 210 18:37 08.09.2019
2284 Clouds 10 1002 93 16093 6.2 210 18:18 08.09.2019
2285 Clouds 10 1002 93 16093 6.2 210 17:54 08.09.2019
2286 Clouds 10 1001 93 16093 6.2 210 17:36 08.09.2019
2287 Rain 11 1000 100 6437 6.2 200 17:18 08.09.2019
2288 Rain 11 1000 100 6437 6.2 200 16:42 08.09.2019
2289 Rain 11 1000 100 6437 6.2 200 16:21 08.09.2019
2290 Clouds 11 1000 100 16093 4.6 200 15:58 08.09.2019
2291 Clouds 11 1000 100 16093 5.7 190 15:39 08.09.2019
2292 Clouds 11 1000 100 16093 5.7 190 15:21 08.09.2019
2293 Clouds 11 999 100 16093 3.6 190 14:54 08.09.2019
2294 Clouds 11 999 93 16093 2.6 180 14:36 08.09.2019
2295 Clouds 11 999 100 16093 2.6 160 14:18 08.09.2019
2296 Clouds 11 999 100 16093 2.6 160 13:54 08.09.2019
2297 Clouds 11 999 100 16093 3.6 130 13:36 08.09.2019
2298 Clouds 11 999 100 16093 3.6 130 13:18 08.09.2019
2299 Clouds 11 999 100 16093 5.7 120 12:41 08.09.2019
2300 Clouds 11 999 100 16093 5.7 120 12:23 08.09.2019
2301 Clouds 11 999 100 16093 6.7 120 11:58 08.09.2019
2302 Clouds 11 999 100 16093 4.6 110 11:38 08.09.2019
2303 Clouds 12 999 93 16093 7.2 110 11:19 08.09.2019
2304 Clouds 12 999 93 16093 7.2 110 10:55 08.09.2019
2305 Clouds 12 999 93 16093 7.2 110 10:37 08.09.2019
2306 Rain 12 999 93 16093 9.8 120 10:18 08.09.2019
2307 Rain 12 999 93 16093 9.8 120 09:38 08.09.2019
2308 Rain 12 999 93 16093 7.2 110 09:19 08.09.2019
2309 Rain 12 999 93 16093 7.2 110 08:56 08.09.2019
2310 Rain 12 999 93 16093 7.7 120 08:36 08.09.2019
2311 Rain 12 999 93 16093 9.3 130 08:18 08.09.2019
2312 Rain 12 999 93 16093 9.3 130 07:38 08.09.2019
2313 Rain 11 999 100 16093 8.2 130 07:20 08.09.2019
2314 Rain 11 999 100 6437 9.8 130 06:45 08.09.2019
2315 Rain 11 999 100 2816 10.3 120 05:57 08.09.2019
2316 Rain 11 999 100 2012 10.8 130 05:35 08.09.2019
2317 Rain 11 999 100 8047 6.2 90 03:51 08.09.2019
2318 Clouds 11 1000 100 16093 9.3 110 02:54 08.09.2019
2319 Rain 11 1000 100 12874 8.7 110 02:25 08.09.2019
2320 Clouds 11 1000 100 16093 6.7 90 01:34 08.09.2019
2321 Clouds 11 1000 100 16093 6.7 90 00:57 08.09.2019
2322 Rain 10 1001 100 4023 6.7 100 00:37 08.09.2019
2323 Rain 11 1001 87 12874 9.3 90 00:19 08.09.2019
2324 Clouds 12 1001 81 16093 8.7 100 23:38 07.09.2019
2325 Clouds 11 1002 87 16093 8.2 100 23:19 07.09.2019
2326 Clouds 11 1002 87 16093 8.2 100 22:57 07.09.2019
2327 Clouds 11 1002 87 16093 8.2 100 22:37 07.09.2019
2328 Rain 10 1002 100 16093 5.7 90 22:19 07.09.2019
2329 Rain 10 1002 100 16093 5.7 90 21:41 07.09.2019
2330 Rain 10 1002 100 16093 5.7 90 21:23 07.09.2019
2331 Rain 9 1003 100 8047 4.1 90 20:42 07.09.2019
2332 Rain 9 1003 100 8047 4.1 90 20:23 07.09.2019
2333 Rain 9 1003 100 6437 5.7 90 19:58 07.09.2019
2334 Rain 10 1003 100 9656 6.2 110 19:39 07.09.2019
2335 Rain 10 1003 100 9656 5.7 110 19:21 07.09.2019
2336 Rain 10 1003 100 9656 5.7 110 18:59 07.09.2019
2337 Rain 9 1003 100 8047 4.1 90 18:41 07.09.2019
2338 Rain 9 1003 100 8047 4.1 90 18:41 07.09.2019
2339 Rain 9 1003 100 8047 4.1 90 18:22 07.09.2019
2340 Rain 9 1003 100 8047 4.1 90 17:59 07.09.2019
2341 Rain 10 1003 100 14484 4.1 70 17:41 07.09.2019
2342 Rain 10 1003 100 16093 3.6 80 17:19 07.09.2019
2343 Rain 10 1003 100 16093 3.6 80 16:59 07.09.2019
2344 Clouds 10 1004 100 16093 4.1 70 16:40 07.09.2019
2345 Clouds 10 1004 100 16093 4.6 110 16:20 07.09.2019
2346 Rain 10 1004 100 9656 4.6 100 15:47 07.09.2019
2347 Rain 10 1004 100 9656 4.6 100 15:26 07.09.2019
2348 Rain 10 1004 100 16093 4.6 70 14:58 07.09.2019
2349 Clouds 10 1005 100 16093 4.1 70 14:37 07.09.2019
2350 Clouds 10 1005 100 16093 4.6 70 14:19 07.09.2019
2351 Clouds 10 1005 100 16093 4.6 70 13:58 07.09.2019
2352 Clouds 10 1005 100 16093 4.6 70 13:58 07.09.2019
2353 Clouds 10 1005 100 16093 4.6 70 13:39 07.09.2019
2354 Clouds 10 1005 100 16093 4.6 70 13:21 07.09.2019
2355 Rain 10 1006 100 16093 3.6 70 12:44 07.09.2019
2356 Rain 10 1006 100 16093 3.6 70 12:25 07.09.2019
2357 Rain 10 1006 100 16093 3.6 70 11:57 07.09.2019
2358 Rain 10 1006 100 4828 3.6 100 11:39 07.09.2019
2359 Clouds 10 1006 100 16093 4.1 70 11:19 07.09.2019
2360 Clouds 10 1006 100 16093 4.1 70 11:19 07.09.2019
2361 Clouds 10 1006 100 16093 4.1 70 10:40 07.09.2019
2362 Clouds 10 1006 100 16093 4.1 70 10:22 07.09.2019
2363 Clouds 11 1007 93 16093 4.6 70 09:56 07.09.2019
2364 Clouds 11 1007 93 16093 4.6 70 09:37 07.09.2019
2365 Clouds 11 1007 93 16093 4.6 70 09:37 07.09.2019
2366 Clouds 11 1007 100 16093 3.6 100 09:19 07.09.2019
2367 Clouds 11 1007 100 16093 3.6 100 08:44 07.09.2019
2368 Clouds 11 1007 100 16093 3.6 100 08:25 07.09.2019
2369 Clouds 11 1007 100 16093 4.6 100 07:46 07.09.2019
2370 Clouds 11 1007 100 16093 4.6 100 07:27 07.09.2019
2371 Clouds 12 1007 93 16093 5.7 110 06:50 07.09.2019
2372 Clouds 12 1007 93 16093 5.7 110 06:20 07.09.2019
2373 Rain 11 1008 100 12874 6.2 140 04:49 07.09.2019
2374 Rain 11 1008 100 12874 6.2 140 04:20 07.09.2019
2375 Rain 11 1008 100 2816 8.2 140 02:49 07.09.2019
2376 Rain 11 1008 100 2816 8.2 140 01:53 07.09.2019
2377 Rain 11 1008 100 2816 8.2 140 01:53 07.09.2019
2378 Rain 11 1008 100 4023 7.2 150 01:23 07.09.2019
2379 Rain 11 1008 100 14484 7.7 150 00:40 07.09.2019
2380 Rain 11 1008 100 14484 7.7 150 00:19 07.09.2019
2381 Rain 11 1008 100 14484 9.3 150 23:41 06.09.2019
2382 Rain 11 1008 100 14484 9.3 150 23:22 06.09.2019
2383 Rain 11 1008 100 14484 8.2 150 22:58 06.09.2019
2384 Rain 11 1008 100 14484 8.7 160 22:38 06.09.2019
2385 Rain 11 1008 100 12874 8.7 160 22:19 06.09.2019
2386 Rain 11 1008 100 12874 8.7 160 22:19 06.09.2019
2387 Rain 11 1008 100 12874 8.7 160 21:57 06.09.2019
2388 Rain 11 1008 100 12874 8.7 160 21:39 06.09.2019
2389 Rain 11 1008 100 12874 8.7 160 21:39 06.09.2019
2390 Rain 11 1008 100 12874 8.7 160 21:20 06.09.2019
2391 Rain 11 1008 100 11265 8.2 160 20:57 06.09.2019
2392 Rain 11 1008 100 4828 7.2 160 20:39 06.09.2019
2393 Rain 11 1008 100 4828 7.2 160 20:21 06.09.2019
2394 Rain 11 1007 100 4828 7.7 160 19:55 06.09.2019
2395 Rain 11 1007 100 16093 8.2 160 19:37 06.09.2019
2396 Rain 11 1007 100 16093 8.2 160 19:18 06.09.2019
2397 Rain 11 1007 100 9656 5.1 150 18:41 06.09.2019
2398 Rain 11 1007 100 9656 5.1 150 18:41 06.09.2019
2399 Rain 11 1007 100 9656 5.1 150 18:23 06.09.2019
2400 Rain 11 1007 100 9656 5.1 150 17:59 06.09.2019
2401 Mist 11 1007 100 4828 5.7 150 17:38 06.09.2019
2402 Mist 11 1007 100 4023 4.6 140 17:19 06.09.2019
2403 Clouds 12 1007 100 16093 4.6 160 16:41 06.09.2019
2404 Clouds 11 1008 100 16093 5.1 170 16:19 06.09.2019
2405 Clouds 11 1008 100 16093 5.1 170 16:19 06.09.2019
2406 Clouds 11 1008 100 16093 5.1 170 15:44 06.09.2019
2407 Clouds 11 1008 100 16093 5.1 170 15:26 06.09.2019
2408 Clouds 12 1007 100 16093 4.6 160 14:57 06.09.2019
2409 Clouds 12 1007 100 16093 4.6 160 14:39 06.09.2019
2410 Clouds 12 1007 100 16093 4.6 160 14:18 06.09.2019
2411 Clouds 11 1008 100 16093 4.1 130 13:43 06.09.2019
2412 Clouds 11 1008 100 16093 4.1 130 13:22 06.09.2019
2413 Clouds 12 1008 100 16093 3.1 150 12:39 06.09.2019
2414 Clouds 12 1008 100 16093 4.6 160 12:21 06.09.2019
2415 Clouds 12 1008 100 16093 4.6 160 11:57 06.09.2019
2416 Clouds 12 1008 100 16093 5.1 160 11:39 06.09.2019
2417 Clouds 12 1008 100 16093 5.1 160 11:20 06.09.2019
2418 Clouds 12 1008 100 16093 5.7 160 10:42 06.09.2019
2419 Clouds 12 1008 100 16093 5.7 160 10:22 06.09.2019
2420 Rain 12 1007 93 16093 5.1 160 09:58 06.09.2019
2421 Clouds 12 1007 100 16093 4.6 170 09:37 06.09.2019
2422 Clouds 11 1007 100 16093 5.7 160 09:18 06.09.2019
2423 Clouds 11 1007 100 16093 5.7 160 08:44 06.09.2019
2424 Clouds 11 1007 100 16093 5.7 160 08:26 06.09.2019
2425 Clouds 12 1007 100 16093 6.7 160 07:50 06.09.2019
2426 Clouds 12 1007 100 16093 6.7 160 07:28 06.09.2019
2427 Clouds 12 1007 100 16093 6.7 160 06:59 06.09.2019
2428 Clouds 12 1007 100 14484 9.3 160 06:33 06.09.2019
2429 Rain 12 1007 100 4828 8.2 150 05:45 06.09.2019
2430 Rain 12 1007 100 14484 9.8 150 04:54 06.09.2019
2431 Rain 12 1007 100 14484 9.8 150 04:24 06.09.2019
2432 Rain 11 1007 100 9656 9.3 140 02:44 06.09.2019
2433 Rain 11 1008 100 12874 9.3 140 00:57 06.09.2019
2434 Rain 11 1009 100 12874 9.3 140 00:20 06.09.2019
2435 Rain 11 1009 100 12874 9.3 140 00:20 06.09.2019
2436 Rain 11 1009 93 12874 9.8 140 23:41 05.09.2019
2437 Rain 11 1009 93 12874 9.8 140 23:22 05.09.2019
2438 Rain 11 1009 93 14484 9.3 140 22:45 05.09.2019
2439 Rain 11 1009 93 14484 9.3 140 22:25 05.09.2019
2440 Rain 11 1009 93 14484 9.3 140 21:57 05.09.2019
2441 Rain 11 1009 93 16093 8.2 160 21:39 05.09.2019
2442 Rain 11 1009 93 16093 8.2 160 21:39 05.09.2019
2443 Rain 11 1009 93 9656 9.3 160 21:20 05.09.2019
2444 Rain 11 1009 93 9656 9.3 160 20:58 05.09.2019
2445 Rain 10 1009 100 14484 3.1 150 20:38 05.09.2019
2446 Rain 10 1009 100 14484 3.1 150 20:20 05.09.2019
2447 Rain 10 1009 100 14484 3.1 150 19:57 05.09.2019
2448 Rain 9 1009 93 3219 3.1 130 19:39 05.09.2019
2449 Rain 9 1009 100 16093 2.1 140 19:19 05.09.2019
2450 Rain 9 1010 100 16093 4.6 160 18:43 05.09.2019
2451 Rain 9 1010 100 16093 4.6 160 18:25 05.09.2019
2452 Rain 9 1010 100 16093 4.6 160 17:59 05.09.2019
2453 Rain 10 1010 93 16093 5.7 150 17:39 05.09.2019
2454 Rain 10 1010 93 16093 5.7 150 17:21 05.09.2019
2455 Clouds 10 1010 87 16093 5.1 150 16:57 05.09.2019
2456 Clouds 10 1010 87 16093 5.1 150 16:39 05.09.2019
2457 Clouds 10 1010 87 16093 6.2 190 16:18 05.09.2019
2458 Clouds 10 1010 87 16093 6.2 190 15:40 05.09.2019
2459 Clouds 10 1010 87 16093 6.2 190 15:40 05.09.2019
2460 Clouds 10 1010 87 16093 8.7 190 15:19 05.09.2019
2461 Clouds 10 1010 87 16093 8.7 190 14:57 05.09.2019
2462 Clouds 10 1010 87 16093 8.7 190 14:57 05.09.2019
2463 Clouds 10 1010 87 16093 8.7 190 14:38 05.09.2019
2464 Clouds 10 1010 87 16093 6.7 180 14:18 05.09.2019
2465 Clouds 10 1010 87 16093 9.3 200 13:43 05.09.2019
2466 Clouds 10 1010 87 16093 9.3 200 13:20 05.09.2019
2467 Rain 10 1009 93 16093 8.7 200 12:45 05.09.2019
2468 Rain 10 1009 93 16093 8.7 200 12:26 05.09.2019
2469 Rain 10 1009 93 16093 8.7 200 11:57 05.09.2019
2470 Rain 10 1009 93 16093 9.3 200 11:39 05.09.2019
2471 Rain 9 1008 100 8047 11.8 200 11:18 05.09.2019
2472 Rain 9 1008 100 8047 11.8 200 10:41 05.09.2019
2473 Rain 9 1008 100 8047 11.8 200 10:22 05.09.2019
2474 Rain 10 1008 93 9656 10.3 200 09:58 05.09.2019
2475 Rain 9 1008 100 11265 10.3 190 09:38 05.09.2019
2476 Clouds 11 1007 81 16093 7.2 190 09:18 05.09.2019
2477 Clouds 11 1007 81 16093 7.2 190 08:45 05.09.2019
2478 Clouds 11 1007 81 16093 7.2 190 08:26 05.09.2019
2479 Clouds 11 1006 81 16093 7.2 190 07:46 05.09.2019
2480 Clouds 11 1006 81 16093 7.2 190 07:27 05.09.2019
2481 Rain 11 1006 76 16093 7.7 170 06:54 05.09.2019
2482 Rain 11 1006 76 16093 7.7 170 06:30 05.09.2019
2483 Clouds 11 1006 76 16093 6.2 170 05:50 05.09.2019
2484 Clouds 11 1006 76 16093 6.2 170 05:30 05.09.2019
2485 Clouds 12 1006 76 16093 8.7 180 04:50 05.09.2019
2486 Clouds 12 1006 76 16093 8.7 180 04:24 05.09.2019
2487 Clouds 12 1006 76 16093 9.8 180 03:38 05.09.2019
2488 Clouds 12 1005 76 16093 9.8 170 02:45 05.09.2019
2489 Clouds 12 1005 76 16093 10.3 170 02:20 05.09.2019
2490 Clouds 12 1005 81 16093 9.3 170 01:36 05.09.2019
2491 Clouds 11 1004 81 16093 11.3 170 00:42 05.09.2019
2492 Clouds 11 1004 81 16093 11.3 170 00:20 05.09.2019
2493 Rain 11 1004 87 16093 11.8 150 23:48 04.09.2019
2494 Rain 11 1004 87 16093 11.8 150 23:26 04.09.2019
2495 Rain 10 1004 93 4828 12.9 150 22:59 04.09.2019
2496 Clouds 11 1003 87 16093 11.8 150 22:40 04.09.2019
2497 Clouds 11 1003 87 16093 10.3 160 22:18 04.09.2019
2498 Clouds 11 1003 87 16093 10.3 160 21:39 04.09.2019
2499 Clouds 11 1003 87 16093 10.3 160 21:20 04.09.2019
2500 Clouds 11 1003 87 16093 10.3 160 21:20 04.09.2019
2501 Clouds 11 1002 87 16093 12.3 150 20:56 04.09.2019
2502 Rain 11 1002 87 16093 9.8 150 20:38 04.09.2019
2503 Rain 11 1002 87 16093 9.8 150 20:19 04.09.2019
2504 Rain 11 1002 87 16093 9.8 150 19:56 04.09.2019
2505 Rain 11 1002 93 16093 12.9 150 19:37 04.09.2019
2506 Rain 11 1002 87 11265 12.9 140 19:19 04.09.2019
2507 Rain 11 1002 87 8047 13.4 140 18:38 04.09.2019
2508 Rain 11 1002 87 8047 13.4 140 18:19 04.09.2019
2509 Rain 11 1002 87 12874 13.4 130 17:42 04.09.2019
2510 Rain 11 1002 87 12874 13.4 130 17:42 04.09.2019
2511 Rain 11 1002 87 12874 13.4 130 17:23 04.09.2019
2512 Rain 11 1003 87 11265 12.9 130 16:58 04.09.2019
2513 Rain 11 1003 87 16093 12.3 130 16:40 04.09.2019
2514 Rain 11 1003 87 16093 12.3 130 16:22 04.09.2019
2515 -273 0 0 0 0 0 15:56 04.09.2019
2516 Rain 11 1003 87 16093 12.3 130 15:55 04.09.2019
2517 Rain 11 1003 87 16093 10.8 130 15:37 04.09.2019
2518 Clouds 11 1003 87 16093 10.8 140 15:19 04.09.2019
2519 Clouds 11 1003 87 16093 10.8 140 14:54 04.09.2019
2520 Clouds 11 1004 87 16093 11.3 130 14:36 04.09.2019
2521 Clouds 11 1004 87 16093 11.3 130 14:18 04.09.2019
2522 Clouds 11 1004 87 16093 10.3 130 13:40 04.09.2019
2523 Clouds 11 1004 81 16093 10.8 130 13:21 04.09.2019
2524 Clouds 11 1004 81 16093 10.8 130 12:56 04.09.2019
2525 Clouds 11 1004 81 16093 12.3 130 12:37 04.09.2019
2526 Clouds 11 1004 81 16093 12.3 130 12:37 04.09.2019
2527 Clouds 11 1004 81 16093 10.3 130 12:18 04.09.2019
2528 Clouds 12 1004 76 16093 11.3 130 11:41 04.09.2019
2529 Clouds 12 1004 76 16093 11.3 130 11:21 04.09.2019
2530 Clouds 12 1004 81 16093 9.8 130 10:59 04.09.2019
2531 Clouds 12 1004 81 16093 9.8 130 10:40 04.09.2019
2532 Clouds 12 1004 81 16093 9.8 130 10:21 04.09.2019
2533 Clouds 12 1005 81 16093 8.2 130 09:46 04.09.2019
2534 Clouds 12 1005 81 16093 8.2 130 09:22 04.09.2019
2535 Clouds 12 1005 81 16093 9.3 130 08:59 04.09.2019
2536 Clouds 12 1005 87 16093 7.2 130 08:40 04.09.2019
2537 Clouds 12 1005 87 16093 7.2 130 08:21 04.09.2019
2538 Clouds 12 1005 87 16093 6.7 100 07:46 04.09.2019
2539 Clouds 12 1005 87 16093 6.7 100 07:28 04.09.2019
2540 Rain 12 1005 87 16093 7.7 130 06:39 04.09.2019
2541 Clouds 13 1005 76 16093 8.7 130 05:19 04.09.2019
2542 Clouds 13 1005 76 16093 8.7 130 04:51 04.09.2019
2543 Rain 12 1005 81 16093 7.7 140 03:45 04.09.2019
2544 Clouds 12 1005 81 16093 5.7 140 01:27 04.09.2019
2545 Clouds 12 1005 81 16093 5.7 140 01:27 04.09.2019
2546 Clouds 12 1005 76 16093 5.7 150 00:50 04.09.2019
2547 Clouds 12 1005 76 16093 5.7 150 00:32 04.09.2019
2548 Clouds 12 1005 76 16093 5.7 150 23:54 03.09.2019
2549 Clouds 12 1004 81 16093 5.7 160 23:28 03.09.2019
2550 Clouds 12 1004 81 16093 5.7 160 22:59 03.09.2019
2551 Clouds 11 1004 87 16093 4.6 200 22:40 03.09.2019
2552 Clouds 11 1004 87 16093 4.6 200 22:21 03.09.2019
2553 Clouds 11 1004 87 16093 4.6 200 21:56 03.09.2019
2554 Clouds 11 1004 87 16093 4.6 200 21:56 03.09.2019
2555 Clouds 11 1004 87 16093 6.2 200 21:37 03.09.2019
2556 Clouds 11 1004 87 16093 6.2 200 21:37 03.09.2019
2557 Clouds 11 1003 81 16093 7.2 200 21:18 03.09.2019
2558 Clouds 11 1002 81 16093 8.7 210 20:42 03.09.2019
2559 Clouds 11 1002 81 16093 8.7 210 20:42 03.09.2019
2560 Clouds 11 1002 81 16093 8.7 210 20:24 03.09.2019
2561 Clouds 11 1002 81 16093 8.7 210 20:24 03.09.2019
2562 Clouds 11 1002 81 16093 8.7 210 19:56 03.09.2019
2563 Clouds 11 1002 81 16093 8.7 210 19:56 03.09.2019
2564 Clouds 11 1001 81 16093 10.3 210 19:38 03.09.2019
2565 Clouds 11 1001 81 16093 10.3 210 19:19 03.09.2019
2566 Clouds 11 999 87 16093 12.9 220 18:45 03.09.2019
2567 Clouds 11 999 87 16093 12.9 220 18:27 03.09.2019
2568 Clouds 11 999 87 16093 12.9 220 17:59 03.09.2019
2569 Rain 10 998 100 4828 12.3 220 17:40 03.09.2019
2570 Rain 10 998 100 4828 12.3 210 17:20 03.09.2019
2571 Rain 10 998 100 4828 12.3 210 16:58 03.09.2019
2572 Rain 11 997 100 8047 8.7 210 16:38 03.09.2019
2573 Rain 11 997 100 8047 8.7 210 16:19 03.09.2019
2574 Clouds 11 996 100 12874 6.7 190 15:41 03.09.2019
2575 Clouds 11 996 100 12874 6.7 190 15:21 03.09.2019
2576 Clouds 11 995 100 16093 7.2 190 14:58 03.09.2019
2577 Clouds 11 995 100 16093 7.2 190 14:40 03.09.2019
2578 Clouds 11 995 100 16093 7.2 190 14:20 03.09.2019
2579 Clouds 11 995 100 16093 7.2 190 13:57 03.09.2019
2580 Clouds 12 994 100 16093 6.2 170 13:37 03.09.2019
2581 Clouds 12 994 100 16093 6.2 170 13:37 03.09.2019
2582 Clouds 12 994 100 16093 6.2 170 13:19 03.09.2019
2583 Clouds 12 994 100 16093 6.2 170 13:19 03.09.2019
2584 Clouds 12 994 100 16093 6.2 170 12:55 03.09.2019
2585 -273 0 0 0 0 0 12:55 03.09.2019
2586 Clouds 12 993 100 16093 6.7 170 12:37 03.09.2019
2587 Clouds 12 993 100 16093 6.7 170 12:19 03.09.2019
2588 Clouds 12 992 100 16093 5.1 170 11:40 03.09.2019
2589 Clouds 12 992 100 16093 5.1 170 11:40 03.09.2019
2590 Clouds 12 992 100 16093 5.1 170 11:21 03.09.2019
2591 Clouds 12 991 100 16093 3.6 160 10:56 03.09.2019
2592 Clouds 12 991 100 16093 3.6 160 10:38 03.09.2019
2593 Rain 12 990 100 16093 5.7 100 10:19 03.09.2019
2594 Rain 12 990 100 16093 5.7 100 09:44 03.09.2019
2595 Rain 12 990 100 16093 5.7 100 09:25 03.09.2019
2596 Rain 12 990 100 4828 5.7 80 08:54 03.09.2019
2597 Clouds 13 990 93 16093 6.2 90 08:36 03.09.2019
2598 Clouds 13 990 93 16093 6.2 90 08:18 03.09.2019
2599 Clouds 13 989 93 16093 7.7 90 07:40 03.09.2019
2600 Clouds 13 989 100 16093 7.2 100 07:21 03.09.2019
2601 Rain 13 989 100 16093 8.7 100 06:44 03.09.2019
2602 Rain 13 989 93 8047 7.2 90 05:53 03.09.2019
2603 Rain 13 989 100 16093 8.2 90 03:36 03.09.2019
2604 Clouds 13 989 93 16093 7.2 100 02:44 03.09.2019
2605 Clouds 13 989 93 16093 7.2 100 02:23 03.09.2019
2606 Clouds 13 989 93 16093 6.7 100 01:49 03.09.2019
2607 Clouds 13 989 93 16093 6.7 100 01:29 03.09.2019
2608 Clouds 13 989 93 16093 8.2 110 00:40 03.09.2019
2609 Clouds 13 989 93 16093 8.2 110 00:20 03.09.2019
2610 Clouds 13 988 93 16093 8.7 110 23:40 02.09.2019
2611 Clouds 13 988 93 16093 8.7 110 23:40 02.09.2019
2612 Rain 13 988 93 12874 7.2 110 23:20 02.09.2019
2613 Rain 13 988 93 12874 7.2 110 22:56 02.09.2019
2614 Clouds 13 988 93 14484 7.7 110 22:38 02.09.2019
2615 Clouds 13 988 93 14484 7.7 110 22:38 02.09.2019
2616 Clouds 13 988 93 14484 7.7 110 22:19 02.09.2019
2617 Clouds 13 988 93 14484 7.7 110 21:56 02.09.2019
2618 Clouds 12 988 100 16093 7.2 110 21:38 02.09.2019
2619 Clouds 12 987 100 16093 6.7 110 21:20 02.09.2019
2620 Clouds 12 987 100 16093 6.7 110 20:57 02.09.2019
2621 Clouds 12 987 100 16093 6.2 110 20:39 02.09.2019
2622 Rain 12 987 100 4828 5.1 100 20:18 02.09.2019
2623 Rain 12 987 100 4828 5.1 100 19:55 02.09.2019
2624 Rain 12 987 100 4828 5.1 100 19:55 02.09.2019
2625 Rain 12 987 100 4828 6.2 100 19:37 02.09.2019
2626 Rain 12 987 100 4828 6.2 100 19:18 02.09.2019
2627 Clouds 12 987 100 11265 6.7 110 18:38 02.09.2019
2628 Clouds 12 987 100 11265 6.7 110 18:38 02.09.2019
2629 Clouds 12 987 100 16093 5.7 100 18:20 02.09.2019
2630 Clouds 12 987 100 16093 5.7 100 17:56 02.09.2019
2631 -273 0 0 0 0 0 17:38 02.09.2019
2632 Clouds 12 987 100 16093 6.2 90 17:19 02.09.2019
2633 Clouds 12 987 100 16093 5.7 90 16:41 02.09.2019
2634 Clouds 12 987 100 16093 5.7 90 16:21 02.09.2019
2635 Clouds 12 987 100 16093 5.7 90 15:57 02.09.2019
2636 Rain 12 987 100 16093 7.2 90 15:38 02.09.2019
2637 Rain 12 987 100 16093 8.2 90 15:19 02.09.2019
2638 Rain 12 987 100 16093 8.2 90 14:56 02.09.2019
2639 Rain 12 987 100 9656 7.2 80 14:37 02.09.2019
2640 Rain 12 987 100 11265 7.7 90 14:18 02.09.2019
2641 Clouds 12 987 100 16093 9.3 80 13:44 02.09.2019
2642 Rain 12 987 100 14484 6.7 90 13:25 02.09.2019
2643 Rain 12 987 100 16093 7.7 80 12:47 02.09.2019
2644 Rain 12 987 100 16093 7.7 80 12:27 02.09.2019
2645 Rain 12 987 100 12874 6.7 90 12:00 02.09.2019
2646 Rain 12 987 100 16093 7.7 80 11:41 02.09.2019
2647 Rain 12 987 100 16093 7.7 80 11:22 02.09.2019
2648 Clouds 12 987 100 16093 7.7 80 10:59 02.09.2019
2649 Clouds 12 987 100 16093 7.7 80 10:59 02.09.2019
2650 Clouds 12 987 100 16093 7.7 80 10:41 02.09.2019
2651 Clouds 12 987 100 16093 7.7 80 10:22 02.09.2019
2652 Clouds 13 988 93 16093 7.7 80 09:58 02.09.2019
2653 Clouds 13 988 93 16093 7.7 80 09:38 02.09.2019
2654 Rain 13 987 87 16093 9.3 70 09:20 02.09.2019
2655 Rain 13 987 87 16093 9.3 70 08:42 02.09.2019
2656 Rain 13 987 87 16093 9.3 70 08:42 02.09.2019
2657 Rain 13 987 87 16093 9.3 70 08:21 02.09.2019
2658 Rain 13 987 87 16093 9.3 70 07:56 02.09.2019
2659 Rain 13 988 93 16093 7.7 70 07:37 02.09.2019
2660 Rain 13 988 93 16093 7.7 70 07:18 02.09.2019
2661 Rain 13 988 93 16093 7.2 80 06:41 02.09.2019
2662 Rain 14 989 82 16093 8.7 90 05:53 02.09.2019
2663 Rain 14 989 82 16093 8.7 90 05:53 02.09.2019
2664 Rain 14 989 82 16093 8.7 90 05:24 02.09.2019
2665 Clouds 14 989 82 16093 8.7 90 04:48 02.09.2019
2666 Clouds 14 990 76 16093 8.7 80 02:20 02.09.2019
2667 Clouds 13 991 87 16093 8.2 80 01:37 02.09.2019
2668 Clouds 13 992 87 16093 10.3 90 00:39 02.09.2019
2669 Clouds 13 992 87 16093 10.3 90 00:19 02.09.2019
2670 Clouds 12 992 93 16093 8.2 80 23:39 01.09.2019
2671 Rain 12 993 93 16093 7.7 80 23:19 01.09.2019
2672 Rain 12 993 93 16093 7.7 80 22:56 01.09.2019
2673 Rain 12 993 93 16093 7.7 80 22:56 01.09.2019
2674 Rain 12 993 93 16093 7.7 80 22:38 01.09.2019
2675 Rain 12 993 93 16093 7.7 80 22:38 01.09.2019
2676 Rain 12 993 93 16093 7.7 80 22:18 01.09.2019
2677 Rain 11 993 100 9656 7.7 80 21:42 01.09.2019
2678 Rain 11 993 100 9656 7.7 80 21:23 01.09.2019
2679 Rain 11 993 100 9656 7.7 80 20:58 01.09.2019
2680 Rain 11 994 93 16093 7.7 70 20:39 01.09.2019
2681 Rain 11 994 93 16093 7.7 70 20:19 01.09.2019
2682 Rain 11 994 93 16093 7.7 70 19:59 01.09.2019
2683 Rain 12 994 87 16093 7.7 70 19:40 01.09.2019
2684 Clouds 12 995 87 16093 7.2 70 19:21 01.09.2019
2685 Rain 12 995 87 16093 7.2 60 18:48 01.09.2019
2686 Rain 12 995 87 16093 7.2 60 18:30 01.09.2019
2687 Rain 12 995 87 16093 7.2 60 17:59 01.09.2019
2688 Rain 12 996 87 16093 6.2 70 17:39 01.09.2019
2689 Rain 12 996 87 16093 6.2 70 17:21 01.09.2019
2690 Rain 12 997 81 16093 6.7 70 16:41 01.09.2019
2691 Rain 12 997 81 16093 6.7 70 16:41 01.09.2019
2692 Rain 12 997 81 16093 6.7 70 16:22 01.09.2019
2693 Rain 12 997 81 16093 6.7 70 15:59 01.09.2019
2694 Clouds 12 998 81 16093 6.2 70 15:41 01.09.2019
2695 Clouds 12 998 81 16093 6.2 70 15:23 01.09.2019
2696 Clouds 12 999 81 16093 6.7 70 14:44 01.09.2019
2697 Clouds 12 999 81 16093 6.7 70 14:26 01.09.2019
2698 Clouds 13 1000 76 16093 7.2 60 13:59 01.09.2019
2699 Clouds 13 1000 76 16093 7.2 60 13:40 01.09.2019
2700 Clouds 13 1000 76 16093 7.2 60 13:40 01.09.2019
2701 Clouds 13 1000 76 16093 7.2 60 13:22 01.09.2019
2702 Clouds 13 1001 76 16093 6.2 60 12:44 01.09.2019
2703 Clouds 13 1001 76 16093 6.2 60 12:26 01.09.2019
2704 Clouds 13 1001 76 16093 6.2 60 11:58 01.09.2019
2705 Clouds 12 1002 81 16093 5.7 50 11:38 01.09.2019
2706 Clouds 12 1002 81 16093 5.1 60 11:19 01.09.2019
2707 Clouds 12 1002 81 16093 5.1 60 10:45 01.09.2019
2708 Clouds 12 1002 81 16093 5.1 60 10:23 01.09.2019
2709 Clouds 12 1003 81 16093 4.6 60 09:47 01.09.2019
2710 Clouds 12 1003 81 16093 4.6 60 09:26 01.09.2019
2711 Rain 12 1004 87 16093 4.6 70 08:56 01.09.2019
2712 Rain 12 1004 87 16093 4.6 70 08:38 01.09.2019
2713 Clouds 12 1004 87 16093 4.1 80 08:20 01.09.2019
2714 Clouds 12 1004 87 16093 4.1 80 07:41 01.09.2019
2715 Clouds 12 1004 87 16093 4.1 80 07:20 01.09.2019
2716 Clouds 13 1005 76 16093 6.7 100 06:38 01.09.2019
2717 Clouds 13 1005 76 16093 6.7 100 05:59 01.09.2019
2718 Clouds 13 1005 76 16093 6.7 100 05:59 01.09.2019
2719 Haze 13 1006 82 9656 6.2 130 04:41 01.09.2019
2720 Clouds 13 1006 76 16093 5.1 130 03:49 01.09.2019
2721 Clouds 13 1006 76 16093 5.1 130 03:30 01.09.2019
2722 Clouds 13 1007 87 16093 4.6 120 02:37 01.09.2019
2723 Clouds 13 1007 87 16093 4.6 130 02:19 01.09.2019
2724 Clouds 13 1007 82 16093 4.6 100 01:28 01.09.2019
2725 Clouds 12 1008 93 16093 5.1 90 00:55 01.09.2019
2726 Clouds 12 1008 93 16093 5.1 90 00:36 01.09.2019
2727 Clouds 13 1008 87 16093 5.1 80 00:18 01.09.2019
2728 Clouds 12 1008 93 16093 4.1 80 23:40 31.08.2019
2729 Clouds 11 1008 93 16093 4.1 80 23:20 31.08.2019
2730 Clouds 11 1008 93 16093 4.1 80 22:54 31.08.2019
2731 Clouds 11 1008 93 16093 4.1 80 22:36 31.08.2019
2732 Clouds 11 1009 93 16093 3.1 80 22:18 31.08.2019
2733 Clouds 11 1009 93 16093 3.1 80 21:42 31.08.2019
2734 Clouds 11 1009 93 16093 3.1 80 21:21 31.08.2019
2735 Clouds 10 1009 93 16093 3.1 160 20:59 31.08.2019
2736 Clouds 10 1009 93 16093 3.1 160 20:40 31.08.2019
2737 Clouds 10 1009 93 16093 3.1 160 20:22 31.08.2019
2738 Clouds 10 1009 100 14484 2.6 50 19:41 31.08.2019
2739 Clouds 10 1009 100 14484 2.6 50 19:22 31.08.2019
2740 Clouds 10 1009 100 14484 2.1 140 18:55 31.08.2019
2741 Clouds 10 1009 100 14484 2.1 140 18:37 31.08.2019
2742 Rain 10 1009 100 14484 2.1 100 18:18 31.08.2019
2743 Rain 10 1009 100 14484 2.1 100 17:54 31.08.2019
2744 Rain 10 1010 100 14484 2.6 70 17:36 31.08.2019
2745 Rain 10 1010 100 14484 2.6 70 17:36 31.08.2019
2746 Rain 11 1010 87 16093 2.1 80 17:18 31.08.2019
2747 Rain 11 1010 87 16093 2.1 80 16:42 31.08.2019
2748 Rain 11 1010 87 16093 2.1 80 16:23 31.08.2019
2749 Clouds 12 1010 87 16093 2.6 60 15:59 31.08.2019
2750 Clouds 12 1010 87 16093 2.6 60 15:40 31.08.2019
2751 Clouds 12 1011 87 16093 3.6 130 15:18 31.08.2019
2752 Clouds 12 1011 87 16093 3.6 130 14:42 31.08.2019
2753 Clouds 12 1011 87 16093 3.6 130 14:24 31.08.2019
2754 Clouds 12 1011 87 14484 5.7 70 13:59 31.08.2019
2755 Clouds 12 1011 87 14484 5.7 70 13:38 31.08.2019
2756 Clouds 12 1011 87 14484 5.7 70 13:19 31.08.2019
2757 Clouds 12 1011 87 14484 5.7 70 12:54 31.08.2019
2758 Clouds 12 1010 76 16093 4.1 70 12:36 31.08.2019
2759 Clouds 12 1010 76 16093 4.1 70 12:18 31.08.2019
2760 Clouds 12 1011 76 16093 2.6 50 11:42 31.08.2019
2761 Clouds 12 1011 76 16093 2.6 50 11:24 31.08.2019
2762 Clouds 12 1011 76 16093 3.1 50 10:55 31.08.2019
2763 Clouds 12 1011 76 16093 3.1 50 10:36 31.08.2019
2764 Clouds 12 1011 76 16093 2.1 60 10:18 31.08.2019
2765 Clouds 12 1011 76 16093 2.1 60 09:40 31.08.2019
2766 Clouds 12 1011 76 16093 2.1 60 09:22 31.08.2019
2767 Clouds 13 1011 71 16093 2.1 80 08:57 31.08.2019
2768 Clouds 13 1011 71 16093 2.1 80 08:38 31.08.2019
2769 Clouds 13 1011 76 16093 2.6 110 08:19 31.08.2019
2770 Clouds 13 1011 76 16093 2.6 110 07:38 31.08.2019
2771 Clouds 13 1011 76 16093 2.6 110 07:18 31.08.2019
2772 Clouds 13 1012 71 16093 3.1 130 06:27 31.08.2019
2773 Clouds 13 1012 71 16093 3.1 130 05:54 31.08.2019
2774 Clouds 13 1012 71 16093 4.1 120 05:28 31.08.2019
2775 Clouds 13 1012 71 16093 5.1 150 04:29 31.08.2019
2776 Clouds 14 1013 67 16093 5.1 140 03:42 31.08.2019
2777 Clear 13 1013 71 16093 5.7 140 02:22 31.08.2019
2778 Clear 14 1014 62 16093 5.1 120 01:47 31.08.2019
2779 Clear 14 1014 62 16093 5.1 120 01:29 31.08.2019
2780 Clear 14 1014 58 16093 6.2 90 00:46 31.08.2019
2781 Clear 14 1014 58 16093 6.2 90 00:27 31.08.2019
2782 Clear 14 1014 58 16093 6.2 90 00:27 31.08.2019
2783 Clear 13 1014 62 16093 5.1 80 23:50 30.08.2019
2784 Clear 13 1015 62 16093 5.7 80 23:19 30.08.2019
2785 Clear 13 1015 62 16093 5.7 80 22:58 30.08.2019
2786 Clear 13 1015 62 16093 5.7 80 22:38 30.08.2019
2787 Clear 13 1015 62 16093 5.7 80 22:20 30.08.2019
2788 Clear 13 1015 62 16093 5.7 80 21:57 30.08.2019
2789 Clear 12 1015 66 16093 5.1 70 21:36 30.08.2019
2790 Clear 12 1015 66 16093 5.1 70 21:18 30.08.2019
2791 Clear 12 1015 66 16093 5.1 70 20:56 30.08.2019
2792 Clouds 10 1015 76 16093 2.6 40 20:38 30.08.2019
2793 Clouds 10 1015 76 16093 2.6 40 20:19 30.08.2019
2794 Clouds 10 1015 76 16093 2.6 40 19:55 30.08.2019
2795 Clear 8 1015 87 16093 3.1 30 19:36 30.08.2019
2796 Clear 8 1015 87 16093 3.1 30 19:18 30.08.2019
2797 Clear 7 1016 93 16093 2.6 30 18:44 30.08.2019
2798 Clear 7 1016 93 16093 2.6 30 18:24 30.08.2019
2799 Clear 7 1016 93 16093 2.6 30 17:56 30.08.2019
2800 Clear 7 1016 93 16093 2.6 30 17:56 30.08.2019
2801 Clear 7 1016 87 16093 3.1 30 17:38 30.08.2019
2802 Clear 7 1016 87 16093 2.6 50 17:19 30.08.2019
2803 Clear 7 1016 87 16093 2.6 50 16:49 30.08.2019
2804 Clear 7 1016 87 16093 2.6 50 16:29 30.08.2019
2805 Clear 7 1017 87 16093 4.1 40 15:59 30.08.2019
2806 Clear 7 1017 87 16093 4.1 40 15:39 30.08.2019
2807 Clear 7 1017 93 16093 4.1 40 15:20 30.08.2019
2808 Clear 7 1017 93 16093 4.1 40 14:45 30.08.2019
2809 Clear 7 1017 93 16093 4.1 40 14:25 30.08.2019
2810 Clear 7 1018 93 16093 3.1 40 13:56 30.08.2019
2811 Clear 7 1018 93 16093 3.1 40 13:38 30.08.2019
2812 Clear 7 1018 93 16093 3.1 40 13:20 30.08.2019
2813 Clear 8 1018 93 16093 3.6 40 12:42 30.08.2019
2814 Clear 8 1018 93 16093 3.6 40 12:42 30.08.2019
2815 Clear 8 1018 93 16093 3.6 40 12:23 30.08.2019
2816 Clear 8 1018 93 16093 3.6 40 11:55 30.08.2019
2817 Clear 8 1018 93 16093 2.6 40 11:37 30.08.2019
2818 Clouds 8 1018 93 16093 2.1 40 11:18 30.08.2019
2819 Clouds 8 1018 93 16093 2.1 40 10:37 30.08.2019
2820 Clouds 10 1018 81 16093 3.1 60 10:19 30.08.2019
2821 Clouds 10 1018 81 16093 3.1 60 09:42 30.08.2019
2822 Clouds 11 1019 81 16093 2.6 80 09:20 30.08.2019
2823 Clouds 11 1019 81 16093 2.6 80 08:59 30.08.2019
2824 Clouds 11 1019 81 16093 2.6 80 08:41 30.08.2019
2825 Clouds 11 1019 81 16093 2.6 80 08:22 30.08.2019
2826 Clouds 12 1019 71 16093 3.6 100 07:45 30.08.2019
2827 Clouds 12 1019 71 16093 3.6 100 07:25 30.08.2019
2828 Clouds 12 1019 76 16093 4.6 130 06:49 30.08.2019
2829 Clouds 12 1019 76 16093 4.6 130 06:30 30.08.2019
2830 Clouds 12 1019 76 16093 4.6 130 05:59 30.08.2019
2831 Clouds 12 1019 76 16093 4.6 130 04:53 30.08.2019
2832 Clouds 11 1020 87 16093 4.6 140 03:55 30.08.2019
2833 Clouds 11 1020 87 16093 4.6 140 03:55 30.08.2019
2834 Clouds 11 1020 87 16093 4.6 140 03:33 30.08.2019
2835 Clouds 11 1020 81 16093 2.6 120 02:34 30.08.2019
2836 Clouds 12 1020 81 16093 6.2 140 01:38 30.08.2019
2837 Clouds 11 1020 87 16093 6.2 130 00:46 30.08.2019
2838 Clouds 11 1020 87 16093 6.2 130 00:18 30.08.2019
2839 Clouds 11 1020 81 16093 5.1 110 23:42 29.08.2019
2840 Clouds 11 1020 81 16093 5.1 110 23:21 29.08.2019
2841 Clouds 11 1020 81 16093 5.1 110 23:21 29.08.2019
2842 Clouds 11 1021 87 16093 4.6 90 22:45 29.08.2019
2843 Clouds 11 1021 87 16093 4.6 90 22:45 29.08.2019
2844 Clouds 11 1021 87 16093 4.6 90 22:45 29.08.2019
2845 Clouds 11 1021 87 16093 4.6 90 22:26 29.08.2019
2846 Clouds 11 1021 87 16093 4.6 90 22:26 29.08.2019
2847 Clouds 9 1021 93 16093 4.1 80 21:58 29.08.2019
2848 Clouds 9 1021 93 16093 4.1 80 21:58 29.08.2019
2849 Clouds 9 1021 93 16093 4.1 80 21:40 29.08.2019
2850 Clouds 9 1021 93 16093 4.1 80 21:21 29.08.2019
2851 Clouds 9 1021 93 16093 4.1 80 21:21 29.08.2019
2852 Clouds 9 1021 93 16093 4.1 80 20:57 29.08.2019
2853 Clouds 9 1021 93 16093 3.1 80 20:38 29.08.2019
2854 Clouds 9 1021 93 16093 3.1 80 20:18 29.08.2019
2855 Clouds 8 1021 100 16093 2.1 60 19:46 29.08.2019
2856 Clouds 8 1021 100 16093 2.1 60 19:26 29.08.2019
2857 Clouds 7 1021 100 16093 1.5 10 18:57 29.08.2019
2858 Clouds 7 1021 100 16093 1.5 10 18:38 29.08.2019
2859 Clouds 7 1021 100 16093 1.5 10 18:18 29.08.2019
2860 Clouds 7 1021 100 16093 2.1 360 17:54 29.08.2019
2861 Clouds 7 1021 100 16093 2.1 360 17:36 29.08.2019
2862 Clouds 7 1021 100 16093 2.1 360 17:18 29.08.2019
2863 Clouds 7 1021 100 16093 2.1 360 17:18 29.08.2019
2864 Clouds 7 1021 100 16093 2.1 360 17:18 29.08.2019
2865 Clouds 8 1021 100 16093 2.1 30 16:41 29.08.2019
2866 Clouds 8 1021 100 16093 2.1 30 16:41 29.08.2019
2867 Clouds 8 1021 100 16093 2.1 30 16:23 29.08.2019
2868 Clouds 8 1021 93 16093 2.1 50 15:41 29.08.2019
2869 Clouds 8 1021 93 16093 2.1 50 15:21 29.08.2019
2870 Clouds 8 1021 93 12874 1.5 20 14:58 29.08.2019
2871 Clouds 8 1021 93 12874 1.5 20 14:40 29.08.2019
2872 Clouds 8 1021 93 16093 1.5 30 14:20 29.08.2019
2873 Clouds 8 1021 93 16093 1.5 30 13:57 29.08.2019
2874 Clouds 7 1021 100 16093 1.11 98.013 13:38 29.08.2019
2875 Clouds 7 1021 100 16093 0.91 92.843 13:18 29.08.2019
2876 Clouds 7 1021 100 16093 0.91 92.843 12:56 29.08.2019
2877 Clouds 8 1021 87 16093 2.6 80 12:38 29.08.2019
2878 Clouds 8 1021 87 16093 2.6 80 12:19 29.08.2019
2879 Clouds 9 1021 87 16093 2.1 90 11:42 29.08.2019
2880 Clouds 9 1021 87 16093 2.1 90 11:21 29.08.2019
2881 Clouds 10 1021 81 16093 2.1 170 10:57 29.08.2019
2882 Clouds 10 1021 81 16093 2.1 170 10:38 29.08.2019
2883 Clouds 10 1021 81 16093 3.1 170 10:20 29.08.2019
2884 Clouds 10 1021 87 16093 2.6 180 09:41 29.08.2019
2885 Clouds 10 1021 87 16093 2.6 180 09:41 29.08.2019
2886 Clouds 10 1021 81 16093 3.1 200 09:19 29.08.2019
2887 Clouds 10 1021 81 16093 3.1 200 08:56 29.08.2019
2888 Clouds 10 1021 81 16093 3.1 200 08:31 29.08.2019
2889 Clouds 10 1021 81 16093 4.1 200 07:59 29.08.2019
2890 Clouds 10 1021 81 16093 4.1 200 07:41 29.08.2019
2891 Clouds 10 1021 81 16093 4.1 200 07:23 29.08.2019
2892 Clouds 10 1021 81 16093 3.1 200 06:40 29.08.2019
2893 Clouds 10 1021 87 16093 4.1 220 05:52 29.08.2019
2894 Clouds 10 1021 87 16093 4.1 220 05:33 29.08.2019
2895 Clouds 10 1021 87 16093 4.1 220 04:49 29.08.2019
2896 Clouds 10 1021 87 16093 4.1 220 04:28 29.08.2019
2897 Clouds 11 1021 81 16093 5.7 240 02:21 29.08.2019
2898 Clouds 11 1021 81 16093 5.7 240 01:41 29.08.2019
2899 Clouds 11 1021 81 16093 6.2 230 00:51 29.08.2019
2900 Rain 11 1021 81 16093 6.7 240 00:24 29.08.2019
2901 Rain 11 1021 81 16093 6.7 240 23:59 28.08.2019
2902 Clouds 10 1021 93 16093 7.2 220 23:40 28.08.2019
2903 Clouds 10 1021 93 16093 7.2 220 23:22 28.08.2019
2904 Rain 10 1020 93 4828 6.2 220 22:57 28.08.2019
2905 Clouds 11 1020 87 16093 7.2 220 22:38 28.08.2019
2906 Clouds 11 1020 87 16093 7.2 220 22:18 28.08.2019
2907 Clouds 11 1020 87 16093 7.2 220 21:54 28.08.2019
2908 Rain 10 1020 93 4828 7.7 240 21:36 28.08.2019
2909 Rain 10 1020 93 4828 7.7 240 21:18 28.08.2019
2910 Rain 9 1020 100 4828 5.1 240 20:40 28.08.2019
2911 Rain 9 1020 100 6437 6.2 210 20:22 28.08.2019
2912 Rain 9 1020 93 11265 8.2 230 19:44 28.08.2019
2913 Rain 9 1020 100 9656 4.1 220 19:23 28.08.2019
2914 Rain 9 1020 100 9656 4.1 220 18:59 28.08.2019
2915 Rain 9 1020 100 16093 8.7 230 18:41 28.08.2019
2916 Rain 9 1020 100 16093 8.7 230 18:21 28.08.2019
2917 Rain 9 1019 100 4828 8.7 220 17:39 28.08.2019
2918 Rain 9 1020 100 14484 8.2 220 17:20 28.08.2019
2919 Rain 9 1020 100 14484 8.2 220 16:56 28.08.2019
2920 Rain 9 1020 100 14484 8.2 220 16:56 28.08.2019
2921 Rain 9 1019 93 9656 7.7 240 16:38 28.08.2019
2922 Rain 9 1019 93 9656 7.7 240 16:38 28.08.2019
2923 Clouds 9 1019 93 16093 7.7 240 16:18 28.08.2019
2924 Rain 9 1019 100 16093 5.7 250 15:39 28.08.2019
2925 Rain 9 1020 100 11265 5.1 250 15:20 28.08.2019
2926 Rain 9 1020 100 11265 5.1 250 15:20 28.08.2019
2927 Rain 9 1020 100 11265 5.1 250 14:58 28.08.2019
2928 Rain 10 1019 93 11265 6.7 240 14:40 28.08.2019
2929 Rain 10 1019 93 11265 6.7 240 14:21 28.08.2019
2930 Clouds 10 1019 93 14484 7.2 240 13:59 28.08.2019
2931 Clouds 10 1019 93 16093 5.1 250 13:39 28.08.2019
2932 Clouds 10 1019 93 16093 5.1 250 13:20 28.08.2019
2933 Clouds 10 1019 93 16093 8.2 240 12:44 28.08.2019
2934 Clouds 10 1019 93 16093 8.2 240 12:25 28.08.2019
2935 Clouds 10 1019 93 16093 8.2 240 11:59 28.08.2019
2936 Clouds 10 1019 93 16093 7.2 240 11:40 28.08.2019
2937 Clouds 10 1019 93 16093 7.2 240 11:21 28.08.2019
2938 Clouds 9 1019 93 16093 4.1 250 10:56 28.08.2019
2939 Clouds 9 1019 93 16093 4.1 250 10:56 28.08.2019
2940 Clouds 9 1019 93 16093 4.1 250 10:56 28.08.2019
2941 Clouds 9 1019 93 16093 4.1 250 10:37 28.08.2019
2942 Clouds 9 1019 93 16093 5.7 250 10:19 28.08.2019
2943 Clouds 9 1019 93 16093 6.2 250 09:41 28.08.2019
2944 Clouds 9 1019 93 16093 6.2 250 09:21 28.08.2019
2945 Clouds 10 1019 87 16093 6.7 240 08:40 28.08.2019
2946 Clouds 10 1019 87 16093 6.7 240 08:21 28.08.2019
2947 Rain 10 1019 87 14484 7.2 240 07:59 28.08.2019
2948 Clouds 10 1019 87 16093 6.2 240 07:37 28.08.2019
2949 Clouds 10 1019 87 16093 6.2 240 07:18 28.08.2019
2950 Clouds 10 1018 81 16093 6.7 250 06:44 28.08.2019
2951 Clouds 10 1019 87 16093 7.2 250 05:52 28.08.2019
2952 Clouds 10 1018 81 16093 7.2 270 04:40 28.08.2019
2953 Clouds 11 1018 81 16093 7.7 260 01:57 28.08.2019
2954 Clouds 11 1018 81 16093 7.7 260 01:30 28.08.2019
2955 Clouds 10 1017 87 16093 7.7 250 00:43 28.08.2019
2956 Clouds 10 1017 87 16093 7.7 250 00:22 28.08.2019
2957 Clouds 10 1017 93 16093 6.7 260 23:43 27.08.2019
2958 Clouds 10 1017 93 16093 6.7 260 23:22 27.08.2019
2959 Rain 9 1017 100 9656 6.2 270 22:59 27.08.2019
2960 Rain 9 1017 100 6437 7.2 260 22:39 27.08.2019
2961 Rain 9 1017 100 6437 7.2 260 22:39 27.08.2019
2962 Rain 9 1016 100 6437 5.1 280 22:20 27.08.2019
2963 Rain 9 1016 100 6437 5.1 280 21:56 27.08.2019
2964 Rain 9 1016 100 6437 5.1 280 21:37 27.08.2019
2965 Rain 9 1016 100 9656 6.7 270 21:18 27.08.2019
2966 Rain 9 1016 100 9656 6.7 270 20:55 27.08.2019
2967 Clouds 10 1016 87 16093 6.7 270 20:37 27.08.2019
2968 Clouds 10 1016 87 16093 6.7 270 20:18 27.08.2019
2969 Clouds 9 1016 93 16093 7.2 250 19:42 27.08.2019
2970 Clouds 9 1016 93 16093 7.2 250 19:24 27.08.2019
2971 Clouds 9 1015 93 16093 5.1 260 18:55 27.08.2019
2972 Clouds 9 1015 93 16093 5.1 260 18:36 27.08.2019
2973 Clouds 9 1015 93 16093 5.1 260 18:36 27.08.2019
2974 Clouds 9 1015 93 16093 5.1 260 18:18 27.08.2019
2975 Clouds 9 1015 93 16093 6.2 260 17:43 27.08.2019
2976 Clouds 9 1015 93 16093 6.2 260 17:23 27.08.2019
2977 Clouds 9 1015 93 16093 5.7 260 16:49 27.08.2019
2978 Clouds 9 1015 93 16093 5.7 260 16:28 27.08.2019
2979 Clouds 10 1015 87 16093 6.7 260 15:59 27.08.2019
2980 Clouds 10 1015 87 16093 6.7 260 15:40 27.08.2019
2981 Clouds 10 1015 87 16093 6.7 260 15:22 27.08.2019
2982 Clouds 10 1015 87 16093 7.7 240 14:59 27.08.2019
2983 Clouds 10 1015 87 16093 7.7 240 14:41 27.08.2019
2984 Clouds 10 1015 87 16093 7.7 240 14:22 27.08.2019
2985 Clouds 10 1015 87 16093 6.2 250 13:43 27.08.2019
2986 Clouds 10 1015 87 16093 6.2 250 13:24 27.08.2019
2987 Clouds 10 1015 87 16093 6.2 250 12:55 27.08.2019
2988 Clouds 10 1015 93 16093 8.2 250 12:37 27.08.2019
2989 Clouds 10 1015 93 16093 7.7 260 12:18 27.08.2019
2990 Clouds 10 1015 93 12874 5.1 260 11:43 27.08.2019
2991 Clouds 10 1015 93 12874 5.1 260 11:25 27.08.2019
2992 Rain 10 1014 93 12874 6.2 240 10:44 27.08.2019
2993 Rain 10 1014 93 12874 6.2 240 10:21 27.08.2019
2994 Rain 10 1014 93 8047 6.7 240 09:58 27.08.2019
2995 Rain 10 1015 93 9656 7.2 230 09:39 27.08.2019
2996 Rain 10 1015 93 9656 7.2 230 09:20 27.08.2019
2997 Rain 9 1015 100 9656 7.2 230 08:55 27.08.2019
2998 Rain 9 1015 100 6437 6.2 220 08:37 27.08.2019
2999 Clouds 10 1015 93 12874 7.7 220 08:18 27.08.2019
3000 Clouds 10 1015 93 16093 6.2 230 07:40 27.08.2019
3001 Mist 10 1015 93 4828 6.7 230 07:19 27.08.2019
3002 Mist 10 1015 93 4828 6.7 230 06:54 27.08.2019
3003 Rain 10 1015 100 4828 6.7 230 06:25 27.08.2019
3004 Clouds 10 1015 93 14484 4.6 220 05:42 27.08.2019
3005 Mist 10 1015 93 4828 5.7 220 04:43 27.08.2019
3006 Mist 10 1015 93 9656 6.2 220 03:35 27.08.2019
3007 Clouds 10 1015 93 16093 5.7 220 02:23 27.08.2019
3008 Clouds 10 1015 93 16093 5.7 210 01:40 27.08.2019
3009 Mist 10 1015 93 4828 6.2 220 01:21 27.08.2019
3010 Clouds 9 1015 100 14484 4.1 210 00:41 27.08.2019
3011 Clouds 9 1015 100 14484 4.1 210 00:22 27.08.2019
3012 Mist 9 1015 100 8047 4.1 210 23:38 26.08.2019
3013 Clouds 9 1015 93 14484 5.08 230.965 23:19 26.08.2019
3014 Clouds 9 1015 93 14484 5.08 230.965 22:39 26.08.2019
3015 Clouds 9 1015 93 14484 5.08 230.965 22:19 26.08.2019
3016 Clouds 9 1015 93 16093 3.6 220 21:58 26.08.2019
3017 Clouds 9 1015 93 16093 3.6 220 21:38 26.08.2019
3018 Clouds 9 1015 93 16093 3.6 220 21:19 26.08.2019
3019 Clouds 9 1015 100 16093 5.1 210 20:56 26.08.2019
3020 Clouds 9 1015 100 16093 5.1 210 20:37 26.08.2019
3021 Clouds 9 1015 100 16093 5.1 210 20:37 26.08.2019
3022 Clouds 9 1015 100 16093 5.1 210 20:37 26.08.2019
3023 Clouds 9 1015 100 16093 5.1 210 20:18 26.08.2019
3024 Clouds 9 1015 100 16093 4.1 200 19:42 26.08.2019
3025 Clouds 9 1015 100 16093 3.1 200 19:19 26.08.2019
3026 Clouds 9 1015 100 16093 4.1 210 18:58 26.08.2019
3027 Clouds 9 1015 100 16093 4.1 210 18:38 26.08.2019
3028 Clouds 9 1015 100 16093 4.1 210 18:19 26.08.2019
3029 Clouds 9 1015 100 11265 3.6 200 17:44 26.08.2019
3030 Clouds 9 1015 100 11265 3.6 200 17:20 26.08.2019
3031 Clouds 9 1015 100 16093 4.1 200 16:57 26.08.2019
3032 Clouds 9 1015 100 16093 4.1 200 16:39 26.08.2019
3033 Clouds 9 1015 100 16093 4.1 200 16:19 26.08.2019
3034 -273 0 0 0 0 0 15:55 26.08.2019
3035 Clouds 9 1015 100 16093 2.6 180 15:55 26.08.2019
3036 Clouds 9 1015 100 16093 2.6 180 15:37 26.08.2019
3037 Clouds 9 1015 100 16093 2.6 180 15:18 26.08.2019
3038 Clouds 9 1015 93 16093 3.6 190 14:43 26.08.2019
3039 Clouds 9 1015 93 16093 3.6 190 14:23 26.08.2019
3040 Clouds 9 1015 93 16093 2.1 190 13:56 26.08.2019
3041 Clouds 9 1015 93 16093 2.1 190 13:37 26.08.2019
3042 Clouds 9 1015 93 16093 2.1 190 13:18 26.08.2019
3043 Clouds 9 1015 93 16093 3.1 200 12:43 26.08.2019
3044 Clouds 9 1015 93 16093 3.1 200 12:22 26.08.2019
3045 Clouds 9 1015 93 16093 3.1 180 11:44 26.08.2019
3046 Clouds 9 1015 93 16093 3.1 180 11:26 26.08.2019
3047 Clouds 10 1015 87 16093 3.6 210 10:59 26.08.2019
3048 Clouds 10 1015 87 16093 3.6 210 10:41 26.08.2019
3049 Clouds 10 1015 87 16093 3.6 210 10:19 26.08.2019
3050 Clouds 10 1015 87 16093 3.6 210 10:19 26.08.2019
3051 Clouds 10 1014 87 16093 4.1 220 09:47 26.08.2019
3052 Clouds 10 1014 87 16093 4.1 220 09:26 26.08.2019
3053 Clouds 11 1014 81 16093 4.1 230 08:59 26.08.2019
3054 Clouds 11 1014 81 16093 4.1 230 08:41 26.08.2019
3055 Clouds 11 1014 81 16093 4.1 230 08:22 26.08.2019
3056 Clouds 11 1014 81 16093 5.1 240 07:46 26.08.2019
3057 Clouds 11 1014 81 16093 5.1 240 07:25 26.08.2019
3058 Clouds 11 1014 81 16093 5.1 240 06:59 26.08.2019
3059 Clouds 11 1014 81 16093 5.1 240 06:39 26.08.2019
3060 Clouds 11 1014 81 16093 5.1 240 06:20 26.08.2019
3061 Clouds 11 1014 81 16093 6.2 240 05:48 26.08.2019
3062 Clouds 11 1014 81 16093 5.7 250 04:24 26.08.2019
3063 Clouds 11 1014 81 16093 5.1 250 02:48 26.08.2019
3064 Clouds 11 1013 81 16093 5.1 230 01:25 26.08.2019
3065 Clouds 11 1013 81 16093 4.6 240 00:46 26.08.2019
3066 Clouds 11 1013 81 16093 4.6 240 00:27 26.08.2019
3067 Clouds 9 1013 93 16093 4.1 200 23:55 25.08.2019
3068 Clouds 9 1013 93 16093 4.1 200 23:36 25.08.2019
3069 Clouds 9 1013 93 16093 4.1 200 23:18 25.08.2019
3070 Clouds 9 1013 87 16093 2.41 233.506 22:54 25.08.2019
3071 Clouds 9 1013 87 16093 2.41 233.506 22:36 25.08.2019
3072 Clouds 9 1013 87 16093 2.41 233.506 22:18 25.08.2019
3073 Clouds 7 1013 100 16093 2.81 240.644 21:41 25.08.2019
3074 Clouds 7 1013 100 16093 2.12 259.347 21:19 25.08.2019
3075 Clouds 6 1012 100 16093 1.5 330 20:59 25.08.2019
3076 Clouds 6 1012 100 16093 1.5 330 20:39 25.08.2019
3077 Clouds 6 1012 100 16093 1.5 330 20:19 25.08.2019
3078 Mist 5 1012 100 4828 2.12 259.347 19:55 25.08.2019
3079 Mist 5 1012 100 4828 2.12 259.347 19:36 25.08.2019
3080 Mist 5 1012 100 4828 2.12 259.347 19:18 25.08.2019
3081 Clouds 4 1012 100 16093 3.1 340 18:55 25.08.2019
3082 Clouds 4 1012 100 16093 3.1 340 18:55 25.08.2019
3083 Clouds 4 1012 100 16093 3.1 340 18:37 25.08.2019
3084 Clouds 4 1011 100 16093 3.6 360 18:18 25.08.2019
3085 Clouds 4 1011 100 16093 3.6 360 17:40 25.08.2019
3086 Clouds 4 1011 100 16093 3.6 360 17:21 25.08.2019
3087 Clouds 6 1011 100 16093 2.6 340 16:43 25.08.2019
3088 Clouds 6 1011 100 16093 2.6 340 16:23 25.08.2019
3089 Clouds 6 1011 100 16093 3.1 330 15:58 25.08.2019
3090 Clouds 6 1011 100 16093 3.1 330 15:39 25.08.2019
3091 Clouds 6 1011 100 16093 3.1 330 15:21 25.08.2019
3092 Clouds 7 1011 93 16093 2.1 340 14:41 25.08.2019
3093 Clouds 7 1011 93 16093 2.1 340 14:23 25.08.2019
3094 Clouds 6 1011 100 16093 2.1 310 13:46 25.08.2019
3095 Clouds 6 1011 100 16093 2.1 310 13:22 25.08.2019
3096 Clouds 5 1011 100 16093 1.5 310 12:57 25.08.2019
3097 Clouds 5 1011 100 16093 1.5 310 12:39 25.08.2019
3098 Clouds 5 1011 100 16093 1.5 310 12:20 25.08.2019
3099 Clear 6 1011 100 16093 3.1 290 11:57 25.08.2019
3100 Clear 6 1011 100 16093 3.1 290 11:37 25.08.2019
3101 Clear 6 1011 100 16093 3.1 290 11:18 25.08.2019
3102 Clear 7 1011 100 16093 3.1 290 10:55 25.08.2019
3103 Clear 7 1011 100 16093 3.1 290 10:36 25.08.2019
3104 Clear 7 1011 100 16093 3.1 290 10:18 25.08.2019
3105 Clear 8 1011 93 16093 3.6 280 09:42 25.08.2019
3106 Clear 8 1011 93 16093 3.6 280 09:23 25.08.2019
3107 Clear 9 1011 93 16093 5.7 280 08:44 25.08.2019
3108 Clear 9 1011 93 16093 5.7 280 08:23 25.08.2019
3109 Clear 9 1011 93 16093 6.7 270 07:46 25.08.2019
3110 Clear 9 1011 93 16093 6.7 270 07:23 25.08.2019
3111 Clear 10 1011 87 16093 6.7 260 06:31 25.08.2019
3112 Clear 11 1011 81 16093 9.8 260 04:58 25.08.2019
3113 Clear 11 1011 76 16093 7.7 250 03:43 25.08.2019
3114 Clouds 11 1011 71 16093 5.1 250 02:41 25.08.2019
3115 Clouds 11 1012 71 16093 4.6 240 01:42 25.08.2019
3116 Clouds 10 1012 76 16093 3.6 230 00:41 25.08.2019
3117 Clouds 10 1012 76 16093 3.6 230 00:21 25.08.2019
3118 Clouds 10 1012 71 16093 2.6 220 23:53 24.08.2019
3119 Clouds 10 1012 71 16093 2.6 220 23:24 24.08.2019
3120 Clouds 10 1011 71 16093 2.1 0 22:57 24.08.2019
3121 Clouds 10 1011 71 16093 2.1 0 22:39 24.08.2019
3122 Clouds 10 1011 71 16093 2.1 0 22:19 24.08.2019
3123 Clouds 9 1011 70 16093 1.5 261.32 21:56 24.08.2019
3124 Clouds 9 1011 70 16093 1.5 261.32 21:38 24.08.2019
3125 Clouds 9 1011 70 16093 1.12 7.913 21:20 24.08.2019
3126 Clouds 8 1011 81 16093 1.12 7.913 20:56 24.08.2019
3127 Clouds 8 1011 81 16093 1.12 7.913 20:56 24.08.2019
3128 Clear 7 1011 75 16093 1.12 7.913 20:37 24.08.2019
3129 Clear 7 1011 75 16093 1.12 7.913 20:37 24.08.2019
3130 Clear 7 1011 75 16093 1.12 7.913 20:18 24.08.2019
3131 Clear 4 1011 86 16093 1.12 7.913 19:57 24.08.2019
3132 Clear 4 1011 86 16093 1.12 7.913 19:57 24.08.2019
3133 Clear 4 1011 86 16093 1.12 7.913 19:38 24.08.2019
3134 Clear 4 1011 86 16093 1.12 7.913 19:18 24.08.2019
3135 Clear 4 1011 86 16093 1.12 7.913 19:18 24.08.2019
3136 Clear 2 1011 93 16093 1.12 7.913 18:42 24.08.2019
3137 Clear 2 1011 93 16093 2.26 2.186 18:23 24.08.2019
3138 Clear 2 1011 85 16093 2.1 360 17:45 24.08.2019
3139 Clear 2 1011 85 16093 2.1 360 17:25 24.08.2019
3140 Clear 3 1011 86 16093 1.5 10 16:55 24.08.2019
3141 Clear 3 1011 86 16093 1.5 10 16:36 24.08.2019
3142 Clear 3 1011 86 16093 1.5 10 16:18 24.08.2019
3143 Clear 3 1011 86 16093 2.1 360 15:41 24.08.2019
3144 Clear 3 1011 86 16093 2.1 360 15:23 24.08.2019
3145 Clear 3 1011 86 16093 2.96 10.36 14:45 24.08.2019
3146 Clear 3 1011 86 16093 2.96 10.36 14:23 24.08.2019
3147 Clear 4 1011 86 16093 2.1 330 13:59 24.08.2019
3148 Clear 4 1011 86 16093 2.1 330 13:59 24.08.2019
3149 Clear 4 1011 86 16093 2.1 330 13:41 24.08.2019
3150 Clear 4 1011 86 16093 2.1 330 13:22 24.08.2019
3151 Clear 4 1011 80 16093 2.86 6.416 12:58 24.08.2019
3152 Clear 4 1011 80 16093 2.86 6.416 12:39 24.08.2019
3153 Clear 4 1011 80 16093 3.09 351.736 12:20 24.08.2019
3154 Clear 7 1011 75 16093 3.09 351.736 11:45 24.08.2019
3155 Clear 7 1011 75 16093 3.09 351.736 11:24 24.08.2019
3156 Clear 6 1010 75 16093 4.6 360 10:53 24.08.2019
3157 Clear 6 1010 75 16093 4.6 360 10:24 24.08.2019
3158 Clear 9 1009 66 16093 3.1 10 09:58 24.08.2019
3159 Clear 9 1009 66 16093 3.1 10 09:38 24.08.2019
3160 Clear 9 1009 66 16093 3.1 10 09:18 24.08.2019
3161 Clear 10 1009 66 16093 3.1 360 08:41 24.08.2019
3162 Clear 10 1009 66 16093 3.1 360 08:23 24.08.2019
3163 Clear 12 1009 58 16093 5.7 350 07:50 24.08.2019
3164 Clear 12 1009 58 16093 5.7 350 07:28 24.08.2019
3165 Clouds 13 1009 58 16093 6.7 360 06:31 24.08.2019
3166 Clouds 14 1009 50 16093 6.2 350 05:47 24.08.2019
3167 Clouds 14 1009 50 16093 6.2 350 05:29 24.08.2019
3168 Clouds 14 1009 62 16093 4.6 340 03:39 24.08.2019
3169 Clouds 14 1009 58 16093 6.7 340 02:39 24.08.2019
3170 Clouds 13 1009 62 16093 7.2 350 01:52 24.08.2019
3171 Clouds 13 1009 62 16093 7.2 350 01:22 24.08.2019
3172 Clouds 13 1009 66 16093 3.1 320 00:44 24.08.2019
3173 Clouds 13 1009 66 16093 3.1 320 00:21 24.08.2019
3174 Clouds 12 1009 76 16093 3.1 290 23:43 23.08.2019
3175 Clouds 12 1009 71 16093 4.6 330 23:19 23.08.2019
3176 Clouds 11 1009 76 16093 3.1 310 22:44 23.08.2019
3177 Clouds 11 1009 76 16093 3.1 310 22:24 23.08.2019
3178 Clouds 9 1009 87 16093 4.1 310 21:54 23.08.2019
3179 Clouds 9 1009 87 16093 4.1 310 21:36 23.08.2019
3180 Clouds 9 1009 87 16093 4.1 310 21:36 23.08.2019
3181 Clouds 9 1009 87 16093 4.1 310 21:36 23.08.2019
3182 Clouds 9 1009 87 16093 4.1 310 21:18 23.08.2019
3183 Clouds 8 1009 81 16093 1.85 326.447 20:45 23.08.2019
3184 Clouds 8 1009 81 16093 1.85 326.447 20:27 23.08.2019
3185 Clouds 8 1009 75 16093 1.85 326.447 19:46 23.08.2019
3186 Clouds 8 1009 75 16093 1.85 326.447 19:46 23.08.2019
3187 Clouds 8 1009 75 16093 1.85 326.447 19:19 23.08.2019
3188 Clouds 6 1009 87 16093 1.85 326.447 18:55 23.08.2019
3189 Clouds 6 1009 87 16093 1.85 326.447 18:36 23.08.2019
3190 Clouds 6 1009 87 16093 2.19 326.535 18:18 23.08.2019
3191 Clouds 4 1009 93 16093 2.6 320 17:41 23.08.2019
3192 Clouds 4 1009 93 16093 2.6 320 17:23 23.08.2019
3193 Clear 5 1009 86 16093 2.19 326.535 16:49 23.08.2019
3194 Clear 5 1009 86 16093 2.19 326.535 16:30 23.08.2019
3195 Clear 5 1009 86 16093 3.6 330 15:59 23.08.2019
3196 Clear 5 1009 86 16093 3.6 330 15:39 23.08.2019
3197 Clear 5 1009 86 16093 3.6 330 15:21 23.08.2019
3198 Clear 6 1009 81 16093 3.1 340 14:44 23.08.2019
3199 Clear 6 1009 81 16093 3.1 340 14:21 23.08.2019
3200 Clear 6 1009 81 16093 2.63 328.445 13:59 23.08.2019
3201 Clear 6 1009 81 16093 2.63 328.445 13:41 23.08.2019
3202 Clear 6 1009 81 16093 2.68 330.008 13:23 23.08.2019
3203 Clear 6 1009 87 16093 2.1 350 12:58 23.08.2019
3204 Clear 6 1009 87 16093 2.1 350 12:40 23.08.2019
3205 Clear 6 1009 87 16093 2.1 350 12:21 23.08.2019
3206 Clear 7 1009 81 16093 4.6 360 11:57 23.08.2019
3207 Clear 7 1009 81 16093 4.6 360 11:39 23.08.2019
3208 Clear 7 1009 81 16093 4.6 360 11:19 23.08.2019
3209 Clear 8 1008 81 16093 6.2 350 10:54 23.08.2019
3210 Clear 8 1008 81 16093 6.2 350 10:36 23.08.2019
3211 Clear 8 1008 81 16093 6.2 350 10:18 23.08.2019
3212 Clear 9 1008 76 16093 5.1 20 09:43 23.08.2019
3213 Clear 9 1008 76 16093 5.1 20 09:43 23.08.2019
3214 Clear 9 1008 76 16093 5.1 20 09:20 23.08.2019
3215 Clear 10 1008 76 16093 6.7 360 08:45 23.08.2019
3216 Clear 10 1008 76 16093 6.7 360 08:20 23.08.2019
3217 Clear 12 1007 62 16093 8.7 350 07:56 23.08.2019
3218 Clear 12 1007 62 16093 8.7 350 07:38 23.08.2019
3219 Clear 12 1007 62 16093 8.7 350 07:20 23.08.2019
3220 Clear 13 1007 54 16093 9.3 350 06:41 23.08.2019
3221 Clear 13 1007 54 16093 9.3 350 06:21 23.08.2019
3222 Clear 14 1007 50 16093 8.7 350 05:44 23.08.2019
3223 Clear 14 1007 50 16093 8.7 350 05:23 23.08.2019
3224 Clear 15 1007 47 16093 6.7 340 03:38 23.08.2019
3225 Clouds 14 1007 54 16093 2.1 0 02:37 23.08.2019
3226 Clouds 14 1007 54 16093 2.1 0 02:19 23.08.2019
3227 Clouds 13 1007 54 16093 2.6 350 00:46 23.08.2019
3228 Clouds 13 1007 54 16093 2.6 350 00:23 23.08.2019
3229 Clear 12 1008 58 16093 2.6 40 23:59 22.08.2019
3230 Clear 12 1008 58 16093 2.6 40 23:40 22.08.2019
3231 Clear 12 1008 58 16093 2.6 40 23:20 22.08.2019
3232 Clear 11 1008 62 16093 2.1 30 22:42 22.08.2019
3233 Clear 11 1008 62 16093 2.1 30 22:23 22.08.2019
3234 Clouds 10 1008 76 16093 2.1 330 21:58 22.08.2019
3235 Clouds 10 1008 76 16093 2.1 330 21:40 22.08.2019
3236 Clouds 10 1008 76 16093 2.1 330 21:21 22.08.2019
3237 Clear 8 1008 81 16093 1.5 10 20:57 22.08.2019
3238 Clear 8 1008 81 16093 1.5 10 20:39 22.08.2019
3239 Clear 8 1008 81 16093 1.5 10 20:19 22.08.2019
3240 Clouds 5 1007 86 16093 2.6 310 19:56 22.08.2019
3241 Clouds 5 1007 86 16093 2.6 310 19:37 22.08.2019
3242 Clouds 5 1007 86 16093 2.6 310 19:19 22.08.2019
3243 Clouds 4 1007 86 16093 2.6 360 18:56 22.08.2019
3244 Clouds 4 1007 86 16093 2.6 360 18:38 22.08.2019
3245 Clouds 4 1007 86 16093 2.6 360 18:18 22.08.2019
3246 Clear 4 1007 86 16093 4.1 340 17:42 22.08.2019
3247 Clear 5 1007 80 16093 4.6 350 17:23 22.08.2019
3248 Clear 5 1007 80 16093 4.6 350 16:58 22.08.2019
3249 Clear 5 1007 80 16093 4.6 350 16:40 22.08.2019
3250 Clear 5 1007 80 16093 4.6 350 16:21 22.08.2019
3251 Clear 5 1007 80 16093 4.6 350 16:21 22.08.2019
3252 Clear 5 1007 86 16093 5.1 350 15:59 22.08.2019
3253 Clear 5 1007 86 16093 5.1 350 15:39 22.08.2019
3254 Clear 5 1007 86 16093 5.1 350 15:39 22.08.2019
3255 Clear 5 1007 86 16093 5.1 350 15:21 22.08.2019
3256 Clear 5 1007 86 16093 5.1 350 15:20 22.08.2019
3257 Clear 5 1006 86 16093 2.1 350 14:56 22.08.2019
3258 Clear 5 1006 86 16093 2.1 350 14:38 22.08.2019
3259 Clear 5 1006 86 16093 2.1 350 14:18 22.08.2019
3260 Clear 6 1006 87 16093 1.5 260 13:55 22.08.2019
3261 Clear 6 1006 87 16093 1.5 260 13:36 22.08.2019
3262 Clear 6 1006 87 16093 1.5 260 13:18 22.08.2019
3263 Clear 7 1006 81 16093 1.5 80 12:40 22.08.2019
3264 Clear 7 1006 81 16093 1.5 80 12:21 22.08.2019
3265 Clouds 8 1006 81 16093 2.1 10 11:55 22.08.2019
3266 Clouds 8 1006 81 16093 2.1 10 11:55 22.08.2019
3267 Clouds 8 1006 81 16093 2.1 10 11:36 22.08.2019
3268 Clouds 8 1006 81 16093 2.1 10 11:18 22.08.2019
3269 Clouds 9 1006 81 16093 2.1 10 10:56 22.08.2019
3270 Clouds 9 1006 81 16093 2.1 10 10:36 22.08.2019
3271 Clouds 9 1006 81 16093 2.1 10 10:18 22.08.2019
3272 Clouds 12 1005 76 16093 2.6 60 09:40 22.08.2019
3273 Clouds 12 1005 76 16093 2.6 60 09:21 22.08.2019
3274 Clouds 13 1005 71 16093 4.07 17.722 08:58 22.08.2019
3275 Clouds 13 1005 71 16093 4.07 17.722 08:39 22.08.2019
3276 Clouds 13 1005 71 16093 4.07 17.722 08:20 22.08.2019
3277 Clouds 13 1005 71 16093 4.07 17.722 07:42 22.08.2019
3278 Clouds 13 1005 71 16093 4.07 17.722 07:23 22.08.2019
3279 Clouds 12 1005 81 16093 2.1 240 06:55 22.08.2019
3280 Clouds 12 1005 81 16093 2.1 240 06:37 22.08.2019
3281 Clouds 12 1005 81 16093 2.1 240 06:18 22.08.2019
3282 Clear 13 1006 71 16093 2.6 210 04:42 22.08.2019
3283 Clouds 13 1006 71 16093 3.6 150 02:52 22.08.2019
3284 Clouds 13 1006 71 16093 3.6 150 02:34 22.08.2019
3285 Clouds 13 1006 71 16093 3.6 170 01:26 22.08.2019
3286 Clear 13 1006 66 16093 3.6 170 00:47 22.08.2019
3287 Clear 13 1006 66 16093 3.6 170 00:28 22.08.2019
3288 Clouds 12 1007 76 16093 3.1 170 23:58 21.08.2019
3289 Clouds 12 1007 76 16093 3.1 170 23:37 21.08.2019
3290 Clouds 12 1007 76 16093 3.1 170 23:19 21.08.2019
3291 Clouds 12 1007 81 16093 1.9 24.771 22:55 21.08.2019
3292 Clouds 12 1007 81 16093 1.9 24.771 22:37 21.08.2019
3293 Clouds 12 1007 81 16093 1.9 24.771 22:19 21.08.2019
3294 Clouds 10 1007 87 16093 1.9 24.771 21:55 21.08.2019
3295 Clouds 10 1007 87 16093 1.68 39.181 21:36 21.08.2019
3296 Clouds 10 1007 87 16093 2.87 28.431 21:18 21.08.2019
3297 Clouds 9 1007 93 16093 2.87 28.431 20:43 21.08.2019
3298 Clouds 9 1007 93 16093 2.87 28.431 20:24 21.08.2019
3299 Clouds 6 1007 100 16093 2.87 28.431 19:58 21.08.2019
3300 Clouds 6 1007 100 16093 2.87 28.431 19:39 21.08.2019
3301 Clouds 6 1007 100 16093 2.87 28.431 19:20 21.08.2019
3302 Clouds 4 1008 100 16093 2.87 28.431 18:56 21.08.2019
3303 Clouds 4 1008 100 16093 2.87 28.431 18:37 21.08.2019
3304 Clouds 4 1008 100 16093 2.87 28.431 18:37 21.08.2019
3305 Clouds 4 1008 100 16093 2.44 29.503 18:19 21.08.2019
3306 Clear 5 1008 100 16093 2.44 29.503 17:42 21.08.2019
3307 Clear 5 1008 100 16093 2.44 29.503 17:42 21.08.2019
3308 Clear 5 1008 100 16093 2.44 29.503 17:21 21.08.2019
3309 Clear 6 1008 100 16093 2.44 29.503 16:56 21.08.2019
3310 Clear 6 1008 100 16093 2.44 29.503 16:37 21.08.2019
3311 Clear 6 1008 100 16093 2.44 29.503 16:18 21.08.2019
3312 Clear 7 1009 93 16093 2.44 29.503 15:56 21.08.2019
3313 Clear 7 1009 93 16093 2.44 29.503 15:37 21.08.2019
3314 Clear 7 1009 93 16093 2.77 31.937 15:18 21.08.2019
3315 Clear 7 1009 93 16093 1.5 340 14:39 21.08.2019
3316 Clear 7 1009 93 16093 1.5 340 14:21 21.08.2019
3317 Clear 7 1009 87 16093 2.1 10 13:58 21.08.2019
3318 Clear 7 1009 87 16093 2.1 10 13:40 21.08.2019
3319 Clear 7 1009 87 16093 2.1 10 13:19 21.08.2019
3320 Clear 8 1010 87 16093 2.89 23.443 12:57 21.08.2019
3321 Clear 8 1010 87 16093 2.89 23.443 12:38 21.08.2019
3322 Clear 8 1010 87 16093 3.38 24.646 12:19 21.08.2019
3323 Clear 9 1010 81 16093 3.38 24.646 11:43 21.08.2019
3324 Clear 9 1010 81 16093 3.38 24.646 11:23 21.08.2019
3325 Clear 9 1010 81 16093 2.6 20 10:58 21.08.2019
3326 Clear 9 1010 81 16093 2.6 20 10:38 21.08.2019
3327 Clear 9 1010 81 16093 2.6 20 10:20 21.08.2019
3328 Clear 12 1010 76 16093 2.1 20 09:58 21.08.2019
3329 Clear 12 1010 76 16093 2.1 20 09:40 21.08.2019
3330 Clear 12 1010 76 16093 2.1 20 09:21 21.08.2019
3331 Clear 14 1010 71 16093 1.5 220 08:49 21.08.2019
3332 -273 0 0 0 0 0 08:25 21.08.2019
3333 Clear 15 1011 62 16093 2.1 200 07:45 21.08.2019
3334 Clear 15 1011 62 16093 2.1 200 07:26 21.08.2019
3335 Clear 14 1011 82 16093 2.6 210 06:51 21.08.2019
3336 Clear 14 1011 82 16093 2.6 210 06:33 21.08.2019
3337 Clear 16 1011 59 16093 2.1 200 05:57 21.08.2019
3338 Clear 16 1011 59 16093 2.1 200 05:28 21.08.2019
3339 Clear 16 1011 63 16093 3.1 200 04:42 21.08.2019
3340 Clear 16 1012 51 16093 4.6 230 02:40 21.08.2019
3341 Clear 16 1013 55 16093 5.7 250 01:30 21.08.2019
3342 Clear 16 1013 44 16093 4.1 260 00:41 21.08.2019
3343 Clear 16 1013 44 16093 4.1 260 00:20 21.08.2019
3344 Clear 16 1013 41 16093 2.6 10 23:45 20.08.2019
3345 Clear 16 1013 41 16093 2.6 10 23:20 20.08.2019
3346 Clear 14 1014 50 16093 3.6 340 22:59 20.08.2019
3347 Clear 14 1014 50 16093 3.6 340 22:59 20.08.2019
3348 Clear 14 1014 50 16093 3.6 340 22:40 20.08.2019
3349 Clear 14 1014 50 16093 3.6 340 22:40 20.08.2019
3350 Clear 14 1014 50 16093 3.6 340 22:21 20.08.2019
3351 Clear 14 1014 54 16093 3.6 360 21:58 20.08.2019
3352 Clear 14 1014 54 16093 3.6 360 21:39 20.08.2019
3353 Clear 14 1014 54 16093 3.6 360 21:19 20.08.2019
3354 Clear 12 1014 66 16093 4.1 350 20:58 20.08.2019
3355 Clear 12 1014 66 16093 4.1 350 20:58 20.08.2019
3356 Clear 12 1014 66 16093 4.1 350 20:40 20.08.2019
3357 Clear 12 1014 66 16093 4.1 350 20:21 20.08.2019
3358 Clear 10 1014 66 16093 5.1 350 19:39 20.08.2019
3359 Clear 10 1014 66 16093 5.1 350 19:21 20.08.2019
3360 Clear 8 1014 75 16093 4.1 350 18:56 20.08.2019
3361 Clear 8 1014 75 16093 4.1 350 18:38 20.08.2019
3362 Clear 8 1014 75 16093 4.1 350 18:19 20.08.2019
3363 Clear 8 1014 75 16093 4.1 350 18:19 20.08.2019
3364 Clear 8 1014 75 16093 4.1 350 17:56 20.08.2019
3365 Clear 8 1014 70 16093 5.1 350 17:38 20.08.2019
3366 Clear 8 1014 75 16093 4.6 360 17:19 20.08.2019
3367 Clear 8 1014 75 16093 4.6 360 16:44 20.08.2019
3368 Clear 8 1014 75 16093 4.6 360 16:25 20.08.2019
3369 Clear 8 1015 81 16093 5.7 350 15:43 20.08.2019
3370 Clear 9 1015 76 16093 4.1 30 15:19 20.08.2019
3371 Clear 9 1015 76 16093 4.1 30 14:59 20.08.2019
3372 Clear 9 1015 76 16093 4.1 30 14:41 20.08.2019
3373 Clear 9 1015 76 16093 4.1 30 14:21 20.08.2019
3374 Clear 10 1015 71 16093 4.6 350 13:57 20.08.2019
3375 Clear 10 1015 71 16093 4.6 350 13:38 20.08.2019
3376 Clear 10 1015 71 16093 4.6 350 13:20 20.08.2019
3377 Clear 8 1015 87 16093 2.6 360 12:51 20.08.2019
3378 Clear 8 1015 87 16093 2.6 360 12:29 20.08.2019
3379 Clear 8 1015 87 16093 2.6 360 11:58 20.08.2019
3380 Clouds 10 1015 81 16093 4.6 20 11:38 20.08.2019
3381 Clear 9 1015 81 16093 2.6 360 11:19 20.08.2019
3382 Clear 9 1015 81 16093 2.6 360 11:19 20.08.2019
3383 Clear 9 1015 81 16093 2.6 360 11:19 20.08.2019
3384 Clear 9 1015 81 16093 2.6 360 10:57 20.08.2019
3385 Clear 9 1015 81 16093 2.6 360 10:57 20.08.2019
3386 Clear 9 1015 81 16093 2.6 360 10:57 20.08.2019
3387 Clear 9 1015 81 16093 2.6 360 10:38 20.08.2019
3388 Clear 10 1015 81 16093 2.6 340 10:19 20.08.2019
3389 Clear 10 1015 81 16093 2.6 340 09:43 20.08.2019
3390 Clear 10 1015 81 16093 2.6 340 09:25 20.08.2019
3391 Clear 12 1014 87 16093 2.6 310 08:57 20.08.2019
3392 Clear 12 1014 87 16093 2.6 310 08:39 20.08.2019
3393 Clear 14 1014 71 16093 4.1 280 08:20 20.08.2019
3394 Clear 14 1014 71 16093 4.1 280 07:56 20.08.2019
3395 Clear 14 1014 71 16093 4.1 280 07:37 20.08.2019
3396 Clear 14 1014 71 16093 4.1 280 07:18 20.08.2019
3397 Clear 13 1015 76 16093 3.1 260 06:28 20.08.2019
3398 Clear 13 1015 82 16093 2.6 240 05:51 20.08.2019
3399 -273 0 0 0 0 0 05:30 20.08.2019
3400 Clouds 12 1016 87 16093 2.1 200 04:18 20.08.2019
3401 Clouds 12 1016 87 16093 2.6 190 02:44 20.08.2019
3402 Clouds 12 1016 87 16093 1.5 0 01:39 20.08.2019
3403 Clouds 12 1016 87 16093 3.14 81.384 00:57 20.08.2019
3404 Clouds 11 1017 87 16093 3.14 81.384 00:39 20.08.2019
3405 Clouds 11 1017 87 16093 3.21 51.879 00:19 20.08.2019
3406 Clouds 11 1017 87 16093 2.1 150 23:40 19.08.2019
3407 Rain 11 1017 87 16093 2.1 140 23:18 19.08.2019
3408 Rain 11 1017 87 16093 2.1 140 22:56 19.08.2019
3409 Clouds 11 1017 87 16093 2.1 120 22:38 19.08.2019
3410 Rain 10 1017 93 16093 3.1 90 22:18 19.08.2019
3411 Rain 10 1017 93 16093 3.1 90 21:56 19.08.2019
3412 Rain 10 1018 93 16093 2.6 70 21:37 19.08.2019
3413 Rain 10 1018 93 16093 2.6 70 21:37 19.08.2019
3414 Rain 9 1018 93 14484 3.1 70 21:18 19.08.2019
3415 Rain 9 1018 93 14484 3.1 70 20:40 19.08.2019
3416 Rain 9 1018 93 14484 3.1 70 20:40 19.08.2019
3417 Rain 9 1018 93 14484 3.1 70 20:40 19.08.2019
3418 Rain 9 1018 93 14484 3.1 70 20:20 19.08.2019
3419 Rain 8 1018 100 16093 3.1 70 19:59 19.08.2019
3420 Rain 8 1018 100 9656 2.49 59.166 19:40 19.08.2019
3421 Rain 8 1018 100 11265 2.1 220 19:19 19.08.2019
3422 Rain 8 1018 100 11265 1.5 50 18:57 19.08.2019
3423 Rain 8 1018 100 11265 1.5 50 18:39 19.08.2019
3424 Rain 8 1018 100 11265 1.5 50 18:20 19.08.2019
3425 Rain 8 1018 100 11265 1.5 50 17:54 19.08.2019
3426 Rain 8 1019 100 14484 2.1 360 17:36 19.08.2019
3427 Rain 8 1020 100 12874 1.5 20 17:18 19.08.2019
3428 Rain 8 1020 100 12874 1.5 20 16:38 19.08.2019
3429 Rain 8 1020 100 12874 1.5 20 16:20 19.08.2019
3430 Rain 8 1020 100 12874 1.5 20 16:20 19.08.2019
3431 Rain 8 1021 100 12874 2.1 350 15:56 19.08.2019
3432 Rain 8 1021 100 12874 2.1 350 15:37 19.08.2019
3433 Rain 8 1021 100 12874 2.1 350 15:19 19.08.2019
3434 Rain 8 1021 100 12874 2.1 10 14:43 19.08.2019
3435 Rain 8 1021 100 12874 2.1 10 14:23 19.08.2019
3436 Rain 9 1022 93 14484 2.1 10 13:58 19.08.2019
3437 Rain 9 1022 93 14484 2.1 10 13:38 19.08.2019
3438 Rain 9 1022 93 14484 2.1 10 13:19 19.08.2019
3439 Rain 9 1023 100 16093 2.6 50 12:57 19.08.2019
3440 Rain 9 1023 100 16093 2.6 50 12:39 19.08.2019
3441 Rain 9 1023 100 16093 2.6 50 12:19 19.08.2019
3442 Rain 9 1023 100 16093 2.6 20 11:39 19.08.2019
3443 Rain 9 1023 100 16093 2.6 20 11:21 19.08.2019
3444 Rain 10 1024 100 16093 4.34 40.024 10:58 19.08.2019
3445 Rain 10 1024 100 16093 4.34 40.024 10:37 19.08.2019
3446 Rain 10 1024 100 16093 4.34 40.024 10:18 19.08.2019
3447 Rain 11 1024 100 16093 1.5 360 09:45 19.08.2019
3448 Rain 11 1024 100 16093 1.5 360 09:24 19.08.2019
3449 Rain 11 1024 100 16093 1.5 360 09:24 19.08.2019
3450 Rain 11 1025 100 14484 1.5 290 08:57 19.08.2019
3451 Rain 11 1025 100 14484 1.5 290 08:39 19.08.2019
3452 Rain 11 1025 100 14484 1.5 290 08:19 19.08.2019
3453 Rain 12 1025 93 16093 2.1 200 07:48 19.08.2019
3454 Rain 12 1025 93 16093 2.1 200 07:30 19.08.2019
3455 Rain 13 1026 76 16093 1.79 337.836 06:48 19.08.2019
3456 Rain 13 1026 76 16093 1.79 337.836 06:26 19.08.2019
3457 Rain 13 1026 76 16093 1.79 337.836 06:26 19.08.2019
3458 Clouds 13 1027 66 16093 2.1 250 04:57 19.08.2019
3459 Clouds 13 1027 66 16093 2.1 250 04:26 19.08.2019
3460 Clouds 13 1028 71 16093 2.1 190 03:22 19.08.2019
3461 Clouds 13 1029 71 16093 3.6 230 02:23 19.08.2019
3462 Clouds 13 1030 62 16093 4.1 230 01:34 19.08.2019
3463 Clear 12 1030 71 16093 2.6 210 00:43 19.08.2019
3464 Clear 12 1030 71 16093 2.6 210 00:23 19.08.2019
3465 Clear 12 1031 76 16093 2.6 250 23:42 18.08.2019
3466 Clear 12 1031 76 16093 2.6 250 23:21 18.08.2019
3467 Clear 12 1031 81 16093 1.5 210 22:56 18.08.2019
3468 Clear 12 1031 81 16093 1.5 210 22:56 18.08.2019
3469 Clear 12 1031 81 16093 1.5 210 22:38 18.08.2019
3470 Clear 12 1031 81 16093 1.5 210 22:20 18.08.2019
3471 Clear 11 1032 81 16093 1.5 200 21:55 18.08.2019
3472 Clear 11 1032 81 16093 1.5 200 21:37 18.08.2019
3473 Clear 11 1032 81 16093 1.5 200 21:19 18.08.2019
3474 Clear 10 1032 87 16093 1.88 37.26 20:43 18.08.2019
3475 Clear 10 1032 87 16093 1.88 37.26 20:25 18.08.2019
3476 Clear 9 1032 87 16093 1.88 37.26 19:56 18.08.2019
3477 Clear 9 1032 87 16093 1.88 37.26 19:56 18.08.2019
3478 Clear 9 1032 87 16093 1.88 37.26 19:38 18.08.2019
3479 Clear 9 1032 87 16093 1.88 37.26 19:19 18.08.2019
3480 Clear 8 1032 87 16093 1.88 37.26 18:41 18.08.2019
3481 Clear 8 1032 87 16093 2.37 35.459 18:23 18.08.2019
3482 Clear 7 1032 93 16093 2.37 35.459 17:59 18.08.2019
3483 Clear 7 1032 93 16093 2.37 35.459 17:41 18.08.2019
3484 Clear 7 1032 93 16093 2.37 35.459 17:19 18.08.2019
3485 Clear 8 1033 93 16093 2.1 10 16:57 18.08.2019
3486 Clear 8 1033 93 16093 2.1 10 16:38 18.08.2019
3487 Clear 8 1033 93 16093 2.1 10 16:20 18.08.2019
3488 Clear 8 1033 93 16093 2.1 10 16:20 18.08.2019
3489 Clear 8 1033 93 16093 2.37 35.459 15:57 18.08.2019
3490 Clear 8 1033 93 16093 2.37 35.459 15:38 18.08.2019
3491 Clear 8 1033 93 16093 2.83 17.031 15:20 18.08.2019
3492 Clear 8 1034 93 16093 1.5 10 14:54 18.08.2019
3493 Clear 8 1034 93 16093 1.5 10 14:36 18.08.2019
3494 Clear 8 1034 93 16093 1.5 10 14:18 18.08.2019
3495 Clear 8 1034 87 16093 1.5 20 13:42 18.08.2019
3496 Clear 8 1034 87 16093 1.5 20 13:24 18.08.2019
3497 Clear 9 1034 87 16093 2.83 17.031 12:58 18.08.2019
3498 Clear 9 1034 87 16093 2.83 17.031 12:39 18.08.2019
3499 Clear 9 1034 87 16093 2 33.46 12:20 18.08.2019
3500 Clear 10 1034 93 16093 2 33.46 11:43 18.08.2019
3501 Clear 10 1034 93 16093 2 33.46 11:23 18.08.2019
3502 Clear 11 1035 87 16093 2 33.46 10:59 18.08.2019
3503 Clear 11 1035 87 16093 2 33.46 10:40 18.08.2019
3504 Clouds 12 1035 93 16093 2 33.46 10:19 18.08.2019
3505 Clouds 12 1035 93 16093 2 33.46 09:43 18.08.2019
3506 Clouds 12 1035 93 16093 0.32 0.537 09:20 18.08.2019
3507 Clouds 12 1035 93 16093 0.32 0.537 08:44 18.08.2019
3508 Clouds 12 1035 93 16093 0.32 0.537 08:25 18.08.2019
3509 Clouds 12 1035 93 16093 1.5 220 07:58 18.08.2019
3510 Clouds 12 1035 93 16093 1.5 220 07:30 18.08.2019
3511 Clear 13 1036 82 16093 2.6 250 06:47 18.08.2019
3512 Clear 13 1036 76 16093 5.7 260 05:45 18.08.2019
3513 Clear 13 1036 71 16093 6.7 270 04:25 18.08.2019
3514 Clear 14 1036 62 16093 5.7 260 03:20 18.08.2019
3515 Clouds 14 1037 62 16093 4.6 250 02:42 18.08.2019
3516 Clouds 14 1037 62 16093 4.6 250 02:18 18.08.2019
3517 Clouds 14 1037 67 16093 5.7 260 01:27 18.08.2019
3518 Clouds 13 1037 66 16093 3.6 240 00:42 18.08.2019
3519 Clouds 13 1037 66 16093 3.6 240 00:23 18.08.2019
3520 Clear 13 1037 66 16093 2.6 230 23:58 17.08.2019
3521 Clear 13 1037 66 16093 2.6 230 23:38 17.08.2019
3522 Clear 13 1037 66 16093 2.6 230 23:19 17.08.2019
3523 Clear 13 1038 66 16093 1.5 310 22:57 17.08.2019
3524 Clear 13 1038 66 16093 1.5 310 22:39 17.08.2019
3525 Clear 13 1038 66 16093 1.5 310 22:21 17.08.2019
3526 Clear 10 1037 81 16093 1.5 260 21:55 17.08.2019
3527 Clear 10 1037 81 16093 1.5 260 21:37 17.08.2019
3528 Clear 10 1037 81 16093 1.5 260 21:18 17.08.2019
3529 Clear 8 1037 87 16093 1.5 310 20:39 17.08.2019
3530 Clear 8 1037 87 16093 1.5 310 20:20 17.08.2019
3531 Clear 7 1037 87 16093 2.6 320 19:56 17.08.2019
3532 Clear 7 1037 87 16093 2.6 320 19:37 17.08.2019
3533 Clear 7 1037 87 16093 2.6 320 19:19 17.08.2019
3534 Clear 6 1037 87 16093 2.21 22.273 18:39 17.08.2019
3535 Clear 6 1037 87 16093 2.72 8.602 18:19 17.08.2019
3536 Clear 4 1037 100 16093 2.72 8.602 17:55 17.08.2019
3537 Clear 4 1037 100 16093 2.72 8.602 17:37 17.08.2019
3538 Clear 4 1037 100 16093 2.72 8.602 17:18 17.08.2019
3539 Clear 6 1037 87 16093 3.1 320 16:43 17.08.2019
3540 Clear 6 1037 87 16093 3.1 320 16:25 17.08.2019
3541 Clear 6 1036 87 16093 2.1 260 15:57 17.08.2019
3542 Clear 6 1036 87 16093 2.1 260 15:38 17.08.2019
3543 Clear 6 1036 87 16093 2.1 260 15:20 17.08.2019
3544 Clear 6 1036 87 16093 2.1 260 15:20 17.08.2019
3545 Clear 7 1036 81 16093 2.6 10 14:41 17.08.2019
3546 Clear 7 1036 81 16093 2.6 10 14:22 17.08.2019
3547 Clear 7 1036 87 16093 2.1 30 13:47 17.08.2019
3548 Clear 7 1036 87 16093 2.1 30 13:22 17.08.2019
3549 Clear 6 1035 87 16093 1.5 20 12:57 17.08.2019
3550 Clear 6 1035 87 16093 1.5 20 12:39 17.08.2019
3551 Clear 6 1035 87 16093 1.5 20 12:18 17.08.2019
3552 Clear 8 1035 87 16093 2.6 340 11:43 17.08.2019
3553 Clear 8 1035 87 16093 2.6 340 11:21 17.08.2019
3554 Clear 8 1034 87 16093 1.5 0 10:55 17.08.2019
3555 Clear 8 1034 87 16093 1.5 0 10:37 17.08.2019
3556 Clear 8 1034 87 16093 1.5 0 10:18 17.08.2019
3557 Clear 9 1034 81 16093 3.1 10 09:43 17.08.2019
3558 Clear 9 1034 81 16093 3.1 10 09:25 17.08.2019
3559 Clear 11 1033 76 16093 2.6 60 08:53 17.08.2019
3560 Clear 11 1033 76 16093 2.6 60 08:25 17.08.2019
3561 Clouds 12 1033 76 16093 4.1 110 07:46 17.08.2019
3562 Clouds 12 1033 76 16093 4.1 110 07:21 17.08.2019
3563 Clear 13 1031 71 16093 5.7 60 06:41 17.08.2019
3564 Clear 14 1031 62 16093 3.6 320 05:31 17.08.2019
3565 Clear 13 1031 71 16093 6.7 290 04:29 17.08.2019
3566 Clouds 13 1030 71 16093 5.7 300 03:19 17.08.2019
3567 Clear 11 1030 76 16093 6.7 310 01:42 17.08.2019
3568 Clear 11 1030 76 16093 6.7 310 01:24 17.08.2019
3569 Clouds 11 1030 76 16093 6.2 290 00:54 17.08.2019
3570 Clouds 11 1030 76 16093 6.2 290 00:28 17.08.2019
3571 Clouds 10 1029 76 16093 6.2 290 23:50 16.08.2019
3572 Clouds 10 1029 76 16093 6.2 290 23:27 16.08.2019
3573 Clouds 9 1028 81 16093 4.6 300 22:56 16.08.2019
3574 Clouds 9 1028 81 16093 4.6 300 22:37 16.08.2019
3575 Clouds 9 1028 81 16093 4.6 300 22:18 16.08.2019
3576 Clouds 8 1028 87 16093 4.6 310 21:40 16.08.2019
3577 Clouds 8 1028 87 16093 4.6 310 21:20 16.08.2019
3578 Clouds 8 1028 93 16093 5.1 300 20:55 16.08.2019
3579 Clouds 8 1028 93 16093 5.1 300 20:37 16.08.2019
3580 Clouds 8 1028 93 16093 5.1 300 20:18 16.08.2019
3581 Clouds 8 1027 93 16093 5.7 280 19:42 16.08.2019
3582 Clouds 8 1027 93 16093 5.7 280 19:22 16.08.2019
3583 Rain 8 1026 93 16093 2.6 290 18:44 16.08.2019
3584 Clouds 8 1026 93 16093 2.6 290 18:25 16.08.2019
3585 Clouds 8 1026 93 16093 4.1 290 17:57 16.08.2019
3586 Clouds 8 1026 93 16093 4.1 290 17:38 16.08.2019
3587 Clouds 8 1026 93 16093 4.1 290 17:20 16.08.2019
3588 Clouds 8 1026 93 16093 4.1 290 17:20 16.08.2019
3589 Clouds 9 1025 100 16093 4.6 290 16:42 16.08.2019
3590 Clouds 9 1025 100 16093 4.6 290 16:21 16.08.2019
3591 Clouds 9 1025 100 16093 4.1 290 15:59 16.08.2019
3592 Clouds 9 1025 100 16093 4.1 290 15:40 16.08.2019
3593 Clouds 9 1025 100 16093 4.1 290 15:21 16.08.2019
3594 Clouds 9 1025 100 16093 4.6 290 14:57 16.08.2019
3595 Clouds 10 1025 100 16093 4.6 290 14:38 16.08.2019
3596 Clouds 10 1025 100 16093 4.6 290 14:19 16.08.2019
3597 Clouds 10 1024 100 16093 4.1 280 13:41 16.08.2019
3598 Clouds 10 1024 100 16093 4.1 280 13:41 16.08.2019
3599 Clouds 10 1024 100 16093 4.1 280 13:23 16.08.2019
3600 Rain 10 1024 100 16093 4.1 280 12:56 16.08.2019
3601 Rain 10 1024 100 16093 4.1 280 12:37 16.08.2019
3602 Rain 11 1024 100 16093 4.1 280 12:19 16.08.2019
3603 Rain 11 1024 100 16093 4.1 280 12:19 16.08.2019
3604 Rain 11 1024 100 16093 3.6 270 11:42 16.08.2019
3605 Rain 11 1024 100 16093 3.6 270 11:24 16.08.2019
3606 Rain 11 1024 100 16093 3.6 270 11:24 16.08.2019
3607 Rain 11 1024 100 16093 4.6 280 10:43 16.08.2019
3608 Clouds 11 1023 100 16093 3.6 270 10:25 16.08.2019
3609 Rain 11 1023 100 16093 4.6 260 09:56 16.08.2019
3610 Rain 11 1023 100 16093 4.6 260 09:37 16.08.2019
3611 Rain 11 1023 100 16093 4.6 260 09:37 16.08.2019
3612 Rain 11 1023 100 16093 4.6 260 09:18 16.08.2019
3613 Rain 11 1023 100 16093 4.6 260 09:18 16.08.2019
3614 Rain 11 1023 100 4828 4.1 250 08:41 16.08.2019
3615 Rain 11 1023 100 4828 4.1 250 08:21 16.08.2019
3616 Rain 11 1022 100 3219 4.6 220 07:54 16.08.2019
3617 Rain 11 1022 100 3219 4.6 220 07:33 16.08.2019
3618 Rain 11 1023 100 3219 4.1 230 06:59 16.08.2019
3619 Rain 11 1022 100 3219 3.6 220 06:31 16.08.2019
3620 Rain 11 1022 100 4023 3.1 200 05:42 16.08.2019
3621 Rain 11 1023 100 4023 3.6 210 04:31 16.08.2019
3622 Clouds 11 1022 100 11265 5.1 200 02:46 16.08.2019
3623 Rain 11 1022 100 16093 5.1 210 01:34 16.08.2019
3624 Rain 11 1022 100 2414 6.2 210 00:59 16.08.2019
3625 Rain 11 1022 100 8047 6.2 210 00:40 16.08.2019
3626 Mist 11 1022 100 8047 6.2 210 00:21 16.08.2019
3627 Mist 11 1022 100 2414 5.7 210 23:45 15.08.2019
3628 Mist 11 1022 100 2414 5.7 210 23:45 15.08.2019
3629 Rain 11 1022 100 12874 6.2 210 23:22 15.08.2019
3630 Rain 11 1021 100 4828 7.2 200 22:58 15.08.2019
3631 Rain 11 1021 100 4828 7.2 200 22:58 15.08.2019
3632 Rain 11 1021 100 4828 7.2 200 22:39 15.08.2019
3633 Rain 11 1021 100 4828 7.2 200 22:20 15.08.2019
3634 Rain 11 1021 100 4828 6.7 200 21:55 15.08.2019
3635 Rain 11 1021 100 4828 6.2 210 21:37 15.08.2019
3636 Rain 11 1021 100 4828 6.2 210 21:18 15.08.2019
3637 Rain 11 1021 100 8047 6.7 210 20:42 15.08.2019
3638 Rain 11 1021 100 4828 7.2 210 20:22 15.08.2019
3639 Rain 11 1021 100 4828 4.1 70 19:57 15.08.2019
3640 Rain 11 1021 100 4828 4.1 70 19:39 15.08.2019
3641 Rain 11 1021 100 4828 4.1 70 19:20 15.08.2019
3642 Rain 10 1021 100 4828 3.6 80 18:47 15.08.2019
3643 Rain 10 1021 100 4828 3.6 80 18:23 15.08.2019
3644 Rain 10 1021 100 16093 3.6 90 17:58 15.08.2019
3645 Rain 10 1021 100 16093 3.6 90 17:38 15.08.2019
3646 Rain 10 1021 100 16093 3.6 90 17:38 15.08.2019
3647 Rain 10 1021 100 16093 3.6 90 17:19 15.08.2019
3648 Rain 10 1021 100 16093 2.6 80 16:56 15.08.2019
3649 Rain 10 1021 100 16093 2.6 80 16:38 15.08.2019
3650 Rain 10 1021 100 16093 2.6 80 16:20 15.08.2019
3651 Rain 10 1022 100 16093 1.5 100 15:38 15.08.2019
3652 Rain 10 1022 100 16093 1.5 100 15:19 15.08.2019
3653 Rain 11 1022 100 16093 1.23 121.907 14:55 15.08.2019
3654 Rain 11 1022 100 16093 1.23 121.907 14:36 15.08.2019
3655 Rain 11 1022 100 16093 1.23 121.907 14:18 15.08.2019
3656 Rain 11 1022 100 16093 2.6 210 13:54 15.08.2019
3657 Rain 11 1022 100 16093 2.6 210 13:36 15.08.2019
3658 Rain 11 1022 100 16093 2.6 210 13:18 15.08.2019
3659 Rain 11 1022 100 14484 3.6 210 12:39 15.08.2019
3660 Rain 11 1022 100 14484 3.6 210 12:20 15.08.2019
3661 Rain 11 1022 100 16093 4.6 200 11:57 15.08.2019
3662 Rain 11 1022 100 16093 4.6 200 11:37 15.08.2019
3663 Rain 11 1022 100 16093 4.6 200 11:37 15.08.2019
3664 Rain 11 1022 100 16093 4.6 200 11:18 15.08.2019
3665 Rain 11 1022 100 16093 4.1 200 10:57 15.08.2019
3666 Rain 11 1022 100 16093 4.6 210 10:36 15.08.2019
3667 Rain 11 1022 100 16093 4.6 210 10:18 15.08.2019
3668 Rain 10 1021 100 9656 4.6 220 09:42 15.08.2019
3669 Rain 10 1021 100 9656 4.6 220 09:22 15.08.2019
3670 Clouds 11 1021 87 16093 4.6 210 08:39 15.08.2019
3671 Clouds 11 1021 87 16093 4.6 210 08:21 15.08.2019
3672 Clouds 11 1021 87 16093 5.1 210 07:56 15.08.2019
3673 Clouds 11 1021 93 16093 5.1 210 07:37 15.08.2019
3674 Clouds 11 1021 93 16093 5.1 210 07:18 15.08.2019
3675 Rain 11 1021 100 16093 6.2 210 06:43 15.08.2019
3676 Rain 11 1021 100 16093 6.2 210 06:22 15.08.2019
3677 Rain 11 1021 100 4828 6.2 210 05:29 15.08.2019
3678 Mist 11 1021 100 6437 5.7 210 04:56 15.08.2019
3679 Clouds 11 1021 100 16093 4.6 220 03:51 15.08.2019
3680 Rain 11 1021 100 16093 4.6 220 03:18 15.08.2019
3681 Rain 11 1021 93 16093 4.6 210 02:25 15.08.2019
3682 Rain 11 1020 93 16093 5.7 210 01:39 15.08.2019
3683 Clouds 11 1020 93 16093 5.7 220 00:55 15.08.2019
3684 Clouds 11 1020 93 16093 5.7 220 00:36 15.08.2019
3685 Clouds 11 1020 93 16093 5.7 220 00:18 15.08.2019
3686 Clouds 11 1020 93 16093 6.2 220 23:54 14.08.2019
3687 Clouds 11 1020 93 16093 6.2 220 23:36 14.08.2019
3688 Clouds 11 1020 93 16093 6.2 220 23:18 14.08.2019
3689 Clouds 11 1020 93 16093 5.7 220 22:40 14.08.2019
3690 Clouds 11 1020 93 16093 5.7 220 22:22 14.08.2019
3691 Rain 11 1019 100 16093 5.7 230 21:57 14.08.2019
3692 Rain 11 1019 100 16093 5.7 230 21:38 14.08.2019
3693 Rain 11 1019 100 16093 5.7 230 21:20 14.08.2019
3694 Clouds 11 1019 100 16093 6.2 230 20:56 14.08.2019
3695 Clouds 11 1019 100 16093 6.2 230 20:37 14.08.2019
3696 Clouds 11 1019 100 16093 6.2 230 20:18 14.08.2019
3697 Clouds 11 1018 100 16093 6.7 230 19:40 14.08.2019
3698 Clouds 10 1018 100 16093 7.7 220 19:22 14.08.2019
3699 Clouds 10 1018 100 16093 7.7 220 18:57 14.08.2019
3700 Clouds 10 1018 100 16093 7.2 220 18:39 14.08.2019
3701 Clouds 10 1018 100 16093 7.2 220 18:21 14.08.2019
3702 Clouds 10 1018 100 11265 8.2 230 17:59 14.08.2019
3703 Clouds 10 1018 100 11265 8.2 230 17:38 14.08.2019
3704 Clouds 10 1018 100 11265 8.2 230 17:20 14.08.2019
3705 Mist 10 1018 100 8047 8.2 230 16:55 14.08.2019
3706 Mist 10 1018 100 8047 8.2 230 16:37 14.08.2019
3707 Mist 10 1018 100 8047 8.2 230 16:18 14.08.2019
3708 Clouds 10 1018 100 11265 8.2 230 15:42 14.08.2019
3709 Clouds 10 1017 100 11265 7.7 230 15:18 14.08.2019
3710 Mist 10 1017 100 6437 8.7 230 14:55 14.08.2019
3711 Mist 10 1017 100 6437 8.7 230 14:36 14.08.2019
3712 Mist 10 1017 100 6437 8.7 230 14:18 14.08.2019
3713 Mist 10 1017 100 8047 9.3 230 13:43 14.08.2019
3714 Mist 10 1017 100 8047 9.3 230 13:43 14.08.2019
3715 Clouds 10 1017 100 16093 9.8 230 13:24 14.08.2019
3716 Clouds 10 1017 100 16093 9.8 230 13:24 14.08.2019
3717 Clouds 10 1017 100 16093 10.3 220 12:57 14.08.2019
3718 Clouds 10 1017 100 16093 9.3 230 12:38 14.08.2019
3719 Clouds 10 1017 100 16093 9.3 230 12:20 14.08.2019
3720 Clouds 10 1017 100 16093 10.3 220 11:55 14.08.2019
3721 Clouds 10 1017 100 16093 10.3 220 11:37 14.08.2019
3722 Clouds 10 1017 100 16093 10.3 220 11:18 14.08.2019
3723 Clouds 10 1016 100 16093 10.8 230 10:42 14.08.2019
3724 Clouds 10 1016 100 16093 10.8 230 10:23 14.08.2019
3725 Clouds 10 1016 100 16093 10.8 220 09:55 14.08.2019
3726 Clouds 10 1016 100 16093 10.8 220 09:36 14.08.2019
3727 Clouds 10 1016 100 16093 10.8 220 09:18 14.08.2019
3728 Clouds 10 1016 100 16093 10.3 220 08:36 14.08.2019
3729 Clouds 10 1016 100 16093 10.3 220 08:18 14.08.2019
3730 Clouds 10 1015 93 16093 8.7 220 07:45 14.08.2019
3731 Clouds 10 1015 93 16093 8.7 220 07:27 14.08.2019
3732 Rain 10 1015 93 16093 9.3 220 06:45 14.08.2019
3733 Clouds 11 1015 87 16093 8.7 230 05:52 14.08.2019
3734 Clouds 11 1015 87 16093 9.3 230 04:54 14.08.2019
3735 Clouds 11 1014 87 16093 8.7 230 03:37 14.08.2019
3736 Clouds 11 1014 87 16093 9.3 240 02:32 14.08.2019
3737 Clouds 11 1013 93 16093 9.3 240 01:38 14.08.2019
3738 Clouds 11 1012 100 16093 9.3 240 00:59 14.08.2019
3739 Clouds 12 1012 93 16093 8.7 240 23:50 13.08.2019
3740 Clouds 11 1012 93 16093 8.7 240 23:25 13.08.2019
3741 Clouds 11 1011 100 16093 9.3 230 22:59 13.08.2019
3742 Clouds 11 1011 100 16093 9.3 230 22:39 13.08.2019
3743 Clouds 11 1011 100 16093 9.3 230 22:21 13.08.2019
3744 Clouds 11 1010 100 16093 8.7 240 21:58 13.08.2019
3745 Clouds 11 1010 100 16093 8.7 240 21:38 13.08.2019
3746 Clouds 11 1010 100 16093 8.7 240 21:38 13.08.2019
3747 Clouds 11 1010 100 16093 8.7 240 21:19 13.08.2019
3748 Rain 11 1010 100 16093 7.7 230 20:56 13.08.2019
3749 Rain 11 1010 100 16093 7.7 230 20:37 13.08.2019
3750 Rain 11 1010 100 16093 7.7 230 20:18 13.08.2019
3751 Rain 11 1009 100 12874 7.2 230 19:43 13.08.2019
3752 Rain 11 1009 100 12874 7.2 230 19:22 13.08.2019
3753 Rain 11 1009 100 11265 3.6 190 18:57 13.08.2019
3754 Rain 11 1009 100 11265 3.6 190 18:38 13.08.2019
3755 Rain 11 1009 100 11265 3.6 190 18:19 13.08.2019
3756 Rain 11 1010 100 12874 3.1 190 17:42 13.08.2019
3757 Rain 11 1010 100 12874 3.1 190 17:22 13.08.2019
3758 Rain 11 1010 100 11265 2.6 190 16:57 13.08.2019
3759 Rain 11 1010 100 11265 3.1 190 16:39 13.08.2019
3760 Rain 11 1010 100 11265 3.1 190 16:20 13.08.2019
3761 Rain 11 1011 100 16093 2.6 220 15:58 13.08.2019
3762 Rain 11 1011 100 16093 2.6 220 15:36 13.08.2019
3763 Rain 11 1011 100 16093 2.6 220 15:18 13.08.2019
3764 Clouds 11 1011 100 16093 2.6 220 14:41 13.08.2019
3765 Clouds 11 1011 100 16093 2.6 220 14:19 13.08.2019
3766 Clouds 11 1011 100 16093 3.1 230 13:56 13.08.2019
3767 Clouds 11 1011 100 16093 3.1 230 13:37 13.08.2019
3768 Clouds 11 1011 100 16093 3.1 230 13:18 13.08.2019
3769 Clouds 11 1011 100 16093 5.1 230 12:41 13.08.2019
3770 Clouds 11 1011 100 16093 5.1 230 12:23 13.08.2019
3771 Clouds 11 1011 100 16093 5.1 240 11:59 13.08.2019
3772 Clouds 11 1011 100 16093 5.1 240 11:40 13.08.2019
3773 -273 0 0 0 0 0 11:21 13.08.2019
3774 Clouds 11 1011 100 16093 5.1 240 11:21 13.08.2019
3775 Clouds 11 1011 100 16093 5.7 240 10:57 13.08.2019
3776 Clouds 11 1011 100 16093 4.6 250 10:37 13.08.2019
3777 Clouds 12 1011 100 16093 4.6 250 10:19 13.08.2019
3778 Clouds 11 1010 100 16093 5.7 250 09:44 13.08.2019
3779 Clouds 12 1010 100 16093 5.7 250 09:23 13.08.2019
3780 Clouds 11 1009 100 16093 6.7 250 08:55 13.08.2019
3781 Clouds 11 1009 100 16093 6.7 250 08:37 13.08.2019
3782 Clouds 11 1009 100 16093 6.7 250 08:18 13.08.2019
3783 Clouds 11 1009 100 16093 6.2 250 07:38 13.08.2019
3784 Clouds 11 1009 100 16093 6.2 250 07:38 13.08.2019
3785 Clouds 11 1009 100 16093 6.2 250 07:20 13.08.2019
3786 Clouds 11 1009 100 16093 7.2 240 06:43 13.08.2019
3787 Rain 11 1009 100 16093 6.2 230 05:46 13.08.2019
3788 Rain 11 1009 100 3219 6.2 210 03:46 13.08.2019
3789 Rain 12 1009 100 3219 5.1 200 02:22 13.08.2019
3790 Rain 12 1009 100 3219 5.7 210 01:26 13.08.2019
3791 Rain 12 1009 100 3219 5.1 180 00:47 13.08.2019
3792 Rain 12 1009 100 3219 5.1 180 00:18 13.08.2019
3793 Rain 12 1010 100 3219 6.7 190 23:41 12.08.2019
3794 Rain 12 1010 100 3219 6.7 190 23:20 12.08.2019
3795 Rain 12 1010 100 4828 6.2 180 22:40 12.08.2019
3796 Rain 12 1010 100 4828 6.2 180 22:20 12.08.2019
3797 Rain 12 1010 100 4828 5.1 170 21:57 12.08.2019
3798 Rain 13 1010 100 8047 5.7 170 21:38 12.08.2019
3799 Rain 13 1010 100 8047 5.7 170 21:19 12.08.2019
3800 Rain 13 1010 100 3219 6.2 170 20:58 12.08.2019
3801 Rain 13 1010 100 3219 6.2 170 20:58 12.08.2019
3802 Rain 13 1010 100 3219 4.1 170 20:39 12.08.2019
3803 Rain 14 1010 100 3219 4.1 170 20:20 12.08.2019
3804 Rain 13 1011 100 3219 6.7 150 19:57 12.08.2019
3805 Rain 13 1011 100 3219 6.7 150 19:38 12.08.2019
3806 Rain 13 1011 100 3219 6.7 150 19:20 12.08.2019
3807 Rain 13 1011 100 2414 6.2 140 18:56 12.08.2019
3808 Rain 14 1011 100 2012 6.2 130 18:37 12.08.2019
3809 -273 0 0 0 0 0 18:19 12.08.2019
3810 Rain 14 1011 100 2816 6.7 120 17:48 12.08.2019
3811 Rain 14 1012 100 4828 6.2 110 17:29 12.08.2019
3812 Rain 14 1012 100 6437 4.6 120 16:58 12.08.2019
3813 Rain 14 1013 100 14484 4.6 130 16:39 12.08.2019
3814 Rain 14 1013 100 14484 4.6 130 16:20 12.08.2019
3815 Rain 14 1013 100 14484 4.6 140 15:59 12.08.2019
3816 Rain 14 1013 100 16093 2.1 110 15:41 12.08.2019
3817 -273 0 0 0 0 0 15:40 12.08.2019
3818 Rain 14 1013 100 16093 2.1 110 15:21 12.08.2019
3819 Clouds 15 1013 100 16093 3.6 100 14:56 12.08.2019
3820 Clouds 15 1013 100 16093 3.6 100 14:38 12.08.2019
3821 Clouds 15 1013 100 16093 3.6 100 14:18 12.08.2019
3822 Clouds 15 1013 100 16093 3.6 100 14:18 12.08.2019
3823 Rain 15 1014 100 16093 4.6 110 13:43 12.08.2019
3824 Rain 15 1014 100 16093 4.6 110 13:24 12.08.2019
3825 Rain 14 1014 100 16093 4.1 110 12:57 12.08.2019
3826 Rain 14 1014 100 16093 4.1 110 12:57 12.08.2019
3827 Rain 14 1014 100 16093 5.1 80 12:39 12.08.2019
3828 Rain 14 1014 100 16093 5.1 80 12:18 12.08.2019
3829 -273 0 0 0 0 0 11:41 12.08.2019
3830 Rain 14 1015 100 16093 5.7 80 11:23 12.08.2019
3831 Rain 14 1015 100 16093 5.7 80 10:42 12.08.2019
3832 Rain 14 1015 100 16093 5.7 80 10:23 12.08.2019
3833 Rain 14 1015 100 16093 5.7 80 10:23 12.08.2019
3834 Rain 14 1015 100 16093 5.7 80 10:23 12.08.2019
3835 Rain 14 1015 100 16093 4.6 90 09:56 12.08.2019
3836 Clouds 14 1015 100 16093 4.6 90 09:38 12.08.2019
3837 Clouds 14 1015 100 16093 4.6 90 09:19 12.08.2019
3838 Rain 14 1016 93 16093 4.6 80 08:57 12.08.2019
3839 Rain 14 1016 93 16093 4.6 80 08:38 12.08.2019
3840 Rain 14 1016 93 16093 4.6 80 08:38 12.08.2019
3841 Rain 14 1016 93 16093 4.6 80 08:19 12.08.2019
3842 Rain 14 1016 93 16093 4.6 90 07:49 12.08.2019
3843 Rain 15 1016 93 16093 4.6 90 07:27 12.08.2019
3844 Rain 14 1017 93 16093 5.1 90 06:47 12.08.2019
3845 Rain 15 1017 93 16093 5.1 110 05:38 12.08.2019
3846 Clouds 14 1018 87 16093 4.6 130 02:44 12.08.2019
3847 Clouds 13 1019 93 16093 5.1 130 01:55 12.08.2019
3848 Clouds 14 1019 93 16093 5.1 130 01:21 12.08.2019
3849 Clouds 13 1019 93 16093 6.2 120 00:58 12.08.2019
3850 Clouds 13 1019 93 16093 6.2 120 00:38 12.08.2019
3851 Clouds 13 1019 93 16093 6.2 120 00:19 12.08.2019
3852 Clouds 13 1019 93 16093 5.7 120 23:54 11.08.2019
3853 Clouds 13 1019 93 16093 5.7 120 23:36 11.08.2019
3854 Clouds 13 1019 93 16093 5.7 120 23:18 11.08.2019
3855 Clouds 13 1019 93 16093 4.6 130 22:40 11.08.2019
3856 Clouds 13 1019 93 16093 4.6 130 22:19 11.08.2019
3857 Clouds 13 1019 100 16093 3.6 100 21:59 11.08.2019
3858 Clouds 13 1019 100 16093 3.6 100 21:40 11.08.2019
3859 Clouds 13 1019 100 16093 3.6 100 21:40 11.08.2019
3860 Clouds 13 1019 100 16093 3.6 100 21:21 11.08.2019
3861 Clouds 13 1019 93 16093 5.1 90 20:57 11.08.2019
3862 Clouds 13 1019 93 16093 5.1 90 20:57 11.08.2019
3863 Clouds 13 1019 100 16093 5.1 90 20:39 11.08.2019
3864 Clouds 13 1019 100 16093 5.1 90 20:20 11.08.2019
3865 Clouds 12 1020 100 16093 5.1 90 19:43 11.08.2019
3866 Clouds 12 1020 100 16093 3.1 90 19:19 11.08.2019
3867 Clouds 12 1020 100 16093 2.1 90 18:42 11.08.2019
3868 Clouds 12 1020 100 16093 2.1 90 18:23 11.08.2019
3869 Clouds 12 1020 100 16093 1.5 30 17:59 11.08.2019
3870 Clouds 12 1020 100 16093 1.5 30 17:40 11.08.2019
3871 Clouds 12 1020 100 16093 1.5 30 17:20 11.08.2019
3872 Clouds 11 1020 100 16093 0.68 70.977 16:56 11.08.2019
3873 Clouds 12 1020 100 16093 0.68 70.977 16:38 11.08.2019
3874 Clouds 11 1020 100 16093 0.68 70.977 16:19 11.08.2019
3875 Clouds 11 1020 100 16093 0.68 70.977 15:44 11.08.2019
3876 Clouds 11 1020 100 16093 0.43 279.44 15:24 11.08.2019
3877 Clouds 11 1020 100 16093 0.43 279.44 15:24 11.08.2019
3878 Clouds 11 1021 100 16093 0.43 279.44 14:59 11.08.2019
3879 Clouds 11 1021 100 16093 0.43 279.44 14:39 11.08.2019
3880 Clouds 11 1021 100 16093 0.43 279.44 14:20 11.08.2019
3881 Clouds 11 1021 100 16093 0.43 279.44 13:44 11.08.2019
3882 Clouds 11 1021 100 16093 0.5 68.839 13:25 11.08.2019
3883 Clouds 12 1021 100 16093 0.5 68.839 12:56 11.08.2019
3884 Clouds 11 1021 100 16093 0.5 68.839 12:36 11.08.2019
3885 Clouds 11 1021 100 16093 1.4 264.513 12:18 11.08.2019
3886 Clouds 12 1021 100 16093 1.4 264.513 11:39 11.08.2019
3887 Clouds 12 1021 100 16093 1.4 264.513 11:20 11.08.2019
3888 Clouds 12 1021 100 16093 1.5 300 10:55 11.08.2019
3889 Clouds 12 1021 100 16093 1.5 300 10:37 11.08.2019
3890 Clouds 12 1021 100 16093 1.5 300 10:18 11.08.2019
3891 Clouds 12 1021 100 16093 1.5 300 10:18 11.08.2019
3892 Clouds 12 1021 100 16093 2.6 260 09:40 11.08.2019
3893 Clouds 12 1021 100 16093 2.6 260 09:22 11.08.2019
3894 Clouds 12 1021 100 16093 3.1 270 08:49 11.08.2019
3895 Clouds 12 1021 100 16093 3.1 270 08:29 11.08.2019
3896 Clouds 12 1021 100 16093 3.1 260 07:57 11.08.2019
3897 Clouds 12 1021 100 16093 3.1 260 07:30 11.08.2019
3898 Clouds 13 1021 93 16093 4.1 260 06:46 11.08.2019
3899 Clouds 13 1021 93 16093 4.1 260 06:26 11.08.2019
3900 Clouds 13 1021 100 16093 3.1 240 04:38 11.08.2019
3901 Clouds 13 1022 93 16093 3.6 240 02:50 11.08.2019
3902 Clouds 12 1022 100 16093 4.1 240 01:53 11.08.2019
3903 Clouds 12 1022 100 16093 2.1 230 01:28 11.08.2019
3904 Clouds 12 1022 100 16093 1.5 230 00:54 11.08.2019
3905 Mist 12 1022 100 6437 3.1 230 00:34 11.08.2019
3906 Clouds 12 1021 100 16093 2.6 210 23:49 10.08.2019
3907 Clouds 12 1021 100 16093 2.6 210 23:29 10.08.2019
3908 Clouds 12 1021 100 16093 2.1 210 22:48 10.08.2019
3909 Clouds 12 1021 100 16093 2.1 220 22:27 10.08.2019
3910 Mist 12 1021 100 4828 1.5 210 21:59 10.08.2019
3911 Mist 12 1021 100 2414 1.5 200 21:40 10.08.2019
3912 Mist 12 1021 100 2414 1.5 200 21:21 10.08.2019
3913 Mist 12 1021 100 4828 0.74 215.403 20:57 10.08.2019
3914 Mist 12 1021 100 4828 0.74 215.403 20:39 10.08.2019
3915 Mist 12 1021 100 4828 0.74 215.403 20:19 10.08.2019
3916 Mist 12 1021 100 4828 0.74 215.403 19:43 10.08.2019
3917 Mist 12 1021 100 4828 0.74 215.403 19:24 10.08.2019
3918 Mist 12 1021 100 4828 0.74 215.403 19:24 10.08.2019
3919 Fog 12 1021 100 805 1.5 220 18:42 10.08.2019
3920 Fog 12 1021 100 805 1.5 220 18:24 10.08.2019
3921 Fog 12 1021 100 805 1.5 160 17:56 10.08.2019
3922 Fog 12 1021 100 805 2.1 110 17:38 10.08.2019
3923 Fog 12 1021 100 805 2.1 110 17:19 10.08.2019
3924 Mist 12 1021 100 2414 2.1 70 16:42 10.08.2019
3925 Rain 12 1022 100 6437 1.5 90 16:22 10.08.2019
3926 Rain 12 1022 100 3219 1.25 233.432 15:45 10.08.2019
3927 Rain 12 1022 100 3219 0.69 263.797 15:22 10.08.2019
3928 Rain 12 1022 100 6437 1.5 100 14:44 10.08.2019
3929 Rain 12 1022 100 6437 1.5 100 14:44 10.08.2019
3930 Rain 12 1022 100 2414 0.69 263.797 14:21 10.08.2019
3931 Mist 12 1022 100 2816 1.5 180 13:41 10.08.2019
3932 Mist 12 1022 100 2816 1.5 180 13:20 10.08.2019
3933 Clouds 12 1022 100 12874 0.8 285.406 12:55 10.08.2019
3934 Clouds 12 1022 100 12874 0.8 285.406 12:37 10.08.2019
3935 Clouds 12 1022 100 12874 1.24 247.469 12:18 10.08.2019
3936 Clouds 12 1022 100 14484 1.5 150 11:41 10.08.2019
3937 Clouds 12 1022 100 14484 1.5 150 11:22 10.08.2019
3938 Clouds 12 1022 100 16093 1.24 247.469 10:55 10.08.2019
3939 Clouds 12 1022 100 16093 1.24 247.469 10:37 10.08.2019
3940 Clouds 12 1022 100 16093 1.24 247.469 10:18 10.08.2019
3941 Mist 12 1022 100 4828 1.5 200 09:41 10.08.2019
3942 Mist 12 1022 100 4828 1.5 200 09:41 10.08.2019
3943 Mist 12 1022 100 4828 1.5 200 09:23 10.08.2019
3944 Mist 12 1022 100 8047 2.6 210 08:42 10.08.2019
3945 Mist 12 1022 100 8047 2.6 210 08:20 10.08.2019
3946 Clouds 12 1022 100 14484 2.1 220 07:54 10.08.2019
3947 Clouds 12 1022 100 14484 2.1 220 07:29 10.08.2019
3948 Clouds 12 1023 100 16093 2.6 220 06:49 10.08.2019
3949 Clouds 12 1023 100 16093 2.6 220 06:28 10.08.2019
3950 Clouds 12 1023 100 16093 2.6 240 05:27 10.08.2019
3951 Clouds 12 1023 100 16093 4.1 220 04:37 10.08.2019
3952 Mist 12 1023 100 9656 4.6 230 03:26 10.08.2019
3953 Clouds 12 1023 100 16093 4.6 220 02:28 10.08.2019
3954 Clouds 12 1024 100 16093 3.6 220 01:43 10.08.2019
3955 Clouds 12 1024 100 11265 3.1 230 01:23 10.08.2019
3956 Clouds 12 1024 100 16093 3.6 220 00:53 10.08.2019
3957 Clouds 12 1024 100 16093 3.6 210 00:27 10.08.2019
3958 Clouds 12 1024 93 16093 3.1 220 23:59 09.08.2019
3959 Clouds 12 1024 100 12874 2.1 210 23:38 09.08.2019
3960 Clouds 12 1024 100 12874 2.1 210 23:19 09.08.2019
3961 Clouds 12 1024 93 16093 2.1 210 22:41 09.08.2019
3962 Clouds 12 1024 93 16093 2.1 210 22:23 09.08.2019
3963 Clouds 12 1024 93 16093 2.1 210 21:59 09.08.2019
3964 Clouds 12 1024 93 16093 2.1 210 21:39 09.08.2019
3965 Clouds 12 1024 93 16093 2.1 210 21:21 09.08.2019
3966 Clouds 12 1024 87 16093 0.81 211.46 20:56 09.08.2019
3967 Clouds 12 1024 87 16093 0.51 191.332 20:38 09.08.2019
3968 Clouds 12 1024 87 16093 0.51 191.332 20:18 09.08.2019
3969 Clouds 12 1024 87 16093 0.51 191.332 19:43 09.08.2019
3970 Clouds 12 1024 87 16093 0.51 191.332 19:22 09.08.2019
3971 Clouds 11 1024 93 16093 0.51 191.332 18:55 09.08.2019
3972 Clouds 11 1024 93 16093 0.51 191.332 18:36 09.08.2019
3973 Clouds 11 1024 93 16093 0.89 323.596 18:18 09.08.2019
3974 Clouds 11 1024 100 16093 0.89 323.596 17:42 09.08.2019
3975 Clouds 11 1024 100 16093 0.89 323.596 17:23 09.08.2019
3976 Clouds 11 1025 100 16093 0.89 323.596 16:54 09.08.2019
3977 Clouds 11 1025 100 16093 0.89 323.596 16:36 09.08.2019
3978 Clouds 10 1025 100 16093 0.89 323.596 16:18 09.08.2019
3979 Clouds 10 1025 100 16093 2.1 290 15:41 09.08.2019
3980 Clouds 10 1025 100 16093 2.1 290 15:21 09.08.2019
3981 Clouds 11 1025 100 16093 2.6 310 14:57 09.08.2019
3982 Clouds 10 1025 100 16093 2.6 310 14:38 09.08.2019
3983 Clouds 10 1025 100 16093 2.6 310 14:19 09.08.2019
3984 Rain 10 1025 100 16093 2.1 300 13:44 09.08.2019
3985 Rain 11 1025 100 16093 2.1 300 13:21 09.08.2019
3986 Rain 11 1025 100 14484 1.5 300 12:56 09.08.2019
3987 Rain 11 1025 100 9656 2.1 290 12:37 09.08.2019
3988 Rain 11 1025 100 9656 2.1 290 12:18 09.08.2019
3989 Clouds 11 1025 93 16093 3.6 260 11:41 09.08.2019
3990 Clouds 11 1025 93 16093 3.6 260 11:20 09.08.2019
3991 Clouds 11 1025 93 16093 3.6 280 10:42 09.08.2019
3992 Clouds 11 1025 93 16093 3.6 280 10:22 09.08.2019
3993 Clouds 11 1025 93 16093 2.6 290 09:59 09.08.2019
3994 Clouds 12 1025 93 16093 2.6 290 09:38 09.08.2019
3995 Clouds 12 1025 93 16093 2.6 290 09:19 09.08.2019
3996 Clouds 12 1025 93 16093 4.1 270 08:44 09.08.2019
3997 Clouds 12 1025 93 16093 4.1 270 08:25 09.08.2019
3998 Clouds 12 1025 87 16093 5.1 270 07:56 09.08.2019
3999 Clouds 12 1025 87 16093 5.1 270 07:56 09.08.2019
4000 Clouds 12 1025 87 16093 5.1 270 07:56 09.08.2019
4001 Clouds 12 1025 87 16093 5.1 270 07:37 09.08.2019
4002 Clouds 12 1025 87 16093 5.1 270 07:19 09.08.2019
4003 Clouds 12 1025 87 16093 4.1 250 06:40 09.08.2019
4004 Clouds 12 1025 87 16093 4.1 250 06:20 09.08.2019
4005 Clouds 12 1025 87 16093 5.1 270 05:30 09.08.2019
4006 Clouds 12 1025 93 16093 4.6 250 02:27 09.08.2019
4007 Clouds 12 1025 93 16093 4.1 260 01:23 09.08.2019
4008 Clouds 12 1025 100 11265 5.1 270 00:41 09.08.2019
4009 Clouds 11 1025 100 11265 5.1 270 00:22 09.08.2019
4010 Clouds 12 1025 93 16093 4.1 270 23:56 08.08.2019
4011 Clouds 12 1025 93 16093 4.1 270 23:36 08.08.2019
4012 Clouds 12 1025 93 16093 4.1 270 23:18 08.08.2019
4013 Clouds 12 1025 100 16093 4.1 250 22:38 08.08.2019
4014 Clouds 11 1025 100 16093 4.1 250 22:19 08.08.2019
4015 Mist 11 1025 100 4828 4.1 250 21:59 08.08.2019
4016 Mist 11 1025 100 4828 4.1 250 21:41 08.08.2019
4017 Mist 11 1025 100 4828 4.1 250 21:22 08.08.2019
4018 Clouds 11 1025 100 16093 3.6 260 20:57 08.08.2019
4019 Clouds 11 1025 100 16093 3.6 260 20:39 08.08.2019
4020 Clouds 11 1025 100 16093 3.6 260 20:19 08.08.2019
4021 Clouds 11 1025 100 16093 3.1 260 19:48 08.08.2019
4022 Clouds 11 1025 100 16093 3.1 260 19:28 08.08.2019
4023 Clouds 11 1025 100 16093 2.6 280 18:57 08.08.2019
4024 Clouds 11 1025 100 16093 4.1 270 18:36 08.08.2019
4025 Clouds 11 1025 100 16093 4.1 270 18:18 08.08.2019
4026 Clouds 11 1025 100 16093 4.1 270 18:18 08.08.2019
4027 Clouds 11 1025 100 16093 3.6 260 17:42 08.08.2019
4028 Clouds 11 1025 100 16093 3.6 260 17:23 08.08.2019
4029 Clouds 11 1026 100 16093 5.7 270 16:56 08.08.2019
4030 Clouds 11 1026 100 16093 5.7 270 16:37 08.08.2019
4031 Clouds 11 1026 100 16093 5.7 270 16:37 08.08.2019
4032 Clouds 11 1026 100 16093 5.7 270 16:19 08.08.2019
4033 Clouds 11 1026 100 16093 4.1 260 15:56 08.08.2019
4034 Clouds 12 1026 100 16093 4.1 260 15:37 08.08.2019
4035 Clouds 12 1026 100 16093 4.1 260 15:19 08.08.2019
4036 Clouds 11 1026 93 16093 4.1 250 14:37 08.08.2019
4037 Clouds 11 1026 93 16093 4.1 250 14:18 08.08.2019
4038 Clouds 11 1026 93 16093 4.1 250 14:18 08.08.2019
4039 Clouds 11 1026 93 16093 1.5 300 13:42 08.08.2019
4040 Clouds 11 1026 93 16093 1.5 300 13:23 08.08.2019
4041 Clouds 11 1026 93 16093 3.1 290 12:57 08.08.2019
4042 Clouds 11 1026 93 16093 3.1 290 12:37 08.08.2019
4043 Clouds 11 1026 93 16093 3.1 290 12:18 08.08.2019
4044 Clouds 11 1026 93 16093 3.1 280 11:42 08.08.2019
4045 Clouds 11 1026 93 16093 3.1 280 11:23 08.08.2019
4046 Clouds 11 1026 93 16093 3.1 280 11:23 08.08.2019
4047 Clouds 11 1026 93 16093 3.1 290 10:41 08.08.2019
4048 Clouds 11 1026 93 16093 3.1 290 10:22 08.08.2019
4049 Clouds 11 1026 87 16093 4.6 270 09:58 08.08.2019
4050 Clouds 11 1026 87 16093 4.6 270 09:39 08.08.2019
4051 Clouds 11 1026 87 16093 4.6 270 09:20 08.08.2019
4052 Clouds 11 1026 87 16093 5.7 260 08:40 08.08.2019
4053 Clouds 11 1026 87 16093 5.7 260 08:21 08.08.2019
4054 Clouds 12 1026 76 16093 7.2 270 07:56 08.08.2019
4055 Clouds 12 1026 76 16093 7.2 270 07:37 08.08.2019
4056 Clouds 12 1026 76 16093 7.2 270 07:18 08.08.2019
4057 Clouds 12 1027 76 16093 7.2 260 06:41 08.08.2019
4058 Clouds 12 1027 81 16093 7.2 270 05:55 08.08.2019
4059 Clouds 12 1027 76 16093 8.2 270 05:28 08.08.2019
4060 Clouds 12 1027 76 16093 8.2 250 03:59 08.08.2019
4061 Clouds 12 1027 76 16093 8.2 250 03:39 08.08.2019
4062 Clouds 11 1027 81 16093 7.7 250 01:42 08.08.2019
4063 Clouds 11 1027 87 16093 7.7 250 00:57 08.08.2019
4064 Clouds 11 1027 87 16093 7.7 250 00:21 08.08.2019
4065 Clouds 11 1027 87 16093 5.1 260 23:23 07.08.2019
4066 Clouds 11 1027 87 16093 5.7 270 23:00 07.08.2019
4067 Clouds 11 1027 87 16093 5.7 270 22:41 07.08.2019
4068 Clouds 11 1027 87 16093 5.7 270 22:21 07.08.2019
4069 Clouds 10 1027 93 16093 6.2 260 21:58 07.08.2019
4070 Clouds 10 1027 93 16093 6.2 260 21:40 07.08.2019
4071 Clouds 10 1027 93 16093 6.2 260 21:21 07.08.2019
4072 Clouds 10 1027 93 16093 6.2 260 21:21 07.08.2019
4073 Clouds 10 1026 93 16093 5.7 270 20:59 07.08.2019
4074 Clouds 10 1026 93 16093 5.7 270 20:41 07.08.2019
4075 Clouds 9 1026 93 16093 5.7 270 20:20 07.08.2019
4076 Clouds 9 1026 93 16093 5.7 270 20:20 07.08.2019
4077 Clouds 9 1026 100 16093 4.1 280 19:55 07.08.2019
4078 Clouds 9 1026 100 16093 4.1 290 19:36 07.08.2019
4079 Clouds 9 1026 100 16093 4.1 290 19:18 07.08.2019
4080 Clear 7 1026 100 16093 1.5 320 18:40 07.08.2019
4081 Clear 7 1026 100 16093 1.5 320 18:20 07.08.2019
4082 Clear 7 1026 100 16093 2.6 290 17:56 07.08.2019
4083 Clear 7 1026 100 16093 2.6 290 17:38 07.08.2019
4084 Clear 7 1026 100 16093 2.6 290 17:19 07.08.2019
4085 Clear 7 1026 100 16093 4.1 280 16:56 07.08.2019
4086 Clear 7 1026 100 16093 4.1 280 16:56 07.08.2019
4087 Clear 7 1026 100 16093 4.1 280 16:37 07.08.2019
4088 Clear 7 1026 100 16093 4.1 280 16:18 07.08.2019
4089 Clear 7 1025 100 16093 4.1 280 15:42 07.08.2019
4090 Clear 7 1025 100 16093 4.1 280 15:20 07.08.2019
4091 Clear 7 1025 100 16093 4.1 290 14:50 07.08.2019
4092 Clear 8 1025 100 16093 4.1 290 14:30 07.08.2019
4093 Clear 8 1025 93 16093 3.6 300 13:59 07.08.2019
4094 Clear 8 1025 93 16093 3.6 300 13:39 07.08.2019
4095 Clear 8 1025 93 16093 3.6 300 13:19 07.08.2019
4096 Clear 9 1024 93 16093 4.1 280 12:57 07.08.2019
4097 Clear 9 1024 93 16093 4.1 280 12:38 07.08.2019
4098 Clear 9 1024 93 16093 4.1 280 12:19 07.08.2019
4099 Clear 9 1024 93 16093 4.6 280 11:55 07.08.2019
4100 Clear 10 1024 93 16093 4.6 280 11:37 07.08.2019
4101 Clear 10 1024 93 16093 4.6 280 11:18 07.08.2019
4102 Clear 10 1024 87 16093 3.1 290 10:40 07.08.2019
4103 Clear 11 1024 87 16093 3.1 290 10:19 07.08.2019
4104 Clear 12 1023 76 16093 3.1 270 09:48 07.08.2019
4105 Clear 13 1023 76 16093 3.1 270 09:24 07.08.2019
4106 Clear 14 1023 77 16093 5.1 270 08:59 07.08.2019
4107 Clear 15 1023 77 16093 5.1 270 08:41 07.08.2019
4108 Clear 15 1023 77 16093 5.1 270 08:23 07.08.2019
4109 Clouds 14 1023 82 16093 5.7 260 07:50 07.08.2019
4110 Clouds 14 1023 82 16093 5.7 260 07:29 07.08.2019
4111 Clouds 15 1023 77 16093 5.7 260 06:44 07.08.2019
4112 Clouds 15 1023 77 16093 5.7 260 06:21 07.08.2019
4113 Clear 15 1023 77 16093 4.6 250 05:41 07.08.2019
4114 Clear 15 1023 63 16093 4.1 240 04:29 07.08.2019
4115 Clear 14 1023 76 16093 3.1 230 02:55 07.08.2019
4116 Clear 14 1023 76 16093 3.1 230 02:36 07.08.2019
4117 Clear 13 1023 87 16093 3.1 230 01:50 07.08.2019
4118 Clear 13 1023 87 16093 3.6 190 00:54 07.08.2019
4119 Clear 13 1023 87 16093 3.6 190 00:24 07.08.2019
4120 Mist 13 1023 100 4828 3.1 210 23:57 06.08.2019
4121 Mist 13 1023 100 4828 3.1 210 23:36 06.08.2019
4122 Mist 12 1023 100 4828 3.1 210 23:18 06.08.2019
4123 Fog 11 1022 100 805 2.6 220 22:40 06.08.2019
4124 Fog 12 1022 100 805 2.6 220 22:21 06.08.2019
4125 Clouds 12 1022 100 16093 2.1 210 21:57 06.08.2019
4126 Clouds 12 1022 100 16093 2.1 210 21:38 06.08.2019
4127 Clouds 12 1022 100 16093 2.1 210 21:19 06.08.2019
4128 Clouds 12 1022 100 16093 1.97 346.733 20:43 06.08.2019
4129 Clouds 12 1022 100 16093 1.97 346.733 20:24 06.08.2019
4130 Clouds 12 1022 100 16093 1.97 346.733 19:56 06.08.2019
4131 Clouds 11 1021 100 16093 1.97 346.733 19:37 06.08.2019
4132 Clouds 11 1021 100 16093 1.97 346.733 19:18 06.08.2019
4133 Fog 8 1021 100 16093 1.97 346.733 18:41 06.08.2019
4134 Fog 8 1021 100 16093 1.87 322.933 18:21 06.08.2019
4135 Fog 7 1021 100 16093 1.87 322.933 17:57 06.08.2019
4136 Fog 7 1021 100 16093 1.87 322.933 17:37 06.08.2019
4137 Fog 7 1021 100 16093 1.87 322.933 17:19 06.08.2019
4138 Clear 7 1020 100 16093 1.87 322.933 16:44 06.08.2019
4139 Clear 7 1020 100 16093 1.87 322.933 16:25 06.08.2019
4140 Clear 7 1020 100 16093 1.87 322.933 15:58 06.08.2019
4141 Clear 7 1020 100 16093 1.87 322.933 15:40 06.08.2019
4142 Clear 7 1020 100 16093 1.62 348.35 15:21 06.08.2019
4143 Clear 8 1019 100 16093 1.62 348.35 14:54 06.08.2019
4144 Clear 8 1019 100 16093 1.62 348.35 14:36 06.08.2019
4145 Clear 8 1019 100 16093 1.62 348.35 14:18 06.08.2019
4146 Clear 8 1019 100 16093 1.62 348.35 14:18 06.08.2019
4147 Clear 8 1019 100 16093 1.62 348.35 13:45 06.08.2019
4148 Clear 8 1019 100 16093 1.17 350.771 13:26 06.08.2019
4149 Clear 8 1019 100 16093 1.17 350.771 12:59 06.08.2019
4150 Clear 8 1019 100 16093 1.17 350.771 12:39 06.08.2019
4151 Clear 9 1019 100 16093 1.25 317.208 12:21 06.08.2019
4152 Clear 11 1018 81 16093 1.25 317.208 11:45 06.08.2019
4153 Clear 12 1018 81 16093 1.25 317.208 11:20 06.08.2019
4154 Clear 12 1018 93 16093 2.6 270 10:58 06.08.2019
4155 Clear 12 1018 93 16093 2.6 270 10:39 06.08.2019
4156 Clear 12 1018 93 16093 2.6 270 10:39 06.08.2019
4157 Clear 12 1018 93 16093 2.6 270 10:21 06.08.2019
4158 Clouds 13 1018 87 16093 3.1 290 09:41 06.08.2019
4159 Clouds 13 1018 87 16093 3.1 290 09:21 06.08.2019
4160 Clouds 13 1018 87 16093 3.1 290 09:21 06.08.2019
4161 Clouds 14 1017 93 16093 5.1 250 08:51 06.08.2019
4162 Clouds 14 1017 93 16093 5.1 250 08:28 06.08.2019
4163 Clouds 14 1017 87 16093 4.6 230 07:59 06.08.2019
4164 Clouds 14 1017 87 16093 4.6 230 07:29 06.08.2019
4165 Clouds 14 1017 82 16093 4.1 230 06:44 06.08.2019
4166 Clouds 14 1017 82 16093 4.1 230 06:22 06.08.2019
4167 Clouds 14 1017 82 16093 3.6 250 05:23 06.08.2019
4168 Clouds 15 1016 93 16093 1.13 27.085 02:48 06.08.2019
4169 Clouds 14 1016 100 11265 2.1 20 01:25 06.08.2019
4170 Clouds 14 1016 93 16093 3.1 40 00:51 06.08.2019
4171 Clouds 13 1016 100 16093 3.1 50 23:59 05.08.2019
4172 Clouds 13 1016 100 16093 3.1 50 23:20 05.08.2019
4173 Clouds 13 1016 93 16093 3.6 40 22:42 05.08.2019
4174 Clouds 12 1016 93 16093 3.6 40 22:23 05.08.2019
4175 Rain 12 1016 87 16093 5.1 40 21:59 05.08.2019
4176 Rain 12 1016 87 16093 5.1 40 21:41 05.08.2019
4177 Rain 12 1016 87 16093 5.1 40 21:20 05.08.2019
4178 Rain 12 1016 81 16093 3.1 50 20:57 05.08.2019
4179 Rain 12 1016 81 16093 3.1 50 20:39 05.08.2019
4180 Rain 12 1016 81 16093 3.1 50 20:21 05.08.2019
4181 Clouds 12 1017 76 16093 3.6 40 19:55 05.08.2019
4182 Clouds 12 1017 76 16093 3.6 40 19:55 05.08.2019
4183 Clouds 12 1017 76 16093 3.6 40 19:36 05.08.2019
4184 Clouds 12 1017 76 16093 3.6 40 19:18 05.08.2019
4185 Clouds 12 1017 81 16093 2.6 20 18:40 05.08.2019
4186 Clouds 12 1017 81 16093 2.6 20 18:19 05.08.2019
4187 Clouds 12 1017 81 16093 2.6 10 17:47 05.08.2019
4188 Clouds 12 1017 81 16093 2.6 10 17:29 05.08.2019
4189 Clouds 12 1017 76 16093 3.1 40 16:58 05.08.2019
4190 Clouds 12 1017 76 16093 3.6 30 16:40 05.08.2019
4191 Clouds 12 1017 76 16093 3.6 30 16:22 05.08.2019
4192 Clouds 12 1018 76 16093 4.1 40 15:40 05.08.2019
4193 Clouds 12 1018 76 16093 4.1 40 15:20 05.08.2019
4194 Clouds 11 1018 87 16093 3.1 10 14:40 05.08.2019
4195 Clouds 10 1018 87 16093 3.1 10 14:21 05.08.2019
4196 Clear 9 1018 93 16093 3.6 10 13:48 05.08.2019
4197 Clear 9 1018 93 16093 3.6 10 13:24 05.08.2019
4198 Clouds 9 1019 100 16093 2.86 47.845 12:51 05.08.2019
4199 Clouds 9 1019 100 16093 2.43 25.235 12:22 05.08.2019
4200 Clear 9 1019 100 16093 2.6 10 11:59 05.08.2019
4201 Clear 9 1019 100 16093 2.6 10 11:40 05.08.2019
4202 Clear 9 1019 100 16093 2.6 10 11:22 05.08.2019
4203 Clear 11 1019 87 16093 2.1 20 10:44 05.08.2019
4204 Clear 11 1019 87 16093 2.1 20 10:26 05.08.2019
4205 Clear 12 1019 76 16093 2.43 25.235 09:55 05.08.2019
4206 Clear 13 1019 76 16093 2.43 25.235 09:36 05.08.2019
4207 Clear 13 1019 76 16093 1.29 241.987 09:18 05.08.2019
4208 Clear 13 1019 76 16093 0.56 230.181 08:43 05.08.2019
4209 Clear 13 1019 76 16093 0.56 230.181 08:21 05.08.2019
4210 Clear 13 1020 81 16093 1.5 220 07:47 05.08.2019
4211 Clear 13 1020 81 16093 1.5 220 07:27 05.08.2019
4212 Clouds 13 1020 81 16093 2.1 210 06:51 05.08.2019
4213 Clear 12 1020 76 16093 3.1 230 05:53 05.08.2019
4214 Clear 12 1020 76 16093 3.1 230 05:22 05.08.2019
4215 Clear 13 1021 76 16093 3.1 240 04:32 05.08.2019
4216 Clouds 13 1021 76 16093 3.6 200 03:47 05.08.2019
4217 Clear 13 1021 76 16093 3.6 160 02:37 05.08.2019
4218 Clouds 13 1022 66 16093 4.1 90 01:40 05.08.2019
4219 Clouds 13 1022 66 16093 4.1 90 01:40 05.08.2019
4220 Clouds 13 1022 66 16093 4.1 90 01:40 05.08.2019
4221 Clear 13 1022 66 16093 4.6 90 00:56 05.08.2019
4222 Clear 13 1022 66 16093 4.6 90 00:37 05.08.2019
4223 Clear 13 1022 66 16093 4.6 90 00:18 05.08.2019
4224 Clear 13 1022 66 16093 4.6 120 23:41 04.08.2019
4225 Clear 12 1022 66 16093 4.6 120 23:21 04.08.2019
4226 Clear 12 1022 66 16093 3.1 70 22:57 04.08.2019
4227 Clear 12 1022 66 16093 3.1 70 22:37 04.08.2019
4228 Clear 12 1022 66 16093 3.1 70 22:19 04.08.2019
4229 Clear 11 1022 71 16093 3.1 70 21:45 04.08.2019
4230 Clear 11 1022 71 16093 3.1 70 21:23 04.08.2019
4231 Clear 10 1022 76 16093 3.1 30 20:57 04.08.2019
4232 Clear 10 1022 76 16093 3.1 30 20:38 04.08.2019
4233 Clear 10 1022 76 16093 3.1 30 20:18 04.08.2019
4234 Clear 8 1022 93 16093 3.3 39.139 19:48 04.08.2019
4235 Clear 8 1022 93 16093 3.3 39.139 19:26 04.08.2019
4236 Clear 7 1022 87 16093 3.6 350 18:44 04.08.2019
4237 Clear 7 1022 87 16093 3.6 350 18:22 04.08.2019
4238 Clear 7 1022 87 16093 3.6 350 18:22 04.08.2019
4239 Clear 5 1022 93 16093 4.6 340 17:59 04.08.2019
4240 Clear 5 1022 93 16093 4.6 340 17:40 04.08.2019
4241 Clear 5 1022 93 16093 4.6 340 17:21 04.08.2019
4242 Clear 5 1022 93 16093 2.1 10 16:44 04.08.2019
4243 Clear 5 1022 93 16093 2.1 10 16:26 04.08.2019
4244 Clear 5 1022 93 16093 1.5 360 15:45 04.08.2019
4245 Clear 5 1022 93 16093 1.5 360 15:23 04.08.2019
4246 Clear 4 1022 93 16093 1.5 10 14:57 04.08.2019
4247 Clear 5 1022 93 16093 1.5 10 14:39 04.08.2019
4248 Clear 5 1022 93 16093 1.5 10 14:20 04.08.2019
4249 Clear 6 1021 87 16093 2.1 10 13:43 04.08.2019
4250 Clear 6 1021 87 16093 2.1 10 13:43 04.08.2019
4251 Clear 6 1021 87 16093 2.1 10 13:23 04.08.2019
4252 Clear 7 1021 87 16093 4.01 29.768 12:46 04.08.2019
4253 Clear 7 1021 87 16093 4.01 29.768 12:27 04.08.2019
4254 Clear 7 1021 93 16093 3.6 340 11:57 04.08.2019
4255 Clear 7 1021 93 16093 3.6 340 11:37 04.08.2019
4256 Clear 8 1021 93 16093 3.6 340 11:19 04.08.2019
4257 Clear 8 1021 93 16093 3.6 340 11:19 04.08.2019
4258 Clear 9 1020 93 16093 2.6 340 10:41 04.08.2019
4259 Clear 9 1020 93 16093 2.6 340 10:21 04.08.2019
4260 Clear 9 1020 87 16093 2.6 310 09:45 04.08.2019
4261 Clear 9 1020 87 16093 2.6 310 09:45 04.08.2019
4262 Clear 10 1020 87 16093 2.6 310 09:23 04.08.2019
4263 Clear 11 1020 76 16093 5.7 300 08:53 04.08.2019
4264 Clear 11 1020 76 16093 5.7 300 08:32 04.08.2019
4265 Clouds 11 1020 76 16093 6.2 310 07:53 04.08.2019
4266 Clouds 11 1020 76 16093 6.2 310 07:22 04.08.2019
4267 Clouds 11 1019 76 16093 8.2 300 06:28 04.08.2019
4268 Clouds 11 1018 87 16093 8.7 280 04:43 04.08.2019
4269 Clouds 9 1016 87 16093 10.3 270 02:47 04.08.2019
4270 Clouds 9 1014 87 16093 11.3 260 01:51 04.08.2019
4271 Clouds 10 1014 87 16093 11.3 260 01:27 04.08.2019
4272 Clouds 10 1013 87 16093 12.3 280 00:41 04.08.2019
4273 Rain 10 1013 87 16093 12.3 280 00:22 04.08.2019
4274 Rain 10 1011 87 16093 11.8 270 23:42 03.08.2019
4275 Clouds 10 1011 87 16093 11.8 270 23:19 03.08.2019
4276 Clouds 10 1011 87 16093 11.8 270 23:19 03.08.2019
4277 Clouds 9 1008 87 16093 13.9 260 22:55 03.08.2019
4278 Clouds 10 1008 87 16093 13.9 260 22:37 03.08.2019
4279 Clouds 10 1008 87 16093 13.9 260 22:18 03.08.2019
4280 Clouds 10 1006 87 16093 13.4 260 21:38 03.08.2019
4281 Clouds 10 1006 87 16093 13.4 260 21:19 03.08.2019
4282 Rain 9 1005 100 4828 14.4 250 20:43 03.08.2019
4283 Rain 9 1005 100 4828 14.4 250 20:23 03.08.2019
4284 Clouds 9 1004 100 16093 15.4 240 19:43 03.08.2019
4285 Clouds 9 1004 100 16093 15.4 240 19:43 03.08.2019
4286 Clouds 9 1004 100 16093 15.4 240 19:25 03.08.2019
4287 Rain 9 1002 100 4828 14.9 210 18:56 03.08.2019
4288 Rain 8 1002 100 4828 14.9 210 18:28 03.08.2019
4289 Rain 8 1002 93 6437 14.9 220 17:51 03.08.2019
4290 Rain 8 1002 93 6437 14.9 220 17:23 03.08.2019
4291 Rain 8 1002 93 9656 15.4 210 16:58 03.08.2019
4292 Rain 8 1002 93 9656 15.4 210 16:38 03.08.2019
4293 Rain 8 1002 93 9656 15.4 210 16:19 03.08.2019
4294 Rain 8 1001 93 12874 14.9 220 15:45 03.08.2019
4295 Rain 8 1001 93 12874 14.9 220 15:45 03.08.2019
4296 Rain 8 1001 93 12874 15.4 220 15:24 03.08.2019
4297 Clouds 9 1001 93 11265 14.9 220 14:44 03.08.2019
4298 Clouds 10 1001 93 11265 14.9 220 14:23 03.08.2019
4299 Rain 9 1000 93 14484 15.4 210 13:57 03.08.2019
4300 Rain 10 1000 93 14484 15.4 210 13:36 03.08.2019
4301 Rain 10 1000 93 14484 15.4 210 13:18 03.08.2019
4302 Rain 10 1000 93 8047 13.4 210 12:41 03.08.2019
4303 Rain 10 1000 93 8047 13.4 210 12:23 03.08.2019
4304 Rain 10 999 93 6437 12.9 200 11:52 03.08.2019
4305 Rain 11 1000 93 9656 10.8 210 11:33 03.08.2019
4306 Mist 11 999 100 8047 12.3 200 10:46 03.08.2019
4307 Rain 11 999 100 4828 11.3 200 10:24 03.08.2019
4308 Mist 11 999 100 4828 12.3 200 09:45 03.08.2019
4309 Mist 11 999 100 4828 12.3 200 09:24 03.08.2019
4310 Rain 11 998 100 6437 13.9 200 08:56 03.08.2019
4311 Rain 11 998 100 4023 12.3 200 08:21 03.08.2019
4312 Rain 12 998 100 3219 9.3 190 07:37 03.08.2019
4313 Rain 12 998 100 3219 9.3 180 06:40 03.08.2019
4314 Rain 12 999 100 4023 6.7 170 05:44 03.08.2019
4315 Rain 12 1000 100 4828 12.9 210 02:43 03.08.2019
4316 Rain 12 999 100 4828 11.8 200 01:54 03.08.2019
4317 Rain 12 999 100 4828 11.8 200 00:56 03.08.2019
4318 Rain 12 999 100 4828 11.8 200 00:29 03.08.2019
4319 Rain 12 999 100 3219 10.8 200 23:41 02.08.2019
4320 Rain 12 999 100 3219 10.8 200 23:20 02.08.2019
4321 Rain 12 999 100 3219 11.3 200 22:57 02.08.2019
4322 Rain 12 999 100 3219 11.3 200 22:57 02.08.2019
4323 Rain 12 999 100 2816 12.3 200 22:39 02.08.2019
4324 Rain 12 999 100 2816 12.3 200 22:20 02.08.2019
4325 Rain 12 998 100 2414 11.3 200 21:55 02.08.2019
4326 Rain 12 999 100 3219 10.8 200 21:36 02.08.2019
4327 Rain 12 999 100 3219 10.8 200 21:18 02.08.2019
4328 Rain 12 999 100 3219 6.7 180 20:41 02.08.2019
4329 Rain 12 999 100 3219 6.7 180 20:21 02.08.2019
4330 Rain 12 1000 100 4828 6.7 200 19:49 02.08.2019
4331 Rain 12 1000 100 4828 6.7 200 19:29 02.08.2019
4332 Rain 12 1000 100 4828 9.3 210 18:45 02.08.2019
4333 Rain 12 1000 100 4828 9.3 210 18:27 02.08.2019
4334 Rain 12 1000 100 12874 9.3 210 17:48 02.08.2019
4335 Rain 12 1000 100 12874 9.3 210 17:26 02.08.2019
4336 Rain 12 1000 100 9656 9.3 210 16:59 02.08.2019
4337 Rain 12 1000 100 6437 7.2 160 16:39 02.08.2019
4338 Rain 12 1000 100 6437 7.2 160 16:20 02.08.2019
4339 Rain 12 1000 100 4828 7.2 170 15:45 02.08.2019
4340 Rain 12 1000 100 4828 7.2 170 15:20 02.08.2019
4341 Rain 12 1002 100 4828 9.8 100 14:47 02.08.2019
4342 Rain 11 1002 100 6437 10.3 90 14:19 02.08.2019
4343 Rain 11 1005 100 8047 8.7 90 13:50 02.08.2019
4344 Rain 11 1005 100 8047 8.7 90 13:29 02.08.2019
4345 Rain 10 1005 100 8047 9.3 100 12:47 02.08.2019
4346 Rain 10 1006 100 8047 7.2 90 12:25 02.08.2019
4347 Rain 10 1008 100 9656 6.7 100 11:59 02.08.2019
4348 Rain 10 1008 100 9656 6.7 100 11:40 02.08.2019
4349 Rain 10 1008 100 9656 6.7 100 11:22 02.08.2019
4350 Rain 10 1010 93 12874 5.7 110 10:44 02.08.2019
4351 Rain 9 1010 93 12874 5.7 110 10:24 02.08.2019
4352 Rain 10 1011 93 9656 6.7 130 09:53 02.08.2019
4353 Rain 11 1012 87 9656 6.7 120 09:29 02.08.2019
4354 Rain 11 1012 81 16093 5.1 110 08:54 02.08.2019
4355 Rain 11 1012 81 16093 5.1 110 08:25 02.08.2019
4356 Clouds 12 1013 81 16093 5.1 100 07:54 02.08.2019
4357 Clouds 12 1013 81 16093 5.1 100 07:35 02.08.2019
4358 Clouds 11 1013 81 16093 5.1 110 06:58 02.08.2019
4359 Clouds 11 1014 76 16093 4.1 120 06:27 02.08.2019
4360 Clouds 11 1015 76 16093 4.6 140 05:41 02.08.2019
4361 Clouds 11 1016 71 16093 4.6 160 03:32 02.08.2019
4362 Clouds 11 1016 71 16093 5.1 170 02:37 02.08.2019
4363 Clouds 11 1016 76 16093 4.1 160 01:34 02.08.2019
4364 Clear 11 1016 76 16093 4.1 150 00:31 02.08.2019
4365 Clouds 11 1017 81 16093 3.6 170 23:44 01.08.2019
4366 Clouds 11 1017 81 16093 3.6 170 23:24 01.08.2019
4367 Clouds 10 1016 76 16093 2.6 160 22:42 01.08.2019
4368 Clouds 11 1016 76 16093 2.6 160 22:22 01.08.2019
4369 Clear 10 1016 81 16093 1.5 170 21:55 01.08.2019
4370 Clear 10 1016 81 16093 1.5 170 21:37 01.08.2019
4371 Clear 10 1016 81 16093 1.5 170 21:19 01.08.2019
4372 Clear 9 1016 81 16093 1.08 98.612 20:44 01.08.2019
4373 Clear 9 1016 81 16093 1.08 98.612 20:23 01.08.2019
4374 Clear 7 1016 87 16093 1.08 98.612 19:45 01.08.2019
4375 Clear 6 1016 87 16093 1.08 98.612 19:23 01.08.2019
4376 Clear 5 1016 93 16093 1.08 98.612 18:59 01.08.2019
4377 Clear 5 1016 93 16093 1.08 98.612 18:40 01.08.2019
4378 Clear 5 1016 93 16093 1.42 10.907 18:22 01.08.2019
4379 Clear 3 1015 100 16093 1.5 350 17:46 01.08.2019
4380 Clear 3 1015 100 16093 1.5 350 17:26 01.08.2019
4381 Clear 3 1015 100 16093 2.1 360 16:44 01.08.2019
4382 Clear 3 1015 100 16093 2.1 360 16:22 01.08.2019
4383 Clear 3 1015 100 16093 1.42 10.907 15:46 01.08.2019
4384 Clear 3 1015 100 16093 2.64 304.321 15:21 01.08.2019
4385 Clear 4 1014 100 16093 2.64 304.321 14:58 01.08.2019
4386 Clear 4 1014 100 16093 2.64 304.321 14:40 01.08.2019
4387 Clear 4 1014 100 16093 2.64 304.321 14:18 01.08.2019
4388 Clear 5 1013 93 16093 2.64 304.321 13:41 01.08.2019
4389 Clear 5 1013 93 16093 1.86 322.074 13:22 01.08.2019
4390 Clear 6 1013 87 16093 3.1 280 12:59 01.08.2019
4391 Clear 6 1013 87 16093 3.1 280 12:59 01.08.2019
4392 Clear 7 1013 87 16093 3.1 280 12:41 01.08.2019
4393 Clear 7 1013 87 16093 3.1 280 12:21 01.08.2019
4394 Clear 7 1012 81 16093 1.5 310 11:42 01.08.2019
4395 Clear 7 1012 81 16093 1.5 310 11:22 01.08.2019
4396 Clear 7 1012 81 16093 1.5 310 11:22 01.08.2019
4397 Clear 8 1011 81 16093 6.2 280 10:46 01.08.2019
4398 Clear 8 1011 81 16093 6.2 280 10:28 01.08.2019
4399 Clear 9 1010 81 16093 4.6 300 09:59 01.08.2019
4400 Clear 9 1010 81 16093 4.6 300 09:39 01.08.2019
4401 Clear 9 1010 81 16093 4.6 300 09:21 01.08.2019
4402 Clear 11 1009 71 16093 6.7 290 08:42 01.08.2019
4403 Clear 11 1009 71 16093 6.7 290 08:19 01.08.2019
4404 Clear 11 1009 71 16093 7.7 280 07:47 01.08.2019
4405 Clear 11 1009 71 16093 7.7 280 07:24 01.08.2019
4406 Clear 12 1008 66 16093 8.7 290 06:47 01.08.2019
4407 Clouds 13 1008 66 16093 8.2 290 05:48 01.08.2019
4408 Clouds 12 1007 81 16093 8.7 260 04:18 01.08.2019
4409 Clear 13 1005 82 16093 9.8 260 02:32 01.08.2019
4410 Clouds 13 1004 93 16093 7.2 280 00:42 01.08.2019
4411 Clouds 13 1004 93 16093 7.2 280 00:24 01.08.2019
4412 Clouds 12 1004 100 16093 8.7 270 23:42 31.07.2019
4413 Clouds 12 1004 100 16093 8.7 270 23:20 31.07.2019
4414 Rain 12 1003 100 3219 6.2 250 22:47 31.07.2019
4415 Rain 11 1003 100 3219 6.2 250 22:29 31.07.2019
4416 Rain 11 1003 100 4023 6.2 240 21:45 31.07.2019
4417 Rain 11 1003 100 16093 7.2 250 21:25 31.07.2019
4418 Rain 11 1003 100 12874 7.7 230 20:58 31.07.2019
4419 Rain 11 1003 100 12874 7.7 230 20:58 31.07.2019
4420 Rain 11 1003 100 12874 7.7 230 20:39 31.07.2019
4421 Rain 11 1003 100 12874 7.7 230 20:21 31.07.2019
4422 Rain 11 1003 100 4828 7.7 230 19:41 31.07.2019
4423 Rain 11 1003 100 4828 7.7 230 19:23 31.07.2019
4424 Rain 11 1003 100 3219 7.7 220 18:53 31.07.2019
4425 Rain 11 1003 100 3219 7.7 220 18:25 31.07.2019
4426 Rain 11 1004 100 4023 7.7 220 17:57 31.07.2019
4427 Rain 11 1004 100 4023 7.7 220 17:39 31.07.2019
4428 Rain 11 1004 100 4023 7.7 220 17:19 31.07.2019
4429 Rain 11 1004 100 4828 6.7 210 16:43 31.07.2019
4430 Rain 11 1005 100 4828 6.7 210 16:20 31.07.2019
4431 Rain 11 1005 100 4828 6.7 210 15:44 31.07.2019
4432 Rain 11 1005 100 3219 6.2 210 15:24 31.07.2019
4433 Rain 11 1005 100 4023 6.7 200 14:43 31.07.2019
4434 Rain 11 1006 100 6437 5.7 200 14:22 31.07.2019
4435 Rain 11 1006 100 4828 6.2 200 13:58 31.07.2019
4436 Rain 11 1006 100 4023 6.2 210 13:38 31.07.2019
4437 Rain 11 1006 100 4023 6.2 210 13:20 31.07.2019
4438 Rain 11 1006 100 4828 6.2 210 12:45 31.07.2019
4439 Rain 11 1006 100 4023 6.2 200 12:27 31.07.2019
4440 Rain 11 1007 100 4828 6.7 200 11:59 31.07.2019
4441 Rain 11 1007 100 4828 6.7 200 11:38 31.07.2019
4442 Rain 11 1007 100 4828 6.7 200 11:19 31.07.2019
4443 Rain 11 1007 100 6437 6.2 210 10:41 31.07.2019
4444 Rain 11 1007 100 6437 6.2 210 10:20 31.07.2019
4445 Rain 11 1007 100 3219 6.2 200 09:44 31.07.2019
4446 Rain 11 1008 100 6437 6.7 200 09:24 31.07.2019
4447 Rain 11 1008 100 4828 6.7 200 08:57 31.07.2019
4448 Rain 11 1008 100 6437 6.2 200 08:39 31.07.2019
4449 Rain 11 1008 100 6437 6.2 200 08:20 31.07.2019
4450 Rain 11 1008 100 4023 6.2 200 07:34 31.07.2019
4451 Rain 11 1009 100 6437 7.2 200 06:32 31.07.2019
4452 Rain 11 1009 93 9656 7.7 200 04:52 31.07.2019
4453 Clouds 11 1011 93 16093 5.7 180 01:48 31.07.2019
4454 Rain 10 1011 93 16093 5.1 180 23:58 30.07.2019
4455 Rain 11 1011 93 16093 5.1 180 23:39 30.07.2019
4456 Rain 11 1011 93 16093 5.1 180 23:19 30.07.2019
4457 Rain 10 1012 100 2816 5.7 180 22:45 30.07.2019
4458 Rain 10 1012 100 2816 5.7 180 22:25 30.07.2019
4459 Rain 9 1012 93 3219 5.1 170 21:54 30.07.2019
4460 Rain 10 1012 93 3219 5.1 170 21:36 30.07.2019
4461 Rain 9 1012 93 3219 5.1 170 21:18 30.07.2019
4462 Rain 10 1012 93 2816 4.6 190 20:41 30.07.2019
4463 Rain 10 1012 93 2816 4.6 190 20:23 30.07.2019
4464 Clouds 9 1012 93 16093 5.7 210 19:58 30.07.2019
4465 Clouds 10 1012 93 16093 5.7 210 19:38 30.07.2019
4466 Clouds 9 1013 87 16093 4.1 200 18:56 30.07.2019
4467 Clouds 10 1013 87 16093 4.1 200 18:38 30.07.2019
4468 Clouds 10 1013 87 16093 4.1 200 18:18 30.07.2019
4469 Clouds 10 1013 81 16093 5.1 190 17:41 30.07.2019
4470 Clouds 10 1013 81 16093 5.1 190 17:19 30.07.2019
4471 Clouds 10 1013 87 16093 4.6 190 16:51 30.07.2019
4472 Clouds 10 1013 87 16093 4.6 190 16:21 30.07.2019
4473 Clouds 10 1013 81 16093 5.1 210 15:56 30.07.2019
4474 Clouds 10 1013 81 16093 5.1 210 15:37 30.07.2019
4475 Clouds 10 1013 81 16093 5.1 210 15:18 30.07.2019
4476 Clouds 10 1013 81 16093 5.7 210 14:41 30.07.2019
4477 Clouds 10 1013 81 16093 5.7 210 14:19 30.07.2019
4478 Clouds 10 1014 81 16093 7.2 220 13:46 30.07.2019
4479 Clouds 10 1014 81 16093 7.2 220 13:28 30.07.2019
4480 Clouds 10 1014 81 14484 4.6 210 12:58 30.07.2019
4481 Clouds 11 1014 81 14484 4.6 210 12:39 30.07.2019
4482 Clouds 11 1014 81 14484 4.6 210 12:21 30.07.2019
4483 Clouds 11 1014 81 14484 6.2 220 11:40 30.07.2019
4484 Clouds 10 1014 81 14484 6.2 220 11:20 30.07.2019
4485 Clouds 11 1014 81 16093 4.6 210 10:46 30.07.2019
4486 Clouds 11 1014 81 16093 4.6 210 10:27 30.07.2019
4487 Clouds 11 1014 87 16093 4.6 200 09:50 30.07.2019
4488 Clouds 11 1014 87 16093 4.6 200 09:31 30.07.2019
4489 Clouds 11 1014 87 16093 4.6 200 08:58 30.07.2019
4490 Clouds 11 1014 93 16093 3.6 220 08:31 30.07.2019
4491 Mist 10 1014 100 8047 4.6 220 07:48 30.07.2019
4492 Mist 10 1014 100 8047 4.6 220 07:29 30.07.2019
4493 Clouds 10 1014 93 12874 4.1 230 06:48 30.07.2019
4494 Clouds 10 1014 93 16093 3.6 210 06:22 30.07.2019
4495 Mist 10 1014 100 8047 4.1 220 05:33 30.07.2019
4496 Clouds 11 1015 87 16093 6.7 200 03:28 30.07.2019
4497 Clouds 11 1015 81 16093 4.6 190 01:20 30.07.2019
4498 Clouds 11 1015 81 16093 5.1 210 00:21 30.07.2019
4499 Clouds 12 1015 81 16093 5.7 180 23:46 29.07.2019
4500 Clouds 12 1015 81 16093 5.7 180 23:27 29.07.2019
4501 Clouds 11 1015 81 16093 5.7 200 22:57 29.07.2019
4502 Clouds 11 1015 81 16093 5.7 200 22:39 29.07.2019
4503 Clouds 11 1015 81 16093 5.7 200 22:20 29.07.2019
4504 Clouds 11 1015 87 16093 6.7 220 21:58 29.07.2019
4505 Clouds 11 1015 87 16093 6.7 220 21:38 29.07.2019
4506 Clouds 11 1015 87 16093 6.7 220 21:20 29.07.2019
4507 Clouds 11 1015 87 16093 3.1 120 20:49 29.07.2019
4508 Clouds 11 1015 87 16093 3.6 90 20:26 29.07.2019
4509 Clouds 10 1015 93 16093 2.6 100 19:59 29.07.2019
4510 Clouds 10 1015 93 16093 2.6 100 19:41 29.07.2019
4511 Clouds 10 1015 93 16093 2.6 100 19:20 29.07.2019
4512 Clouds 10 1015 93 16093 3.1 80 18:43 29.07.2019
4513 Clouds 10 1015 93 16093 3.1 80 18:23 29.07.2019
4514 Clouds 9 1016 93 16093 2.6 80 17:56 29.07.2019
4515 Clouds 10 1016 93 16093 2.6 80 17:37 29.07.2019
4516 Clouds 10 1016 93 16093 2.6 80 17:19 29.07.2019
4517 Clear 9 1015 100 16093 2.1 80 16:42 29.07.2019
4518 Clear 9 1015 100 16093 2.1 80 16:23 29.07.2019
4519 Clouds 9 1016 93 16093 1.5 90 15:53 29.07.2019
4520 Clouds 9 1016 93 16093 1.5 90 15:34 29.07.2019
4521 Clouds 9 1016 93 16093 1.5 100 14:56 29.07.2019
4522 Clouds 9 1016 93 16093 1.5 100 14:56 29.07.2019
4523 Clouds 10 1016 93 16093 1.5 100 14:37 29.07.2019
4524 Clouds 10 1016 93 16093 1.5 100 14:19 29.07.2019
4525 Clouds 10 1016 93 16093 1.66 230.216 13:42 29.07.2019
4526 Clouds 10 1016 93 16093 2.15 200.862 13:23 29.07.2019
4527 Clear 11 1016 81 16093 1.5 200 12:42 29.07.2019
4528 Clear 11 1016 81 16093 1.5 200 12:24 29.07.2019
4529 Clear 11 1016 93 16093 2.2 233.655 11:44 29.07.2019
4530 Clear 11 1016 93 16093 2.2 233.655 11:22 29.07.2019
4531 Clear 11 1015 81 16093 2.1 240 10:47 29.07.2019
4532 Clear 11 1015 81 16093 2.1 240 10:25 29.07.2019
4533 Clear 11 1015 81 16093 3.6 250 09:51 29.07.2019
4534 Clear 11 1015 81 16093 3.6 250 09:30 29.07.2019
4535 Clear 12 1015 76 16093 3.6 250 08:57 29.07.2019
4536 Clear 12 1015 76 16093 3.6 250 08:32 29.07.2019
4537 Clear 13 1015 76 16093 4.1 250 07:59 29.07.2019
4538 Clear 13 1015 76 16093 4.1 250 07:36 29.07.2019
4539 Clear 13 1015 71 16093 5.1 250 06:53 29.07.2019
4540 Clear 13 1015 76 16093 4.6 240 05:46 29.07.2019
4541 Clear 13 1015 82 16093 4.6 250 04:53 29.07.2019
4542 Clear 13 1015 82 16093 4.6 240 02:26 29.07.2019
4543 Clear 14 1015 67 16093 5.7 230 01:43 29.07.2019
4544 Clear 14 1015 67 16093 5.7 230 01:22 29.07.2019
4545 Clear 13 1015 71 16093 4.6 230 00:43 29.07.2019
4546 Clear 13 1015 71 16093 4.6 230 00:20 29.07.2019
4547 Clear 13 1015 71 16093 3.6 210 23:41 28.07.2019
4548 Clear 13 1015 71 16093 3.6 210 23:18 28.07.2019
4549 Clear 13 1014 76 16093 3.6 200 22:40 28.07.2019
4550 Clear 13 1014 76 16093 3.6 200 22:22 28.07.2019
4551 Clear 12 1014 76 16093 3.2 246.757 21:48 28.07.2019
4552 Clear 12 1014 76 16093 0.92 296.983 21:19 28.07.2019
4553 Clear 12 1014 81 16093 0.78 289.579 20:48 28.07.2019
4554 Clear 12 1014 81 16093 0.78 289.579 20:29 28.07.2019
4555 Clear 10 1014 87 16093 0.78 289.579 19:54 28.07.2019
4556 Clear 10 1014 87 16093 0.78 289.579 19:36 28.07.2019
4557 Clear 10 1014 87 16093 0.78 289.579 19:36 28.07.2019
4558 Clear 10 1014 87 16093 0.78 289.579 19:18 28.07.2019
4559 Clear 8 1014 93 16093 0.78 289.579 18:42 28.07.2019
4560 Clear 7 1014 93 16093 1.26 350.695 18:19 28.07.2019
4561 Clear 6 1013 93 16093 1.26 350.695 17:43 28.07.2019
4562 Clear 7 1013 93 16093 1.26 350.695 17:22 28.07.2019
4563 Clouds 6 1013 100 16093 1.26 350.695 16:58 28.07.2019
4564 Clouds 6 1013 100 16093 1.26 350.695 16:39 28.07.2019
4565 Clouds 6 1013 100 16093 1.26 350.695 16:21 28.07.2019
4566 Clouds 7 1013 93 16093 1.5 350 15:43 28.07.2019
4567 Clouds 7 1013 93 16093 1.5 350 15:21 28.07.2019
4568 Clouds 7 1013 100 16093 1.65 350.206 14:38 28.07.2019
4569 Clouds 6 1013 100 16093 1.65 350.206 14:19 28.07.2019
4570 Clear 7 1013 100 16093 2.1 360 13:45 28.07.2019
4571 Clear 7 1013 100 16093 2.1 360 13:25 28.07.2019
4572 Clouds 7 1012 100 16093 2.1 10 12:59 28.07.2019
4573 Clouds 8 1012 100 16093 2.1 10 12:40 28.07.2019
4574 Clouds 8 1012 100 16093 2.1 10 12:22 28.07.2019
4575 Clouds 9 1012 93 16093 1.5 10 11:48 28.07.2019
4576 Clouds 10 1012 93 16093 1.5 10 11:27 28.07.2019
4577 Clouds 12 1012 76 16093 0.75 308.684 10:42 28.07.2019
4578 Clouds 12 1012 76 16093 0.75 308.684 10:22 28.07.2019
4579 Clouds 12 1011 71 16093 0.75 308.684 09:54 28.07.2019
4580 Clouds 12 1011 71 16093 0.75 308.684 09:36 28.07.2019
4581 Clouds 12 1011 71 16093 2.14 200.243 09:18 28.07.2019
4582 Clouds 12 1011 76 16093 2.1 200 08:41 28.07.2019
4583 Clouds 12 1011 76 16093 2.1 200 08:18 28.07.2019
4584 Clouds 13 1011 66 16093 2.6 190 07:38 28.07.2019
4585 Clear 13 1011 71 16093 2.6 150 06:46 28.07.2019
4586 Clear 13 1011 71 16093 3.6 160 05:59 28.07.2019
4587 Clear 13 1011 66 16093 4.6 150 04:37 28.07.2019
4588 Clouds 13 1011 71 16093 5.1 150 02:24 28.07.2019
4589 Clouds 13 1010 66 16093 5.7 140 01:21 28.07.2019
4590 Clouds 13 1010 71 16093 4.6 140 00:47 28.07.2019
4591 Clouds 13 1010 71 16093 4.6 140 00:22 28.07.2019
4592 Clouds 13 1010 71 16093 4.6 140 23:46 27.07.2019
4593 Clouds 12 1010 76 16093 2.6 110 23:22 27.07.2019
4594 Clouds 12 1009 76 16093 3.6 150 22:42 27.07.2019
4595 Clouds 12 1009 76 16093 3.6 150 22:23 27.07.2019
4596 Clouds 12 1009 76 16093 3.6 130 21:43 27.07.2019
4597 Clouds 12 1009 76 16093 3.6 130 21:22 27.07.2019
4598 Clouds 12 1009 81 16093 2.6 120 20:53 27.07.2019
4599 Clouds 11 1009 81 16093 2.6 120 20:26 27.07.2019
4600 Clouds 11 1009 87 16093 3.1 90 19:58 27.07.2019
4601 Clouds 11 1009 87 16093 3.1 90 19:38 27.07.2019
4602 Clouds 11 1009 87 16093 3.1 90 19:19 27.07.2019
4603 Clouds 10 1008 93 16093 2.6 100 18:46 27.07.2019
4604 Clouds 10 1008 93 16093 3.1 90 18:27 27.07.2019
4605 Clouds 10 1008 100 16093 2.1 100 17:49 27.07.2019
4606 Clouds 10 1008 100 16093 2.1 100 17:31 27.07.2019
4607 Clouds 10 1008 93 16093 3.1 80 16:53 27.07.2019
4608 Clouds 9 1008 93 16093 3.1 80 16:34 27.07.2019
4609 Clouds 11 1007 81 16093 2.1 220 15:56 27.07.2019
4610 Clouds 11 1007 81 16093 2.1 220 15:28 27.07.2019
4611 Clouds 11 1007 87 16093 2.1 190 14:59 27.07.2019
4612 Clouds 11 1007 87 16093 2.1 200 14:41 27.07.2019
4613 Clouds 11 1007 87 16093 2.1 200 14:21 27.07.2019
4614 Clouds 11 1007 87 16093 2.1 200 13:46 27.07.2019
4615 Clouds 10 1007 93 16093 1.5 110 13:22 27.07.2019
4616 Clouds 11 1006 81 16093 1.5 190 12:49 27.07.2019
4617 Clouds 11 1006 81 16093 1.5 190 12:26 27.07.2019
4618 Clouds 11 1006 87 16093 1.5 210 11:46 27.07.2019
4619 Clouds 11 1006 87 16093 1.5 210 11:25 27.07.2019
4620 Clouds 11 1006 87 16093 2.1 210 10:57 27.07.2019
4621 Clouds 11 1006 87 16093 2.1 210 10:39 27.07.2019
4622 Clouds 11 1006 87 16093 2.1 210 10:19 27.07.2019
4623 Clouds 11 1005 81 16093 3.1 210 09:40 27.07.2019
4624 Clouds 11 1005 81 16093 3.1 210 09:22 27.07.2019
4625 Clouds 11 1005 81 16093 3.1 200 08:47 27.07.2019
4626 Clouds 11 1005 81 16093 3.1 200 08:27 27.07.2019
4627 Clouds 11 1005 81 16093 4.1 210 07:47 27.07.2019
4628 Clouds 11 1005 81 16093 3.6 200 07:27 27.07.2019
4629 Clouds 11 1005 81 16093 3.6 200 06:55 27.07.2019
4630 Clouds 11 1004 81 16093 4.6 210 06:29 27.07.2019
4631 Clouds 11 1004 81 16093 5.7 210 05:49 27.07.2019
4632 Clouds 11 1004 76 16093 6.2 200 04:59 27.07.2019
4633 Clouds 11 1004 76 16093 6.2 200 04:25 27.07.2019
4634 Clouds 11 1003 81 16093 5.7 200 02:44 27.07.2019
4635 Clouds 11 1003 87 16093 5.7 210 02:26 27.07.2019
4636 Clouds 11 1003 87 16093 5.7 210 01:43 27.07.2019
4637 Clouds 11 1002 87 16093 6.2 200 00:58 27.07.2019
4638 Clouds 11 1002 87 16093 6.2 200 00:32 27.07.2019
4639 Clouds 11 1002 87 16093 6.2 200 23:53 26.07.2019
4640 Clouds 11 1002 87 16093 6.2 200 23:32 26.07.2019
4641 Clouds 11 1001 81 16093 6.7 200 22:56 26.07.2019
4642 Clouds 11 1001 81 16093 6.7 200 22:38 26.07.2019
4643 Clouds 11 1001 81 16093 6.7 200 22:20 26.07.2019
4644 Clouds 11 1001 87 16093 7.2 210 21:44 26.07.2019
4645 Clouds 11 1001 87 16093 7.2 210 21:44 26.07.2019
4646 Clouds 11 1001 87 16093 7.2 210 21:18 26.07.2019
4647 Clouds 11 1000 87 16093 5.7 200 20:42 26.07.2019
4648 Clouds 11 1000 87 16093 5.7 200 20:42 26.07.2019
4649 Clouds 10 1000 87 16093 5.7 200 20:22 26.07.2019
4650 Clouds 10 1000 87 16093 7.2 210 19:43 26.07.2019
4651 Clouds 10 1000 87 16093 7.2 210 19:24 26.07.2019
4652 Clouds 10 1000 93 16093 5.7 200 18:56 26.07.2019
4653 Clouds 10 999 87 16093 6.2 200 18:36 26.07.2019
4654 Clouds 10 999 87 16093 6.2 200 18:18 26.07.2019
4655 Clouds 10 999 87 16093 5.1 170 17:42 26.07.2019
4656 Clouds 10 999 87 16093 5.1 170 17:19 26.07.2019
4657 Clouds 10 998 87 16093 5.7 180 16:56 26.07.2019
4658 Clouds 10 998 87 16093 5.7 180 16:56 26.07.2019
4659 Clouds 10 998 87 16093 5.7 180 16:37 26.07.2019
4660 Clouds 10 998 87 16093 5.7 180 16:19 26.07.2019
4661 Clouds 10 998 87 16093 6.2 190 15:45 26.07.2019
4662 Clouds 10 998 87 16093 6.2 190 15:23 26.07.2019
4663 Clouds 10 998 87 16093 7.2 180 14:58 26.07.2019
4664 Clouds 10 998 93 16093 7.2 180 14:40 26.07.2019
4665 Clouds 10 998 93 16093 7.2 180 14:21 26.07.2019
4666 Clouds 10 997 81 16093 7.2 170 13:40 26.07.2019
4667 Clouds 11 997 81 16093 7.2 170 13:21 26.07.2019
4668 Clouds 11 997 81 16093 5.7 160 12:45 26.07.2019
4669 Clouds 11 997 81 16093 5.7 160 12:20 26.07.2019
4670 Clouds 11 997 87 16093 7.7 140 11:40 26.07.2019
4671 Clouds 11 997 87 16093 7.7 140 11:20 26.07.2019
4672 Clouds 11 996 81 16093 5.7 140 10:55 26.07.2019
4673 Clouds 11 996 81 16093 5.7 140 10:36 26.07.2019
4674 Rain 11 996 76 16093 4.6 160 09:55 26.07.2019
4675 Rain 11 996 76 16093 4.6 160 09:36 26.07.2019
4676 Clouds 11 996 81 16093 6.2 160 08:44 26.07.2019
4677 Clouds 11 996 81 16093 6.2 160 08:22 26.07.2019
4678 Rain 11 996 93 16093 7.2 150 07:59 26.07.2019
4679 Rain 11 996 93 16093 7.2 150 07:29 26.07.2019
4680 Rain 11 996 93 9656 7.2 140 06:53 26.07.2019
4681 Rain 11 997 93 16093 4.6 130 05:23 26.07.2019
4682 Rain 10 997 100 4828 3.1 110 04:22 26.07.2019
4683 Rain 10 997 100 6437 3.1 120 03:18 26.07.2019
4684 Rain 11 998 87 16093 3.6 140 01:43 26.07.2019
4685 Rain 10 998 87 11265 2.6 170 00:45 26.07.2019
4686 Rain 11 998 87 16093 5.7 170 23:57 25.07.2019
4687 Rain 11 998 87 16093 5.7 170 23:24 25.07.2019
4688 Rain 11 998 87 16093 7.7 180 22:58 25.07.2019
4689 Rain 11 998 87 16093 7.7 180 22:39 25.07.2019
4690 Rain 11 998 87 16093 7.7 180 22:20 25.07.2019
4691 Rain 11 998 87 16093 7.7 170 21:44 25.07.2019
4692 Rain 11 998 87 16093 7.2 170 21:21 25.07.2019
4693 Rain 11 998 87 16093 7.2 170 21:21 25.07.2019
4694 Rain 11 997 93 4828 12.9 150 20:48 25.07.2019
4695 Rain 12 997 93 4828 12.9 150 20:23 25.07.2019
4696 Rain 12 997 100 6437 8.2 130 19:44 25.07.2019
4697 Rain 12 997 100 6437 8.2 130 19:44 25.07.2019
4698 Rain 11 998 93 12874 9.8 140 19:26 25.07.2019
4699 Rain 11 998 100 4828 11.8 150 18:58 25.07.2019
4700 Rain 11 998 100 4828 11.8 150 18:39 25.07.2019
4701 Rain 11 998 100 4828 11.8 150 18:20 25.07.2019
4702 Rain 12 998 93 9656 10.8 140 17:44 25.07.2019
4703 Rain 12 998 93 9656 10.8 140 17:24 25.07.2019
4704 Rain 12 998 100 4023 8.7 150 16:45 25.07.2019
4705 Rain 12 999 100 11265 9.8 150 16:26 25.07.2019
4706 Rain 12 999 100 9656 10.3 150 15:56 25.07.2019
4707 Rain 12 999 93 11265 10.3 140 15:21 25.07.2019
4708 Rain 12 1000 93 14484 9.3 140 14:59 25.07.2019
4709 Rain 12 1000 93 14484 9.3 140 14:40 25.07.2019
4710 Rain 12 1000 93 14484 9.3 140 14:21 25.07.2019
4711 Rain 12 1000 93 9656 9.3 140 13:43 25.07.2019
4712 Rain 12 1001 100 16093 8.2 120 13:25 25.07.2019
4713 Rain 11 1002 100 9656 4.1 90 12:39 25.07.2019
4714 Rain 11 1002 100 9656 4.1 90 12:21 25.07.2019
4715 Rain 11 1003 100 12874 2.6 90 11:42 25.07.2019
4716 Rain 11 1003 100 12874 2.6 90 11:23 25.07.2019
4717 Rain 11 1004 100 11265 3.1 110 10:45 25.07.2019
4718 Rain 11 1004 100 11265 3.1 110 10:26 25.07.2019
4719 Rain 11 1004 100 8047 4.1 120 09:52 25.07.2019
4720 Rain 11 1004 100 8047 4.6 130 09:34 25.07.2019
4721 Rain 12 1004 93 16093 5.1 120 08:53 25.07.2019
4722 Rain 12 1004 93 16093 5.1 120 08:33 25.07.2019
4723 Rain 12 1005 100 4023 3.6 150 07:42 25.07.2019
4724 Rain 12 1005 100 4023 3.6 150 07:24 25.07.2019
4725 Clouds 12 1005 87 16093 5.7 130 06:40 25.07.2019
4726 Clouds 12 1005 81 16093 5.1 150 05:37 25.07.2019
4727 Clouds 12 1006 81 16093 5.1 130 04:55 25.07.2019
4728 Clouds 12 1006 81 16093 5.1 170 03:32 25.07.2019
4729 Clouds 12 1006 76 16093 5.1 190 01:27 25.07.2019
4730 Clouds 12 1006 81 16093 6.2 190 00:37 25.07.2019
4731 Clouds 12 1006 81 16093 6.2 190 00:18 25.07.2019
4732 Clouds 12 1006 81 16093 4.6 180 23:43 24.07.2019
4733 Clouds 12 1006 81 16093 4.1 190 23:24 24.07.2019
4734 Rain 12 1006 100 16093 5.1 160 22:45 24.07.2019
4735 Rain 12 1006 100 16093 5.1 160 22:23 24.07.2019
4736 Rain 12 1006 100 4828 6.2 150 21:56 24.07.2019
4737 Rain 11 1006 100 2816 6.2 150 21:38 24.07.2019
4738 Rain 11 1006 100 2816 6.2 150 21:19 24.07.2019
4739 Clouds 12 1006 81 16093 4.1 130 20:47 24.07.2019
4740 Clouds 12 1006 81 16093 4.1 130 20:29 24.07.2019
4741 Clouds 12 1007 81 16093 3.1 150 19:59 24.07.2019
4742 Clouds 12 1007 81 16093 3.1 150 19:59 24.07.2019
4743 Clouds 12 1007 81 16093 3.1 150 19:40 24.07.2019
4744 Clouds 12 1007 81 16093 3.1 150 19:20 24.07.2019
4745 Clouds 12 1007 81 16093 3.6 160 18:43 24.07.2019
4746 Clouds 12 1007 81 16093 3.6 160 18:24 24.07.2019
4747 Clouds 12 1007 81 16093 3.6 160 18:24 24.07.2019
4748 Clouds 12 1007 100 16093 2.6 160 17:48 24.07.2019
4749 Clouds 12 1007 100 16093 2.6 160 17:23 24.07.2019
4750 Clouds 11 1007 100 16093 5.1 110 16:59 24.07.2019
4751 Clouds 11 1007 93 16093 5.7 90 16:39 24.07.2019
4752 Clouds 11 1007 93 16093 5.7 90 16:20 24.07.2019
4753 Clouds 11 1007 93 16093 3.1 80 15:38 24.07.2019
4754 Clouds 11 1007 93 16093 3.1 80 15:19 24.07.2019
4755 Rain 11 1008 93 14484 2.6 90 14:46 24.07.2019
4756 Rain 11 1008 93 16093 2.6 80 14:21 24.07.2019
4757 Clouds 11 1008 93 16093 2.6 90 13:40 24.07.2019
4758 Clouds 11 1008 93 16093 2.6 90 13:22 24.07.2019
4759 Clouds 11 1009 93 16093 2.6 80 12:53 24.07.2019
4760 Clouds 11 1009 93 16093 2.6 80 12:35 24.07.2019
4761 Clouds 11 1009 87 16093 2.6 90 11:55 24.07.2019
4762 Clouds 11 1009 87 16093 2.6 90 11:37 24.07.2019
4763 Clouds 11 1009 87 16093 2.6 90 11:18 24.07.2019
4764 Clouds 12 1009 87 16093 2.1 130 10:41 24.07.2019
4765 Clouds 12 1009 87 16093 2.1 130 10:23 24.07.2019
4766 Clouds 12 1009 81 16093 3.1 190 09:44 24.07.2019
4767 Clouds 12 1009 81 16093 3.1 190 09:22 24.07.2019
4768 Clouds 12 1009 81 16093 3.1 180 08:44 24.07.2019
4769 Clouds 12 1009 81 16093 3.6 200 08:26 24.07.2019
4770 Clouds 12 1009 81 16093 2.6 190 07:46 24.07.2019
4771 Clouds 12 1009 81 16093 2.6 170 07:20 24.07.2019
4772 Clouds 12 1010 87 16093 3.1 210 06:28 24.07.2019
4773 Clouds 13 1010 87 16093 2.6 190 05:24 24.07.2019
4774 Clouds 16 1011 77 16093 5.1 120 01:55 24.07.2019
4775 Clouds 17 1011 67 16093 5.1 100 00:58 24.07.2019
4776 Clouds 17 1011 67 16093 5.1 100 00:39 24.07.2019
4777 Clouds 17 1011 77 16093 5.1 80 23:57 23.07.2019
4778 Clouds 17 1011 77 16093 5.1 80 23:37 23.07.2019
4779 Clouds 17 1011 77 16093 5.1 80 23:18 23.07.2019
4780 Clouds 16 1012 77 16093 5.7 80 22:38 23.07.2019
4781 Clouds 16 1012 77 16093 5.7 80 22:19 23.07.2019
4782 Clouds 15 1012 76 16093 5.1 90 21:45 23.07.2019
4783 Clouds 15 1012 76 16093 5.1 90 21:27 23.07.2019
4784 Clouds 15 1012 71 16093 4.6 80 20:49 23.07.2019
4785 Clouds 15 1012 71 16093 5.1 90 20:30 23.07.2019
4786 Clouds 14 1013 76 16093 2.1 60 19:44 23.07.2019
4787 Clouds 14 1013 76 16093 2.1 60 19:24 23.07.2019
4788 Clouds 14 1013 76 16093 3.1 60 18:59 23.07.2019
4789 Clouds 13 1013 76 16093 3.1 60 18:40 23.07.2019
4790 Clouds 13 1013 76 16093 3.1 60 18:40 23.07.2019
4791 Clouds 13 1013 76 16093 3.1 60 18:20 23.07.2019
4792 Clouds 13 1013 81 16093 1.5 60 17:43 23.07.2019
4793 Clouds 12 1013 81 16093 1.5 60 17:22 23.07.2019
4794 Clouds 12 1014 81 16093 2.6 70 16:48 23.07.2019
4795 Clouds 12 1014 81 16093 2.6 70 16:27 23.07.2019
4796 Clouds 11 1014 93 16093 1.5 30 15:57 23.07.2019
4797 Clouds 11 1014 93 16093 1.5 30 15:38 23.07.2019
4798 Clouds 11 1014 93 16093 1.5 30 15:20 23.07.2019
4799 Clouds 11 1014 87 16093 2.1 110 14:37 23.07.2019
4800 Clouds 10 1014 87 16093 2.1 110 14:18 23.07.2019
4801 Clouds 11 1015 87 16093 1.67 71.055 13:56 23.07.2019
4802 Clouds 11 1015 87 16093 1.67 71.055 13:37 23.07.2019
4803 Clouds 11 1015 87 16093 1.95 56.939 13:19 23.07.2019
4804 Clouds 10 1015 87 16093 2.1 40 12:42 23.07.2019
4805 Clouds 11 1015 87 16093 2.1 40 12:24 23.07.2019
4806 Clouds 11 1016 76 16093 1.5 60 11:42 23.07.2019
4807 Clouds 11 1016 76 16093 1.5 60 11:23 23.07.2019
4808 Clouds 11 1016 76 16093 1.5 20 10:51 23.07.2019
4809 Clouds 11 1016 76 16093 1.5 20 10:25 23.07.2019
4810 Clouds 11 1016 76 16093 2.6 330 09:44 23.07.2019
4811 Clouds 11 1016 76 16093 2.6 330 09:22 23.07.2019
4812 Clouds 11 1016 76 16093 3.6 210 08:57 23.07.2019
4813 Clouds 11 1016 76 16093 3.6 210 08:38 23.07.2019
4814 Clouds 11 1016 76 16093 3.6 210 08:18 23.07.2019
4815 Clouds 12 1016 76 16093 3.6 210 07:44 23.07.2019
4816 Clouds 12 1016 76 16093 3.6 210 07:26 23.07.2019
4817 Clouds 12 1016 81 16093 3.1 200 06:37 23.07.2019
4818 Clouds 12 1017 93 16093 2.6 220 04:51 23.07.2019
4819 Clouds 12 1018 93 16093 2.63 172.43 01:55 23.07.2019
4820 Clouds 12 1018 93 16093 2.28 190.698 01:20 23.07.2019
4821 Mist 11 1018 100 8047 2.1 220 00:27 23.07.2019
4822 Mist 11 1018 100 4828 4.1 170 23:41 22.07.2019
4823 Mist 11 1018 100 4828 4.1 170 23:21 22.07.2019
4824 Rain 11 1018 100 4828 3.1 150 22:46 22.07.2019
4825 Rain 11 1018 100 4828 3.1 150 22:27 22.07.2019
4826 Rain 12 1018 93 9656 4.1 130 21:59 22.07.2019
4827 Clouds 12 1018 93 11265 3.1 130 21:41 22.07.2019
4828 Clouds 12 1018 93 11265 3.1 130 21:20 22.07.2019
4829 Clouds 12 1018 93 12874 3.1 130 20:47 22.07.2019
4830 Rain 12 1018 100 12874 3.6 140 20:29 22.07.2019
4831 Rain 12 1019 100 8047 2.1 160 19:44 22.07.2019
4832 Rain 11 1019 100 4828 3.1 140 19:26 22.07.2019
4833 Rain 11 1019 100 6437 3.6 120 18:57 22.07.2019
4834 Mist 11 1019 100 9656 2.1 110 18:39 22.07.2019
4835 Mist 11 1019 100 9656 2.1 110 18:21 22.07.2019
4836 Mist 11 1019 100 8047 2.1 100 17:41 22.07.2019
4837 Mist 10 1019 100 8047 2.1 100 17:23 22.07.2019
4838 Clouds 11 1019 93 11265 2.1 90 16:41 22.07.2019
4839 Clouds 11 1019 93 11265 2.1 90 16:21 22.07.2019
4840 Clouds 11 1019 93 14484 2.1 150 15:58 22.07.2019
4841 Clouds 11 1019 93 14484 2.1 150 15:37 22.07.2019
4842 Clouds 11 1019 93 14484 2.1 150 15:18 22.07.2019
4843 Clouds 11 1019 93 12874 2.1 190 14:43 22.07.2019
4844 -273 0 0 0 0 0 14:20 22.07.2019
4845 Clouds 11 1019 93 11265 2.1 170 13:46 22.07.2019
4846 Clouds 11 1019 93 11265 2.1 170 13:28 22.07.2019
4847 Clouds 11 1019 93 11265 2.6 190 12:45 22.07.2019
4848 Clouds 11 1019 93 11265 2.6 190 12:25 22.07.2019
4849 Clouds 11 1019 87 12874 3.1 200 11:45 22.07.2019
4850 Clouds 11 1019 87 12874 3.1 200 11:24 22.07.2019
4851 Clouds 11 1019 87 11265 4.1 210 10:48 22.07.2019
4852 Clouds 11 1019 87 11265 4.1 210 10:29 22.07.2019
4853 Clouds 10 1019 93 11265 4.6 220 09:44 22.07.2019
4854 Clouds 10 1019 93 11265 4.6 220 09:25 22.07.2019
4855 Mist 10 1018 93 9656 5.7 210 08:47 22.07.2019
4856 Mist 10 1018 93 9656 5.7 210 08:26 22.07.2019
4857 Clouds 10 1018 100 12874 5.7 210 07:58 22.07.2019
4858 Clouds 10 1018 100 12874 5.7 210 07:40 22.07.2019
4859 Clouds 10 1018 100 12874 5.7 210 07:21 22.07.2019
4860 Clouds 11 1018 87 16093 4.6 200 03:57 22.07.2019
4861 Rain 10 1018 100 3219 4.6 200 02:43 22.07.2019
4862 Mist 10 1017 100 4828 5.1 200 00:57 22.07.2019
4863 Clouds 11 1017 93 16093 6.7 210 00:28 22.07.2019
4864 Clouds 10 1017 100 14484 4.6 190 23:56 21.07.2019
4865 Clouds 10 1017 100 14484 4.6 190 23:36 21.07.2019
4866 Clouds 9 1017 100 16093 5.1 200 22:54 21.07.2019
4867 Clouds 9 1017 100 16093 5.1 200 22:36 21.07.2019
4868 Clouds 9 1017 100 16093 5.1 200 22:18 21.07.2019
4869 Rain 9 1017 100 8047 5.7 210 21:43 21.07.2019
4870 Rain 9 1017 100 8047 5.7 210 21:22 21.07.2019
4871 Rain 9 1016 100 6437 3.6 200 20:54 21.07.2019
4872 Rain 9 1016 100 6437 3.6 200 20:36 21.07.2019
4873 Rain 9 1016 100 6437 3.6 200 20:36 21.07.2019
4874 Rain 9 1016 100 6437 3.6 200 20:18 21.07.2019
4875 Rain 9 1016 100 14484 4.6 210 19:44 21.07.2019
4876 Rain 9 1016 100 14484 4.6 210 19:22 21.07.2019
4877 Rain 9 1016 100 4828 5.1 210 18:48 21.07.2019
4878 Rain 10 1016 100 2816 3.6 190 18:26 21.07.2019
4879 Mist 9 1016 100 8047 4.1 190 17:43 21.07.2019
4880 Mist 9 1016 100 8047 4.1 190 17:20 21.07.2019
4881 Mist 10 1016 100 2816 4.6 220 16:57 21.07.2019
4882 Mist 10 1016 100 8047 4.6 210 16:38 21.07.2019
4883 Mist 10 1016 100 8047 4.6 210 16:20 21.07.2019
4884 Mist 10 1016 100 8047 4.6 200 15:37 21.07.2019
4885 Mist 10 1016 100 8047 4.6 200 15:18 21.07.2019
4886 Clouds 10 1016 100 16093 4.6 210 14:41 21.07.2019
4887 Clouds 10 1016 100 16093 4.6 210 14:22 21.07.2019
4888 Clouds 10 1016 100 16093 5.1 200 13:51 21.07.2019
4889 Clouds 10 1016 100 16093 5.1 200 13:30 21.07.2019
4890 Clouds 11 1016 93 16093 4.6 200 12:44 21.07.2019
4891 Clouds 11 1016 93 16093 4.6 200 12:25 21.07.2019
4892 Clouds 11 1015 100 14484 4.6 200 11:51 21.07.2019
4893 Clouds 11 1015 100 14484 4.6 200 11:30 21.07.2019
4894 Mist 11 1015 100 8047 4.6 200 10:58 21.07.2019
4895 Mist 11 1015 100 8047 4.6 200 10:40 21.07.2019
4896 Mist 11 1015 100 8047 4.6 200 10:22 21.07.2019
4897 Mist 10 1015 100 2816 3.6 200 09:38 21.07.2019
4898 Mist 10 1015 100 2816 3.6 200 09:20 21.07.2019
4899 Mist 10 1015 100 2414 4.1 210 08:43 21.07.2019
4900 Mist 10 1015 100 2414 4.1 210 08:25 21.07.2019
4901 Rain 10 1015 100 3219 3.6 200 07:38 21.07.2019
4902 Rain 10 1015 100 2414 4.6 200 06:50 21.07.2019
4903 Rain 10 1016 100 2816 4.1 200 05:41 21.07.2019
4904 Clouds 11 1015 93 14484 4.1 200 02:43 21.07.2019
4905 Clouds 11 1015 93 16093 4.1 220 00:58 21.07.2019
4906 Clouds 11 1015 93 16093 4.1 220 00:39 21.07.2019
4907 Clouds 11 1015 93 16093 4.1 220 00:18 21.07.2019
4908 Clouds 11 1015 93 12874 4.6 230 23:39 20.07.2019
4909 Clouds 11 1015 93 12874 4.6 230 23:19 20.07.2019
4910 Clouds 11 1015 93 16093 4.6 240 22:43 20.07.2019
4911 Clouds 11 1015 93 16093 4.6 240 22:21 20.07.2019
4912 Clouds 11 1015 100 11265 4.6 240 21:45 20.07.2019
4913 Clouds 11 1015 100 11265 4.6 240 21:26 20.07.2019
4914 Mist 11 1014 100 9656 4.1 240 20:56 20.07.2019
4915 Mist 11 1014 100 9656 4.1 240 20:38 20.07.2019
4916 Mist 11 1014 100 9656 4.1 240 20:38 20.07.2019
4917 Mist 11 1014 100 9656 4.1 240 20:18 20.07.2019
4918 Clouds 11 1014 100 11265 5.1 250 19:42 20.07.2019
4919 Clouds 11 1014 100 11265 5.1 250 19:19 20.07.2019
4920 Mist 11 1014 100 4828 5.1 260 18:40 20.07.2019
4921 Mist 11 1014 100 4828 5.1 260 18:20 20.07.2019
4922 Clouds 11 1014 100 11265 3.6 260 17:48 20.07.2019
4923 Clouds 11 1014 100 11265 3.6 260 17:20 20.07.2019
4924 Clouds 11 1014 100 16093 4.6 250 16:43 20.07.2019
4925 Clouds 11 1014 100 16093 3.6 250 16:25 20.07.2019
4926 Clouds 11 1014 100 16093 4.6 250 15:57 20.07.2019
4927 Clouds 11 1014 100 16093 4.6 250 15:38 20.07.2019
4928 Clouds 11 1014 100 16093 4.6 250 15:19 20.07.2019
4929 Clouds 11 1014 100 16093 5.7 220 14:43 20.07.2019
4930 Clouds 11 1014 100 16093 5.7 220 14:21 20.07.2019
4931 Clouds 11 1014 100 16093 4.6 220 13:38 20.07.2019
4932 Clouds 11 1014 100 16093 4.6 220 13:20 20.07.2019
4933 Clouds 11 1014 100 16093 5.7 230 12:52 20.07.2019
4934 Clouds 11 1014 100 16093 5.7 230 12:21 20.07.2019
4935 Clouds 12 1014 93 16093 3.6 220 11:55 20.07.2019
4936 Clouds 12 1014 93 16093 3.6 220 11:23 20.07.2019
4937 Clouds 12 1014 93 16093 4.1 240 10:55 20.07.2019
4938 Clouds 12 1014 93 16093 4.1 240 10:36 20.07.2019
4939 Clouds 12 1014 93 16093 4.1 240 10:18 20.07.2019
4940 Clouds 12 1014 93 16093 3.6 240 09:43 20.07.2019
4941 Clouds 11 1014 100 16093 2.1 250 09:18 20.07.2019
4942 Clouds 11 1014 100 16093 2.1 250 09:18 20.07.2019
4943 Mist 11 1014 100 3219 4.1 250 08:39 20.07.2019
4944 Mist 11 1014 100 3219 4.1 250 08:19 20.07.2019
4945 Clouds 12 1014 93 16093 4.1 250 07:20 20.07.2019
4946 Clouds 12 1014 93 16093 2.6 250 06:41 20.07.2019
4947 Clouds 12 1015 100 16093 3.6 230 04:31 20.07.2019
4948 Mist 12 1015 100 9656 2.6 230 03:28 20.07.2019
4949 Clouds 13 1015 93 16093 2.6 190 01:21 20.07.2019
4950 Clouds 13 1015 93 16093 2.1 200 00:46 20.07.2019
4951 Clouds 12 1015 93 16093 2.1 200 00:21 20.07.2019
4952 Clouds 12 1015 93 16093 2.1 170 23:44 19.07.2019
4953 Clouds 12 1015 93 16093 2.1 170 23:25 19.07.2019
4954 Clouds 12 1015 100 16093 2.1 200 22:50 19.07.2019
4955 Clouds 12 1015 100 16093 2.1 200 22:26 19.07.2019
4956 Clouds 12 1015 100 16093 3.03 232.751 21:51 19.07.2019
4957 Clouds 12 1015 100 16093 3.03 232.751 21:33 19.07.2019
4958 Clouds 11 1014 100 16093 1.5 220 20:58 19.07.2019
4959 Clouds 11 1014 100 16093 1.5 220 20:38 19.07.2019
4960 Clouds 11 1014 100 16093 1.5 220 20:20 19.07.2019
4961 Clouds 11 1014 100 16093 1.5 160 19:35 19.07.2019
4962 Clouds 11 1014 100 16093 1.94 215.548 18:46 19.07.2019
4963 Clouds 11 1014 100 16093 0.71 291.952 18:25 19.07.2019
4964 Clouds 11 1014 100 16093 0.71 291.952 17:56 19.07.2019
4965 Clouds 11 1014 100 16093 0.71 291.952 17:29 19.07.2019
4966 Clouds 11 1014 100 16093 0.71 291.952 16:57 19.07.2019
4967 Clouds 11 1014 100 16093 0.71 291.952 16:39 19.07.2019
4968 Clouds 11 1014 100 16093 0.71 291.952 16:18 19.07.2019
4969 Clouds 11 1014 100 16093 1.5 340 15:44 19.07.2019
4970 Clouds 11 1014 100 16093 1.68 284.822 15:25 19.07.2019
4971 Clouds 11 1014 100 16093 1.68 284.822 14:45 19.07.2019
4972 Clouds 11 1014 100 16093 1.68 284.822 14:45 19.07.2019
4973 Clouds 11 1014 100 16093 1.68 284.822 14:25 19.07.2019
4974 Clouds 11 1014 100 16093 2.1 260 13:57 19.07.2019
4975 Clouds 11 1014 100 16093 2.1 260 13:38 19.07.2019
4976 Clouds 11 1014 100 16093 2.1 260 13:20 19.07.2019
4977 Clouds 11 1014 100 16093 2.14 267.719 12:44 19.07.2019
4978 Clouds 11 1014 100 16093 2.6 250 12:25 19.07.2019
4979 Clouds 11 1014 100 16093 3.1 240 11:46 19.07.2019
4980 Clouds 11 1014 100 16093 3.1 240 11:19 19.07.2019
4981 Clouds 11 1014 100 16093 3.1 240 11:19 19.07.2019
4982 Clouds 11 1013 100 16093 2.6 240 10:48 19.07.2019
4983 Clouds 11 1013 100 16093 2.6 240 10:23 19.07.2019
4984 Clouds 11 1014 100 16093 3.6 270 09:59 19.07.2019
4985 Clouds 11 1014 100 16093 3.6 270 09:41 19.07.2019
4986 Clouds 11 1014 100 16093 3.6 270 09:22 19.07.2019
4987 Clouds 12 1013 93 16093 4.1 240 08:49 19.07.2019
4988 Clouds 12 1013 93 16093 4.1 240 08:22 19.07.2019
4989 Clouds 12 1013 93 16093 3.1 240 07:32 19.07.2019
4990 Clouds 12 1013 93 16093 4.1 260 06:26 19.07.2019
4991 Clouds 12 1012 93 16093 3.6 240 02:56 19.07.2019
4992 Clouds 11 1012 100 16093 4.1 220 01:21 19.07.2019
4993 Clouds 11 1012 100 16093 3.1 260 00:47 19.07.2019
4994 Mist 12 1011 93 3219 3.1 230 23:59 18.07.2019
4995 Mist 12 1011 93 3219 3.1 230 23:40 18.07.2019
4996 Rain 12 1011 93 3219 3.1 230 23:22 18.07.2019
4997 Rain 12 1011 93 3219 2.6 210 22:42 18.07.2019
4998 Mist 12 1011 93 3219 2.6 210 22:20 18.07.2019
4999 Mist 12 1011 93 3219 3.1 240 21:56 18.07.2019
5000 Mist 12 1011 93 8047 3.6 220 21:37 18.07.2019
5001 Mist 12 1011 93 8047 3.6 220 21:18 18.07.2019
5002 Clouds 11 1010 97 0 3.29 216.473 20:42 18.07.2019
5003 Clouds 11 1010 97 0 3.29 216.473 20:23 18.07.2019
5004 Mist 11 1011 100 6437 2.6 270 19:47 18.07.2019
5005 Mist 11 1011 100 6437 2.6 270 19:27 18.07.2019
5006 Clouds 11 1011 100 11265 2.6 250 18:50 18.07.2019
5007 Clouds 11 1011 100 11265 2.6 250 18:22 18.07.2019
5008 -273 0 0 0 0 0 17:56 18.07.2019
5009 Mist 11 1011 93 8047 3.19 252.121 17:36 18.07.2019
5010 Mist 10 1011 93 8047 3.19 252.121 17:18 18.07.2019
5011 Clouds 10 1011 93 16093 2.6 310 16:43 18.07.2019
5012 Clouds 10 1011 93 16093 2.6 310 16:24 18.07.2019
5013 Clouds 10 1011 93 16093 3.1 290 15:55 18.07.2019
5014 Clouds 10 1011 93 16093 3.1 290 15:36 18.07.2019
5015 Clouds 10 1010 100 16093 3.1 280 14:55 18.07.2019
5016 Clouds 10 1010 100 16093 3.1 280 14:37 18.07.2019
5017 Clouds 11 1010 93 16093 6.2 280 13:57 18.07.2019
5018 Clouds 11 1010 93 16093 6.2 280 13:36 18.07.2019
5019 Clouds 11 1010 93 16093 6.2 280 13:18 18.07.2019
5020 Clouds 10 1010 100 16093 7.7 270 12:42 18.07.2019
5021 Clouds 11 1009 100 16093 6.7 270 12:18 18.07.2019
5022 Clouds 11 1009 100 16093 6.7 270 11:50 18.07.2019
5023 Clouds 11 1009 100 16093 6.7 270 11:27 18.07.2019
5024 Clouds 12 1008 93 16093 4.1 260 10:52 18.07.2019
5025 Clouds 12 1008 93 16093 4.1 260 10:23 18.07.2019
5026 Clouds 12 1008 93 16093 5.7 270 09:44 18.07.2019
5027 Clouds 12 1008 93 16093 5.7 270 09:23 18.07.2019
5028 Clouds 12 1008 100 16093 2.6 250 08:43 18.07.2019
5029 Clouds 12 1008 100 16093 2.1 190 08:19 18.07.2019
5030 Clouds 12 1008 100 16093 2.1 190 07:37 18.07.2019
5031 Mist 12 1008 100 9656 1.5 170 06:59 18.07.2019
5032 Mist 12 1008 100 3219 1.5 160 06:35 18.07.2019
5033 Clouds 12 1008 87 16093 2.6 180 04:20 18.07.2019
5034 Clouds 13 1007 82 16093 2.6 200 02:52 18.07.2019
5035 Clouds 13 1007 81 16093 2.6 240 01:37 18.07.2019
5036 Clouds 12 1007 81 16093 3.1 270 00:26 18.07.2019
5037 Clouds 12 1007 81 16093 3.1 270 23:49 17.07.2019
5038 Clouds 12 1007 81 16093 2.1 240 23:18 17.07.2019
5039 Clouds 12 1007 81 16093 2.1 240 22:43 17.07.2019
5040 Clouds 12 1007 81 16093 2.1 240 22:23 17.07.2019
5041 Clouds 12 1007 87 16093 1.5 240 21:59 17.07.2019
5042 Clouds 12 1007 87 16093 1.5 240 21:40 17.07.2019
5043 Clouds 12 1007 87 16093 1.5 240 21:40 17.07.2019
5044 Clouds 12 1007 87 16093 1.5 240 21:21 17.07.2019
5045 Clouds 12 1007 81 16093 2.1 230 20:57 17.07.2019
5046 Clouds 12 1007 81 16093 2.1 230 20:39 17.07.2019
5047 Clouds 12 1007 81 16093 2.1 230 20:20 17.07.2019
5048 Clouds 11 1006 87 16093 2.1 190 19:43 17.07.2019
5049 Clouds 11 1006 87 16093 2.1 190 19:22 17.07.2019
5050 Clouds 11 1006 87 16093 2.1 190 18:56 17.07.2019
5051 Clouds 11 1006 87 16093 1.5 230 18:38 17.07.2019
5052 Clouds 12 1007 87 16093 4.6 240 18:18 17.07.2019
5053 Clouds 11 1007 87 16093 4.6 240 17:43 17.07.2019
5054 Clouds 11 1007 87 16093 4.6 240 17:23 17.07.2019
5055 Clouds 11 1007 87 16093 3.6 250 16:42 17.07.2019
5056 Clouds 11 1007 87 16093 3.6 250 16:22 17.07.2019
5057 Clouds 11 1007 87 16093 3.6 250 15:51 17.07.2019
5058 Clouds 11 1007 87 16093 3.6 250 15:32 17.07.2019
5059 Clouds 12 1006 81 16093 4.1 270 14:57 17.07.2019
5060 Clouds 12 1006 81 16093 4.1 270 14:39 17.07.2019
5061 Clouds 12 1006 81 16093 4.1 270 14:21 17.07.2019
5062 -273 0 0 0 0 0 13:56 17.07.2019
5063 Clouds 12 1006 87 16093 3.1 290 13:36 17.07.2019
5064 Clouds 11 1006 81 16093 3.1 290 13:18 17.07.2019
5065 Clouds 11 1006 81 16093 3.1 290 12:39 17.07.2019
5066 Clouds 11 1006 81 16093 5.1 280 12:19 17.07.2019
5067 Clouds 11 1006 81 16093 5.1 280 11:43 17.07.2019
5068 Clouds 11 1006 81 16093 6.2 270 11:19 17.07.2019
5069 Clouds 11 1006 81 16093 6.2 270 10:49 17.07.2019
5070 Clouds 11 1006 81 16093 6.2 270 10:24 17.07.2019
5071 Clouds 11 1006 81 16093 6.7 260 09:46 17.07.2019
5072 Clouds 11 1006 81 16093 6.7 260 09:28 17.07.2019
5073 Clear 11 1006 81 16093 6.2 250 08:56 17.07.2019
5074 Clear 11 1006 81 16093 6.2 250 08:37 17.07.2019
5075 Clear 12 1006 81 16093 8.2 260 08:19 17.07.2019
5076 Clear 12 1006 81 16093 8.2 260 07:41 17.07.2019
5077 Clear 12 1006 81 16093 8.2 260 07:22 17.07.2019
5078 Clear 12 1005 81 16093 8.7 250 06:46 17.07.2019
5079 Clear 12 1005 81 16093 8.7 250 06:46 17.07.2019
5080 Clear 12 1005 81 16093 8.7 250 06:45 17.07.2019
5081 Clear 12 1005 81 16093 8.7 250 06:27 17.07.2019
5082 Clear 12 1005 81 16093 9.3 250 05:41 17.07.2019
5083 Clear 12 1005 81 16093 9.3 250 04:59 17.07.2019
5084 Clear 12 1005 81 16093 10.8 250 03:57 17.07.2019
5085 Clear 12 1005 81 16093 9.3 250 02:45 17.07.2019
5086 Clear 12 1005 81 16093 9.3 260 01:43 17.07.2019
5087 Clear 12 1005 81 16093 9.3 260 01:23 17.07.2019
5088 Clear 12 1005 76 16093 9.3 250 00:43 17.07.2019
5089 Clear 12 1005 76 16093 9.3 250 00:23 17.07.2019
5090 Clear 12 1005 81 16093 9.3 260 23:47 16.07.2019
5091 Clear 12 1005 81 16093 9.3 260 23:28 16.07.2019
5092 Clear 12 1005 81 16093 9.3 260 22:57 16.07.2019
5093 Clear 12 1005 81 16093 9.3 260 22:39 16.07.2019
5094 Clear 12 1004 81 16093 6.2 250 22:19 16.07.2019
5095 Clear 12 1004 81 16093 6.2 250 21:43 16.07.2019
5096 Clear 12 1004 71 16093 5.1 270 21:20 16.07.2019
5097 Clear 12 1004 71 16093 5.1 270 20:56 16.07.2019
5098 Clear 12 1004 71 16093 5.1 270 20:38 16.07.2019
5099 Clear 12 1004 87 16093 5.1 280 20:19 16.07.2019
5100 Clear 12 1004 87 16093 5.1 280 19:44 16.07.2019
5101 Clear 12 1004 87 16093 5.1 280 19:26 16.07.2019
5102 Clear 10 1004 100 16093 4.6 280 18:45 16.07.2019
5103 Clear 9 1004 93 16093 4.1 280 18:21 16.07.2019
5104 Clear 9 1004 93 16093 4.1 280 17:55 16.07.2019
5105 Clear 9 1004 93 16093 4.1 280 17:36 16.07.2019
5106 Clear 8 1004 93 16093 5.1 280 16:59 16.07.2019
5107 Clear 8 1004 93 16093 5.1 280 16:38 16.07.2019
5108 Clear 8 1004 93 16093 1.5 290 16:18 16.07.2019
5109 Clear 8 1004 93 16093 1.5 290 15:40 16.07.2019
5110 Clear 9 1004 93 16093 2.6 290 15:21 16.07.2019
5111 Clear 9 1004 93 16093 2.6 290 14:58 16.07.2019
5112 Clear 9 1004 93 16093 2.6 290 14:39 16.07.2019
5113 Clear 9 1004 93 16093 4.6 290 14:20 16.07.2019
5114 Clear 9 1004 93 16093 4.6 290 13:44 16.07.2019
5115 Clear 9 1004 93 16093 4.6 290 13:44 16.07.2019
5116 Clear 10 1004 93 16093 4.6 290 13:21 16.07.2019
5117 Clear 11 1004 87 16093 2.1 280 12:45 16.07.2019
5118 Clear 12 1004 81 16093 5.1 270 12:20 16.07.2019
5119 Clear 12 1004 81 16093 5.1 270 11:58 16.07.2019
5120 Clear 12 1004 81 16093 5.1 270 11:40 16.07.2019
5121 Clear 12 1004 81 16093 5.1 270 11:21 16.07.2019
5122 Clear 13 1004 82 16093 4.6 270 10:45 16.07.2019
5123 Clear 13 1004 82 16093 4.6 270 10:22 16.07.2019
5124 Clear 14 1004 82 16093 3.6 270 09:56 16.07.2019
5125 Clear 14 1004 82 16093 3.6 270 09:36 16.07.2019
5126 Clear 14 1004 82 16093 5.7 270 09:18 16.07.2019
5127 Clear 14 1004 82 16093 5.7 270 08:41 16.07.2019
5128 Clear 15 1005 77 16093 6.7 270 08:19 16.07.2019
5129 Clear 14 1005 77 16093 6.7 270 07:41 16.07.2019
5130 Clear 14 1005 77 16093 6.7 270 07:23 16.07.2019
5131 Clear 15 1005 72 16093 6.2 260 06:47 16.07.2019
5132 Clear 15 1005 72 16093 6.2 260 06:22 16.07.2019
5133 Clear 15 1005 72 16093 5.7 260 05:32 16.07.2019
5134 Clear 16 1005 67 16093 5.1 250 04:57 16.07.2019
5135 Clear 16 1005 63 16093 5.7 260 03:54 16.07.2019
5136 Clear 16 1005 59 16093 5.1 260 03:18 16.07.2019
5137 Clear 16 1005 59 16093 5.1 260 02:30 16.07.2019
5138 Clear 16 1006 72 16093 4.6 260 01:43 16.07.2019
5139 Clear 15 1006 67 16093 3.6 240 00:42 16.07.2019
5140 Clear 15 1006 72 16093 3.6 240 00:20 16.07.2019
5141 Clear 15 1006 72 16093 3.6 240 23:45 15.07.2019
5142 Clear 15 1006 72 16093 3.6 240 23:27 15.07.2019
5143 Clear 14 1006 82 16093 3.6 240 22:47 15.07.2019
5144 Clear 14 1006 82 16093 3.6 240 22:22 15.07.2019
5145 Clear 14 1006 87 16093 3.1 210 21:58 15.07.2019
5146 Clear 14 1006 87 16093 3.1 210 21:40 15.07.2019
5147 Clear 14 1006 87 16093 3.1 210 21:20 15.07.2019
5148 Clear 14 1006 87 16093 1.48 228.05 20:55 15.07.2019
5149 Clear 15 1006 87 16093 1.48 228.05 20:36 15.07.2019
5150 Clear 14 1006 87 16093 1.5 310 20:18 15.07.2019
5151 Clear 14 1006 87 16093 1.5 310 19:39 15.07.2019
5152 Clear 12 1006 93 16093 1.48 228.05 19:19 15.07.2019
5153 Clear 12 1006 93 16093 1.48 228.05 18:50 15.07.2019
5154 Clear 12 1006 93 16093 0.83 322.825 18:23 15.07.2019
5155 Clear 11 1007 87 16093 0.83 322.825 17:59 15.07.2019
5156 Clear 11 1007 87 16093 0.83 322.825 17:41 15.07.2019
5157 Clear 11 1007 87 16093 0.83 322.825 17:22 15.07.2019
5158 Clear 9 1007 93 16093 0.83 322.825 16:58 15.07.2019
5159 Clear 9 1007 93 16093 0.83 322.825 16:38 15.07.2019
5160 Clear 9 1007 93 16093 0.83 322.825 16:20 15.07.2019
5161 Clear 9 1007 100 16093 0.83 322.825 15:45 15.07.2019
5162 Clear 9 1007 100 16093 0.83 322.825 15:27 15.07.2019
5163 Clear 11 1007 93 16093 1.16 272.265 14:59 15.07.2019
5164 Clear 11 1007 93 16093 1.16 272.265 14:40 15.07.2019
5165 Clear 11 1007 93 16093 1.16 272.265 14:21 15.07.2019
5166 Clear 11 1007 93 16093 1.5 30 13:48 15.07.2019
5167 Clear 11 1007 100 16093 0.37 240.35 13:21 15.07.2019
5168 Clear 11 1007 100 16093 0.37 240.35 12:57 15.07.2019
5169 Clear 11 1007 100 16093 0.37 240.35 12:37 15.07.2019
5170 Clear 12 1007 93 16093 1.5 310 12:18 15.07.2019
5171 Clear 12 1007 93 16093 1.5 310 11:41 15.07.2019
5172 Clear 12 1007 93 16093 1.5 310 11:41 15.07.2019
5173 Clear 12 1007 93 16093 1.5 310 11:20 15.07.2019
5174 Clear 13 1007 93 16093 3.1 270 10:43 15.07.2019
5175 Clear 13 1007 93 16093 3.1 270 10:24 15.07.2019
5176 -273 0 0 0 0 0 09:43 15.07.2019
5177 Clear 14 1007 87 16093 3.6 270 09:23 15.07.2019
5178 Clear 14 1007 87 16093 6.2 280 08:47 15.07.2019
5179 Clear 14 1007 87 16093 6.2 280 08:27 15.07.2019
5180 Clear 16 1007 77 16093 6.2 260 07:55 15.07.2019
5181 Clear 16 1007 77 16093 6.2 260 07:33 15.07.2019
5182 Clear 17 1007 72 16093 6.7 260 06:48 15.07.2019
5183 Clear 17 1007 72 16093 6.7 260 06:30 15.07.2019
5184 Clear 17 1008 72 16093 5.7 260 05:43 15.07.2019
5185 Clear 17 1008 72 16093 5.7 260 04:52 15.07.2019
5186 Clear 17 1008 72 16093 5.7 260 04:34 15.07.2019
5187 Clear 17 1008 67 16093 6.2 260 03:29 15.07.2019
5188 Clear 17 1008 72 16093 4.6 250 02:25 15.07.2019
5189 Clear 17 1008 72 16093 4.6 250 01:37 15.07.2019
5190 Clear 16 1009 77 16093 4.1 240 00:54 15.07.2019
5191 Clear 16 1009 77 16093 4.1 240 00:29 15.07.2019
5192 Clear 16 1009 77 16093 2.6 240 00:00 15.07.2019
5193 Clear 16 1009 77 16093 2.6 240 23:41 14.07.2019
5194 Clear 16 1009 77 16093 2.6 240 23:21 14.07.2019
5195 Clear 16 1009 77 16093 3.1 240 22:58 14.07.2019
5196 Clear 16 1009 77 16093 3.1 240 22:38 14.07.2019
5197 Clear 15 1009 82 16093 2.6 240 22:20 14.07.2019
5198 Clear 15 1009 82 16093 2.6 240 21:46 14.07.2019
5199 Clouds 13 1009 93 16093 1.5 230 21:20 14.07.2019
5200 Clouds 13 1009 93 16093 1.5 230 20:59 14.07.2019
5201 Clouds 13 1009 93 16093 1.5 230 20:39 14.07.2019
5202 Clouds 13 1009 93 16093 1.5 230 20:20 14.07.2019
5203 Clouds 13 1009 93 16093 1.5 240 19:56 14.07.2019
5204 Clouds 13 1009 93 16093 1.5 240 19:38 14.07.2019
5205 Clouds 13 1009 93 16093 1.5 240 19:19 14.07.2019
5206 Clouds 13 1008 93 16093 1.33 228.148 18:41 14.07.2019
5207 Clouds 13 1008 93 16093 1.18 303.393 18:22 14.07.2019
5208 Clouds 11 1008 100 16093 1.5 290 17:58 14.07.2019
5209 Clouds 11 1008 100 16093 1.5 290 17:23 14.07.2019
5210 Clouds 11 1008 100 16093 1.5 20 16:55 14.07.2019
5211 Clouds 11 1008 100 16093 1.5 20 16:26 14.07.2019
5212 Clouds 11 1008 100 16093 1.18 303.393 15:58 14.07.2019
5213 Clouds 11 1008 100 16093 1.18 303.393 15:40 14.07.2019
5214 Clouds 11 1008 100 16093 0.97 299.474 15:22 14.07.2019
5215 Clouds 12 1008 93 16093 1.5 240 14:45 14.07.2019
5216 Clouds 12 1008 93 16093 1.5 240 14:20 14.07.2019
5217 Clouds 12 1008 100 16093 1.5 320 13:46 14.07.2019
5218 Clouds 12 1008 100 16093 1.5 320 13:24 14.07.2019
5219 Clouds 12 1008 100 16093 2.1 280 12:57 14.07.2019
5220 Clouds 12 1008 100 16093 2.1 280 12:38 14.07.2019
5221 Clouds 12 1008 100 16093 2.1 280 12:18 14.07.2019
5222 Clouds 14 1007 87 16093 1.34 287.431 11:45 14.07.2019
5223 Clouds 13 1007 93 16093 1.34 287.431 11:20 14.07.2019
5224 Clouds 13 1007 93 16093 1.34 287.431 10:43 14.07.2019
5225 Clouds 13 1007 93 16093 1.34 287.431 10:21 14.07.2019
5226 Clouds 13 1007 100 16093 4.1 270 09:48 14.07.2019
5227 Clouds 13 1007 100 16093 4.1 270 09:29 14.07.2019
5228 Clouds 14 1007 93 16093 3.6 270 08:46 14.07.2019
5229 Clouds 14 1007 93 16093 3.6 270 08:27 14.07.2019
5230 Clouds 14 1007 93 16093 3.6 250 07:43 14.07.2019
5231 Mist 13 1007 100 6437 3.6 270 07:19 14.07.2019
5232 Mist 14 1007 93 6437 4.1 250 05:46 14.07.2019
5233 Clouds 15 1007 87 16093 3.6 210 03:53 14.07.2019
5234 Clouds 15 1007 87 16093 3.6 210 03:34 14.07.2019
5235 Clouds 15 1008 87 16093 4.1 170 02:52 14.07.2019
5236 Clouds 15 1008 87 16093 4.1 170 02:22 14.07.2019
5237 Clouds 15 1007 87 16093 4.1 170 01:35 14.07.2019
5238 Clouds 14 1008 100 16093 3.1 160 00:59 14.07.2019
5239 Clouds 14 1008 100 16093 3.1 160 00:40 14.07.2019
5240 Clouds 14 1008 93 16093 4.1 140 00:20 14.07.2019
5241 Clouds 14 1008 93 16093 4.1 140 23:56 13.07.2019
5242 Clouds 14 1008 93 16093 4.1 140 23:37 13.07.2019
5243 Clouds 14 1008 93 16093 3.6 150 23:19 13.07.2019
5244 Clouds 14 1008 93 16093 3.1 150 22:40 13.07.2019
5245 Clouds 14 1008 93 16093 3.1 150 22:21 13.07.2019
5246 Clouds 14 1008 87 16093 2.1 110 21:45 13.07.2019
5247 Clouds 14 1008 87 16093 2.1 110 21:20 13.07.2019
5248 Mist 13 1008 93 9656 3.1 110 20:47 13.07.2019
5249 Mist 13 1008 93 9656 3.1 110 20:28 13.07.2019
5250 Mist 12 1007 100 9656 2.6 80 19:48 13.07.2019
5251 Mist 12 1007 100 9656 2.6 80 19:29 13.07.2019
5252 Clouds 12 1007 100 16093 1.5 80 18:46 13.07.2019
5253 Clouds 12 1007 100 16093 1.5 80 18:23 13.07.2019
5254 Clouds 12 1007 93 16093 2.6 90 17:42 13.07.2019
5255 Clouds 12 1007 93 16093 2.6 90 17:42 13.07.2019
5256 Clouds 12 1007 93 16093 2.6 90 17:22 13.07.2019
5257 Clouds 12 1007 93 16093 2.6 70 16:58 13.07.2019
5258 Clouds 12 1007 93 16093 2.6 70 16:38 13.07.2019
5259 Clouds 12 1007 93 16093 2.6 70 16:19 13.07.2019
5260 Clouds 12 1007 93 16093 2.6 70 15:45 13.07.2019
5261 Clouds 12 1007 93 16093 2.6 70 15:22 13.07.2019
5262 Clouds 12 1007 93 16093 3.1 70 14:46 13.07.2019
5263 Clouds 12 1007 93 16093 3.1 70 14:25 13.07.2019
5264 Clouds 11 1007 100 16093 2.1 60 13:46 13.07.2019
5265 Clouds 11 1007 100 16093 2.1 60 13:27 13.07.2019
5266 Clouds 11 1007 93 16093 2.6 50 12:59 13.07.2019
5267 Clouds 11 1007 93 16093 2.6 50 12:39 13.07.2019
5268 Clouds 11 1007 93 16093 2.6 100 12:20 13.07.2019
5269 Clouds 11 1007 93 16093 2.6 100 11:43 13.07.2019
5270 Clouds 11 1006 93 16093 1.5 60 11:19 13.07.2019
5271 Clouds 11 1006 93 16093 1.5 60 10:45 13.07.2019
5272 Clouds 11 1006 93 16093 1.5 60 10:24 13.07.2019
5273 Clouds 11 1007 93 16093 1.64 155.878 09:59 13.07.2019
5274 Clouds 11 1007 93 16093 1.64 155.878 09:40 13.07.2019
5275 Clouds 10 1007 100 16093 1.87 183.582 09:18 13.07.2019
5276 Clouds 10 1007 100 16093 2.53 213.747 08:36 13.07.2019
5277 Clouds 10 1007 93 16093 1.5 240 08:18 13.07.2019
5278 Clouds 10 1007 93 16093 1.5 240 07:30 13.07.2019
5279 Clouds 11 1007 87 16093 2.1 180 06:41 13.07.2019
5280 Clouds 11 1007 87 16093 1.5 0 05:58 13.07.2019
5281 Clouds 11 1007 87 16093 1.5 0 05:28 13.07.2019
5282 Clouds 11 1007 87 16093 2.6 130 04:23 13.07.2019
5283 Clouds 11 1007 93 16093 3.1 180 03:56 13.07.2019
5284 Clouds 11 1007 93 16093 3.1 180 03:37 13.07.2019
5285 Mist 11 1007 100 3219 3.1 180 01:55 13.07.2019
5286 Mist 11 1007 100 3219 3.1 180 01:37 13.07.2019
5287 Mist 11 1007 100 4828 3.1 190 01:18 13.07.2019
5288 Mist 11 1007 100 4828 3.1 190 00:51 13.07.2019
5289 Mist 11 1007 100 6437 3.1 200 00:19 13.07.2019
5290 Mist 11 1007 100 3219 2.6 190 23:44 12.07.2019
5291 Mist 11 1007 100 3219 2.6 190 23:25 12.07.2019
5292 Mist 11 1007 100 2012 2.6 200 22:46 12.07.2019
5293 Mist 11 1007 100 2012 2.6 200 22:24 12.07.2019
5294 Mist 11 1006 100 4828 3.1 230 21:43 12.07.2019
5295 Mist 11 1006 100 4828 3.1 230 21:22 12.07.2019
5296 Mist 11 1006 100 2012 2.6 220 20:54 12.07.2019
5297 Mist 11 1006 100 2012 2.6 220 20:24 12.07.2019
5298 Mist 11 1006 100 1207 2.6 230 19:59 12.07.2019
5299 Mist 11 1006 100 2012 1.41 127.529 19:41 12.07.2019
5300 Mist 11 1006 100 2012 1.41 127.529 19:23 12.07.2019
5301 Fog 11 1006 100 805 2.6 280 18:41 12.07.2019
5302 Fog 11 1006 100 805 2.6 280 18:21 12.07.2019
5303 Fog 11 1006 100 402 2.6 240 17:49 12.07.2019
5304 Fog 11 1006 100 402 2.6 240 17:28 12.07.2019
5305 Fog 11 1006 100 402 2.1 220 16:45 12.07.2019
5306 Fog 11 1006 100 805 0.15 233.746 16:21 12.07.2019
5307 Mist 11 1006 100 4023 0.15 233.746 15:42 12.07.2019
5308 Mist 11 1006 100 4023 1.52 347.373 15:22 12.07.2019
5309 Fog 11 1006 100 0 1.52 347.373 14:57 12.07.2019
5310 Fog 11 1006 100 805 1.5 260 14:38 12.07.2019
5311 Fog 11 1006 100 805 1.52 347.373 14:20 12.07.2019
5312 Mist 11 1006 100 2816 2.6 280 13:42 12.07.2019
5313 Clouds 11 1006 100 11265 4.1 290 13:20 12.07.2019
5314 Mist 11 1006 100 8047 4.1 270 12:40 12.07.2019
5315 Mist 11 1006 100 1609 5.7 280 12:21 12.07.2019
5316 Clear 12 1006 100 16093 5.1 250 11:45 12.07.2019
5317 Clear 12 1006 100 16093 5.1 250 11:23 12.07.2019
5318 Clear 13 1005 93 16093 7.7 270 10:44 12.07.2019
5319 Clear 13 1005 93 16093 7.7 270 10:25 12.07.2019
5320 Clear 13 1005 93 16093 9.8 260 09:55 12.07.2019
5321 Clear 13 1005 93 16093 9.8 260 09:31 12.07.2019
5322 Clear 13 1005 93 16093 9.8 260 09:00 12.07.2019
5323 Clear 13 1005 93 16093 9.8 260 08:41 12.07.2019
5324 Clear 14 1006 87 16093 8.2 230 08:20 12.07.2019
5325 Clear 14 1006 87 16093 8.2 230 07:46 12.07.2019
5326 Clear 14 1006 87 16093 8.2 230 07:27 12.07.2019
5327 Clear 16 1006 77 16093 8.7 270 06:29 12.07.2019
5328 Clear 17 1006 77 16093 7.7 260 05:50 12.07.2019
5329 Clouds 16 1006 82 16093 8.7 260 03:24 12.07.2019
5330 Clear 16 1007 82 16093 7.2 240 01:46 12.07.2019
5331 Clear 16 1007 82 16093 7.2 240 01:26 12.07.2019
5332 Clear 17 1007 77 16093 5.7 250 00:31 12.07.2019
5333 Clear 16 1007 82 16093 6.7 270 23:50 11.07.2019
5334 Clear 16 1007 82 16093 6.7 270 23:27 11.07.2019
5335 Clear 16 1007 82 16093 5.7 250 22:59 11.07.2019
5336 Clear 16 1007 82 16093 5.7 250 22:40 11.07.2019
5337 Smoke 15 1007 87 16093 5.7 260 22:21 11.07.2019
5338 Smoke 15 1007 87 16093 5.7 260 21:42 11.07.2019
5339 Smoke 16 1007 82 16093 3.1 230 21:20 11.07.2019
5340 Smoke 16 1007 82 16093 3.1 230 20:56 11.07.2019
5341 Smoke 16 1007 82 16093 3.1 230 20:38 11.07.2019
5342 Smoke 14 1007 93 16093 5.7 280 20:19 11.07.2019
5343 Smoke 14 1007 93 16093 5.7 280 19:47 11.07.2019
5344 Smoke 14 1007 93 16093 5.7 280 19:25 11.07.2019
5345 Smoke 14 1007 93 16093 5.7 280 18:54 11.07.2019
5346 Smoke 13 1007 100 11265 6.7 260 18:36 11.07.2019
5347 Smoke 13 1007 100 11265 6.7 260 18:18 11.07.2019
5348 Clear 13 1007 100 16093 5.7 280 17:41 11.07.2019
5349 Clear 13 1007 100 16093 5.7 280 17:23 11.07.2019
5350 Clear 14 1008 93 16093 7.2 270 16:51 11.07.2019
5351 Clear 14 1008 93 16093 7.2 270 16:23 11.07.2019
5352 Clear 14 1007 100 16093 4.1 270 15:54 11.07.2019
5353 Clear 14 1007 100 16093 4.1 270 15:54 11.07.2019
5354 Clear 14 1007 100 16093 4.1 270 15:54 11.07.2019
5355 Clear 14 1007 100 16093 4.1 270 15:36 11.07.2019
5356 Clear 14 1008 93 16093 4.6 290 15:18 11.07.2019
5357 Clear 14 1008 93 16093 4.6 290 14:43 11.07.2019
5358 Clear 15 1008 93 16093 4.6 290 14:21 11.07.2019
5359 Clear 14 1008 100 16093 4.6 270 13:47 11.07.2019
5360 Clear 15 1008 100 16093 4.6 270 13:26 11.07.2019
5361 Clouds 15 1008 100 16093 2.1 270 12:45 11.07.2019
5362 Clouds 15 1008 100 16093 2.1 270 12:27 11.07.2019
5363 Mist 15 1008 100 6437 2.1 290 11:55 11.07.2019
5364 Mist 15 1008 100 2816 2.1 300 11:37 11.07.2019
5365 Clear 16 1008 100 14484 3.1 250 11:18 11.07.2019
5366 Clear 16 1008 100 14484 3.1 250 10:45 11.07.2019
5367 Clear 16 1008 100 16093 2.6 240 10:19 11.07.2019
5368 Clear 16 1008 100 16093 2.6 240 10:19 11.07.2019
5369 Clear 16 1008 100 16093 2.6 240 09:44 11.07.2019
5370 Clear 16 1008 100 16093 2.6 240 09:26 11.07.2019
5371 Clear 17 1008 93 16093 3.6 240 08:52 11.07.2019
5372 Clear 17 1008 93 16093 3.6 240 08:26 11.07.2019
5373 Clear 17 1008 93 16093 4.6 240 07:52 11.07.2019
5374 Clear 17 1008 93 16093 4.6 240 07:34 11.07.2019
5375 Clear 18 1008 82 16093 4.6 240 06:41 11.07.2019
5376 Clear 19 1009 82 16093 5.1 250 05:51 11.07.2019
5377 Clear 19 1009 82 16093 5.1 250 05:29 11.07.2019
5378 Clear 19 1009 72 16093 4.1 250 04:54 11.07.2019
5379 Clear 21 1009 77 16093 4.1 220 02:41 11.07.2019
5380 Clear 22 1009 60 16093 2.6 220 01:27 11.07.2019
5381 Clear 22 1009 49 16093 2.6 220 00:29 11.07.2019
5382 Clear 23 1009 46 16093 3.1 230 23:37 10.07.2019
5383 Clear 22 1009 49 16093 3.1 250 23:18 10.07.2019
5384 Clear 22 1009 49 16093 3.1 250 22:46 10.07.2019
5385 Clear 22 1009 49 16093 3.1 250 22:21 10.07.2019
5386 Clear 21 1009 60 16093 3.1 220 21:45 10.07.2019
5387 Clear 21 1009 60 16093 3.1 220 21:26 10.07.2019
5388 Clear 20 1009 68 16093 0.54 131.186 20:57 10.07.2019
5389 Clear 21 1009 68 16093 0.54 131.186 20:39 10.07.2019
5390 Clear 19 1009 72 16093 1.5 200 20:19 10.07.2019
5391 Clear 19 1009 72 16093 1.5 200 19:53 10.07.2019
5392 Clear 18 1009 72 16093 1.5 200 19:22 10.07.2019
5393 Clear 18 1009 72 16093 0.54 131.186 18:57 10.07.2019
5394 Clear 18 1009 72 16093 0.54 131.186 18:38 10.07.2019
5395 Clear 18 1009 72 16093 1.46 39.193 18:20 10.07.2019
5396 Clear 17 1009 77 16093 1.5 0 17:41 10.07.2019
5397 Clear 15 1009 87 16093 2.1 320 17:20 10.07.2019
5398 Clear 16 1009 77 16093 1.5 0 17:20 10.07.2019
5399 Clear 15 1009 87 16093 2.1 320 16:37 10.07.2019
5400 Clear 15 1009 82 16093 2.1 330 16:18 10.07.2019
5401 Clear 16 1009 82 16093 2.1 330 15:45 10.07.2019
5402 Clear 16 1009 82 16093 2.1 330 15:21 10.07.2019
5403 Clear 17 1009 77 16093 2.1 200 14:41 10.07.2019
5404 Clear 17 1009 77 16093 2.1 200 14:22 10.07.2019
5405 Clear 18 1009 68 16093 1.96 26.761 13:46 10.07.2019
5406 Clear 19 1009 68 16093 1.5 10 13:19 10.07.2019
5407 Clear 19 1009 68 16093 1.5 10 13:19 10.07.2019
5408 Clear 19 1009 68 16093 1.5 10 12:58 10.07.2019
5409 Clear 20 1009 68 16093 1.5 10 12:37 10.07.2019
5410 Clear 21 1009 73 16093 1.25 346.23 12:18 10.07.2019
5411 Clear 21 1009 73 16093 1.25 346.23 11:46 10.07.2019
5412 Clear 21 1009 73 16093 1.25 346.23 11:21 10.07.2019
5413 Clear 22 1009 56 16093 1.25 346.23 10:45 10.07.2019
5414 Clear 23 1009 56 16093 1.25 346.23 10:20 10.07.2019
5415 Clear 23 1009 56 16093 1.25 346.23 09:44 10.07.2019
5416 Clear 23 1009 56 16093 2.1 250 09:21 10.07.2019
5417 Clear 23 1009 56 16093 2.1 250 08:52 10.07.2019
5418 Clear 23 1009 56 16093 2.1 250 08:52 10.07.2019
5419 Clear 23 1009 56 16093 2.1 250 08:29 10.07.2019
5420 Clear 23 1009 50 16093 2.6 230 07:55 10.07.2019
5421 Clear 24 1009 50 16093 2.6 230 07:32 10.07.2019
5422 Clear 24 1009 50 16093 2.6 230 07:32 10.07.2019
5423 Clear 24 1009 50 16093 2.6 230 06:56 10.07.2019
5424 Clear 27 1009 30 16093 2.6 260 05:59 10.07.2019
5425 Clear 27 1010 36 16093 3.6 240 04:51 10.07.2019
5426 Clear 26 1010 36 16093 3.6 240 04:26 10.07.2019
5427 Clear 25 1011 36 16093 2.1 200 00:47 10.07.2019
5428 Clear 25 1011 36 16093 2.1 200 00:28 10.07.2019
5429 Clear 23 1011 53 16093 2.1 210 23:41 09.07.2019
5430 Clear 22 1011 53 16093 2.1 210 23:21 09.07.2019
5431 Clear 22 1011 56 16093 2.1 190 22:42 09.07.2019
5432 Clear 22 1011 56 16093 2.1 190 22:22 09.07.2019
5433 Clear 22 1011 53 16093 1.5 140 21:58 09.07.2019
5434 Clear 23 1011 53 16093 1.5 140 21:39 09.07.2019
5435 Clear 22 1011 53 16093 1.5 140 21:20 09.07.2019
5436 Clear 26 1011 36 16093 2.1 340 20:43 09.07.2019
5437 Clear 26 1011 36 16093 2.1 340 20:24 09.07.2019
5438 Clear 24 1011 49 16093 2.1 350 19:42 09.07.2019
5439 Clear 23 1011 49 16093 2.1 350 19:23 09.07.2019
5440 Clear 22 1011 49 16093 4.1 350 18:46 09.07.2019
5441 Clear 21 1011 49 16093 4.1 350 18:25 09.07.2019
5442 Clear 21 1011 49 16093 4.1 350 17:57 09.07.2019
5443 Clear 21 1011 52 16093 5.1 350 17:37 09.07.2019
5444 Clear 20 1011 59 16093 4.6 350 17:19 09.07.2019
5445 Clear 21 1011 59 16093 4.6 350 16:47 09.07.2019
5446 Clear 21 1011 59 16093 4.6 350 16:24 09.07.2019
5447 Clear 18 1011 68 16093 3.1 360 15:50 09.07.2019
5448 Clear 20 1011 68 16093 3.1 360 15:31 09.07.2019
5449 Clear 19 1011 72 16093 2.1 360 14:57 09.07.2019
5450 Clear 19 1011 72 16093 2.1 360 14:39 09.07.2019
5451 Clear 19 1011 77 16093 1.5 20 14:18 09.07.2019
5452 Clear 18 1011 77 16093 1.5 20 13:44 09.07.2019
5453 Clear 19 1011 77 16093 1.5 20 13:24 09.07.2019
5454 Clear 20 1011 72 16093 2.29 38.75 12:41 09.07.2019
5455 Clear 19 1011 72 16093 1.61 358.394 12:22 09.07.2019
5456 Clear 20 1011 72 16093 1.61 358.394 11:58 09.07.2019
5457 Clear 21 1011 64 14484 1.61 358.394 11:39 09.07.2019
5458 Clear 21 1011 64 14484 1.61 358.394 11:20 09.07.2019
5459 Clear 23 1011 69 16093 1.61 358.394 10:50 09.07.2019
5460 Clear 23 1011 69 16093 1.61 358.394 10:31 09.07.2019
5461 Clear 27 1011 44 16093 1.61 358.394 09:42 09.07.2019
5462 Clear 27 1011 44 16093 0.81 272.043 09:22 09.07.2019
5463 Clear 27 1011 44 16093 0.81 272.043 09:22 09.07.2019
5464 Clear 27 1011 42 16093 1.04 293.974 08:55 09.07.2019
5465 Clear 27 1011 42 16093 1.04 293.974 08:35 09.07.2019
5466 Clouds 10 1027 87 16093 3.1 210 03:58 05.07.2019
5467 Clouds 9 1027 93 16093 3.1 190 03:38 05.07.2019
5468 Clouds 9 1027 93 16093 3.1 190 03:38 05.07.2019
5469 Clouds 10 1027 87 16093 5.1 210 03:19 05.07.2019
5470 Clouds 10 1027 87 16093 5.1 210 03:19 05.07.2019
5471 Clouds 10 1027 87 16093 5.1 210 02:44 05.07.2019
5472 Clouds 9 1026 100 16093 3.6 200 01:39 05.07.2019
5473 Clouds 9 1026 100 16093 3.6 200 01:19 05.07.2019
5474 Clouds 9 1026 100 11265 5.1 210 00:46 05.07.2019
5475 Clouds 9 1025 100 11265 5.1 200 23:56 04.07.2019
5476 Clouds 9 1025 100 11265 5.1 200 23:21 04.07.2019
5477 Mist 10 1025 100 4828 4.6 190 22:57 04.07.2019
5478 Mist 10 1025 100 4828 4.6 190 22:39 04.07.2019
5479 Rain 9 1024 100 3219 3.6 90 22:18 04.07.2019
5480 Rain 9 1024 100 3219 3.6 90 21:40 04.07.2019
5481 Rain 9 1024 100 3219 3.6 90 21:22 04.07.2019
5482 Rain 9 1024 100 6437 3.1 90 20:54 04.07.2019
5483 Rain 9 1024 100 6437 3.1 90 20:36 04.07.2019
5484 Rain 9 1024 100 3219 3.1 90 20:18 04.07.2019
5485 Mist 8 1024 100 2414 3.1 90 19:41 04.07.2019
5486 Mist 8 1024 100 2414 3.1 90 19:20 04.07.2019
5487 Mist 8 1024 100 3219 2.1 110 18:44 04.07.2019
5488 Mist 8 1024 100 3219 2.1 110 18:25 04.07.2019
5489 Clouds 8 1023 93 16093 1.5 150 17:47 04.07.2019
5490 Clouds 8 1023 93 16093 2.6 190 17:19 04.07.2019
5491 Clouds 8 1023 93 16093 2.6 190 16:36 04.07.2019
5492 Clouds 9 1022 87 16093 3.1 180 15:42 04.07.2019
5493 Clouds 9 1022 87 16093 3.1 180 15:24 04.07.2019
5494 Clouds 9 1022 87 16093 3.6 200 14:56 04.07.2019
5495 Clouds 9 1022 87 16093 2.6 140 14:37 04.07.2019
5496 Clouds 9 1022 87 16093 2.1 160 14:18 04.07.2019
5497 Clouds 9 1022 87 16093 2.1 160 13:54 04.07.2019
5498 Clouds 9 1022 87 16093 2.1 160 13:36 04.07.2019
5499 Clouds 9 1021 87 16093 2.6 170 13:18 04.07.2019
5500 Clouds 9 1021 87 16093 2.6 170 12:37 04.07.2019
5501 Clouds 9 1021 93 16093 2.6 150 12:19 04.07.2019
5502 Clouds 9 1021 93 16093 2.6 150 11:40 04.07.2019
5503 Clouds 9 1021 87 16093 2.6 160 11:20 04.07.2019
5504 Clouds 9 1021 87 16093 2.6 160 10:44 04.07.2019
5505 Clouds 9 1021 87 16093 2.6 160 10:25 04.07.2019
5506 Clouds 9 1020 87 16093 1.32 171.221 09:45 04.07.2019
5507 Clouds 9 1020 87 16093 2.7 200.181 09:26 04.07.2019
5508 Clouds 10 1020 81 16093 2.1 210 08:57 04.07.2019
5509 Clouds 10 1020 81 16093 2.1 210 08:29 04.07.2019
5510 Clouds 10 1020 87 16093 2.6 230 07:47 04.07.2019
5511 Clouds 10 1020 87 16093 2.6 230 07:47 04.07.2019
5512 Clouds 10 1020 87 16093 2.6 230 07:23 04.07.2019
5513 Clouds 10 1020 87 16093 3.1 230 06:56 04.07.2019
5514 Clouds 10 1018 87 16093 4.1 200 05:55 04.07.2019
5515 Clouds 10 1018 87 16093 4.1 200 05:36 04.07.2019
5516 Clouds 10 1017 93 16093 4.1 220 03:48 04.07.2019
5517 Clouds 9 1016 100 16093 4.1 230 01:46 04.07.2019
5518 Clouds 9 1016 100 16093 4.1 230 01:25 04.07.2019
5519 Clouds 9 1016 100 16093 4.6 230 00:37 04.07.2019
5520 Rain 9 1015 100 14484 4.6 240 23:48 03.07.2019
5521 Rain 9 1015 100 14484 4.6 240 23:20 03.07.2019
5522 Mist 9 1014 100 4828 4.1 230 22:56 03.07.2019
5523 Mist 8 1014 100 4828 4.1 230 22:36 03.07.2019
5524 Rain 8 1013 100 3219 5.7 220 22:18 03.07.2019
5525 Rain 8 1013 100 3219 5.7 220 21:47 03.07.2019
5526 Rain 8 1013 100 3219 5.7 220 21:28 03.07.2019
5527 Rain 8 1012 100 3219 5.1 210 20:47 03.07.2019
5528 Rain 8 1012 100 3219 5.1 210 20:28 03.07.2019
5529 Rain 8 1012 100 3219 6.2 220 19:57 03.07.2019
5530 Rain 8 1012 100 3219 6.2 220 19:39 03.07.2019
5531 Rain 8 1011 100 4023 6.2 220 18:56 03.07.2019
5532 Rain 8 1011 100 4023 6.2 220 18:37 03.07.2019
5533 Rain 8 1011 100 3219 7.2 210 18:19 03.07.2019
5534 Rain 8 1011 100 3219 7.2 210 17:49 03.07.2019
5535 Rain 8 1011 100 2816 7.2 200 17:19 03.07.2019
5536 Rain 8 1010 100 2816 7.2 210 16:44 03.07.2019
5537 Rain 8 1010 100 2816 7.2 210 16:44 03.07.2019
5538 Rain 8 1010 100 2816 7.2 210 16:24 03.07.2019
5539 Rain 9 1010 100 6437 6.7 200 15:54 03.07.2019
5540 Rain 8 1010 100 6437 6.7 200 15:36 03.07.2019
5541 Rain 8 1009 100 4023 6.7 200 15:18 03.07.2019
5542 Rain 8 1009 100 6437 7.2 200 14:42 03.07.2019
5543 Rain 8 1009 100 6437 7.2 190 14:20 03.07.2019
5544 Rain 8 1009 100 3219 6.7 200 13:43 03.07.2019
5545 Rain 9 1009 100 3219 6.7 200 13:24 03.07.2019
5546 Rain 9 1009 100 3219 6.7 200 13:24 03.07.2019
5547 Rain 8 1009 100 3219 7.7 190 12:46 03.07.2019
5548 Rain 9 1009 100 6437 7.2 190 12:18 03.07.2019
5549 Rain 9 1009 100 3219 7.7 200 11:43 03.07.2019
5550 Rain 9 1009 100 3219 7.7 200 11:23 03.07.2019
5551 Rain 9 1009 100 3219 7.7 200 10:57 03.07.2019
5552 Rain 9 1008 100 3219 7.7 190 10:36 03.07.2019
5553 Rain 9 1009 100 2414 8.2 190 10:18 03.07.2019
5554 Rain 9 1008 100 4023 7.2 180 09:39 03.07.2019
5555 Rain 9 1008 100 4828 9.3 190 09:20 03.07.2019
5556 Rain 9 1008 100 4828 9.3 190 08:50 03.07.2019
5557 Rain 10 1008 100 4828 9.3 190 08:26 03.07.2019
5558 Rain 10 1009 100 4828 8.2 190 07:41 03.07.2019
5559 Rain 10 1009 100 6437 9.3 190 07:21 03.07.2019
5560 Rain 10 1009 100 3219 10.3 190 06:25 03.07.2019
5561 Rain 10 1009 100 2816 10.3 190 05:34 03.07.2019
5562 Rain 10 1009 100 2414 9.8 190 04:41 03.07.2019
5563 Rain 11 1010 100 3219 10.8 160 03:24 03.07.2019
5564 Rain 11 1011 100 3219 9.3 150 01:59 03.07.2019
5565 Rain 11 1011 100 3219 9.3 150 01:21 03.07.2019
5566 Rain 11 1012 100 3219 8.7 150 00:45 03.07.2019
5567 Rain 11 1012 100 3219 8.7 150 00:18 03.07.2019
5568 Rain 10 1012 100 2816 9.8 140 23:38 02.07.2019
5569 Rain 10 1012 100 2816 9.8 140 23:20 02.07.2019
5570 Rain 10 1012 100 2816 9.8 140 22:56 02.07.2019
5571 Rain 10 1012 100 2816 8.7 140 22:38 02.07.2019
5572 Rain 10 1013 100 4023 6.7 150 22:19 02.07.2019
5573 Rain 10 1013 100 4023 8.7 130 21:43 02.07.2019
5574 Rain 10 1013 100 4023 8.7 130 21:23 02.07.2019
5575 Rain 10 1013 100 4023 8.7 130 20:58 02.07.2019
5576 Rain 10 1013 100 6437 9.3 130 20:39 02.07.2019
5577 Rain 11 1014 100 6437 7.2 140 20:20 02.07.2019
5578 Clouds 11 1014 93 11265 7.2 140 19:42 02.07.2019
5579 Clouds 11 1014 93 11265 7.2 140 19:23 02.07.2019
5580 Mist 11 1014 100 4828 7.2 140 18:50 02.07.2019
5581 Rain 11 1015 100 4828 6.2 160 18:19 02.07.2019
5582 Mist 11 1015 100 6437 6.7 150 17:44 02.07.2019
5583 Mist 11 1015 100 6437 6.7 150 17:24 02.07.2019
5584 Rain 11 1015 100 6437 6.7 150 16:54 02.07.2019
5585 Rain 11 1015 100 16093 6.7 150 16:35 02.07.2019
5586 Rain 11 1016 100 8047 7.2 160 15:59 02.07.2019
5587 Rain 11 1016 100 8047 7.2 160 15:38 02.07.2019
5588 Rain 11 1016 100 8047 7.2 160 15:20 02.07.2019
5589 Rain 11 1016 100 12874 6.7 170 14:41 02.07.2019
5590 Rain 11 1016 100 12874 6.7 170 14:22 02.07.2019
5591 Rain 11 1016 100 12874 7.7 170 13:43 02.07.2019
5592 Rain 11 1016 100 12874 7.7 170 13:19 02.07.2019
5593 Rain 11 1016 100 9656 8.7 170 12:44 02.07.2019
5594 Rain 11 1016 100 9656 8.7 170 12:23 02.07.2019
5595 Rain 11 1017 100 4828 8.2 170 11:44 02.07.2019
5596 Rain 11 1017 100 4828 8.2 170 11:44 02.07.2019
5597 Rain 11 1017 100 4828 8.2 170 11:24 02.07.2019
5598 Rain 11 1017 100 4023 7.7 160 10:59 02.07.2019
5599 Rain 11 1017 100 4828 8.2 160 10:37 02.07.2019
5600 Rain 11 1017 100 4828 7.7 160 10:18 02.07.2019
5601 Rain 11 1018 100 2816 8.2 130 09:37 02.07.2019
5602 Rain 11 1019 100 3219 8.2 120 09:19 02.07.2019
5603 Rain 11 1019 100 3219 8.2 120 08:39 02.07.2019
5604 Rain 11 1019 100 3219 8.2 120 08:20 02.07.2019
5605 Rain 11 1019 93 6437 8.2 120 07:47 02.07.2019
5606 Rain 11 1019 93 6437 8.2 120 07:20 02.07.2019
5607 Rain 11 1020 93 16093 6.7 110 06:40 02.07.2019
5608 Rain 11 1021 93 16093 6.7 110 05:46 02.07.2019
5609 Clouds 10 1023 81 16093 6.2 150 02:43 02.07.2019
5610 Clouds 10 1024 87 16093 2.6 170 00:41 02.07.2019
5611 Clouds 10 1025 87 16093 5.7 190 23:40 01.07.2019
5612 Clouds 9 1025 81 16093 5.1 190 23:19 01.07.2019
5613 Clouds 9 1025 81 16093 5.1 190 22:44 01.07.2019
5614 Clouds 10 1025 81 16093 5.1 190 22:26 01.07.2019
5615 Clouds 9 1025 81 16093 5.1 190 21:45 01.07.2019
5616 Clouds 9 1025 81 16093 5.1 190 21:25 01.07.2019
5617 Clouds 9 1025 93 16093 4.6 210 20:51 01.07.2019
5618 Clouds 8 1025 93 16093 4.6 210 20:21 01.07.2019
5619 Clouds 9 1025 93 16093 4.6 210 19:57 01.07.2019
5620 Clouds 8 1025 87 16093 5.1 210 19:38 01.07.2019
5621 Clouds 8 1025 87 16093 5.1 210 19:20 01.07.2019
5622 Clouds 8 1025 87 14484 5.1 220 18:50 01.07.2019
5623 Clouds 8 1025 87 14484 5.1 220 18:28 01.07.2019
5624 Rain 9 1024 85 0 6.09 228.374 17:48 01.07.2019
5625 Clouds 8 1025 93 16093 6.2 220 17:28 01.07.2019
5626 Clouds 8 1025 93 16093 6.2 220 16:58 01.07.2019
5627 Clouds 8 1025 93 16093 6.2 220 16:40 01.07.2019
5628 Clouds 8 1025 93 16093 6.2 220 16:22 01.07.2019
5629 Clouds 8 1025 93 16093 5.1 230 15:44 01.07.2019
5630 Clouds 8 1025 93 16093 5.1 230 15:26 01.07.2019
5631 Clouds 8 1024 93 16093 7.2 220 14:45 01.07.2019
5632 Clouds 8 1024 93 16093 7.2 220 14:24 01.07.2019
5633 Clouds 9 1024 87 16093 7.7 230 13:49 01.07.2019
5634 Clouds 9 1024 87 16093 7.7 230 13:24 01.07.2019
5635 Clouds 9 1024 87 16093 8.2 240 12:58 01.07.2019
5636 Clouds 9 1024 87 16093 8.2 240 12:38 01.07.2019
5637 Clouds 9 1024 87 16093 8.2 240 12:20 01.07.2019
5638 Clouds 9 1024 87 16093 8.2 220 11:47 01.07.2019
5639 Clouds 9 1024 87 16093 8.2 220 11:28 01.07.2019
5640 Clouds 9 1023 87 16093 8.2 230 10:55 01.07.2019
5641 Clouds 9 1023 87 16093 8.2 230 10:37 01.07.2019
5642 Clouds 9 1023 87 16093 8.2 230 10:18 01.07.2019
5643 Clouds 9 1023 87 16093 8.7 230 09:41 01.07.2019
5644 Clouds 9 1023 87 16093 8.7 230 09:22 01.07.2019
5645 Clouds 10 1023 81 16093 8.2 240 08:39 01.07.2019
5646 Clouds 10 1023 81 16093 8.2 240 08:21 01.07.2019
5647 Clouds 10 1022 81 16093 8.2 240 07:33 01.07.2019
5648 Clouds 11 1022 81 16093 10.3 230 06:41 01.07.2019
5649 Clouds 10 1021 87 16093 10.8 230 04:31 01.07.2019
5650 Clouds 9 1019 87 11265 9.3 220 00:53 01.07.2019
5651 Rain 9 1019 87 12874 11.3 200 00:31 01.07.2019
5652 Clouds 9 1019 81 16093 9.3 220 23:58 30.06.2019
5653 Clouds 9 1019 81 16093 9.3 220 23:24 30.06.2019
5654 Clouds 9 1018 87 16093 9.3 230 22:55 30.06.2019
5655 Clouds 9 1018 87 16093 9.3 230 22:23 30.06.2019
5656 Clouds 9 1018 87 16093 10.3 220 21:58 30.06.2019
5657 Clouds 9 1018 87 16093 10.3 220 21:40 30.06.2019
5658 Clouds 9 1018 87 16093 10.3 220 21:18 30.06.2019
5659 Clouds 9 1017 87 16093 7.7 210 20:41 30.06.2019
5660 Clouds 9 1017 87 16093 7.7 210 20:23 30.06.2019
5661 Mist 9 1017 87 12874 9.3 220 19:51 30.06.2019
5662 Mist 9 1017 87 12874 9.3 220 19:25 30.06.2019
5663 Rain 9 1017 93 12874 10.3 220 18:48 30.06.2019
5664 Rain 9 1017 93 12874 10.3 220 18:22 30.06.2019
5665 Clouds 9 1017 100 16093 7.2 200 17:41 30.06.2019
5666 Clouds 9 1017 100 16093 7.2 200 17:19 30.06.2019
5667 Rain 9 1017 100 8047 8.7 200 16:52 30.06.2019
5668 Mist 9 1017 100 9656 6.7 190 16:33 30.06.2019
5669 Clouds 10 1017 87 16093 8.7 200 15:58 30.06.2019
5670 Clouds 10 1017 93 16093 9.3 210 15:36 30.06.2019
5671 Clouds 10 1017 93 16093 9.3 210 15:18 30.06.2019
5672 Rain 10 1017 93 4828 9.8 220 14:45 30.06.2019
5673 Mist 11 1017 93 9656 8.7 190 14:27 30.06.2019
5674 Clouds 11 1018 87 14484 6.2 190 13:43 30.06.2019
5675 Clouds 11 1018 87 14484 6.2 190 13:23 30.06.2019
5676 Clouds 11 1018 93 12874 5.1 180 12:48 30.06.2019
5677 Clouds 11 1018 93 12874 6.2 180 12:25 30.06.2019
5678 Rain 11 1018 93 8047 6.2 190 11:55 30.06.2019
5679 Clouds 11 1018 100 14484 5.1 190 11:36 30.06.2019
5680 Clouds 11 1018 100 14484 5.1 190 11:18 30.06.2019
5681 Clouds 11 1018 93 16093 5.1 200 10:38 30.06.2019
5682 Clouds 11 1018 93 16093 5.1 200 10:19 30.06.2019
5683 Clouds 11 1019 93 16093 5.1 200 09:44 30.06.2019
5684 Clouds 11 1019 93 16093 5.1 200 09:44 30.06.2019
5685 Clouds 11 1019 93 16093 5.1 200 09:23 30.06.2019
5686 Clouds 11 1019 87 12874 6.2 190 08:59 30.06.2019
5687 Clouds 11 1019 87 12874 6.2 190 08:32 30.06.2019
5688 Clouds 11 1019 81 14484 4.6 200 07:59 30.06.2019
5689 Clouds 11 1019 81 14484 4.6 200 07:29 30.06.2019
5690 Clouds 11 1019 81 16093 5.1 180 06:51 30.06.2019
5691 Clouds 12 1020 76 16093 6.7 180 05:34 30.06.2019
5692 Clouds 12 1021 81 16093 6.7 180 02:53 30.06.2019
5693 Clouds 12 1021 81 16093 6.2 180 01:30 30.06.2019
5694 Clouds 12 1021 81 16093 5.7 170 00:32 30.06.2019
5695 Clouds 12 1022 81 16093 4.6 180 23:56 29.06.2019
5696 Clouds 12 1022 81 16093 4.6 180 23:25 29.06.2019
5697 Clouds 11 1022 87 16093 5.7 160 22:58 29.06.2019
5698 Clouds 11 1022 87 16093 5.7 160 22:40 29.06.2019
5699 Clouds 11 1022 87 16093 5.7 160 22:21 29.06.2019
5700 Clouds 11 1022 87 16093 5.7 180 21:49 29.06.2019
5701 Clouds 11 1022 87 16093 5.7 180 21:23 29.06.2019
5702 Clouds 11 1021 87 16093 4.1 180 20:42 29.06.2019
5703 Clouds 11 1021 87 16093 4.1 180 20:24 29.06.2019
5704 Clouds 11 1022 87 16093 4.6 200 19:48 29.06.2019
5705 Clouds 11 1022 87 16093 4.6 200 19:24 29.06.2019
5706 Clouds 11 1021 81 16093 5.1 190 18:51 29.06.2019
5707 Clouds 11 1021 81 16093 5.1 190 18:27 29.06.2019
5708 Clouds 11 1022 81 16093 4.6 190 17:55 29.06.2019
5709 Clouds 11 1022 81 16093 4.6 190 17:36 29.06.2019
5710 Clouds 11 1022 81 16093 4.6 190 17:18 29.06.2019
5711 Clouds 11 1021 81 16093 4.6 180 16:42 29.06.2019
5712 Clouds 11 1021 81 16093 4.1 200 15:54 29.06.2019
5713 Clouds 11 1022 81 16093 5.7 210 15:31 29.06.2019
5714 Clouds 11 1022 81 16093 5.7 210 14:45 29.06.2019
5715 Clouds 11 1022 81 16093 5.7 210 14:26 29.06.2019
5716 Clouds 10 1022 81 16093 5.1 210 13:50 29.06.2019
5717 Clouds 10 1022 81 16093 4.6 220 13:27 29.06.2019
5718 Clouds 10 1021 81 16093 4.1 210 12:57 29.06.2019
5719 Clouds 10 1021 81 16093 5.1 210 12:37 29.06.2019
5720 Clouds 10 1021 81 16093 5.1 210 12:18 29.06.2019
5721 Clouds 11 1021 76 16093 5.1 210 11:40 29.06.2019
5722 Clouds 11 1021 76 16093 5.1 210 11:21 29.06.2019
5723 Clouds 11 1021 87 16093 5.1 220 10:41 29.06.2019
5724 Clouds 11 1021 87 16093 5.1 220 10:20 29.06.2019
5725 Clouds 11 1020 87 16093 5.1 220 09:48 29.06.2019
5726 Clouds 11 1020 87 16093 5.7 220 08:54 29.06.2019
5727 Clouds 11 1020 87 16093 6.2 220 08:25 29.06.2019
5728 Clouds 11 1020 87 16093 5.1 220 07:44 29.06.2019
5729 Clouds 12 1020 87 16093 5.1 210 06:47 29.06.2019
5730 Clouds 12 1020 87 16093 5.1 210 06:24 29.06.2019
5731 Clouds 13 1019 87 16093 5.1 200 02:52 29.06.2019
5732 Clouds 13 1019 87 16093 5.1 220 01:32 29.06.2019
5733 Clouds 14 1018 87 16093 5.1 200 00:31 29.06.2019
5734 Clouds 14 1018 93 16093 4.6 230 23:38 28.06.2019
5735 Clouds 15 1018 93 16093 4.6 230 23:20 28.06.2019
5736 Clouds 15 1017 93 16093 5.1 190 22:46 28.06.2019
5737 Clouds 16 1017 82 16093 5.7 150 21:58 28.06.2019
5738 Clouds 16 1017 82 16093 5.7 150 21:27 28.06.2019
5739 Clouds 17 1016 72 16093 4.1 120 20:55 28.06.2019
5740 Clouds 18 1016 72 16093 4.1 120 20:37 28.06.2019
5741 Clouds 18 1016 72 16093 4.1 120 20:18 28.06.2019
5742 Clouds 18 1016 68 16093 4.6 100 19:37 28.06.2019
5743 Clouds 18 1016 68 16093 4.6 100 19:19 28.06.2019
5744 Clouds 18 1016 72 16093 3.1 80 18:41 28.06.2019
5745 Clouds 18 1016 72 16093 3.1 80 18:21 28.06.2019
5746 Clear 16 1016 87 16093 1.66 84.245 17:41 28.06.2019
5747 Clear 15 1016 87 16093 1.66 84.245 17:23 28.06.2019
5748 Clear 14 1016 93 16093 1.66 84.245 16:46 28.06.2019
5749 Clear 13 1016 93 16093 1.66 84.245 16:18 28.06.2019
5750 Clear 13 1016 93 16093 1.66 84.245 15:40 28.06.2019
5751 Clear 13 1016 93 16093 1.32 33.293 15:18 28.06.2019
5752 Clouds 13 1017 93 16093 2.6 10 14:39 28.06.2019
5753 Clouds 13 1017 93 16093 2.6 10 14:21 28.06.2019
5754 Clouds 13 1017 93 16093 1.5 350 13:46 28.06.2019
5755 Clouds 12 1017 93 16093 1.5 350 13:27 28.06.2019
5756 Clear 13 1017 93 16093 1.44 43.821 12:51 28.06.2019
5757 Clear 13 1017 93 16093 1.44 43.821 12:32 28.06.2019
5758 Clouds 14 1017 87 16093 2.6 290 11:40 28.06.2019
5759 Clouds 14 1017 87 16093 2.6 290 11:18 28.06.2019
5760 Clouds 16 1017 77 16093 1.5 320 10:40 28.06.2019
5761 Clouds 16 1017 77 16093 1.5 320 10:18 28.06.2019
5762 Clouds 16 1017 77 16093 1.18 176.648 09:44 28.06.2019
5763 Clouds 16 1017 77 16093 3.46 116.194 09:25 28.06.2019
5764 Clear 16 1017 77 16093 2.1 170 08:43 28.06.2019
5765 Clear 16 1017 77 16093 2.1 170 08:24 28.06.2019
5766 Clouds 17 1017 77 16093 4.1 140 07:42 28.06.2019
5767 Clouds 16 1017 82 16093 4.1 150 06:54 28.06.2019
5768 Clouds 16 1018 72 16093 2.6 170 03:59 28.06.2019
5769 Clouds 15 1018 93 16093 4.6 130 00:48 28.06.2019
5770 Clouds 16 1018 93 16093 4.6 130 00:20 28.06.2019
5771 Clouds 14 1018 93 16093 6.7 130 23:46 27.06.2019
5772 Clouds 15 1018 93 16093 6.7 130 23:24 27.06.2019
5773 Clouds 15 1018 93 16093 5.1 130 22:44 27.06.2019
5774 Clouds 15 1018 93 16093 5.1 130 22:25 27.06.2019
5775 Clouds 14 1018 100 16093 4.6 130 21:58 27.06.2019
5776 Clouds 14 1018 100 16093 4.6 130 21:39 27.06.2019
5777 Clouds 13 1018 100 16093 4.6 130 21:20 27.06.2019
5778 Clouds 13 1017 100 16093 3.6 120 20:48 27.06.2019
5779 Clouds 13 1017 100 16093 3.6 120 20:30 27.06.2019
5780 Clouds 13 1018 100 16093 4.1 120 19:50 27.06.2019
5781 Clouds 13 1018 100 16093 4.1 120 19:29 27.06.2019
5782 Clouds 13 1018 100 16093 5.1 140 18:53 27.06.2019
5783 Clouds 13 1017 100 16093 5.1 130 18:32 27.06.2019
5784 Clouds 13 1017 100 16093 5.1 130 17:58 27.06.2019
5785 Clouds 13 1017 100 16093 5.1 130 17:37 27.06.2019
5786 Clouds 13 1017 100 16093 5.1 130 17:19 27.06.2019
5787 Rain 12 1017 100 4828 3.6 130 16:39 27.06.2019
5788 Rain 12 1017 100 4828 3.6 130 16:19 27.06.2019
5789 Clouds 12 1017 100 16093 4.1 140 15:45 27.06.2019
5790 Clouds 12 1017 100 16093 4.1 140 15:24 27.06.2019
5791 Rain 12 1017 100 11265 5.1 120 14:48 27.06.2019
5792 Rain 12 1017 100 9656 4.6 120 14:29 27.06.2019
5793 Rain 13 1017 100 8047 4.1 120 13:50 27.06.2019
5794 Rain 13 1017 100 9656 4.1 120 13:31 27.06.2019
5795 Rain 12 1017 100 6437 3.6 110 12:58 27.06.2019
5796 Rain 12 1017 100 6437 3.6 110 12:38 27.06.2019
5797 Rain 12 1017 100 6437 3.6 110 12:19 27.06.2019
5798 Rain 12 1017 100 8047 3.1 130 11:42 27.06.2019
5799 Rain 12 1017 100 8047 3.1 130 11:21 27.06.2019
5800 Rain 12 1017 100 4828 3.1 140 10:46 27.06.2019
5801 Rain 12 1017 100 3219 4.1 160 10:22 27.06.2019
5802 Rain 12 1016 100 2012 3.1 130 09:56 27.06.2019
5803 Mist 12 1016 100 2414 3.6 160 09:36 27.06.2019
5804 Mist 12 1016 100 2414 3.6 160 09:18 27.06.2019
5805 Rain 13 1016 100 2816 4.6 140 08:41 27.06.2019
5806 Rain 12 1016 100 2816 4.6 140 08:19 27.06.2019
5807 Mist 13 1015 100 4023 5.1 130 07:38 27.06.2019
5808 Rain 13 1015 100 12874 5.1 130 06:54 27.06.2019
5809 Rain 13 1015 100 9656 6.2 120 06:28 27.06.2019
5810 Rain 14 1014 100 4828 9.3 140 03:22 27.06.2019
5811 Rain 13 1014 100 2012 8.7 130 02:39 27.06.2019
5812 Rain 14 1014 100 2816 10.8 110 01:18 27.06.2019
5813 Rain 14 1014 100 8047 9.3 110 00:42 27.06.2019
5814 Rain 14 1014 100 8047 9.3 110 00:19 27.06.2019
5815 Rain 14 1014 100 8047 8.7 110 23:42 26.06.2019
5816 Rain 14 1014 100 8047 8.7 110 23:22 26.06.2019
5817 Rain 14 1014 100 6437 8.7 110 22:55 26.06.2019
5818 Rain 14 1014 100 6437 8.7 110 22:37 26.06.2019
5819 Rain 14 1014 100 6437 8.7 110 22:18 26.06.2019
5820 Rain 14 1014 100 6437 9.8 110 21:39 26.06.2019
5821 Rain 14 1014 100 6437 9.8 110 21:19 26.06.2019
5822 Rain 14 1014 100 4828 9.8 110 20:49 26.06.2019
5823 Rain 14 1014 100 4023 9.3 110 20:30 26.06.2019
5824 Rain 14 1014 100 4828 7.7 90 19:50 26.06.2019
5825 Rain 14 1014 100 2816 6.7 100 19:31 26.06.2019
5826 Rain 14 1014 100 16093 4.6 90 18:58 26.06.2019
5827 Rain 14 1014 100 16093 4.6 90 18:39 26.06.2019
5828 Rain 14 1014 100 16093 4.6 90 18:21 26.06.2019
5829 Rain 14 1014 100 14484 4.6 100 17:46 26.06.2019
5830 Rain 14 1014 100 14484 4.6 100 17:46 26.06.2019
5831 Rain 14 1014 93 8047 5.1 80 17:27 26.06.2019
5832 Rain 14 1014 93 8047 5.1 80 17:27 26.06.2019
5833 Rain 14 1014 93 8047 5.1 80 17:27 26.06.2019
5834 Rain 14 1014 93 8047 5.1 80 17:27 26.06.2019
5835 Rain 14 1014 93 14484 4.6 70 16:52 26.06.2019
5836 Rain 14 1014 93 14484 4.6 70 16:30 26.06.2019
5837 Rain 14 1015 93 16093 4.6 80 15:58 26.06.2019
5838 Rain 14 1015 93 16093 4.6 80 15:58 26.06.2019
5839 Rain 15 1015 93 16093 4.6 80 15:28 26.06.2019
5840 Rain 14 1015 93 16093 4.6 80 14:57 26.06.2019
5841 Rain 14 1015 93 16093 4.6 80 14:57 26.06.2019
5842 Rain 14 1015 93 16093 4.6 80 14:37 26.06.2019
5843 Rain 14 1015 93 16093 4.6 80 14:18 26.06.2019
5844 Rain 14 1015 87 16093 4.6 100 13:39 26.06.2019
5845 Rain 15 1015 87 16093 4.6 100 13:18 26.06.2019
5846 Rain 16 1015 67 16093 5.1 90 12:40 26.06.2019
5847 Rain 16 1015 67 16093 5.1 90 12:40 26.06.2019
5848 Rain 16 1015 67 16093 5.1 90 12:19 26.06.2019
5849 Rain 16 1014 63 16093 4.1 70 11:37 26.06.2019
5850 Rain 16 1014 63 16093 4.1 70 11:18 26.06.2019
5851 Clouds 16 1015 67 16093 4.1 120 10:39 26.06.2019
5852 Clouds 16 1015 67 16093 4.1 120 10:20 26.06.2019
5853 Clouds 17 1014 55 16093 2.6 60 09:36 26.06.2019
5854 Clouds 17 1014 55 16093 2.6 60 09:18 26.06.2019
5855 Clouds 17 1014 59 16093 2.6 50 08:23 26.06.2019
5856 Clouds 17 1015 55 16093 2.1 80 07:59 26.06.2019
5857 Clouds 17 1015 55 16093 2.1 80 07:41 26.06.2019
5858 Clouds 16 1015 59 16093 3.1 130 06:33 26.06.2019
5859 Clouds 16 1016 55 16093 4.6 150 03:33 26.06.2019
5860 Clouds 16 1016 55 16093 5.7 150 00:41 26.06.2019
5861 Clouds 16 1016 55 16093 4.1 140 23:58 25.06.2019
5862 Clouds 15 1016 55 16093 4.1 140 23:39 25.06.2019
5863 Clouds 16 1016 55 16093 4.1 140 23:20 25.06.2019
5864 Clouds 16 1016 51 16093 2.1 80 22:42 25.06.2019
5865 Clouds 16 1016 51 16093 2.1 80 22:23 25.06.2019
5866 Clouds 16 1016 51 16093 3.6 20 21:46 25.06.2019
5867 Clouds 16 1016 51 16093 3.6 20 21:27 25.06.2019
5868 -273 0 0 0 0 0 20:57 25.06.2019
5869 Clouds 15 1017 58 16093 2.6 10 20:36 25.06.2019
5870 Clouds 15 1017 58 16093 2.6 10 20:18 25.06.2019
5871 Clouds 14 1017 62 16093 3.6 10 19:43 25.06.2019
5872 Clouds 14 1017 62 16093 3.6 10 19:21 25.06.2019
5873 Clouds 13 1017 71 16093 2.6 360 18:42 25.06.2019
5874 Clouds 13 1017 71 16093 2.6 360 18:24 25.06.2019
5875 -273 0 0 0 0 0 17:46 25.06.2019
5876 -273 0 0 0 0 0 17:26 25.06.2019
5877 -273 0 0 0 0 0 17:26 25.06.2019
5878 Clouds 13 1016 66 16093 5.1 50 16:44 25.06.2019
5879 Clouds 12 1016 66 16093 5.1 50 16:26 25.06.2019
5880 Clouds 12 1017 66 16093 5.1 50 15:59 25.06.2019
5881 Clouds 12 1017 66 16093 5.1 50 15:39 25.06.2019
5882 Clouds 12 1017 66 16093 5.1 50 15:20 25.06.2019
5883 Clouds 13 1017 66 16093 4.6 40 14:45 25.06.2019
5884 Clouds 13 1017 66 16093 4.6 40 14:26 25.06.2019
5885 Clouds 13 1017 71 16093 1.69 16.501 13:43 25.06.2019
5886 Clouds 12 1017 71 16093 1.42 21.162 13:23 25.06.2019
5887 Clouds 13 1017 71 16093 2.1 60 12:42 25.06.2019
5888 Clouds 13 1017 71 16093 2.1 60 12:24 25.06.2019
5889 Clouds 13 1017 87 16093 3.1 280 11:45 25.06.2019
5890 Clouds 12 1017 87 16093 3.1 280 11:24 25.06.2019
5891 Clouds 12 1017 93 16093 2.1 290 10:58 25.06.2019
5892 Clouds 12 1017 93 16093 2.1 290 10:37 25.06.2019
5893 Clouds 12 1017 93 16093 2.1 290 10:19 25.06.2019
5894 Clouds 12 1017 93 16093 1.5 250 09:39 25.06.2019
5895 Clouds 12 1017 93 16093 1.5 250 09:21 25.06.2019
5896 Clouds 12 1018 93 16093 1.5 230 08:54 25.06.2019
5897 Clouds 12 1018 93 16093 1.5 230 08:31 25.06.2019
5898 Clouds 12 1018 93 16093 2.1 170 07:45 25.06.2019
5899 Clouds 12 1018 93 16093 2.1 170 07:26 25.06.2019
5900 Clouds 12 1018 93 16093 2.6 150 06:47 25.06.2019
5901 Clouds 12 1018 87 16093 3.1 160 05:58 25.06.2019
5902 Clouds 12 1019 87 16093 4.6 70 02:43 25.06.2019
5903 Rain 12 1020 100 4828 3.6 90 00:57 25.06.2019
5904 Rain 11 1020 100 2414 3.6 90 00:25 25.06.2019
5905 Rain 12 1020 81 9656 5.1 110 23:52 24.06.2019
5906 Clouds 13 1020 76 16093 6.2 130 23:33 24.06.2019
5907 Clouds 13 1020 71 16093 5.1 150 22:49 24.06.2019
5908 Clouds 13 1020 71 16093 5.1 150 22:22 24.06.2019
5909 Clouds 13 1020 71 16093 3.1 150 21:58 24.06.2019
5910 Clouds 13 1020 71 16093 3.1 150 21:37 24.06.2019
5911 Clouds 13 1020 71 16093 3.1 150 21:18 24.06.2019
5912 Clouds 13 1020 71 16093 2.6 80 20:43 24.06.2019
5913 Clouds 13 1020 71 16093 2.6 80 20:23 24.06.2019
5914 Clouds 13 1020 76 16093 2.21 93.249 19:58 24.06.2019
5915 Clouds 12 1020 76 16093 2.21 93.249 19:39 24.06.2019
5916 Clouds 12 1020 76 16093 2.21 93.249 19:21 24.06.2019
5917 Clouds 11 1020 93 16093 1.5 340 18:41 24.06.2019
5918 Clouds 11 1020 93 16093 1.5 340 18:20 24.06.2019
5919 Clouds 10 1020 87 16093 2.71 37.611 17:37 24.06.2019
5920 Clouds 10 1020 87 16093 2.71 37.611 17:18 24.06.2019
5921 Clouds 9 1021 93 16093 2.1 20 16:44 24.06.2019
5922 Clouds 9 1021 93 16093 2.1 20 16:19 24.06.2019
5923 Clouds 10 1021 87 16093 2.71 37.611 15:44 24.06.2019
5924 Clouds 10 1021 87 16093 1.98 28.246 15:25 24.06.2019
5925 Clouds 10 1021 87 16093 1.5 30 14:37 24.06.2019
5926 Clouds 10 1021 87 16093 1.5 30 14:19 24.06.2019
5927 Clouds 11 1021 87 16093 1.5 90 13:33 24.06.2019
5928 Clouds 11 1021 81 16093 2.1 110 12:58 24.06.2019
5929 Clouds 11 1021 81 16093 2.1 110 12:39 24.06.2019
5930 Clouds 11 1021 81 16093 2.1 110 12:20 24.06.2019
5931 Clear 11 1021 76 16093 1.84 305.817 11:44 24.06.2019
5932 Clear 11 1021 76 16093 1.84 305.817 11:26 24.06.2019
5933 Clouds 12 1021 71 16093 2.1 270 10:52 24.06.2019
5934 Clouds 12 1021 71 16093 2.1 270 10:33 24.06.2019
5935 Clouds 12 1021 81 16093 3.6 240 09:56 24.06.2019
5936 Clouds 12 1021 81 16093 3.6 240 09:37 24.06.2019
5937 Clouds 11 1021 81 16093 3.6 240 09:18 24.06.2019
5938 Clouds 12 1022 71 16093 3.6 250 08:34 24.06.2019
5939 Clouds 12 1022 71 16093 3.6 240 07:50 24.06.2019
5940 Clouds 12 1022 71 16093 3.6 240 07:27 24.06.2019
5941 Clouds 12 1022 71 16093 3.6 240 06:57 24.06.2019
5942 Clouds 13 1022 71 16093 3.6 240 06:23 24.06.2019
5943 Clouds 13 1022 71 16093 3.6 230 05:31 24.06.2019
5944 Clouds 12 1022 81 16093 3.1 220 04:34 24.06.2019
5945 Clouds 12 1023 87 16093 1.5 230 03:32 24.06.2019
5946 Clouds 12 1023 87 16093 2.1 230 02:34 24.06.2019
5947 Clouds 11 1023 87 16093 2.6 210 01:54 24.06.2019
5948 Clouds 11 1023 87 16093 2.6 210 01:28 24.06.2019
5949 Clouds 12 1022 87 16093 3.1 170 00:45 24.06.2019
5950 Clouds 11 1022 87 16093 3.1 170 00:20 24.06.2019
5951 Clouds 11 1022 87 16093 2.6 80 23:47 23.06.2019
5952 Clouds 11 1022 87 16093 2.6 80 23:28 23.06.2019
5953 Clouds 11 1022 87 14484 2.1 70 22:56 23.06.2019
5954 Clouds 11 1022 87 16093 2.1 70 22:38 23.06.2019
5955 Clouds 11 1022 87 16093 2.1 70 22:19 23.06.2019
5956 Clouds 11 1022 87 16093 3.6 90 21:40 23.06.2019
5957 Clouds 11 1022 87 16093 3.6 90 21:21 23.06.2019
5958 Clouds 11 1022 87 16093 3.6 100 20:49 23.06.2019
5959 Clouds 11 1022 87 16093 3.1 120 20:29 23.06.2019
5960 Clouds 11 1022 81 16093 3.1 100 19:46 23.06.2019
5961 Clouds 11 1022 81 16093 3.1 100 19:22 23.06.2019
5962 Clouds 11 1021 87 16093 3.6 110 18:55 23.06.2019
5963 -273 0 0 0 0 0 18:26 23.06.2019
5964 Clouds 11 1022 93 16093 3.1 70 17:59 23.06.2019
5965 Clouds 10 1022 93 16093 2.6 70 17:38 23.06.2019
5966 Clouds 10 1022 93 16093 2.6 70 17:19 23.06.2019
5967 Clouds 10 1022 93 16093 2.1 60 16:43 23.06.2019
5968 Clouds 10 1022 93 16093 2.1 60 16:23 23.06.2019
5969 Clouds 10 1021 93 16093 2.6 80 15:41 23.06.2019
5970 Clouds 10 1021 93 16093 2.6 80 15:22 23.06.2019
5971 Clouds 9 1021 100 16093 2.6 60 14:42 23.06.2019
5972 Clouds 9 1021 100 16093 2.6 60 14:24 23.06.2019
5973 Clear 10 1021 93 16093 4.1 80 13:59 23.06.2019
5974 Clear 10 1021 93 16093 4.1 80 13:41 23.06.2019
5975 Clear 10 1021 93 16093 4.1 80 13:19 23.06.2019
5976 Clear 9 1021 100 16093 2.1 60 12:47 23.06.2019
5977 Clear 9 1021 100 16093 2.1 60 12:23 23.06.2019
5978 Clouds 10 1020 93 16093 3.1 80 11:58 23.06.2019
5979 Clouds 10 1020 93 16093 3.1 80 11:40 23.06.2019
5980 Clouds 10 1020 93 16093 3.1 80 11:21 23.06.2019
5981 Clouds 11 1020 93 16093 2.1 70 10:46 23.06.2019
5982 Clouds 11 1020 93 16093 2.1 70 10:20 23.06.2019
5983 Clouds 11 1020 93 16093 2.1 70 10:20 23.06.2019
5984 Clouds 11 1020 87 16093 1.5 170 09:53 23.06.2019
5985 Clouds 11 1020 87 16093 1.5 170 09:21 23.06.2019
5986 Clouds 11 1020 93 16093 1.5 220 08:46 23.06.2019
5987 Clouds 11 1020 93 16093 1.5 220 08:27 23.06.2019
5988 Clouds 11 1020 87 16093 3.1 230 07:55 23.06.2019
5989 Clouds 11 1020 87 16093 3.1 230 07:24 23.06.2019
5990 Clouds 12 1020 81 16093 3.6 270 06:54 23.06.2019
5991 Clouds 10 1020 93 16093 5.1 250 05:55 23.06.2019
5992 Clouds 10 1020 93 16093 5.1 250 05:55 23.06.2019
5993 Clouds 11 1020 87 16093 8.7 240 04:38 23.06.2019
5994 Clouds 11 1020 81 16093 9.3 250 02:20 23.06.2019
5995 Clouds 11 1020 81 16093 9.3 250 01:37 23.06.2019
5996 Clouds 11 1020 81 16093 9.8 250 00:37 23.06.2019
5997 Clouds 11 1020 81 16093 9.3 250 23:57 22.06.2019
5998 Clouds 11 1020 81 16093 9.3 250 23:38 22.06.2019
5999 Clouds 11 1020 81 16093 9.3 250 23:20 22.06.2019
6000 Clouds 11 1019 81 16093 6.7 250 22:44 22.06.2019
6001 Clouds 11 1019 81 16093 6.7 250 22:22 22.06.2019
6002 Clouds 12 1019 76 16093 5.7 240 21:39 22.06.2019
6003 Clouds 12 1019 76 16093 5.7 240 21:20 22.06.2019
6004 Clouds 11 1019 81 16093 3.1 280 20:50 22.06.2019
6005 Clouds 11 1019 81 16093 3.1 280 20:25 22.06.2019
6006 Clouds 11 1019 81 16093 3.1 280 20:25 22.06.2019
6007 Clouds 10 1019 87 16093 3.26 292.069 19:50 22.06.2019
6008 Clouds 10 1019 87 16093 3.26 292.069 19:28 22.06.2019
6009 Clouds 7 1019 100 16093 3.6 280 18:55 22.06.2019
6010 Clouds 7 1019 100 16093 3.6 280 18:33 22.06.2019
6011 Clouds 7 1019 100 16093 3.6 260 17:57 22.06.2019
6012 Clouds 7 1019 100 16093 5.1 270 17:36 22.06.2019
6013 Clouds 7 1019 100 16093 5.1 270 17:18 22.06.2019
6014 Clouds 7 1019 100 16093 4.1 280 16:39 22.06.2019
6015 Clouds 7 1019 100 16093 4.1 280 16:20 22.06.2019
6016 Clouds 7 1019 100 16093 4.6 280 15:40 22.06.2019
6017 Clouds 7 1019 100 16093 4.6 280 15:22 22.06.2019
6018 Clear 7 1019 100 16093 4.6 280 14:41 22.06.2019
6019 Clear 7 1019 100 16093 4.6 280 14:20 22.06.2019
6020 Clear 8 1019 93 16093 4.6 280 13:42 22.06.2019
6021 Clear 8 1019 93 16093 4.6 280 13:23 22.06.2019
6022 Clear 9 1019 93 16093 6.2 260 12:53 22.06.2019
6023 Clear 9 1019 93 16093 6.2 260 12:34 22.06.2019
6024 Clear 10 1019 93 16093 5.7 260 11:58 22.06.2019
6025 Clear 10 1019 93 16093 5.7 260 11:34 22.06.2019
6026 Clear 11 1019 87 16093 6.7 270 10:53 22.06.2019
6027 Clear 11 1019 87 16093 6.7 270 10:21 22.06.2019
6028 Clear 11 1019 87 16093 6.7 270 10:21 22.06.2019
6029 Clouds 12 1019 81 16093 7.2 260 09:55 22.06.2019
6030 Clouds 12 1019 81 16093 7.2 260 09:23 22.06.2019
6031 Clouds 12 1019 81 16093 7.2 260 08:43 22.06.2019
6032 Clouds 12 1019 81 16093 7.2 260 08:23 22.06.2019
6033 Clouds 12 1019 81 16093 8.2 260 07:33 22.06.2019
6034 Clouds 12 1019 81 16093 7.2 260 06:55 22.06.2019
6035 Clouds 12 1019 81 16093 6.7 260 05:23 22.06.2019
6036 Clear 13 1020 82 16093 6.2 250 02:33 22.06.2019
6037 Clouds 13 1020 82 16093 5.7 240 01:22 22.06.2019
6038 Clouds 13 1020 82 16093 5.7 250 00:41 22.06.2019
6039 Clouds 14 1020 82 16093 5.7 250 00:22 22.06.2019
6040 Clouds 13 1020 76 16093 4.6 250 23:44 21.06.2019
6041 Clouds 13 1020 76 16093 4.6 250 23:21 21.06.2019
6042 Clouds 13 1020 76 16093 4.1 270 22:47 21.06.2019
6043 Clouds 13 1020 76 16093 4.1 270 22:47 21.06.2019
6044 Clouds 13 1020 76 16093 4.1 270 22:23 21.06.2019
6045 Clouds 13 1021 87 16093 4.1 280 21:41 21.06.2019
6046 Clouds 13 1021 87 16093 4.1 280 21:41 21.06.2019
6047 Clouds 13 1021 87 16093 4.1 280 21:22 21.06.2019
6048 Clouds 12 1021 87 16093 4.1 270 20:54 21.06.2019
6049 Clouds 12 1021 87 16093 4.1 270 20:28 21.06.2019
6050 Mist 10 1021 100 6437 1.5 280 19:59 21.06.2019
6051 Mist 10 1021 100 6437 1.5 280 19:34 21.06.2019
6052 Mist 9 1021 100 1207 2.6 270 18:49 21.06.2019
6053 Mist 10 1021 100 1609 1.5 290 18:29 21.06.2019
6054 Fog 9 1021 100 402 3.6 340 17:46 21.06.2019
6055 Fog 10 1021 100 805 3.1 320 17:28 21.06.2019
6056 Clouds 10 1021 100 12874 2.6 320 16:40 21.06.2019
6057 Clouds 10 1021 100 12874 2.6 320 16:22 21.06.2019
6058 Clouds 11 1021 100 16093 1.5 330 15:40 21.06.2019
6059 Clouds 11 1021 100 16093 1.5 330 15:20 21.06.2019
6060 Mist 10 1021 100 8047 1.5 340 14:49 21.06.2019
6061 Mist 10 1021 100 2816 1.5 360 14:30 21.06.2019
6062 Fog 10 1021 100 805 2.1 350 13:54 21.06.2019
6063 Fog 10 1021 100 0 1.5 310 13:33 21.06.2019
6064 Fog 10 1021 100 0 2.6 290 12:59 21.06.2019
6065 Fog 10 1021 100 805 2.6 300 12:39 21.06.2019
6066 Fog 10 1021 100 805 2.6 300 12:18 21.06.2019
6067 Fog 10 1021 100 805 2.6 300 12:18 21.06.2019
6068 Fog 10 1021 100 805 2.6 300 12:18 21.06.2019
6069 Clear 12 1021 87 16093 2.1 260 11:46 21.06.2019
6070 Clear 13 1021 87 16093 2.1 260 11:24 21.06.2019
6071 Clear 13 1021 87 16093 1.5 250 10:49 21.06.2019
6072 Clear 13 1021 87 16093 1.5 250 10:21 21.06.2019
6073 Clouds 13 1021 87 16093 1.5 230 09:57 21.06.2019
6074 Clouds 13 1021 87 16093 1.5 230 09:39 21.06.2019
6075 Clouds 14 1021 87 16093 1.5 230 09:19 21.06.2019
6076 Clouds 14 1021 87 16093 2.1 220 08:42 21.06.2019
6077 Clouds 14 1021 87 16093 2.1 220 08:22 21.06.2019
6078 Clouds 14 1021 87 16093 2.1 220 08:22 21.06.2019
6079 Clouds 14 1021 93 16093 2.1 200 07:50 21.06.2019
6080 Clouds 14 1021 93 16093 2.1 200 07:27 21.06.2019
6081 Clear 14 1022 82 16093 3.1 190 06:53 21.06.2019
6082 Clouds 14 1022 82 16093 3.1 180 06:20 21.06.2019
6083 Clouds 15 1022 82 16093 3.1 180 05:25 21.06.2019
6084 Clouds 14 1022 87 16093 3.6 190 04:26 21.06.2019
6085 Clouds 14 1022 87 16093 4.1 180 03:33 21.06.2019
6086 Clouds 14 1022 87 16093 3.6 160 02:48 21.06.2019
6087 Clouds 14 1022 87 16093 4.1 180 01:48 21.06.2019
6088 Clouds 15 1022 82 16093 6.2 200 00:55 21.06.2019
6089 Clouds 15 1022 82 16093 6.2 200 00:22 21.06.2019
6090 Clouds 15 1022 93 16093 5.1 180 23:44 20.06.2019
6091 Clouds 15 1022 93 16093 5.1 180 23:22 20.06.2019
6092 Clouds 14 1022 93 16093 5.1 170 22:56 20.06.2019
6093 Clouds 15 1022 82 16093 4.6 160 22:38 20.06.2019
6094 Clouds 15 1022 82 16093 4.6 160 22:19 20.06.2019
6095 Clouds 16 1022 77 16093 3.1 90 21:44 20.06.2019
6096 Clouds 16 1022 77 16093 3.1 90 21:19 20.06.2019
6097 Clouds 16 1022 82 16093 2.6 90 20:47 20.06.2019
6098 Clouds 16 1022 82 16093 2.6 90 20:26 20.06.2019
6099 Clear 15 1022 87 16093 3.6 90 19:58 20.06.2019
6100 Clear 15 1022 87 16093 3.6 90 19:39 20.06.2019
6101 Clear 15 1022 87 16093 3.6 90 19:18 20.06.2019
6102 Clouds 13 1022 93 16093 3.43 128.9 18:43 20.06.2019
6103 Clouds 13 1022 93 16093 1.47 85.784 18:23 20.06.2019
6104 Clouds 12 1022 100 16093 1.47 85.784 17:53 20.06.2019
6105 Clouds 12 1022 100 16093 1.47 85.784 17:35 20.06.2019
6106 Clouds 12 1021 100 16093 1.5 80 16:56 20.06.2019
6107 Clouds 12 1021 100 16093 1.5 80 16:37 20.06.2019
6108 Clouds 12 1021 100 16093 1.5 80 16:18 20.06.2019
6109 Mist 12 1021 100 4023 3.1 100 15:41 20.06.2019
6110 Mist 12 1021 100 4023 3.1 100 15:22 20.06.2019
6111 Clouds 12 1021 100 16093 2.1 80 14:47 20.06.2019
6112 Clouds 12 1021 100 16093 2.6 120 14:23 20.06.2019
6113 Clear 14 1021 100 16093 1.24 124.783 13:42 20.06.2019
6114 Clear 14 1021 100 16093 0.85 97.883 13:21 20.06.2019
6115 Clouds 13 1021 100 16093 0.85 97.883 12:50 20.06.2019
6116 Clouds 14 1021 93 16093 1.5 30 12:25 20.06.2019
6117 Clouds 14 1021 93 16093 1.5 220 11:58 20.06.2019
6118 Clouds 14 1021 93 16093 1.5 220 11:38 20.06.2019
6119 Clouds 14 1021 93 16093 1.5 220 11:20 20.06.2019
6120 Clear 14 1020 93 16093 2.1 170 10:41 20.06.2019
6121 Clear 14 1020 93 16093 2.1 170 10:22 20.06.2019
6122 Clouds 15 1020 93 16093 1.5 220 09:40 20.06.2019
6123 Clouds 15 1020 93 16093 1.5 220 09:22 20.06.2019
6124 Clouds 16 1020 82 16093 2.1 190 08:47 20.06.2019
6125 Clouds 16 1020 82 16093 2.1 190 08:27 20.06.2019
6126 Clear 16 1020 82 16093 3.1 230 07:55 20.06.2019
6127 Clear 16 1020 82 16093 3.1 230 07:30 20.06.2019
6128 Clear 16 1020 87 16093 2.6 200 06:43 20.06.2019
6129 Clear 16 1020 87 16093 2.6 200 06:18 20.06.2019
6130 Clear 17 1019 82 16093 2.6 190 03:37 20.06.2019
6131 Smoke 16 1018 82 16093 4.1 150 00:43 20.06.2019
6132 Smoke 16 1018 82 16093 4.1 150 00:24 20.06.2019
6133 Smoke 18 1018 59 16093 2.6 180 23:42 19.06.2019
6134 Smoke 18 1018 59 16093 2.6 180 23:23 19.06.2019
6135 Smoke 17 1018 63 16093 2.6 210 22:48 19.06.2019
6136 Smoke 17 1018 63 16093 2.6 210 22:20 19.06.2019
6137 Smoke 17 1018 67 16093 2.6 200 21:55 19.06.2019
6138 Smoke 17 1018 67 16093 2.6 200 21:55 19.06.2019
6139 Smoke 17 1018 67 16093 2.6 200 21:36 19.06.2019
6140 Smoke 17 1018 67 16093 2.6 200 21:18 19.06.2019
6141 Smoke 16 1018 72 16093 2.6 210 20:39 19.06.2019
6142 Smoke 16 1018 72 16093 2.6 210 20:20 19.06.2019
6143 Smoke 18 1017 59 16093 2.47 123.832 19:42 19.06.2019
6144 Smoke 18 1017 59 16093 2.47 123.832 19:23 19.06.2019
6145 Clear 14 1017 71 16093 2.47 123.832 18:55 19.06.2019
6146 Clear 14 1017 71 16093 0.49 57.159 18:22 19.06.2019
6147 Smoke 12 1017 81 16093 0.49 57.159 17:42 19.06.2019
6148 Smoke 12 1017 81 16093 0.49 57.159 17:24 19.06.2019
6149 Smoke 11 1016 81 16093 0.49 57.159 16:43 19.06.2019
6150 Smoke 11 1016 81 16093 0.49 57.159 16:22 19.06.2019
6151 Smoke 10 1016 87 16093 0.49 57.159 15:58 19.06.2019
6152 Smoke 10 1016 87 16093 0.49 57.159 15:40 19.06.2019
6153 Smoke 10 1016 87 16093 0.64 91.071 15:19 19.06.2019
6154 Smoke 11 1016 81 16093 0.64 91.071 14:42 19.06.2019
6155 Smoke 11 1016 81 16093 0.64 91.071 14:22 19.06.2019
6156 Smoke 12 1015 76 16093 0.64 91.071 13:43 19.06.2019
6157 Smoke 12 1015 76 16093 0.58 52.038 13:25 19.06.2019
6158 Smoke 12 1015 76 16093 2.6 20 12:48 19.06.2019
6159 Smoke 12 1015 76 16093 2.6 20 12:22 19.06.2019
6160 Smoke 15 1014 82 16093 0.23 214.743 11:58 19.06.2019
6161 Smoke 15 1014 82 16093 0.23 214.743 11:38 19.06.2019
6162 Smoke 15 1014 82 16093 0.23 214.743 11:20 19.06.2019
6163 Smoke 17 1014 63 16093 1.5 220 10:45 19.06.2019
6164 Smoke 17 1014 63 16093 1.5 220 10:27 19.06.2019
6165 Smoke 18 1014 55 16093 1.5 300 09:50 19.06.2019
6166 Smoke 18 1014 55 16093 1.5 300 09:23 19.06.2019
6167 Smoke 18 1013 52 14484 2.6 250 08:58 19.06.2019
6168 Smoke 18 1013 52 14484 2.6 250 08:38 19.06.2019
6169 Smoke 18 1013 52 14484 2.6 250 08:19 19.06.2019
6170 Smoke 19 1013 48 16093 2.6 240 07:43 19.06.2019
6171 Smoke 19 1013 48 16093 2.6 240 07:21 19.06.2019
6172 Smoke 18 1012 52 16093 3.1 250 06:36 19.06.2019
6173 Smoke 18 1012 52 16093 3.1 240 05:58 19.06.2019
6174 Smoke 18 1012 52 16093 3.1 240 05:20 19.06.2019
6175 Smoke 16 1012 63 16093 3.6 210 03:51 19.06.2019
6176 Smoke 17 1011 59 16093 4.1 230 02:35 19.06.2019
6177 Smoke 16 1011 63 16093 4.1 210 01:37 19.06.2019
6178 Smoke 17 1010 59 16093 5.7 160 00:53 19.06.2019
6179 Smoke 17 1010 59 16093 5.7 160 00:35 19.06.2019
6180 Smoke 18 1009 52 16093 3.6 170 23:58 18.06.2019
6181 Smoke 18 1009 52 16093 3.6 170 23:31 18.06.2019
6182 Smoke 20 1009 42 16093 3.6 100 22:56 18.06.2019
6183 Smoke 20 1009 42 16093 3.6 100 22:37 18.06.2019
6184 Smoke 20 1009 42 16093 3.6 100 22:19 18.06.2019
6185 Smoke 18 1009 48 9656 4.1 70 21:44 18.06.2019
6186 Smoke 18 1009 48 9656 4.1 70 21:22 18.06.2019
6187 Clouds 17 1008 51 16093 4.1 60 20:58 18.06.2019
6188 Clouds 17 1008 51 16093 4.1 60 20:38 18.06.2019
6189 Clouds 17 1008 51 16093 4.1 60 20:18 18.06.2019
6190 Clear 17 1008 48 16093 7.2 30 19:39 18.06.2019
6191 Clear 17 1008 48 16093 7.2 30 19:21 18.06.2019
6192 Clear 16 1007 55 16093 3.6 350 18:49 18.06.2019
6193 Clear 16 1007 55 16093 3.6 350 18:25 18.06.2019
6194 Clear 13 1007 62 16093 3.6 340 17:46 18.06.2019
6195 Clear 13 1007 62 16093 3.6 340 17:22 18.06.2019
6196 Clear 12 1007 62 16093 6.7 350 16:57 18.06.2019
6197 Clear 12 1007 62 16093 6.7 350 16:39 18.06.2019
6198 Clear 12 1007 62 16093 6.7 350 16:20 18.06.2019
6199 Clear 12 1007 58 16093 5.7 350 15:39 18.06.2019
6200 Clear 12 1007 58 16093 5.7 350 15:20 18.06.2019
6201 Clouds 11 1006 62 16093 5.1 350 14:56 18.06.2019
6202 Clouds 11 1006 62 16093 5.1 350 14:37 18.06.2019
6203 Clouds 11 1006 62 16093 5.1 350 14:18 18.06.2019
6204 Clouds 12 1006 58 16093 5.7 340 13:43 18.06.2019
6205 Clouds 12 1006 58 16093 5.7 340 13:22 18.06.2019
6206 Clouds 13 1006 50 16093 5.1 330 12:45 18.06.2019
6207 Clouds 13 1006 50 16093 5.1 330 12:27 18.06.2019
6208 Clear 13 1006 54 16093 5.7 340 11:49 18.06.2019
6209 Clear 13 1006 54 16093 5.7 340 11:23 18.06.2019
6210 Clear 13 1006 54 16093 5.7 340 11:23 18.06.2019
6211 Clear 15 1006 47 16093 5.1 320 10:58 18.06.2019
6212 Clear 15 1006 47 16093 5.1 320 10:38 18.06.2019
6213 Clear 15 1006 47 16093 5.1 320 10:20 18.06.2019
6214 Clear 17 1006 42 16093 5.7 340 09:51 18.06.2019
6215 Clear 17 1006 42 16093 5.7 340 09:24 18.06.2019
6216 Clear 18 1006 39 16093 6.7 330 08:48 18.06.2019
6217 Clear 18 1006 39 16093 6.7 330 08:22 18.06.2019
6218 Clear 19 1005 42 16093 7.2 350 07:46 18.06.2019
6219 Clear 19 1005 42 16093 7.2 350 07:24 18.06.2019
6220 Clear 20 1005 34 16093 8.2 340 06:48 18.06.2019
6221 Clear 21 1005 30 16093 6.7 350 05:24 18.06.2019
6222 Clouds 22 1005 33 16093 8.7 350 03:59 18.06.2019
6223 Clear 22 1006 33 16093 7.2 350 02:45 18.06.2019
6224 Clear 22 1006 28 16093 7.2 330 01:26 18.06.2019
6225 Clear 22 1007 26 16093 4.6 360 00:57 18.06.2019
6226 Clear 22 1007 26 16093 4.6 360 00:30 18.06.2019
6227 Clear 22 1007 26 16093 5.7 350 23:42 17.06.2019
6228 Clear 22 1007 26 16093 5.7 350 23:23 17.06.2019
6229 Clear 22 1007 26 16093 5.1 360 22:58 17.06.2019
6230 Clear 22 1007 26 16093 5.1 360 22:38 17.06.2019
6231 Clear 22 1007 26 16093 5.1 360 22:20 17.06.2019
6232 Clear 21 1007 28 16093 6.7 350 21:45 17.06.2019
6233 Clear 21 1007 28 16093 6.7 350 21:23 17.06.2019
6234 Clear 18 1008 39 16093 3.1 280 20:41 17.06.2019
6235 Clear 18 1008 39 16093 3.1 280 20:23 17.06.2019
6236 Clear 14 1008 50 16093 3.6 280 19:57 17.06.2019
6237 Clear 14 1008 50 16093 3.6 280 19:39 17.06.2019
6238 Clear 12 1008 58 16093 4.1 310 19:20 17.06.2019
6239 Clear 12 1008 58 16093 4.1 310 18:39 17.06.2019
6240 Clear 9 1008 70 16093 2.78 349.451 18:18 17.06.2019
6241 Clear 9 1008 70 16093 2.78 349.451 18:18 17.06.2019
6242 Clear 9 1008 70 16093 2.78 349.451 17:48 17.06.2019
6243 Clear 9 1008 70 16093 2.78 349.451 17:30 17.06.2019
6244 Clear 8 1009 70 16093 2.78 349.451 17:00 17.06.2019
6245 Clear 8 1009 70 16093 2.78 349.451 16:41 17.06.2019
6246 Clear 8 1009 70 16093 2.78 349.451 16:23 17.06.2019
6247 Clear 9 1009 66 16093 3.6 320 15:44 17.06.2019
6248 Clear 10 1009 61 16093 4.1 330 15:20 17.06.2019
6249 Clear 10 1009 61 16093 4.1 330 14:58 17.06.2019
6250 Clear 10 1009 61 16093 4.1 330 14:40 17.06.2019
6251 Clear 13 1009 43 16093 5.7 340 14:21 17.06.2019
6252 Clear 13 1009 43 16093 5.7 340 13:42 17.06.2019
6253 Clear 13 1009 43 16093 5.7 340 13:21 17.06.2019
6254 Clear 14 1009 44 16093 5.1 360 12:47 17.06.2019
6255 Clear 14 1009 44 16093 5.1 360 12:24 17.06.2019
6256 Clear 14 1009 50 16093 5.7 360 11:45 17.06.2019
6257 Clear 14 1009 50 16093 5.7 360 11:26 17.06.2019
6258 Clear 17 1009 42 16093 5.7 360 10:56 17.06.2019
6259 Clear 17 1009 42 16093 5.7 360 10:38 17.06.2019
6260 Clear 19 1009 39 16093 5.1 360 10:20 17.06.2019
6261 Clear 19 1009 39 16093 5.1 360 09:39 17.06.2019
6262 Clear 21 1009 37 16093 7.2 360 09:20 17.06.2019
6263 Clear 21 1009 37 16093 7.2 360 08:41 17.06.2019
6264 Clear 21 1009 37 16093 7.2 360 08:22 17.06.2019
6265 Clouds 22 1009 35 16093 6.7 360 07:40 17.06.2019
6266 Clouds 22 1009 35 16093 6.7 360 07:20 17.06.2019
6267 Haze 23 1009 31 9656 3.6 340 06:30 17.06.2019
6268 Clouds 21 1009 40 16093 4.1 230 05:44 17.06.2019
6269 Clouds 21 1010 40 16093 5.7 250 04:34 17.06.2019
6270 Clouds 21 1010 40 16093 6.2 240 03:35 17.06.2019
6271 Clouds 20 1011 45 16093 5.7 260 02:58 17.06.2019
6272 Clouds 20 1011 45 16093 5.7 260 02:40 17.06.2019
6273 Clouds 19 1011 48 16093 4.6 260 01:43 17.06.2019
6274 Clouds 19 1011 48 16093 4.6 260 01:18 17.06.2019
6275 Clouds 17 1011 59 16093 4.1 230 00:41 17.06.2019
6276 Clouds 17 1011 59 16093 4.1 230 00:21 17.06.2019
6277 Clouds 17 1011 59 16093 5.1 250 23:41 16.06.2019
6278 Clouds 18 1011 52 16093 5.1 240 23:22 16.06.2019
6279 Clouds 18 1011 52 16093 5.1 240 22:55 16.06.2019
6280 Clouds 18 1011 52 16093 5.1 240 22:36 16.06.2019
6281 Clear 18 1011 48 16093 1.5 20 22:18 16.06.2019
6282 Clear 18 1011 48 16093 1.5 20 21:41 16.06.2019
6283 Clear 18 1011 48 16093 1.5 20 21:22 16.06.2019
6284 Clear 17 1012 51 16093 2.6 300 20:58 16.06.2019
6285 Clear 17 1012 51 16093 2.6 300 20:37 16.06.2019
6286 Clear 16 1012 55 16093 4.1 350 20:18 16.06.2019
6287 Clear 16 1012 55 16093 4.1 350 19:41 16.06.2019
6288 Clear 16 1012 55 16093 4.1 350 19:22 16.06.2019
6289 Clear 16 1012 55 16093 4.1 350 18:58 16.06.2019
6290 Clear 14 1011 67 16093 2.1 360 18:40 16.06.2019
6291 Clear 14 1011 67 16093 2.1 360 18:20 16.06.2019
6292 Clear 11 1011 76 16093 2.1 10 17:47 16.06.2019
6293 Clear 9 1011 87 16093 1.5 10 17:22 16.06.2019
6294 Clear 9 1011 87 16093 1.5 10 16:57 16.06.2019
6295 Clear 9 1011 87 16093 1.5 10 16:39 16.06.2019
6296 Clear 11 1011 76 16093 2.1 40 16:21 16.06.2019
6297 Clear 11 1011 76 16093 2.1 40 15:42 16.06.2019
6298 Clear 11 1011 76 16093 2.1 40 15:24 16.06.2019
6299 Clear 11 1011 76 16093 3.6 50 14:45 16.06.2019
6300 Clear 11 1011 76 16093 3.6 50 14:24 16.06.2019
6301 Clear 12 1011 71 16093 4.1 50 13:52 16.06.2019
6302 Clear 12 1011 71 16093 4.1 50 13:28 16.06.2019
6303 Clear 12 1011 71 16093 4.1 50 12:58 16.06.2019
6304 Clear 12 1010 76 16093 3.1 40 12:40 16.06.2019
6305 Clear 12 1010 76 16093 3.1 40 12:20 16.06.2019
6306 Clouds 13 1010 71 16093 3.6 40 11:46 16.06.2019
6307 Clouds 14 1009 67 16093 2.6 70 11:20 16.06.2019
6308 Clouds 14 1009 67 16093 2.6 70 10:54 16.06.2019
6309 Clouds 14 1009 67 16093 2.6 70 10:36 16.06.2019
6310 Clear 15 1009 62 16093 3.6 70 10:18 16.06.2019
6311 Clear 15 1009 62 16093 3.6 70 09:37 16.06.2019
6312 Clouds 16 1008 55 16093 4.1 100 09:19 16.06.2019
6313 Clouds 16 1008 55 16093 4.1 100 08:41 16.06.2019
6314 Clouds 17 1008 39 16093 5.7 70 08:19 16.06.2019
6315 Clouds 17 1008 39 16093 5.7 70 07:44 16.06.2019
6316 Clouds 17 1008 39 16093 5.7 70 06:59 16.06.2019
6317 Haze 18 1007 39 8047 8.2 100 06:39 16.06.2019
6318 Smoke 18 1007 42 16093 4.1 70 05:51 16.06.2019
6319 Clouds 16 1007 44 16093 3.6 130 04:55 16.06.2019
6320 Clouds 16 1007 48 16093 4.6 160 03:57 16.06.2019
6321 Clouds 16 1007 48 16093 4.6 160 03:32 16.06.2019
6322 Clouds 16 1007 51 16093 5.7 160 02:33 16.06.2019
6323 Clouds 16 1007 51 16093 4.6 160 01:47 16.06.2019
6324 Clouds 16 1007 51 16093 4.6 160 01:27 16.06.2019
6325 Clouds 18 1007 36 16093 5.7 40 00:41 16.06.2019
6326 Clouds 18 1007 36 16093 5.7 40 00:22 16.06.2019
6327 Clear 18 1007 34 16093 6.7 40 23:46 15.06.2019
6328 Clear 18 1007 34 16093 6.7 40 23:25 15.06.2019
6329 Clear 16 1008 36 16093 6.7 40 22:50 15.06.2019
6330 Clear 16 1008 36 16093 6.7 40 22:28 15.06.2019
6331 Clear 16 1008 36 16093 4.6 80 21:58 15.06.2019
6332 Clear 16 1008 36 16093 4.6 80 21:40 15.06.2019
6333 Clear 15 1008 44 16093 3.1 0 21:20 15.06.2019
6334 Clear 15 1008 44 16093 3.1 0 20:43 15.06.2019
6335 Clear 15 1008 44 16093 3.1 0 20:22 15.06.2019
6336 Clear 13 1008 54 16093 5.1 70 19:46 15.06.2019
6337 Clear 13 1008 54 16093 5.1 70 19:24 15.06.2019
6338 Clear 13 1008 54 16093 8.7 40 18:42 15.06.2019
6339 Clear 13 1008 54 16093 8.7 40 18:23 15.06.2019
6340 Clear 12 1007 62 16093 2.1 360 17:44 15.06.2019
6341 Clear 12 1007 62 16093 2.1 360 17:25 15.06.2019
6342 Clear 12 1008 58 16093 2.6 50 16:49 15.06.2019
6343 Clear 11 1008 57 16093 3.6 350 16:20 15.06.2019
6344 Clear 11 1008 57 16093 3.6 350 15:45 15.06.2019
6345 Clear 11 1008 57 16093 3.6 350 15:24 15.06.2019
6346 Clear 12 1008 54 16093 3.1 350 14:54 15.06.2019
6347 Clear 12 1008 54 16093 3.1 350 14:36 15.06.2019
6348 Clouds 14 1008 47 16093 3.1 360 14:18 15.06.2019
6349 Clouds 14 1008 47 16093 3.1 360 13:42 15.06.2019
6350 Clouds 14 1008 47 16093 3.1 360 13:19 15.06.2019
6351 Clouds 16 1009 41 16093 4.6 330 12:52 15.06.2019
6352 Clouds 16 1009 41 16093 4.6 330 12:27 15.06.2019
6353 Clouds 16 1009 41 16093 4.6 330 12:27 15.06.2019
6354 Clouds 16 1009 41 16093 4.6 330 11:54 15.06.2019
6355 Clouds 16 1009 48 16093 3.1 300 11:35 15.06.2019
6356 Clouds 18 1009 39 16093 4.1 340 10:55 15.06.2019
6357 Clouds 18 1009 39 16093 4.1 340 10:37 15.06.2019
6358 Clouds 19 1009 34 16093 3.1 350 10:19 15.06.2019
6359 Clouds 19 1009 34 16093 3.1 350 09:43 15.06.2019
6360 Clouds 19 1009 34 16093 3.1 350 09:23 15.06.2019
6361 Clouds 20 1010 32 16093 5.7 20 08:50 15.06.2019
6362 Clouds 20 1010 32 16093 5.7 20 08:31 15.06.2019
6363 Clouds 21 1010 32 16093 7.2 40 07:50 15.06.2019
6364 Clouds 21 1010 32 16093 7.2 40 07:22 15.06.2019
6365 Clear 23 1010 27 16093 5.7 350 06:39 15.06.2019
6366 Clear 23 1010 27 16093 5.7 350 06:39 15.06.2019
6367 -273 0 0 0 0 0 06:00 15.06.2019
6368 Clear 24 1010 25 16093 5.7 10 05:24 15.06.2019
6369 Clear 25 1011 22 16093 6.7 360 04:42 15.06.2019
6370 Clear 25 1011 22 16093 6.7 360 04:42 15.06.2019
6371 Clear 24 1011 23 16093 3.6 340 03:42 15.06.2019
6372 Clear 24 1011 23 16093 7.7 350 02:55 15.06.2019
6373 Clear 22 1012 26 16093 7.2 260 02:21 15.06.2019
6374 Clear 22 1012 26 16093 7.2 260 01:43 15.06.2019
6375 Clouds 21 1012 30 16093 5.7 250 00:48 15.06.2019
6376 Clouds 21 1012 30 16093 5.7 250 00:29 15.06.2019
6377 Clouds 21 1012 30 16093 5.7 250 23:54 14.06.2019
6378 Clear 21 1013 28 16093 4.1 240 23:25 14.06.2019
6379 Clear 22 1013 36 16093 1.5 0 22:43 14.06.2019
6380 Clear 22 1013 36 16093 1.5 0 22:23 14.06.2019
6381 Clear 22 1013 24 12874 4.1 40 21:59 14.06.2019
6382 Clear 22 1013 24 12874 4.1 40 21:40 14.06.2019
6383 Clear 21 1013 44 16093 3.6 20 21:21 14.06.2019
6384 Clear 21 1013 44 16093 3.6 20 20:42 14.06.2019
6385 Clear 17 1013 42 16093 0.6 207.076 20:18 14.06.2019
6386 Clear 17 1013 42 16093 0.6 207.076 19:53 14.06.2019
6387 Clear 17 1013 42 16093 0.6 207.076 19:23 14.06.2019
6388 Clear 17 1013 42 16093 0.6 207.076 18:58 14.06.2019
6389 Clear 14 1013 54 16093 1.5 230 18:40 14.06.2019
6390 Clear 14 1013 54 16093 1.5 230 18:22 14.06.2019
6391 Clear 13 1013 62 16093 1.5 200 17:48 14.06.2019
6392 Clear 13 1013 62 16093 1.5 200 17:30 14.06.2019
6393 Clear 13 1013 50 16093 1.5 350 16:58 14.06.2019
6394 Clear 13 1013 50 16093 1.5 350 16:40 14.06.2019
6395 Clear 13 1013 50 16093 1.5 350 16:40 14.06.2019
6396 Clear 13 1013 50 16093 4.1 340 16:19 14.06.2019
6397 Clear 13 1013 50 16093 4.1 340 16:19 14.06.2019
6398 Clear 13 1013 50 16093 4.1 340 15:40 14.06.2019
6399 Clear 14 1013 50 16093 4.6 360 15:22 14.06.2019
6400 Clear 14 1013 50 16093 4.6 360 14:55 14.06.2019
6401 Clear 14 1013 50 16093 4.6 360 14:35 14.06.2019
6402 Clear 14 1013 50 16093 4.6 360 14:35 14.06.2019
6403 Clear 14 1013 58 16093 4.1 350 13:57 14.06.2019
6404 Clear 14 1013 58 16093 4.1 350 13:38 14.06.2019
6405 Clear 14 1013 58 16093 4.1 350 13:19 14.06.2019
6406 Clear 14 1013 58 16093 4.1 350 13:19 14.06.2019
6407 Clear 13 1013 62 16093 3.6 350 12:42 14.06.2019
6408 Clear 13 1013 62 16093 3.6 350 12:42 14.06.2019
6409 Clear 13 1013 62 16093 3.6 350 12:23 14.06.2019
6410 Clear 16 1013 55 16093 3.6 10 11:47 14.06.2019
6411 Clear 17 1012 51 16093 4.6 350 11:24 14.06.2019
6412 Clear 17 1012 51 16093 4.6 350 10:59 14.06.2019
6413 Clear 17 1012 51 16093 4.6 350 10:40 14.06.2019
6414 Clear 19 1012 42 16093 4.6 300 10:18 14.06.2019
6415 Clear 19 1012 42 16093 4.6 300 09:40 14.06.2019
6416 Clear 22 1012 35 16093 5.1 300 09:21 14.06.2019
6417 Clear 22 1012 35 16093 5.1 300 09:21 14.06.2019
6418 Clear 22 1012 35 16093 5.1 300 08:45 14.06.2019
6419 Clear 22 1012 33 16093 5.1 310 08:19 14.06.2019
6420 Clear 22 1012 33 16093 5.1 310 07:48 14.06.2019
6421 Clear 22 1012 33 16093 5.1 310 07:20 14.06.2019
6422 Clear 18 1013 48 16093 5.7 260 06:33 14.06.2019
6423 Clear 18 1013 48 16093 5.7 260 05:56 14.06.2019
6424 Clear 17 1014 45 16093 5.1 250 05:19 14.06.2019
6425 Clear 17 1014 45 16093 5.1 250 04:39 14.06.2019
6426 Clear 17 1014 48 16093 4.1 260 03:52 14.06.2019
6427 Clear 17 1014 48 16093 4.1 260 03:25 14.06.2019
6428 Clear 18 1014 45 16093 4.1 240 02:49 14.06.2019
6429 Clear 18 1014 45 16093 4.1 240 02:27 14.06.2019
6430 Clear 17 1014 48 16093 4.1 240 00:58 14.06.2019
6431 Clear 18 1014 45 16093 4.1 240 00:23 14.06.2019
6432 Clear 18 1014 45 16093 4.1 240 23:59 13.06.2019
6433 Clear 17 1014 48 16093 3.6 230 23:41 13.06.2019
6434 Clear 16 1014 51 16093 3.1 210 23:21 13.06.2019
6435 Clear 16 1014 51 16093 3.1 210 22:40 13.06.2019
6436 Clear 15 1014 58 16093 2.1 210 22:21 13.06.2019
6437 Clear 15 1014 58 16093 2.1 210 21:40 13.06.2019
6438 Clear 13 1014 66 16093 2.1 220 21:20 13.06.2019
6439 Clear 13 1014 66 16093 2.1 220 20:57 13.06.2019
6440 Clear 13 1014 66 16093 2.1 220 20:57 13.06.2019
6441 Clear 13 1014 66 16093 2.1 220 20:38 13.06.2019
6442 Clear 13 1014 66 16093 0.25 303.753 20:19 13.06.2019
6443 Clear 13 1014 66 16093 0.25 303.753 19:41 13.06.2019
6444 Clear 13 1014 66 16093 0.25 303.753 19:22 13.06.2019
6445 Clear 13 1014 66 16093 0.25 303.753 18:57 13.06.2019
6446 Clear 12 1013 71 16093 1.5 180 18:39 13.06.2019
6447 Clear 12 1013 71 16093 1.5 180 18:21 13.06.2019
6448 Clear 11 1013 76 16093 2.57 359.018 17:42 13.06.2019
6449 Clear 8 1013 87 16093 2.57 359.018 17:20 13.06.2019
6450 Clear 8 1013 87 16093 2.57 359.018 16:50 13.06.2019
6451 Clear 8 1013 87 16093 2.57 359.018 16:22 13.06.2019
6452 Clear 9 1013 81 16093 2.57 359.018 15:59 13.06.2019
6453 Clear 9 1013 81 16093 2.57 359.018 15:39 13.06.2019
6454 Clear 9 1013 81 16093 1.5 350 15:19 13.06.2019
6455 Clear 9 1013 81 16093 1.5 350 14:47 13.06.2019
6456 Clear 9 1013 81 16093 1.5 350 14:27 13.06.2019
6457 Clear 11 1013 71 16093 3.87 345.066 13:47 13.06.2019
6458 Clear 11 1013 71 16093 3.87 345.066 13:22 13.06.2019
6459 Clear 11 1013 71 16093 3.87 345.066 12:58 13.06.2019
6460 Clear 12 1013 66 16093 2.6 270 12:38 13.06.2019
6461 Clear 12 1013 66 16093 2.6 270 12:20 13.06.2019
6462 Clear 12 1012 66 16093 3.6 280 11:43 13.06.2019
6463 Clear 12 1012 66 16093 3.6 280 11:25 13.06.2019
6464 Clear 12 1012 66 16093 3.6 280 11:25 13.06.2019
6465 Clear 14 1012 62 16093 4.6 290 10:47 13.06.2019
6466 Clear 14 1012 62 16093 4.6 290 10:28 13.06.2019
6467 Clear 17 1012 48 16093 6.2 290 09:52 13.06.2019
6468 Clear 17 1012 48 16093 6.2 290 09:29 13.06.2019
6469 Clear 18 1012 42 16093 6.7 270 08:56 13.06.2019
6470 Clear 18 1012 42 16093 6.7 270 08:56 13.06.2019
6471 Clear 18 1012 42 16093 6.7 270 08:38 13.06.2019
6472 Clear 16 1012 55 16093 5.7 260 08:19 13.06.2019
6473 Clear 16 1012 55 16093 5.7 260 07:37 13.06.2019
6474 Clear 16 1012 55 16093 5.7 260 07:18 13.06.2019
6475 Clear 14 1012 62 16093 8.2 250 06:38 13.06.2019
6476 Clear 15 1012 58 16093 7.7 250 06:20 13.06.2019
6477 Clear 15 1012 58 16093 7.7 250 05:39 13.06.2019
6478 Clear 16 1013 55 16093 8.2 250 05:19 13.06.2019
6479 Clear 14 1013 62 16093 6.7 230 03:49 13.06.2019
6480 Clouds 14 1014 58 16093 5.7 230 01:59 13.06.2019
6481 Clouds 14 1014 58 16093 4.6 230 00:32 13.06.2019
6482 Clouds 14 1014 58 16093 4.6 230 00:32 13.06.2019
6483 Clouds 14 1014 58 16093 4.1 240 23:38 12.06.2019
6484 Clouds 14 1014 58 16093 4.1 240 23:38 12.06.2019
6485 Clouds 14 1014 58 16093 4.6 230 23:19 12.06.2019
6486 Clouds 14 1014 58 16093 4.6 230 22:41 12.06.2019
6487 Clouds 13 1014 66 16093 3.1 220 22:21 12.06.2019
6488 Clouds 13 1014 66 16093 3.1 220 21:46 12.06.2019
6489 Clouds 13 1014 66 16093 3.1 220 21:28 12.06.2019
6490 Clouds 13 1014 62 16093 1.5 180 20:49 12.06.2019
6491 Clouds 13 1014 62 16093 1.5 180 20:30 12.06.2019
6492 Clouds 12 1014 66 16093 0.92 8.58 19:58 12.06.2019
6493 Clouds 12 1014 66 16093 0.92 8.58 19:39 12.06.2019
6494 Clouds 9 1014 70 16093 0.92 8.58 19:21 12.06.2019
6495 Clouds 9 1014 70 16093 0.92 8.58 18:48 12.06.2019
6496 Clouds 9 1014 70 16093 0.92 8.58 18:28 12.06.2019
6497 Clear 9 1014 70 16093 3.6 320 17:48 12.06.2019
6498 Clear 9 1014 70 16093 3.6 320 17:23 12.06.2019
6499 Clear 9 1014 70 16093 3.27 14.045 16:57 12.06.2019
6500 Clear 9 1014 70 16093 3.27 14.045 16:37 12.06.2019
6501 Clouds 10 1014 71 16093 3.27 14.045 16:19 12.06.2019
6502 Clouds 10 1014 71 16093 3.27 14.045 15:46 12.06.2019
6503 Clouds 10 1014 71 16093 4.26 13.341 15:25 12.06.2019
6504 Clouds 11 1014 62 16093 4.26 13.341 14:36 12.06.2019
6505 Clear 11 1014 57 16093 3.6 10 14:18 12.06.2019
6506 Clear 11 1014 57 16093 3.6 10 13:41 12.06.2019
6507 Clear 13 1014 50 16093 4.6 30 13:20 12.06.2019
6508 Clear 13 1014 50 16093 4.6 30 13:20 12.06.2019
6509 Clear 13 1014 50 16093 4.6 30 12:56 12.06.2019
6510 Clear 13 1014 50 16093 4.6 30 12:37 12.06.2019
6511 -273 0 0 0 0 0 12:19 12.06.2019
6512 Clear 13 1014 50 16093 4.6 30 12:19 12.06.2019
6513 Clear 11 1014 71 16093 4.6 360 11:44 12.06.2019
6514 Clear 11 1014 71 16093 4.6 360 11:26 12.06.2019
6515 Clear 12 1013 76 16093 3.1 360 10:50 12.06.2019
6516 Clouds 14 1013 67 16093 1.5 350 10:23 12.06.2019
6517 Clouds 14 1013 67 16093 1.5 350 09:45 12.06.2019
6518 Clouds 14 1013 67 16093 1.5 350 09:23 12.06.2019
6519 Clouds 14 1013 67 16093 1.5 350 09:23 12.06.2019
6520 Clouds 14 1013 67 16093 3.1 140 08:47 12.06.2019
6521 Clouds 12 1013 76 16093 5.86 359.297 08:20 12.06.2019
6522 Clouds 12 1013 76 16093 5.86 359.297 07:39 12.06.2019
6523 Clouds 12 1013 81 16093 5.86 359.297 06:53 12.06.2019
6524 Rain 12 1013 81 16093 2.6 140 05:27 12.06.2019
6525 Clear 12 1013 76 16093 3.1 160 04:29 12.06.2019
6526 Clouds 13 1014 71 16093 3.6 200 01:27 12.06.2019
6527 Clouds 13 1014 71 16093 4.6 200 00:38 12.06.2019
6528 Clouds 12 1014 71 16093 3.6 200 23:47 11.06.2019
6529 Clouds 12 1014 71 16093 3.6 200 23:29 11.06.2019
6530 Clouds 12 1015 71 16093 2.6 210 22:44 11.06.2019
6531 Clouds 12 1015 71 16093 2.6 210 22:19 11.06.2019
6532 Clouds 12 1015 71 16093 2.6 210 21:57 11.06.2019
6533 Clouds 11 1015 81 16093 2.6 190 21:38 11.06.2019
6534 Clouds 12 1015 76 16093 2.6 220 21:20 11.06.2019
6535 Clouds 12 1015 76 16093 2.6 220 20:48 11.06.2019
6536 Clouds 12 1015 76 16093 2.6 220 20:26 11.06.2019
6537 Clouds 12 1015 76 16093 2.6 220 20:26 11.06.2019
6538 Clouds 12 1015 76 16093 2.6 220 19:55 11.06.2019
6539 Clouds 11 1015 81 16093 1.5 230 19:33 11.06.2019
6540 Clouds 11 1015 81 16093 1.5 230 18:58 11.06.2019
6541 Clouds 11 1015 76 16093 1.5 310 18:23 11.06.2019
6542 Clouds 9 1015 87 16093 3 14.342 17:54 11.06.2019
6543 Clouds 9 1015 87 16093 3 14.342 17:36 11.06.2019
6544 Clouds 9 1015 87 16093 3 14.342 17:18 11.06.2019
6545 Clear 7 1015 100 16093 3 14.342 16:41 11.06.2019
6546 Clear 9 1015 87 16093 3 14.342 16:23 11.06.2019
6547 Clear 9 1015 87 16093 3 14.342 15:43 11.06.2019
6548 Clear 9 1015 87 16093 3.38 343.325 15:24 11.06.2019
6549 Clear 9 1015 93 16093 1.5 320 14:54 11.06.2019
6550 Clear 9 1015 93 16093 1.5 320 14:23 11.06.2019
6551 Clear 11 1016 81 16093 3.38 343.325 13:57 11.06.2019
6552 Clear 11 1016 81 16093 3.38 343.325 13:37 11.06.2019
6553 Clear 11 1016 81 16093 3.32 338.908 13:18 11.06.2019
6554 Clear 11 1016 81 16093 3.32 338.908 12:40 11.06.2019
6555 Clear 11 1016 81 16093 3.82 309.471 12:21 11.06.2019
6556 Clear 12 1016 76 16093 1.5 170 11:41 11.06.2019
6557 Clear 12 1016 76 16093 2.6 110 11:21 11.06.2019
6558 Clear 12 1016 76 16093 2.6 110 10:50 11.06.2019
6559 Clear 12 1016 76 16093 2.6 110 10:26 11.06.2019
6560 Clouds 14 1016 67 16093 3.6 250 09:50 11.06.2019
6561 Clouds 14 1016 67 16093 3.6 250 09:25 11.06.2019
6562 Clear 14 1016 67 16093 4.1 260 08:49 11.06.2019
6563 Clear 14 1016 67 16093 4.1 260 08:30 11.06.2019
6564 Clear 11 1016 76 16093 2.6 240 07:55 11.06.2019
6565 Clear 11 1016 76 16093 2.6 240 07:31 11.06.2019
6566 Clear 9 1017 87 16093 3.6 210 06:51 11.06.2019
6567 Clouds 8 1018 93 16093 4.1 200 05:00 11.06.2019
6568 Mist 8 1019 93 11265 3.6 200 03:47 11.06.2019
6569 Mist 6 1020 100 4828 2.6 200 01:43 11.06.2019
6570 Mist 6 1020 100 4828 3.1 180 00:49 11.06.2019
6571 Mist 6 1020 100 3219 3.1 190 00:23 11.06.2019
6572 Mist 6 1020 100 4828 3.1 160 23:41 10.06.2019
6573 Mist 6 1020 100 3219 2.6 160 22:59 10.06.2019
6574 Mist 6 1020 100 4023 2.6 160 22:41 10.06.2019
6575 Mist 6 1020 100 4023 2.6 160 22:23 10.06.2019
6576 Mist 6 1020 100 1207 3.1 150 21:41 10.06.2019
6577 Mist 6 1020 100 1207 3.1 150 21:23 10.06.2019
6578 Mist 6 1020 100 3219 3.6 150 20:57 10.06.2019
6579 Fog 6 1020 100 1609 3.6 140 20:38 10.06.2019
6580 Clear 9 1020 87 16093 4.1 130 20:19 10.06.2019
6581 Clear 9 1020 87 16093 4.1 130 19:43 10.06.2019
6582 Clear 9 1020 87 16093 4.1 130 19:22 10.06.2019
6583 Clear 9 1020 87 16093 4.1 130 18:56 10.06.2019
6584 Clear 9 1020 81 16093 1.5 110 18:38 10.06.2019
6585 Clear 9 1020 81 16093 1.5 110 18:19 10.06.2019
6586 Clear 7 1020 93 16093 1.35 58.992 17:41 10.06.2019
6587 Clear 7 1020 93 16093 1.35 58.992 17:22 10.06.2019
6588 Clear 7 1020 93 16093 1.35 58.992 16:46 10.06.2019
6589 Clear 7 1020 93 16093 1.35 58.992 16:28 10.06.2019
6590 Clear 8 1020 87 16093 1.35 58.992 15:56 10.06.2019
6591 Clear 8 1020 87 16093 1.35 58.992 15:37 10.06.2019
6592 Clear 9 1020 81 16093 2.16 47.546 15:19 10.06.2019
6593 Clear 9 1020 81 16093 2.16 47.546 14:40 10.06.2019
6594 Clear 11 1020 76 16093 2.16 47.546 14:21 10.06.2019
6595 Clear 11 1020 76 16093 2.16 47.546 13:45 10.06.2019
6596 Clear 11 1020 76 16093 2.16 47.546 13:23 10.06.2019
6597 Clear 12 1020 66 16093 3.1 330 12:45 10.06.2019
6598 Clear 12 1020 66 16093 3.1 330 12:27 10.06.2019
6599 Clear 11 1019 76 16093 1.5 310 11:49 10.06.2019
6600 Clear 11 1019 76 16093 1.5 310 11:30 10.06.2019
6601 Clear 12 1019 71 16093 3.1 270 10:58 10.06.2019
6602 Clear 12 1019 71 16093 3.1 270 10:38 10.06.2019
6603 Clear 14 1019 62 16093 4.6 280 10:18 10.06.2019
6604 Clear 14 1019 62 16093 4.6 280 09:47 10.06.2019
6605 Clear 14 1019 62 16093 4.6 280 09:28 10.06.2019
6606 Clear 14 1019 58 16093 6.2 260 08:46 10.06.2019
6607 Clear 14 1019 58 16093 6.2 260 08:26 10.06.2019
6608 Clear 17 1019 45 16093 6.7 260 07:27 10.06.2019
6609 Clear 15 1020 51 16093 7.2 260 04:42 10.06.2019
6610 Clear 11 1021 71 16093 4.6 240 02:19 10.06.2019
6611 Clear 11 1021 71 16093 4.6 240 01:32 10.06.2019
6612 Clear 11 1021 71 16093 4.6 240 00:59 10.06.2019
6613 Clear 13 1021 62 16093 4.6 250 00:31 10.06.2019
6614 Clear 14 1021 54 16093 5.1 250 23:45 09.06.2019
6615 Clear 16 1021 51 16093 4.1 240 23:21 09.06.2019
6616 Clear 16 1021 51 16093 4.1 240 22:45 09.06.2019
6617 Clear 16 1021 51 16093 4.1 240 22:26 09.06.2019
6618 Clear 17 1021 45 16093 1.5 50 21:47 09.06.2019
6619 Clear 17 1021 45 16093 1.5 50 21:28 09.06.2019
6620 Clear 16 1020 51 16093 2.1 0 20:58 09.06.2019
6621 Clear 16 1020 51 16093 2.1 0 20:40 09.06.2019
6622 Clear 13 1020 66 16093 0.98 102.841 20:21 09.06.2019
6623 Clear 13 1020 66 16093 0.98 102.841 19:42 09.06.2019
6624 Clear 13 1020 66 16093 1.36 54.267 19:18 09.06.2019
6625 Clear 11 1020 71 16093 1.36 54.267 18:43 09.06.2019
6626 Clear 11 1020 71 16093 3.54 30.01 18:25 09.06.2019
6627 Clear 11 1020 71 16093 3.54 30.01 17:53 09.06.2019
6628 Clear 9 1020 81 16093 3.54 30.01 17:30 09.06.2019
6629 Clear 8 1020 81 16093 5.1 340 16:58 09.06.2019
6630 Clear 8 1020 81 16093 5.1 340 16:39 09.06.2019
6631 Clear 8 1020 75 16093 5.1 340 16:20 09.06.2019
6632 Clear 8 1020 75 16093 5.1 340 15:50 09.06.2019
6633 Clear 8 1020 75 16093 5.1 340 15:29 09.06.2019
6634 Clouds 10 1020 71 16093 4.6 360 14:54 09.06.2019
6635 Clouds 10 1020 71 16093 4.6 360 14:34 09.06.2019
6636 Clouds 10 1020 76 16093 4.6 350 13:57 09.06.2019
6637 Clouds 10 1020 76 16093 4.6 350 13:39 09.06.2019
6638 Clouds 10 1020 76 16093 4.6 350 12:56 09.06.2019
6639 Clear 9 1020 81 16093 4.6 350 12:34 09.06.2019
6640 Clear 9 1020 81 16093 4.6 350 12:34 09.06.2019
6641 Clear 11 1020 71 16093 3.1 350 11:51 09.06.2019
6642 Clear 11 1020 71 16093 3.1 350 11:30 09.06.2019
6643 -273 0 0 0 0 0 10:59 09.06.2019
6644 -273 0 0 0 0 0 10:59 09.06.2019
6645 Clear 13 1019 62 16093 3.1 350 10:40 09.06.2019
6646 Clear 15 1019 54 16093 5.7 360 10:20 09.06.2019
6647 Clear 15 1019 54 16093 5.7 360 09:38 09.06.2019
6648 Clear 17 1019 48 16093 6.2 350 09:20 09.06.2019
6649 Clear 17 1019 48 16093 6.2 350 08:45 09.06.2019
6650 Clear 12 1019 66 16093 3.6 280 07:53 09.06.2019
6651 Clear 11 1019 71 16093 4.6 270 06:45 09.06.2019
6652 Clear 9 1019 76 16093 2.1 280 06:20 09.06.2019
6653 Clear 6 1020 87 16093 4.1 220 02:59 09.06.2019
6654 Clear 5 1020 86 16093 3.1 220 01:37 09.06.2019
6655 Clear 5 1020 86 16093 3.1 220 01:37 09.06.2019
6656 Clear 5 1020 86 16093 3.1 220 01:19 09.06.2019
6657 Clouds 4 1020 93 16093 2.6 190 00:31 09.06.2019
6658 Clouds 4 1020 93 16093 3.1 150 23:41 08.06.2019
6659 Clouds 4 1020 93 16093 3.1 150 23:23 08.06.2019
6660 Mist 4 1020 100 4828 3.6 160 22:55 08.06.2019
6661 Mist 4 1020 100 4828 3.6 160 22:36 08.06.2019
6662 Mist 4 1020 93 8047 3.6 160 22:18 08.06.2019
6663 Clouds 5 1020 86 16093 3.6 150 21:41 08.06.2019
6664 Clouds 5 1020 86 16093 3.6 150 21:23 08.06.2019
6665 Clouds 5 1020 93 16093 1.5 170 20:45 08.06.2019
6666 Clouds 5 1020 93 16093 1.5 170 20:25 08.06.2019
6667 Clouds 3 1020 93 16093 1.5 160 19:58 08.06.2019
6668 Clouds 3 1020 93 16093 1.5 160 19:38 08.06.2019
6669 Clouds 3 1020 93 16093 1.5 160 19:19 08.06.2019
6670 Clear 3 1020 93 16093 1.61 140.354 18:41 08.06.2019
6671 Clear 3 1020 93 16093 0.24 115.278 18:23 08.06